<?xml version="1.0" encoding="UTF-8" standalone="no" ?>
<gpx xmlns="http://www.topografix.com/GPX/1/1" xmlns:xsi="http://www.w3.org/2001/XMLSchema-instance" xsi:schemaLocation="http://www.topografix.com/GPX/1/1 http://www.topografix.com/GPX/1/1/gpx.xsd" version="1.1" creator="VisuGPX - https://www.visugpx.com">
  <metadata>
    <name>Pont de la Pîle,St Christophe,La Tour du Meix....</name>
  </metadata>
  <trk>
    <name><![CDATA[Pont de la Pîle,St Christophe,La Tour du Meix...._1]]></name>
    <extensions>
      <line xmlns="http://www.topografix.com/GPX/gpx_style/0/2">
        <color>0000FF</color>
        <width>4</width>
      </line>
    </extensions>
    <trkseg>
      <trkpt lat="46.5209" lon="5.67106">
        <ele>455.6</ele>
        <time>2021-09-30T07:18:44Z</time>
      </trkpt>
      <trkpt lat="46.52095" lon="5.67103">
        <ele>454.6</ele>
        <time>2021-09-30T07:19:05Z</time>
      </trkpt>
      <trkpt lat="46.521" lon="5.67104">
        <ele>454.2</ele>
        <time>2021-09-30T07:19:09Z</time>
      </trkpt>
      <trkpt lat="46.52105" lon="5.67102">
        <ele>450.7</ele>
        <time>2021-09-30T07:20:35Z</time>
      </trkpt>
      <trkpt lat="46.52109" lon="5.67101">
        <ele>448.9</ele>
        <time>2021-09-30T07:20:41Z</time>
      </trkpt>
      <trkpt lat="46.52114" lon="5.67101">
        <ele>447.8</ele>
        <time>2021-09-30T07:20:46Z</time>
      </trkpt>
      <trkpt lat="46.52118" lon="5.67107">
        <ele>447.1</ele>
        <time>2021-09-30T07:20:50Z</time>
      </trkpt>
      <trkpt lat="46.52122" lon="5.6711">
        <ele>446.1</ele>
        <time>2021-09-30T07:20:54Z</time>
      </trkpt>
      <trkpt lat="46.52126" lon="5.67113">
        <ele>444.4</ele>
        <time>2021-09-30T07:20:59Z</time>
      </trkpt>
      <trkpt lat="46.52131" lon="5.67115">
        <ele>443.1</ele>
        <time>2021-09-30T07:21:04Z</time>
      </trkpt>
      <trkpt lat="46.52136" lon="5.67116">
        <ele>441.9</ele>
        <time>2021-09-30T07:21:09Z</time>
      </trkpt>
      <trkpt lat="46.52141" lon="5.67117">
        <ele>440.6</ele>
        <time>2021-09-30T07:21:13Z</time>
      </trkpt>
      <trkpt lat="46.52146" lon="5.67119">
        <ele>438.8</ele>
        <time>2021-09-30T07:21:18Z</time>
      </trkpt>
      <trkpt lat="46.52151" lon="5.6712">
        <ele>437.1</ele>
        <time>2021-09-30T07:21:23Z</time>
      </trkpt>
      <trkpt lat="46.52156" lon="5.67122">
        <ele>436.1</ele>
        <time>2021-09-30T07:21:27Z</time>
      </trkpt>
      <trkpt lat="46.5216" lon="5.67126">
        <ele>434.9</ele>
        <time>2021-09-30T07:21:32Z</time>
      </trkpt>
      <trkpt lat="46.52165" lon="5.67128">
        <ele>433.5</ele>
        <time>2021-09-30T07:21:37Z</time>
      </trkpt>
      <trkpt lat="46.5217" lon="5.67131">
        <ele>432</ele>
        <time>2021-09-30T07:21:42Z</time>
      </trkpt>
      <trkpt lat="46.52175" lon="5.67132">
        <ele>431.1</ele>
        <time>2021-09-30T07:21:46Z</time>
      </trkpt>
      <trkpt lat="46.5218" lon="5.67134">
        <ele>431.3</ele>
        <time>2021-09-30T07:21:50Z</time>
      </trkpt>
      <trkpt lat="46.52185" lon="5.67137">
        <ele>432.5</ele>
        <time>2021-09-30T07:21:55Z</time>
      </trkpt>
      <trkpt lat="46.52189" lon="5.67141">
        <ele>433.3</ele>
        <time>2021-09-30T07:21:59Z</time>
      </trkpt>
      <trkpt lat="46.52194" lon="5.67143">
        <ele>434.8</ele>
        <time>2021-09-30T07:22:04Z</time>
      </trkpt>
      <trkpt lat="46.52199" lon="5.67143">
        <ele>435.4</ele>
        <time>2021-09-30T07:22:08Z</time>
      </trkpt>
      <trkpt lat="46.52203" lon="5.67145">
        <ele>436</ele>
        <time>2021-09-30T07:22:12Z</time>
      </trkpt>
      <trkpt lat="46.52208" lon="5.67149">
        <ele>437</ele>
        <time>2021-09-30T07:22:17Z</time>
      </trkpt>
      <trkpt lat="46.52213" lon="5.67152">
        <ele>438.7</ele>
        <time>2021-09-30T07:22:23Z</time>
      </trkpt>
      <trkpt lat="46.52217" lon="5.67153">
        <ele>439.6</ele>
        <time>2021-09-30T07:22:28Z</time>
      </trkpt>
      <trkpt lat="46.52223" lon="5.67155">
        <ele>440.5</ele>
        <time>2021-09-30T07:22:33Z</time>
      </trkpt>
      <trkpt lat="46.52227" lon="5.67157">
        <ele>441.2</ele>
        <time>2021-09-30T07:22:38Z</time>
      </trkpt>
      <trkpt lat="46.52232" lon="5.6716">
        <ele>441.6</ele>
        <time>2021-09-30T07:22:42Z</time>
      </trkpt>
      <trkpt lat="46.52237" lon="5.67163">
        <ele>442.2</ele>
        <time>2021-09-30T07:22:47Z</time>
      </trkpt>
      <trkpt lat="46.52242" lon="5.67166">
        <ele>442.9</ele>
        <time>2021-09-30T07:22:52Z</time>
      </trkpt>
      <trkpt lat="46.52246" lon="5.67171">
        <ele>443.6</ele>
        <time>2021-09-30T07:22:56Z</time>
      </trkpt>
      <trkpt lat="46.5225" lon="5.67175">
        <ele>444.9</ele>
        <time>2021-09-30T07:23:01Z</time>
      </trkpt>
      <trkpt lat="46.52254" lon="5.67179">
        <ele>446.1</ele>
        <time>2021-09-30T07:23:06Z</time>
      </trkpt>
      <trkpt lat="46.52258" lon="5.67185">
        <ele>446.6</ele>
        <time>2021-09-30T07:23:11Z</time>
      </trkpt>
      <trkpt lat="46.52262" lon="5.67189">
        <ele>446.8</ele>
        <time>2021-09-30T07:23:16Z</time>
      </trkpt>
      <trkpt lat="46.52266" lon="5.67194">
        <ele>445.8</ele>
        <time>2021-09-30T07:23:20Z</time>
      </trkpt>
      <trkpt lat="46.5227" lon="5.672">
        <ele>444.5</ele>
        <time>2021-09-30T07:23:24Z</time>
      </trkpt>
      <trkpt lat="46.52273" lon="5.67205">
        <ele>443.3</ele>
        <time>2021-09-30T07:23:28Z</time>
      </trkpt>
      <trkpt lat="46.52276" lon="5.67211">
        <ele>442.1</ele>
        <time>2021-09-30T07:23:32Z</time>
      </trkpt>
      <trkpt lat="46.52278" lon="5.67217">
        <ele>441.2</ele>
        <time>2021-09-30T07:23:37Z</time>
      </trkpt>
      <trkpt lat="46.52281" lon="5.67224">
        <ele>441.5</ele>
        <time>2021-09-30T07:23:41Z</time>
      </trkpt>
      <trkpt lat="46.52282" lon="5.6723">
        <ele>442.2</ele>
        <time>2021-09-30T07:23:45Z</time>
      </trkpt>
      <trkpt lat="46.52285" lon="5.67236">
        <ele>443.4</ele>
        <time>2021-09-30T07:23:49Z</time>
      </trkpt>
      <trkpt lat="46.52287" lon="5.67242">
        <ele>444.6</ele>
        <time>2021-09-30T07:23:53Z</time>
      </trkpt>
      <trkpt lat="46.52289" lon="5.67249">
        <ele>445.9</ele>
        <time>2021-09-30T07:23:57Z</time>
      </trkpt>
      <trkpt lat="46.52292" lon="5.67256">
        <ele>446.8</ele>
        <time>2021-09-30T07:24:02Z</time>
      </trkpt>
      <trkpt lat="46.52294" lon="5.67262">
        <ele>447.2</ele>
        <time>2021-09-30T07:24:06Z</time>
      </trkpt>
      <trkpt lat="46.52296" lon="5.67269">
        <ele>447.5</ele>
        <time>2021-09-30T07:24:10Z</time>
      </trkpt>
      <trkpt lat="46.52299" lon="5.67275">
        <ele>447.8</ele>
        <time>2021-09-30T07:24:14Z</time>
      </trkpt>
      <trkpt lat="46.523" lon="5.67282">
        <ele>448.7</ele>
        <time>2021-09-30T07:24:18Z</time>
      </trkpt>
      <trkpt lat="46.52301" lon="5.67289">
        <ele>449.2</ele>
        <time>2021-09-30T07:24:23Z</time>
      </trkpt>
      <trkpt lat="46.52302" lon="5.67296">
        <ele>449</ele>
        <time>2021-09-30T07:24:27Z</time>
      </trkpt>
      <trkpt lat="46.52304" lon="5.67302">
        <ele>448.6</ele>
        <time>2021-09-30T07:24:31Z</time>
      </trkpt>
      <trkpt lat="46.52306" lon="5.67308">
        <ele>448.2</ele>
        <time>2021-09-30T07:24:36Z</time>
      </trkpt>
      <trkpt lat="46.52308" lon="5.67315">
        <ele>448.5</ele>
        <time>2021-09-30T07:24:40Z</time>
      </trkpt>
      <trkpt lat="46.52311" lon="5.67321">
        <ele>448.9</ele>
        <time>2021-09-30T07:24:44Z</time>
      </trkpt>
      <trkpt lat="46.52313" lon="5.67328">
        <ele>449.6</ele>
        <time>2021-09-30T07:24:48Z</time>
      </trkpt>
      <trkpt lat="46.52315" lon="5.67335">
        <ele>450.4</ele>
        <time>2021-09-30T07:24:53Z</time>
      </trkpt>
      <trkpt lat="46.52316" lon="5.67342">
        <ele>450.6</ele>
        <time>2021-09-30T07:24:57Z</time>
      </trkpt>
      <trkpt lat="46.52317" lon="5.67348">
        <ele>450.6</ele>
        <time>2021-09-30T07:25:01Z</time>
      </trkpt>
      <trkpt lat="46.5232" lon="5.67355">
        <ele>450.8</ele>
        <time>2021-09-30T07:25:06Z</time>
      </trkpt>
      <trkpt lat="46.52321" lon="5.67363">
        <ele>450.6</ele>
        <time>2021-09-30T07:25:11Z</time>
      </trkpt>
      <trkpt lat="46.52323" lon="5.6737">
        <ele>450.6</ele>
        <time>2021-09-30T07:25:16Z</time>
      </trkpt>
      <trkpt lat="46.52326" lon="5.67376">
        <ele>450.4</ele>
        <time>2021-09-30T07:25:20Z</time>
      </trkpt>
      <trkpt lat="46.52328" lon="5.67383">
        <ele>450.4</ele>
        <time>2021-09-30T07:25:25Z</time>
      </trkpt>
      <trkpt lat="46.52331" lon="5.67389">
        <ele>450.8</ele>
        <time>2021-09-30T07:25:29Z</time>
      </trkpt>
      <trkpt lat="46.52333" lon="5.67395">
        <ele>450.9</ele>
        <time>2021-09-30T07:25:33Z</time>
      </trkpt>
      <trkpt lat="46.52335" lon="5.67401">
        <ele>450.9</ele>
        <time>2021-09-30T07:25:37Z</time>
      </trkpt>
      <trkpt lat="46.52338" lon="5.67407">
        <ele>451</ele>
        <time>2021-09-30T07:25:41Z</time>
      </trkpt>
      <trkpt lat="46.5234" lon="5.67413">
        <ele>450.9</ele>
        <time>2021-09-30T07:25:46Z</time>
      </trkpt>
      <trkpt lat="46.52343" lon="5.67419">
        <ele>450.6</ele>
        <time>2021-09-30T07:25:50Z</time>
      </trkpt>
      <trkpt lat="46.52344" lon="5.67426">
        <ele>450.1</ele>
        <time>2021-09-30T07:25:55Z</time>
      </trkpt>
      <trkpt lat="46.52345" lon="5.67432">
        <ele>449.8</ele>
        <time>2021-09-30T07:25:59Z</time>
      </trkpt>
      <trkpt lat="46.52347" lon="5.67438">
        <ele>449.5</ele>
        <time>2021-09-30T07:26:03Z</time>
      </trkpt>
      <trkpt lat="46.52348" lon="5.67445">
        <ele>449.1</ele>
        <time>2021-09-30T07:26:07Z</time>
      </trkpt>
      <trkpt lat="46.5235" lon="5.67453">
        <ele>448.3</ele>
        <time>2021-09-30T07:26:12Z</time>
      </trkpt>
      <trkpt lat="46.52354" lon="5.67459">
        <ele>447.9</ele>
        <time>2021-09-30T07:26:17Z</time>
      </trkpt>
      <trkpt lat="46.52356" lon="5.67466">
        <ele>448</ele>
        <time>2021-09-30T07:26:21Z</time>
      </trkpt>
      <trkpt lat="46.52358" lon="5.67473">
        <ele>448.4</ele>
        <time>2021-09-30T07:26:26Z</time>
      </trkpt>
      <trkpt lat="46.5236" lon="5.67479">
        <ele>448.6</ele>
        <time>2021-09-30T07:26:31Z</time>
      </trkpt>
      <trkpt lat="46.52361" lon="5.67487">
        <ele>448.9</ele>
        <time>2021-09-30T07:26:36Z</time>
      </trkpt>
      <trkpt lat="46.52361" lon="5.67494">
        <ele>449.2</ele>
        <time>2021-09-30T07:26:40Z</time>
      </trkpt>
      <trkpt lat="46.52361" lon="5.67501">
        <ele>449.4</ele>
        <time>2021-09-30T07:26:44Z</time>
      </trkpt>
      <trkpt lat="46.52359" lon="5.67508">
        <ele>449.3</ele>
        <time>2021-09-30T07:26:48Z</time>
      </trkpt>
      <trkpt lat="46.52359" lon="5.67515">
        <ele>449.2</ele>
        <time>2021-09-30T07:26:51Z</time>
      </trkpt>
      <trkpt lat="46.5236" lon="5.67522">
        <ele>449.2</ele>
        <time>2021-09-30T07:26:56Z</time>
      </trkpt>
      <trkpt lat="46.5236" lon="5.67529">
        <ele>450</ele>
        <time>2021-09-30T07:27:01Z</time>
      </trkpt>
      <trkpt lat="46.52361" lon="5.67536">
        <ele>451.3</ele>
        <time>2021-09-30T07:27:05Z</time>
      </trkpt>
      <trkpt lat="46.52362" lon="5.67543">
        <ele>452.9</ele>
        <time>2021-09-30T07:27:10Z</time>
      </trkpt>
      <trkpt lat="46.52363" lon="5.6755">
        <ele>453.7</ele>
        <time>2021-09-30T07:27:15Z</time>
      </trkpt>
      <trkpt lat="46.52363" lon="5.67557">
        <ele>453.9</ele>
        <time>2021-09-30T07:27:20Z</time>
      </trkpt>
      <trkpt lat="46.52365" lon="5.67563">
        <ele>453.7</ele>
        <time>2021-09-30T07:27:25Z</time>
      </trkpt>
      <trkpt lat="46.52367" lon="5.6757">
        <ele>453.5</ele>
        <time>2021-09-30T07:27:30Z</time>
      </trkpt>
      <trkpt lat="46.52368" lon="5.67578">
        <ele>452.8</ele>
        <time>2021-09-30T07:27:35Z</time>
      </trkpt>
      <trkpt lat="46.52366" lon="5.67586">
        <ele>452.7</ele>
        <time>2021-09-30T07:27:39Z</time>
      </trkpt>
      <trkpt lat="46.52365" lon="5.67593">
        <ele>453</ele>
        <time>2021-09-30T07:27:44Z</time>
      </trkpt>
      <trkpt lat="46.52364" lon="5.676">
        <ele>453.2</ele>
        <time>2021-09-30T07:27:50Z</time>
      </trkpt>
      <trkpt lat="46.52364" lon="5.67608">
        <ele>453.7</ele>
        <time>2021-09-30T07:27:55Z</time>
      </trkpt>
      <trkpt lat="46.52363" lon="5.67614">
        <ele>454.8</ele>
        <time>2021-09-30T07:28:00Z</time>
      </trkpt>
      <trkpt lat="46.52361" lon="5.67622">
        <ele>456.8</ele>
        <time>2021-09-30T07:28:05Z</time>
      </trkpt>
      <trkpt lat="46.52359" lon="5.67629">
        <ele>458.7</ele>
        <time>2021-09-30T07:28:10Z</time>
      </trkpt>
      <trkpt lat="46.52359" lon="5.67636">
        <ele>460.3</ele>
        <time>2021-09-30T07:28:15Z</time>
      </trkpt>
      <trkpt lat="46.52358" lon="5.67643">
        <ele>460.9</ele>
        <time>2021-09-30T07:28:20Z</time>
      </trkpt>
      <trkpt lat="46.52356" lon="5.67649">
        <ele>461</ele>
        <time>2021-09-30T07:28:26Z</time>
      </trkpt>
      <trkpt lat="46.52355" lon="5.67656">
        <ele>460.1</ele>
        <time>2021-09-30T07:28:33Z</time>
      </trkpt>
      <trkpt lat="46.52353" lon="5.67662">
        <ele>459.4</ele>
        <time>2021-09-30T07:28:39Z</time>
      </trkpt>
      <trkpt lat="46.52353" lon="5.6767">
        <ele>458.8</ele>
        <time>2021-09-30T07:28:45Z</time>
      </trkpt>
      <trkpt lat="46.52353" lon="5.67677">
        <ele>458.7</ele>
        <time>2021-09-30T07:28:50Z</time>
      </trkpt>
      <trkpt lat="46.52353" lon="5.67684">
        <ele>458.7</ele>
        <time>2021-09-30T07:28:56Z</time>
      </trkpt>
      <trkpt lat="46.52352" lon="5.6769">
        <ele>458.4</ele>
        <time>2021-09-30T07:29:02Z</time>
      </trkpt>
      <trkpt lat="46.52351" lon="5.67698">
        <ele>457.1</ele>
        <time>2021-09-30T07:29:08Z</time>
      </trkpt>
      <trkpt lat="46.52351" lon="5.67705">
        <ele>456</ele>
        <time>2021-09-30T07:29:13Z</time>
      </trkpt>
      <trkpt lat="46.52349" lon="5.67712">
        <ele>455.3</ele>
        <time>2021-09-30T07:29:18Z</time>
      </trkpt>
      <trkpt lat="46.52348" lon="5.67719">
        <ele>454.5</ele>
        <time>2021-09-30T07:29:24Z</time>
      </trkpt>
      <trkpt lat="46.52346" lon="5.67726">
        <ele>454.3</ele>
        <time>2021-09-30T07:29:30Z</time>
      </trkpt>
      <trkpt lat="46.52346" lon="5.67732">
        <ele>454.6</ele>
        <time>2021-09-30T07:29:35Z</time>
      </trkpt>
      <trkpt lat="46.52344" lon="5.67739">
        <ele>454.9</ele>
        <time>2021-09-30T07:29:40Z</time>
      </trkpt>
      <trkpt lat="46.52342" lon="5.67746">
        <ele>455.6</ele>
        <time>2021-09-30T07:29:45Z</time>
      </trkpt>
      <trkpt lat="46.52339" lon="5.67752">
        <ele>456.3</ele>
        <time>2021-09-30T07:29:50Z</time>
      </trkpt>
      <trkpt lat="46.52337" lon="5.67757">
        <ele>456.6</ele>
        <time>2021-09-30T07:29:55Z</time>
      </trkpt>
      <trkpt lat="46.52334" lon="5.67763">
        <ele>456.6</ele>
        <time>2021-09-30T07:30:00Z</time>
      </trkpt>
      <trkpt lat="46.52331" lon="5.67769">
        <ele>456.4</ele>
        <time>2021-09-30T07:30:06Z</time>
      </trkpt>
      <trkpt lat="46.52327" lon="5.67776">
        <ele>456.4</ele>
        <time>2021-09-30T07:30:11Z</time>
      </trkpt>
      <trkpt lat="46.52326" lon="5.67782">
        <ele>456.3</ele>
        <time>2021-09-30T07:30:16Z</time>
      </trkpt>
      <trkpt lat="46.52326" lon="5.6779">
        <ele>456.2</ele>
        <time>2021-09-30T07:30:21Z</time>
      </trkpt>
      <trkpt lat="46.52326" lon="5.67798">
        <ele>456</ele>
        <time>2021-09-30T07:30:26Z</time>
      </trkpt>
      <trkpt lat="46.52326" lon="5.67805">
        <ele>456.5</ele>
        <time>2021-09-30T07:30:31Z</time>
      </trkpt>
      <trkpt lat="46.52327" lon="5.67813">
        <ele>457.2</ele>
        <time>2021-09-30T07:30:37Z</time>
      </trkpt>
      <trkpt lat="46.52326" lon="5.6782">
        <ele>458</ele>
        <time>2021-09-30T07:30:43Z</time>
      </trkpt>
      <trkpt lat="46.52329" lon="5.67826">
        <ele>458.3</ele>
        <time>2021-09-30T07:30:50Z</time>
      </trkpt>
      <trkpt lat="46.5233" lon="5.67833">
        <ele>458</ele>
        <time>2021-09-30T07:30:58Z</time>
      </trkpt>
      <trkpt lat="46.5233" lon="5.6784">
        <ele>458.2</ele>
        <time>2021-09-30T07:31:05Z</time>
      </trkpt>
      <trkpt lat="46.5233" lon="5.67847">
        <ele>458.4</ele>
        <time>2021-09-30T07:31:10Z</time>
      </trkpt>
      <trkpt lat="46.5233" lon="5.67854">
        <ele>458.6</ele>
        <time>2021-09-30T07:31:16Z</time>
      </trkpt>
      <trkpt lat="46.52329" lon="5.6786">
        <ele>457.6</ele>
        <time>2021-09-30T07:31:24Z</time>
      </trkpt>
      <trkpt lat="46.52328" lon="5.67867">
        <ele>457.2</ele>
        <time>2021-09-30T07:31:33Z</time>
      </trkpt>
      <trkpt lat="46.52329" lon="5.67874">
        <ele>458.9</ele>
        <time>2021-09-30T07:31:41Z</time>
      </trkpt>
      <trkpt lat="46.52328" lon="5.67881">
        <ele>460.2</ele>
        <time>2021-09-30T07:31:47Z</time>
      </trkpt>
      <trkpt lat="46.52324" lon="5.67887">
        <ele>461.5</ele>
        <time>2021-09-30T07:31:54Z</time>
      </trkpt>
      <trkpt lat="46.52322" lon="5.67893">
        <ele>461.7</ele>
        <time>2021-09-30T07:31:59Z</time>
      </trkpt>
      <trkpt lat="46.5232" lon="5.679">
        <ele>462.3</ele>
        <time>2021-09-30T07:32:05Z</time>
      </trkpt>
      <trkpt lat="46.52319" lon="5.67906">
        <ele>463.4</ele>
        <time>2021-09-30T07:32:13Z</time>
      </trkpt>
      <trkpt lat="46.5232" lon="5.67913">
        <ele>463</ele>
        <time>2021-09-30T07:32:18Z</time>
      </trkpt>
      <trkpt lat="46.52321" lon="5.67921">
        <ele>462.8</ele>
        <time>2021-09-30T07:32:25Z</time>
      </trkpt>
      <trkpt lat="46.52319" lon="5.67927">
        <ele>464.7</ele>
        <time>2021-09-30T07:32:34Z</time>
      </trkpt>
      <trkpt lat="46.52316" lon="5.67933">
        <ele>467.4</ele>
        <time>2021-09-30T07:32:42Z</time>
      </trkpt>
      <trkpt lat="46.52313" lon="5.67938">
        <ele>469.3</ele>
        <time>2021-09-30T07:32:48Z</time>
      </trkpt>
      <trkpt lat="46.5231" lon="5.67943">
        <ele>470.8</ele>
        <time>2021-09-30T07:32:55Z</time>
      </trkpt>
      <trkpt lat="46.52309" lon="5.6795">
        <ele>471.5</ele>
        <time>2021-09-30T07:33:01Z</time>
      </trkpt>
      <trkpt lat="46.52305" lon="5.67955">
        <ele>472.3</ele>
        <time>2021-09-30T07:33:07Z</time>
      </trkpt>
      <trkpt lat="46.52305" lon="5.67962">
        <ele>473.3</ele>
        <time>2021-09-30T07:33:13Z</time>
      </trkpt>
      <trkpt lat="46.52304" lon="5.67969">
        <ele>475</ele>
        <time>2021-09-30T07:33:22Z</time>
      </trkpt>
      <trkpt lat="46.52303" lon="5.67976">
        <ele>475.8</ele>
        <time>2021-09-30T07:33:28Z</time>
      </trkpt>
      <trkpt lat="46.523" lon="5.67982">
        <ele>476.3</ele>
        <time>2021-09-30T07:33:35Z</time>
      </trkpt>
      <trkpt lat="46.52296" lon="5.67985">
        <ele>476.3</ele>
        <time>2021-09-30T07:33:39Z</time>
      </trkpt>
      <trkpt lat="46.52294" lon="5.67992">
        <ele>478</ele>
        <time>2021-09-30T07:33:46Z</time>
      </trkpt>
      <trkpt lat="46.52296" lon="5.67998">
        <ele>481.7</ele>
        <time>2021-09-30T07:33:54Z</time>
      </trkpt>
      <trkpt lat="46.52293" lon="5.68005">
        <ele>485</ele>
        <time>2021-09-30T07:34:02Z</time>
      </trkpt>
      <trkpt lat="46.52292" lon="5.68012">
        <ele>487.2</ele>
        <time>2021-09-30T07:34:08Z</time>
      </trkpt>
      <trkpt lat="46.5229" lon="5.68019">
        <ele>488</ele>
        <time>2021-09-30T07:34:14Z</time>
      </trkpt>
      <trkpt lat="46.5229" lon="5.68026">
        <ele>489.2</ele>
        <time>2021-09-30T07:34:20Z</time>
      </trkpt>
      <trkpt lat="46.52288" lon="5.68033">
        <ele>490.2</ele>
        <time>2021-09-30T07:34:26Z</time>
      </trkpt>
      <trkpt lat="46.52287" lon="5.6804">
        <ele>491.3</ele>
        <time>2021-09-30T07:34:33Z</time>
      </trkpt>
      <trkpt lat="46.52287" lon="5.68047">
        <ele>492.7</ele>
        <time>2021-09-30T07:34:39Z</time>
      </trkpt>
      <trkpt lat="46.52288" lon="5.68053">
        <ele>493.7</ele>
        <time>2021-09-30T07:34:45Z</time>
      </trkpt>
      <trkpt lat="46.52291" lon="5.68059">
        <ele>494.2</ele>
        <time>2021-09-30T07:34:50Z</time>
      </trkpt>
      <trkpt lat="46.52294" lon="5.68065">
        <ele>494.7</ele>
        <time>2021-09-30T07:34:55Z</time>
      </trkpt>
      <trkpt lat="46.52296" lon="5.68071">
        <ele>494.7</ele>
        <time>2021-09-30T07:35:01Z</time>
      </trkpt>
      <trkpt lat="46.52298" lon="5.68078">
        <ele>495.1</ele>
        <time>2021-09-30T07:35:06Z</time>
      </trkpt>
      <trkpt lat="46.523" lon="5.68084">
        <ele>496</ele>
        <time>2021-09-30T07:35:11Z</time>
      </trkpt>
      <trkpt lat="46.52302" lon="5.68091">
        <ele>496.8</ele>
        <time>2021-09-30T07:35:16Z</time>
      </trkpt>
      <trkpt lat="46.52303" lon="5.68098">
        <ele>497.7</ele>
        <time>2021-09-30T07:35:22Z</time>
      </trkpt>
      <trkpt lat="46.52304" lon="5.68106">
        <ele>498.8</ele>
        <time>2021-09-30T07:35:27Z</time>
      </trkpt>
      <trkpt lat="46.52307" lon="5.68111">
        <ele>499.5</ele>
        <time>2021-09-30T07:35:32Z</time>
      </trkpt>
      <trkpt lat="46.5231" lon="5.68117">
        <ele>500.7</ele>
        <time>2021-09-30T07:35:38Z</time>
      </trkpt>
      <trkpt lat="46.52312" lon="5.68123">
        <ele>501.7</ele>
        <time>2021-09-30T07:35:43Z</time>
      </trkpt>
      <trkpt lat="46.52315" lon="5.68129">
        <ele>502.7</ele>
        <time>2021-09-30T07:35:49Z</time>
      </trkpt>
      <trkpt lat="46.5232" lon="5.68132">
        <ele>503</ele>
        <time>2021-09-30T07:35:54Z</time>
      </trkpt>
      <trkpt lat="46.52324" lon="5.68137">
        <ele>502.9</ele>
        <time>2021-09-30T07:36:00Z</time>
      </trkpt>
      <trkpt lat="46.52324" lon="5.68144">
        <ele>502.7</ele>
        <time>2021-09-30T07:36:05Z</time>
      </trkpt>
      <trkpt lat="46.52327" lon="5.6815">
        <ele>502.6</ele>
        <time>2021-09-30T07:36:12Z</time>
      </trkpt>
      <trkpt lat="46.52336" lon="5.68171">
        <ele>516.1</ele>
        <time>2021-09-30T07:37:10Z</time>
      </trkpt>
      <trkpt lat="46.52338" lon="5.68178">
        <ele>510.1</ele>
        <time>2021-09-30T07:37:18Z</time>
      </trkpt>
      <trkpt lat="46.52338" lon="5.68185">
        <ele>504.9</ele>
        <time>2021-09-30T07:37:24Z</time>
      </trkpt>
      <trkpt lat="46.5234" lon="5.68192">
        <ele>500.3</ele>
        <time>2021-09-30T07:37:31Z</time>
      </trkpt>
      <trkpt lat="46.52343" lon="5.68196">
        <ele>497.1</ele>
        <time>2021-09-30T07:37:37Z</time>
      </trkpt>
      <trkpt lat="46.52346" lon="5.68202">
        <ele>495</ele>
        <time>2021-09-30T07:37:42Z</time>
      </trkpt>
      <trkpt lat="46.52348" lon="5.68208">
        <ele>494</ele>
        <time>2021-09-30T07:37:46Z</time>
      </trkpt>
      <trkpt lat="46.52352" lon="5.68213">
        <ele>493.3</ele>
        <time>2021-09-30T07:37:51Z</time>
      </trkpt>
      <trkpt lat="46.52356" lon="5.68219">
        <ele>493.2</ele>
        <time>2021-09-30T07:37:55Z</time>
      </trkpt>
      <trkpt lat="46.52359" lon="5.68224">
        <ele>493.2</ele>
        <time>2021-09-30T07:37:59Z</time>
      </trkpt>
      <trkpt lat="46.52361" lon="5.6823">
        <ele>492.8</ele>
        <time>2021-09-30T07:38:03Z</time>
      </trkpt>
      <trkpt lat="46.52363" lon="5.68236">
        <ele>492.5</ele>
        <time>2021-09-30T07:38:08Z</time>
      </trkpt>
      <trkpt lat="46.52364" lon="5.68243">
        <ele>492</ele>
        <time>2021-09-30T07:38:14Z</time>
      </trkpt>
      <trkpt lat="46.52363" lon="5.6825">
        <ele>492.1</ele>
        <time>2021-09-30T07:38:19Z</time>
      </trkpt>
      <trkpt lat="46.52363" lon="5.68257">
        <ele>492.7</ele>
        <time>2021-09-30T07:38:24Z</time>
      </trkpt>
      <trkpt lat="46.52365" lon="5.68263">
        <ele>493.2</ele>
        <time>2021-09-30T07:38:29Z</time>
      </trkpt>
      <trkpt lat="46.52367" lon="5.6827">
        <ele>493.4</ele>
        <time>2021-09-30T07:38:34Z</time>
      </trkpt>
      <trkpt lat="46.52368" lon="5.68278">
        <ele>493.9</ele>
        <time>2021-09-30T07:38:39Z</time>
      </trkpt>
      <trkpt lat="46.5237" lon="5.68285">
        <ele>493.9</ele>
        <time>2021-09-30T07:38:44Z</time>
      </trkpt>
      <trkpt lat="46.52371" lon="5.68292">
        <ele>493.7</ele>
        <time>2021-09-30T07:38:49Z</time>
      </trkpt>
      <trkpt lat="46.52372" lon="5.68299">
        <ele>493.3</ele>
        <time>2021-09-30T07:38:53Z</time>
      </trkpt>
      <trkpt lat="46.52374" lon="5.68305">
        <ele>493.2</ele>
        <time>2021-09-30T07:38:57Z</time>
      </trkpt>
      <trkpt lat="46.52376" lon="5.68312">
        <ele>492.9</ele>
        <time>2021-09-30T07:39:03Z</time>
      </trkpt>
      <trkpt lat="46.52377" lon="5.68319">
        <ele>493</ele>
        <time>2021-09-30T07:39:08Z</time>
      </trkpt>
      <trkpt lat="46.52376" lon="5.68326">
        <ele>493.1</ele>
        <time>2021-09-30T07:39:14Z</time>
      </trkpt>
      <trkpt lat="46.52378" lon="5.68333">
        <ele>493</ele>
        <time>2021-09-30T07:39:20Z</time>
      </trkpt>
      <trkpt lat="46.5238" lon="5.6834">
        <ele>492.5</ele>
        <time>2021-09-30T07:39:25Z</time>
      </trkpt>
      <trkpt lat="46.52382" lon="5.68347">
        <ele>491.9</ele>
        <time>2021-09-30T07:39:29Z</time>
      </trkpt>
      <trkpt lat="46.52381" lon="5.68354">
        <ele>491.7</ele>
        <time>2021-09-30T07:39:33Z</time>
      </trkpt>
      <trkpt lat="46.52379" lon="5.68361">
        <ele>491.5</ele>
        <time>2021-09-30T07:39:37Z</time>
      </trkpt>
      <trkpt lat="46.52377" lon="5.68367">
        <ele>491.5</ele>
        <time>2021-09-30T07:39:40Z</time>
      </trkpt>
      <trkpt lat="46.52375" lon="5.68374">
        <ele>492.2</ele>
        <time>2021-09-30T07:39:44Z</time>
      </trkpt>
      <trkpt lat="46.52376" lon="5.6838">
        <ele>493.4</ele>
        <time>2021-09-30T07:39:49Z</time>
      </trkpt>
      <trkpt lat="46.52378" lon="5.68387">
        <ele>495.3</ele>
        <time>2021-09-30T07:39:58Z</time>
      </trkpt>
      <trkpt lat="46.52379" lon="5.68394">
        <ele>495.5</ele>
        <time>2021-09-30T07:40:04Z</time>
      </trkpt>
      <trkpt lat="46.52376" lon="5.684">
        <ele>495.2</ele>
        <time>2021-09-30T07:40:09Z</time>
      </trkpt>
      <trkpt lat="46.52376" lon="5.68407">
        <ele>495.8</ele>
        <time>2021-09-30T07:40:15Z</time>
      </trkpt>
      <trkpt lat="46.52376" lon="5.68414">
        <ele>497.1</ele>
        <time>2021-09-30T07:40:20Z</time>
      </trkpt>
      <trkpt lat="46.52377" lon="5.68421">
        <ele>498.6</ele>
        <time>2021-09-30T07:40:25Z</time>
      </trkpt>
      <trkpt lat="46.52377" lon="5.68428">
        <ele>499.2</ele>
        <time>2021-09-30T07:40:29Z</time>
      </trkpt>
      <trkpt lat="46.52378" lon="5.68435">
        <ele>499.8</ele>
        <time>2021-09-30T07:40:34Z</time>
      </trkpt>
      <trkpt lat="46.52377" lon="5.68442">
        <ele>500.9</ele>
        <time>2021-09-30T07:40:40Z</time>
      </trkpt>
      <trkpt lat="46.52376" lon="5.68449">
        <ele>501.7</ele>
        <time>2021-09-30T07:40:44Z</time>
      </trkpt>
      <trkpt lat="46.52374" lon="5.68456">
        <ele>502.6</ele>
        <time>2021-09-30T07:40:49Z</time>
      </trkpt>
      <trkpt lat="46.52374" lon="5.68463">
        <ele>502.8</ele>
        <time>2021-09-30T07:40:54Z</time>
      </trkpt>
      <trkpt lat="46.52374" lon="5.6847">
        <ele>502.6</ele>
        <time>2021-09-30T07:40:59Z</time>
      </trkpt>
      <trkpt lat="46.52374" lon="5.68477">
        <ele>502.1</ele>
        <time>2021-09-30T07:41:03Z</time>
      </trkpt>
      <trkpt lat="46.52374" lon="5.68484">
        <ele>501.5</ele>
        <time>2021-09-30T07:41:09Z</time>
      </trkpt>
      <trkpt lat="46.52373" lon="5.68491">
        <ele>501.2</ele>
        <time>2021-09-30T07:41:14Z</time>
      </trkpt>
      <trkpt lat="46.52374" lon="5.68499">
        <ele>501.1</ele>
        <time>2021-09-30T07:41:20Z</time>
      </trkpt>
      <trkpt lat="46.52374" lon="5.68506">
        <ele>501.3</ele>
        <time>2021-09-30T07:41:25Z</time>
      </trkpt>
      <trkpt lat="46.52373" lon="5.68513">
        <ele>500.3</ele>
        <time>2021-09-30T07:41:31Z</time>
      </trkpt>
      <trkpt lat="46.52372" lon="5.6852">
        <ele>499.9</ele>
        <time>2021-09-30T07:41:36Z</time>
      </trkpt>
      <trkpt lat="46.52371" lon="5.68527">
        <ele>499.7</ele>
        <time>2021-09-30T07:41:41Z</time>
      </trkpt>
      <trkpt lat="46.5237" lon="5.68534">
        <ele>499.4</ele>
        <time>2021-09-30T07:41:47Z</time>
      </trkpt>
      <trkpt lat="46.52369" lon="5.6854">
        <ele>499.1</ele>
        <time>2021-09-30T07:41:52Z</time>
      </trkpt>
      <trkpt lat="46.52367" lon="5.68547">
        <ele>498.4</ele>
        <time>2021-09-30T07:41:58Z</time>
      </trkpt>
      <trkpt lat="46.52369" lon="5.68554">
        <ele>497.1</ele>
        <time>2021-09-30T07:42:03Z</time>
      </trkpt>
      <trkpt lat="46.5237" lon="5.68561">
        <ele>496.9</ele>
        <time>2021-09-30T07:42:07Z</time>
      </trkpt>
      <trkpt lat="46.52369" lon="5.68567">
        <ele>497</ele>
        <time>2021-09-30T07:42:11Z</time>
      </trkpt>
      <trkpt lat="46.52368" lon="5.68574">
        <ele>498.4</ele>
        <time>2021-09-30T07:42:15Z</time>
      </trkpt>
      <trkpt lat="46.52366" lon="5.68581">
        <ele>500.8</ele>
        <time>2021-09-30T07:42:21Z</time>
      </trkpt>
      <trkpt lat="46.52365" lon="5.68588">
        <ele>502.4</ele>
        <time>2021-09-30T07:42:26Z</time>
      </trkpt>
      <trkpt lat="46.52364" lon="5.68595">
        <ele>503</ele>
        <time>2021-09-30T07:42:31Z</time>
      </trkpt>
      <trkpt lat="46.52362" lon="5.68602">
        <ele>502.4</ele>
        <time>2021-09-30T07:42:36Z</time>
      </trkpt>
      <trkpt lat="46.52362" lon="5.68609">
        <ele>502.3</ele>
        <time>2021-09-30T07:42:41Z</time>
      </trkpt>
      <trkpt lat="46.52361" lon="5.68617">
        <ele>501.6</ele>
        <time>2021-09-30T07:42:47Z</time>
      </trkpt>
      <trkpt lat="46.5236" lon="5.68624">
        <ele>501.2</ele>
        <time>2021-09-30T07:42:55Z</time>
      </trkpt>
      <trkpt lat="46.52358" lon="5.68631">
        <ele>501.4</ele>
        <time>2021-09-30T07:43:01Z</time>
      </trkpt>
      <trkpt lat="46.52359" lon="5.68639">
        <ele>501.5</ele>
        <time>2021-09-30T07:43:06Z</time>
      </trkpt>
      <trkpt lat="46.52356" lon="5.68645">
        <ele>501.9</ele>
        <time>2021-09-30T07:43:13Z</time>
      </trkpt>
      <trkpt lat="46.52355" lon="5.68652">
        <ele>501.8</ele>
        <time>2021-09-30T07:43:18Z</time>
      </trkpt>
      <trkpt lat="46.52355" lon="5.68659">
        <ele>501.5</ele>
        <time>2021-09-30T07:43:23Z</time>
      </trkpt>
      <trkpt lat="46.52355" lon="5.68666">
        <ele>502</ele>
        <time>2021-09-30T07:43:28Z</time>
      </trkpt>
      <trkpt lat="46.52355" lon="5.68674">
        <ele>502.8</ele>
        <time>2021-09-30T07:43:34Z</time>
      </trkpt>
      <trkpt lat="46.52353" lon="5.6868">
        <ele>503.5</ele>
        <time>2021-09-30T07:43:39Z</time>
      </trkpt>
      <trkpt lat="46.52352" lon="5.68686">
        <ele>504.3</ele>
        <time>2021-09-30T07:43:44Z</time>
      </trkpt>
      <trkpt lat="46.52352" lon="5.68694">
        <ele>504.5</ele>
        <time>2021-09-30T07:43:51Z</time>
      </trkpt>
      <trkpt lat="46.52353" lon="5.68701">
        <ele>503.8</ele>
        <time>2021-09-30T07:43:55Z</time>
      </trkpt>
      <trkpt lat="46.52352" lon="5.68709">
        <ele>503.2</ele>
        <time>2021-09-30T07:43:59Z</time>
      </trkpt>
      <trkpt lat="46.52353" lon="5.68716">
        <ele>502.4</ele>
        <time>2021-09-30T07:44:05Z</time>
      </trkpt>
      <trkpt lat="46.52352" lon="5.68723">
        <ele>501.7</ele>
        <time>2021-09-30T07:44:11Z</time>
      </trkpt>
      <trkpt lat="46.52351" lon="5.6873">
        <ele>501.2</ele>
        <time>2021-09-30T07:44:16Z</time>
      </trkpt>
      <trkpt lat="46.5235" lon="5.68737">
        <ele>500.9</ele>
        <time>2021-09-30T07:44:20Z</time>
      </trkpt>
      <trkpt lat="46.52351" lon="5.68745">
        <ele>501.1</ele>
        <time>2021-09-30T07:44:25Z</time>
      </trkpt>
      <trkpt lat="46.5235" lon="5.68752">
        <ele>500.9</ele>
        <time>2021-09-30T07:44:31Z</time>
      </trkpt>
      <trkpt lat="46.5235" lon="5.68759">
        <ele>500.6</ele>
        <time>2021-09-30T07:44:37Z</time>
      </trkpt>
      <trkpt lat="46.52351" lon="5.68766">
        <ele>500.5</ele>
        <time>2021-09-30T07:44:42Z</time>
      </trkpt>
      <trkpt lat="46.52353" lon="5.68773">
        <ele>500.9</ele>
        <time>2021-09-30T07:44:48Z</time>
      </trkpt>
      <trkpt lat="46.52354" lon="5.68779">
        <ele>502.1</ele>
        <time>2021-09-30T07:44:54Z</time>
      </trkpt>
      <trkpt lat="46.52355" lon="5.68787">
        <ele>503.4</ele>
        <time>2021-09-30T07:45:00Z</time>
      </trkpt>
      <trkpt lat="46.52356" lon="5.68793">
        <ele>504.1</ele>
        <time>2021-09-30T07:45:06Z</time>
      </trkpt>
      <trkpt lat="46.52357" lon="5.68801">
        <ele>504.9</ele>
        <time>2021-09-30T07:45:12Z</time>
      </trkpt>
      <trkpt lat="46.52357" lon="5.68808">
        <ele>505.7</ele>
        <time>2021-09-30T07:45:17Z</time>
      </trkpt>
      <trkpt lat="46.52359" lon="5.68815">
        <ele>506.3</ele>
        <time>2021-09-30T07:45:22Z</time>
      </trkpt>
      <trkpt lat="46.52361" lon="5.68822">
        <ele>507.2</ele>
        <time>2021-09-30T07:45:28Z</time>
      </trkpt>
      <trkpt lat="46.52364" lon="5.68827">
        <ele>507.2</ele>
        <time>2021-09-30T07:45:33Z</time>
      </trkpt>
      <trkpt lat="46.52369" lon="5.68828">
        <ele>507</ele>
        <time>2021-09-30T07:45:38Z</time>
      </trkpt>
      <trkpt lat="46.52374" lon="5.6883">
        <ele>507.1</ele>
        <time>2021-09-30T07:45:44Z</time>
      </trkpt>
      <trkpt lat="46.52377" lon="5.68833">
        <ele>507.1</ele>
        <time>2021-09-30T07:45:50Z</time>
      </trkpt>
      <trkpt lat="46.52382" lon="5.68836">
        <ele>507.7</ele>
        <time>2021-09-30T07:45:55Z</time>
      </trkpt>
      <trkpt lat="46.52386" lon="5.68839">
        <ele>508.4</ele>
        <time>2021-09-30T07:45:59Z</time>
      </trkpt>
      <trkpt lat="46.52391" lon="5.68841">
        <ele>509.6</ele>
        <time>2021-09-30T07:46:05Z</time>
      </trkpt>
      <trkpt lat="46.52396" lon="5.68841">
        <ele>511.1</ele>
        <time>2021-09-30T07:46:11Z</time>
      </trkpt>
      <trkpt lat="46.524" lon="5.6884">
        <ele>511.6</ele>
        <time>2021-09-30T07:46:17Z</time>
      </trkpt>
      <trkpt lat="46.52405" lon="5.68843">
        <ele>512.3</ele>
        <time>2021-09-30T07:46:22Z</time>
      </trkpt>
      <trkpt lat="46.5241" lon="5.68843">
        <ele>513.6</ele>
        <time>2021-09-30T07:46:27Z</time>
      </trkpt>
      <trkpt lat="46.52415" lon="5.68841">
        <ele>514.5</ele>
        <time>2021-09-30T07:46:31Z</time>
      </trkpt>
      <trkpt lat="46.5242" lon="5.68839">
        <ele>516</ele>
        <time>2021-09-30T07:46:35Z</time>
      </trkpt>
      <trkpt lat="46.52424" lon="5.68836">
        <ele>517.8</ele>
        <time>2021-09-30T07:46:39Z</time>
      </trkpt>
      <trkpt lat="46.52429" lon="5.68831">
        <ele>519.6</ele>
        <time>2021-09-30T07:46:45Z</time>
      </trkpt>
      <trkpt lat="46.52433" lon="5.68828">
        <ele>520.6</ele>
        <time>2021-09-30T07:46:48Z</time>
      </trkpt>
      <trkpt lat="46.52438" lon="5.68828">
        <ele>522</ele>
        <time>2021-09-30T07:46:52Z</time>
      </trkpt>
      <trkpt lat="46.52443" lon="5.68831">
        <ele>523.7</ele>
        <time>2021-09-30T07:46:57Z</time>
      </trkpt>
      <trkpt lat="46.52448" lon="5.6883">
        <ele>524.3</ele>
        <time>2021-09-30T07:47:03Z</time>
      </trkpt>
      <trkpt lat="46.52452" lon="5.68825">
        <ele>524.7</ele>
        <time>2021-09-30T07:47:09Z</time>
      </trkpt>
      <trkpt lat="46.52457" lon="5.68821">
        <ele>525.4</ele>
        <time>2021-09-30T07:47:15Z</time>
      </trkpt>
      <trkpt lat="46.52459" lon="5.68815">
        <ele>526.3</ele>
        <time>2021-09-30T07:47:20Z</time>
      </trkpt>
      <trkpt lat="46.52461" lon="5.68808">
        <ele>527.6</ele>
        <time>2021-09-30T07:47:31Z</time>
      </trkpt>
      <trkpt lat="46.52463" lon="5.68802">
        <ele>527.3</ele>
        <time>2021-09-30T07:47:37Z</time>
      </trkpt>
      <trkpt lat="46.52463" lon="5.68795">
        <ele>525.3</ele>
        <time>2021-09-30T07:47:44Z</time>
      </trkpt>
      <trkpt lat="46.52463" lon="5.68788">
        <ele>523.1</ele>
        <time>2021-09-30T07:47:49Z</time>
      </trkpt>
      <trkpt lat="46.52462" lon="5.68781">
        <ele>521.4</ele>
        <time>2021-09-30T07:47:53Z</time>
      </trkpt>
      <trkpt lat="46.52461" lon="5.68774">
        <ele>519.6</ele>
        <time>2021-09-30T07:47:59Z</time>
      </trkpt>
      <trkpt lat="46.52463" lon="5.68767">
        <ele>519</ele>
        <time>2021-09-30T07:48:07Z</time>
      </trkpt>
      <trkpt lat="46.52465" lon="5.68761">
        <ele>519.5</ele>
        <time>2021-09-30T07:48:13Z</time>
      </trkpt>
      <trkpt lat="46.52467" lon="5.68754">
        <ele>519.9</ele>
        <time>2021-09-30T07:48:18Z</time>
      </trkpt>
      <trkpt lat="46.52467" lon="5.68746">
        <ele>520.4</ele>
        <time>2021-09-30T07:48:23Z</time>
      </trkpt>
      <trkpt lat="46.52468" lon="5.6874">
        <ele>520.9</ele>
        <time>2021-09-30T07:48:27Z</time>
      </trkpt>
      <trkpt lat="46.52468" lon="5.68732">
        <ele>521.4</ele>
        <time>2021-09-30T07:48:34Z</time>
      </trkpt>
      <trkpt lat="46.52467" lon="5.68725">
        <ele>521.2</ele>
        <time>2021-09-30T07:48:40Z</time>
      </trkpt>
      <trkpt lat="46.52464" lon="5.68719">
        <ele>521</ele>
        <time>2021-09-30T07:48:45Z</time>
      </trkpt>
      <trkpt lat="46.52461" lon="5.68714">
        <ele>521.2</ele>
        <time>2021-09-30T07:48:49Z</time>
      </trkpt>
      <trkpt lat="46.52458" lon="5.68708">
        <ele>521.7</ele>
        <time>2021-09-30T07:48:54Z</time>
      </trkpt>
      <trkpt lat="46.52455" lon="5.68702">
        <ele>522.7</ele>
        <time>2021-09-30T07:48:59Z</time>
      </trkpt>
      <trkpt lat="46.52453" lon="5.68695">
        <ele>523.3</ele>
        <time>2021-09-30T07:49:04Z</time>
      </trkpt>
      <trkpt lat="46.52452" lon="5.68689">
        <ele>523.5</ele>
        <time>2021-09-30T07:49:09Z</time>
      </trkpt>
      <trkpt lat="46.52451" lon="5.68682">
        <ele>523.9</ele>
        <time>2021-09-30T07:49:15Z</time>
      </trkpt>
      <trkpt lat="46.5245" lon="5.68675">
        <ele>524.4</ele>
        <time>2021-09-30T07:49:20Z</time>
      </trkpt>
      <trkpt lat="46.52447" lon="5.68669">
        <ele>524.7</ele>
        <time>2021-09-30T07:49:25Z</time>
      </trkpt>
      <trkpt lat="46.52445" lon="5.68663">
        <ele>525.2</ele>
        <time>2021-09-30T07:49:29Z</time>
      </trkpt>
      <trkpt lat="46.52443" lon="5.68655">
        <ele>526.1</ele>
        <time>2021-09-30T07:49:34Z</time>
      </trkpt>
      <trkpt lat="46.52445" lon="5.68648">
        <ele>527.2</ele>
        <time>2021-09-30T07:49:39Z</time>
      </trkpt>
      <trkpt lat="46.52447" lon="5.68642">
        <ele>527.5</ele>
        <time>2021-09-30T07:49:44Z</time>
      </trkpt>
      <trkpt lat="46.52448" lon="5.68635">
        <ele>528.2</ele>
        <time>2021-09-30T07:49:50Z</time>
      </trkpt>
      <trkpt lat="46.52448" lon="5.68627">
        <ele>528.7</ele>
        <time>2021-09-30T07:49:55Z</time>
      </trkpt>
      <trkpt lat="46.52448" lon="5.6862">
        <ele>528.5</ele>
        <time>2021-09-30T07:50:00Z</time>
      </trkpt>
      <trkpt lat="46.52449" lon="5.68613">
        <ele>528.7</ele>
        <time>2021-09-30T07:50:05Z</time>
      </trkpt>
      <trkpt lat="46.52449" lon="5.68606">
        <ele>530.5</ele>
        <time>2021-09-30T07:50:17Z</time>
      </trkpt>
      <trkpt lat="46.52448" lon="5.68599">
        <ele>531.3</ele>
        <time>2021-09-30T07:50:24Z</time>
      </trkpt>
      <trkpt lat="46.52447" lon="5.68593">
        <ele>531.9</ele>
        <time>2021-09-30T07:50:29Z</time>
      </trkpt>
      <trkpt lat="46.52444" lon="5.68587">
        <ele>532.6</ele>
        <time>2021-09-30T07:50:36Z</time>
      </trkpt>
      <trkpt lat="46.52449" lon="5.68585">
        <ele>533.6</ele>
        <time>2021-09-30T07:50:44Z</time>
      </trkpt>
      <trkpt lat="46.52454" lon="5.68585">
        <ele>534.6</ele>
        <time>2021-09-30T07:50:51Z</time>
      </trkpt>
      <trkpt lat="46.52456" lon="5.68579">
        <ele>537.8</ele>
        <time>2021-09-30T07:51:12Z</time>
      </trkpt>
      <trkpt lat="46.52451" lon="5.68583">
        <ele>538</ele>
        <time>2021-09-30T07:51:33Z</time>
      </trkpt>
      <trkpt lat="46.52446" lon="5.68584">
        <ele>537.4</ele>
        <time>2021-09-30T07:51:37Z</time>
      </trkpt>
      <trkpt lat="46.52442" lon="5.68585">
        <ele>536.7</ele>
        <time>2021-09-30T07:51:43Z</time>
      </trkpt>
      <trkpt lat="46.52441" lon="5.68578">
        <ele>534.5</ele>
        <time>2021-09-30T07:52:32Z</time>
      </trkpt>
      <trkpt lat="46.5244" lon="5.68571">
        <ele>531.9</ele>
        <time>2021-09-30T07:52:39Z</time>
      </trkpt>
      <trkpt lat="46.52438" lon="5.68565">
        <ele>531</ele>
        <time>2021-09-30T07:52:45Z</time>
      </trkpt>
      <trkpt lat="46.52438" lon="5.68559">
        <ele>530.7</ele>
        <time>2021-09-30T07:52:50Z</time>
      </trkpt>
      <trkpt lat="46.52439" lon="5.68551">
        <ele>530.3</ele>
        <time>2021-09-30T07:52:56Z</time>
      </trkpt>
      <trkpt lat="46.5244" lon="5.68545">
        <ele>529.6</ele>
        <time>2021-09-30T07:53:01Z</time>
      </trkpt>
      <trkpt lat="46.5244" lon="5.68537">
        <ele>528.6</ele>
        <time>2021-09-30T07:53:06Z</time>
      </trkpt>
      <trkpt lat="46.52439" lon="5.6853">
        <ele>527.4</ele>
        <time>2021-09-30T07:53:11Z</time>
      </trkpt>
      <trkpt lat="46.52436" lon="5.68524">
        <ele>527.4</ele>
        <time>2021-09-30T07:53:16Z</time>
      </trkpt>
      <trkpt lat="46.52433" lon="5.68518">
        <ele>527.8</ele>
        <time>2021-09-30T07:53:22Z</time>
      </trkpt>
      <trkpt lat="46.52429" lon="5.68513">
        <ele>528.2</ele>
        <time>2021-09-30T07:53:28Z</time>
      </trkpt>
      <trkpt lat="46.52425" lon="5.68508">
        <ele>528.9</ele>
        <time>2021-09-30T07:53:34Z</time>
      </trkpt>
      <trkpt lat="46.52424" lon="5.68501">
        <ele>528.6</ele>
        <time>2021-09-30T07:53:40Z</time>
      </trkpt>
      <trkpt lat="46.52424" lon="5.68494">
        <ele>527.9</ele>
        <time>2021-09-30T07:53:45Z</time>
      </trkpt>
      <trkpt lat="46.52423" lon="5.68486">
        <ele>527.4</ele>
        <time>2021-09-30T07:53:50Z</time>
      </trkpt>
      <trkpt lat="46.52423" lon="5.68479">
        <ele>526.7</ele>
        <time>2021-09-30T07:53:55Z</time>
      </trkpt>
      <trkpt lat="46.52424" lon="5.68472">
        <ele>525.8</ele>
        <time>2021-09-30T07:54:00Z</time>
      </trkpt>
      <trkpt lat="46.52426" lon="5.68465">
        <ele>525.1</ele>
        <time>2021-09-30T07:54:06Z</time>
      </trkpt>
      <trkpt lat="46.52426" lon="5.68458">
        <ele>524.9</ele>
        <time>2021-09-30T07:54:12Z</time>
      </trkpt>
      <trkpt lat="46.52426" lon="5.68451">
        <ele>524.8</ele>
        <time>2021-09-30T07:54:17Z</time>
      </trkpt>
      <trkpt lat="46.52426" lon="5.68444">
        <ele>524.7</ele>
        <time>2021-09-30T07:54:22Z</time>
      </trkpt>
      <trkpt lat="46.52426" lon="5.68437">
        <ele>524.7</ele>
        <time>2021-09-30T07:54:27Z</time>
      </trkpt>
      <trkpt lat="46.52426" lon="5.6843">
        <ele>523.9</ele>
        <time>2021-09-30T07:54:32Z</time>
      </trkpt>
      <trkpt lat="46.52426" lon="5.68422">
        <ele>523.5</ele>
        <time>2021-09-30T07:54:37Z</time>
      </trkpt>
      <trkpt lat="46.52426" lon="5.68416">
        <ele>523.8</ele>
        <time>2021-09-30T07:54:41Z</time>
      </trkpt>
      <trkpt lat="46.52427" lon="5.68408">
        <ele>524.1</ele>
        <time>2021-09-30T07:54:46Z</time>
      </trkpt>
      <trkpt lat="46.52427" lon="5.68401">
        <ele>524.4</ele>
        <time>2021-09-30T07:54:51Z</time>
      </trkpt>
      <trkpt lat="46.52428" lon="5.68394">
        <ele>524.5</ele>
        <time>2021-09-30T07:54:56Z</time>
      </trkpt>
      <trkpt lat="46.52429" lon="5.68387">
        <ele>524.2</ele>
        <time>2021-09-30T07:55:01Z</time>
      </trkpt>
      <trkpt lat="46.52429" lon="5.6838">
        <ele>523.4</ele>
        <time>2021-09-30T07:55:06Z</time>
      </trkpt>
      <trkpt lat="46.52428" lon="5.68373">
        <ele>522.9</ele>
        <time>2021-09-30T07:55:11Z</time>
      </trkpt>
      <trkpt lat="46.52429" lon="5.68367">
        <ele>523</ele>
        <time>2021-09-30T07:55:16Z</time>
      </trkpt>
      <trkpt lat="46.52431" lon="5.6836">
        <ele>522.9</ele>
        <time>2021-09-30T07:55:21Z</time>
      </trkpt>
      <trkpt lat="46.52434" lon="5.68355">
        <ele>522.7</ele>
        <time>2021-09-30T07:55:27Z</time>
      </trkpt>
      <trkpt lat="46.52437" lon="5.68349">
        <ele>522.6</ele>
        <time>2021-09-30T07:55:33Z</time>
      </trkpt>
      <trkpt lat="46.52438" lon="5.68341">
        <ele>523.1</ele>
        <time>2021-09-30T07:55:39Z</time>
      </trkpt>
      <trkpt lat="46.52438" lon="5.68334">
        <ele>523.6</ele>
        <time>2021-09-30T07:55:44Z</time>
      </trkpt>
      <trkpt lat="46.52438" lon="5.68327">
        <ele>524.4</ele>
        <time>2021-09-30T07:55:52Z</time>
      </trkpt>
      <trkpt lat="46.52437" lon="5.68321">
        <ele>524.2</ele>
        <time>2021-09-30T07:55:57Z</time>
      </trkpt>
      <trkpt lat="46.52438" lon="5.68313">
        <ele>523.7</ele>
        <time>2021-09-30T07:56:02Z</time>
      </trkpt>
      <trkpt lat="46.52437" lon="5.68306">
        <ele>523.3</ele>
        <time>2021-09-30T07:56:06Z</time>
      </trkpt>
      <trkpt lat="46.52436" lon="5.68299">
        <ele>523.3</ele>
        <time>2021-09-30T07:56:11Z</time>
      </trkpt>
      <trkpt lat="46.52434" lon="5.68292">
        <ele>523.6</ele>
        <time>2021-09-30T07:56:15Z</time>
      </trkpt>
      <trkpt lat="46.52431" lon="5.68284">
        <ele>524.2</ele>
        <time>2021-09-30T07:56:19Z</time>
      </trkpt>
      <trkpt lat="46.5243" lon="5.68278">
        <ele>524.5</ele>
        <time>2021-09-30T07:56:23Z</time>
      </trkpt>
      <trkpt lat="46.52428" lon="5.68272">
        <ele>524.7</ele>
        <time>2021-09-30T07:56:28Z</time>
      </trkpt>
      <trkpt lat="46.52426" lon="5.68265">
        <ele>524.5</ele>
        <time>2021-09-30T07:56:35Z</time>
      </trkpt>
      <trkpt lat="46.52424" lon="5.68258">
        <ele>524.2</ele>
        <time>2021-09-30T07:56:40Z</time>
      </trkpt>
      <trkpt lat="46.52422" lon="5.68252">
        <ele>523.8</ele>
        <time>2021-09-30T07:56:44Z</time>
      </trkpt>
      <trkpt lat="46.5242" lon="5.68246">
        <ele>523.9</ele>
        <time>2021-09-30T07:56:50Z</time>
      </trkpt>
      <trkpt lat="46.52417" lon="5.6824">
        <ele>523.9</ele>
        <time>2021-09-30T07:56:55Z</time>
      </trkpt>
      <trkpt lat="46.52416" lon="5.68233">
        <ele>523.5</ele>
        <time>2021-09-30T07:56:59Z</time>
      </trkpt>
      <trkpt lat="46.52415" lon="5.68226">
        <ele>522.9</ele>
        <time>2021-09-30T07:57:04Z</time>
      </trkpt>
      <trkpt lat="46.52416" lon="5.68219">
        <ele>522.6</ele>
        <time>2021-09-30T07:57:09Z</time>
      </trkpt>
      <trkpt lat="46.52416" lon="5.68212">
        <ele>521.9</ele>
        <time>2021-09-30T07:57:14Z</time>
      </trkpt>
      <trkpt lat="46.52418" lon="5.68204">
        <ele>521.4</ele>
        <time>2021-09-30T07:57:19Z</time>
      </trkpt>
      <trkpt lat="46.52418" lon="5.68197">
        <ele>521</ele>
        <time>2021-09-30T07:57:25Z</time>
      </trkpt>
      <trkpt lat="46.52417" lon="5.6819">
        <ele>520.8</ele>
        <time>2021-09-30T07:57:30Z</time>
      </trkpt>
      <trkpt lat="46.52417" lon="5.68184">
        <ele>520.5</ele>
        <time>2021-09-30T07:57:35Z</time>
      </trkpt>
      <trkpt lat="46.52416" lon="5.68177">
        <ele>519</ele>
        <time>2021-09-30T07:57:41Z</time>
      </trkpt>
      <trkpt lat="46.52414" lon="5.6817">
        <ele>518.3</ele>
        <time>2021-09-30T07:57:45Z</time>
      </trkpt>
      <trkpt lat="46.52413" lon="5.68163">
        <ele>517.7</ele>
        <time>2021-09-30T07:57:50Z</time>
      </trkpt>
      <trkpt lat="46.52412" lon="5.68156">
        <ele>517.5</ele>
        <time>2021-09-30T07:57:55Z</time>
      </trkpt>
      <trkpt lat="46.52409" lon="5.68149">
        <ele>517.7</ele>
        <time>2021-09-30T07:58:00Z</time>
      </trkpt>
      <trkpt lat="46.52405" lon="5.68145">
        <ele>517.8</ele>
        <time>2021-09-30T07:58:04Z</time>
      </trkpt>
      <trkpt lat="46.52401" lon="5.68142">
        <ele>518.1</ele>
        <time>2021-09-30T07:58:08Z</time>
      </trkpt>
      <trkpt lat="46.52399" lon="5.68136">
        <ele>518.5</ele>
        <time>2021-09-30T07:58:13Z</time>
      </trkpt>
      <trkpt lat="46.52398" lon="5.68129">
        <ele>518.6</ele>
        <time>2021-09-30T07:58:17Z</time>
      </trkpt>
      <trkpt lat="46.524" lon="5.68123">
        <ele>517.4</ele>
        <time>2021-09-30T07:58:23Z</time>
      </trkpt>
      <trkpt lat="46.52403" lon="5.68116">
        <ele>515</ele>
        <time>2021-09-30T07:58:29Z</time>
      </trkpt>
      <trkpt lat="46.52405" lon="5.68111">
        <ele>512.7</ele>
        <time>2021-09-30T07:58:34Z</time>
      </trkpt>
      <trkpt lat="46.52407" lon="5.68104">
        <ele>509.9</ele>
        <time>2021-09-30T07:58:40Z</time>
      </trkpt>
      <trkpt lat="46.52407" lon="5.68096">
        <ele>508.5</ele>
        <time>2021-09-30T07:58:44Z</time>
      </trkpt>
      <trkpt lat="46.52407" lon="5.68089">
        <ele>508.1</ele>
        <time>2021-09-30T07:58:48Z</time>
      </trkpt>
      <trkpt lat="46.52407" lon="5.68082">
        <ele>508.7</ele>
        <time>2021-09-30T07:58:53Z</time>
      </trkpt>
      <trkpt lat="46.52409" lon="5.68076">
        <ele>510.1</ele>
        <time>2021-09-30T07:58:58Z</time>
      </trkpt>
      <trkpt lat="46.5241" lon="5.6807">
        <ele>511.3</ele>
        <time>2021-09-30T07:59:02Z</time>
      </trkpt>
      <trkpt lat="46.52412" lon="5.68063">
        <ele>512.9</ele>
        <time>2021-09-30T07:59:06Z</time>
      </trkpt>
      <trkpt lat="46.52414" lon="5.68056">
        <ele>514.8</ele>
        <time>2021-09-30T07:59:11Z</time>
      </trkpt>
      <trkpt lat="46.52415" lon="5.68048">
        <ele>516.4</ele>
        <time>2021-09-30T07:59:16Z</time>
      </trkpt>
      <trkpt lat="46.52415" lon="5.68041">
        <ele>517.3</ele>
        <time>2021-09-30T07:59:21Z</time>
      </trkpt>
      <trkpt lat="46.52418" lon="5.68035">
        <ele>518</ele>
        <time>2021-09-30T07:59:27Z</time>
      </trkpt>
      <trkpt lat="46.52422" lon="5.68031">
        <ele>518.7</ele>
        <time>2021-09-30T07:59:33Z</time>
      </trkpt>
      <trkpt lat="46.52426" lon="5.68028">
        <ele>519.2</ele>
        <time>2021-09-30T07:59:39Z</time>
      </trkpt>
      <trkpt lat="46.5243" lon="5.68026">
        <ele>519.6</ele>
        <time>2021-09-30T07:59:45Z</time>
      </trkpt>
      <trkpt lat="46.52435" lon="5.68026">
        <ele>519.5</ele>
        <time>2021-09-30T07:59:49Z</time>
      </trkpt>
      <trkpt lat="46.5244" lon="5.68023">
        <ele>519.6</ele>
        <time>2021-09-30T07:59:54Z</time>
      </trkpt>
      <trkpt lat="46.52443" lon="5.68018">
        <ele>519.3</ele>
        <time>2021-09-30T07:59:59Z</time>
      </trkpt>
      <trkpt lat="46.52446" lon="5.68013">
        <ele>518.8</ele>
        <time>2021-09-30T08:00:04Z</time>
      </trkpt>
      <trkpt lat="46.5245" lon="5.68009">
        <ele>518.7</ele>
        <time>2021-09-30T08:00:09Z</time>
      </trkpt>
      <trkpt lat="46.52455" lon="5.68006">
        <ele>518.6</ele>
        <time>2021-09-30T08:00:15Z</time>
      </trkpt>
      <trkpt lat="46.52459" lon="5.68003">
        <ele>518.5</ele>
        <time>2021-09-30T08:00:20Z</time>
      </trkpt>
      <trkpt lat="46.52463" lon="5.67999">
        <ele>518.3</ele>
        <time>2021-09-30T08:00:26Z</time>
      </trkpt>
      <trkpt lat="46.52468" lon="5.67997">
        <ele>517.7</ele>
        <time>2021-09-30T08:00:33Z</time>
      </trkpt>
      <trkpt lat="46.52473" lon="5.67994">
        <ele>516.8</ele>
        <time>2021-09-30T08:00:38Z</time>
      </trkpt>
      <trkpt lat="46.52477" lon="5.6799">
        <ele>516.2</ele>
        <time>2021-09-30T08:00:42Z</time>
      </trkpt>
      <trkpt lat="46.52479" lon="5.67983">
        <ele>515.6</ele>
        <time>2021-09-30T08:00:47Z</time>
      </trkpt>
      <trkpt lat="46.5248" lon="5.67976">
        <ele>514.4</ele>
        <time>2021-09-30T08:00:52Z</time>
      </trkpt>
      <trkpt lat="46.5248" lon="5.6797">
        <ele>512.9</ele>
        <time>2021-09-30T08:00:57Z</time>
      </trkpt>
      <trkpt lat="46.5248" lon="5.67962">
        <ele>511.4</ele>
        <time>2021-09-30T08:01:02Z</time>
      </trkpt>
      <trkpt lat="46.52479" lon="5.67956">
        <ele>510.4</ele>
        <time>2021-09-30T08:01:08Z</time>
      </trkpt>
      <trkpt lat="46.52479" lon="5.67949">
        <ele>510</ele>
        <time>2021-09-30T08:01:13Z</time>
      </trkpt>
      <trkpt lat="46.52478" lon="5.67942">
        <ele>509.6</ele>
        <time>2021-09-30T08:01:18Z</time>
      </trkpt>
      <trkpt lat="46.52476" lon="5.67934">
        <ele>509.4</ele>
        <time>2021-09-30T08:01:22Z</time>
      </trkpt>
      <trkpt lat="46.52476" lon="5.67927">
        <ele>509.3</ele>
        <time>2021-09-30T08:01:27Z</time>
      </trkpt>
      <trkpt lat="46.52478" lon="5.6792">
        <ele>509.8</ele>
        <time>2021-09-30T08:01:32Z</time>
      </trkpt>
      <trkpt lat="46.5248" lon="5.67914">
        <ele>511.6</ele>
        <time>2021-09-30T08:01:40Z</time>
      </trkpt>
      <trkpt lat="46.52484" lon="5.67912">
        <ele>516.7</ele>
        <time>2021-09-30T08:03:41Z</time>
      </trkpt>
      <trkpt lat="46.5248" lon="5.67914">
        <ele>517.3</ele>
        <time>2021-09-30T08:10:23Z</time>
      </trkpt>
      <trkpt lat="46.52483" lon="5.67908">
        <ele>518.3</ele>
        <time>2021-09-30T08:11:28Z</time>
      </trkpt>
      <trkpt lat="46.52486" lon="5.67903">
        <ele>517.4</ele>
        <time>2021-09-30T08:11:34Z</time>
      </trkpt>
      <trkpt lat="46.5249" lon="5.67898">
        <ele>516.5</ele>
        <time>2021-09-30T08:11:40Z</time>
      </trkpt>
      <trkpt lat="46.52492" lon="5.67892">
        <ele>516</ele>
        <time>2021-09-30T08:11:45Z</time>
      </trkpt>
      <trkpt lat="46.52494" lon="5.67886">
        <ele>515.8</ele>
        <time>2021-09-30T08:11:51Z</time>
      </trkpt>
      <trkpt lat="46.52498" lon="5.6788">
        <ele>515.4</ele>
        <time>2021-09-30T08:11:57Z</time>
      </trkpt>
      <trkpt lat="46.52501" lon="5.67873">
        <ele>515</ele>
        <time>2021-09-30T08:12:02Z</time>
      </trkpt>
      <trkpt lat="46.52503" lon="5.67868">
        <ele>515.7</ele>
        <time>2021-09-30T08:12:08Z</time>
      </trkpt>
      <trkpt lat="46.52508" lon="5.67866">
        <ele>516.7</ele>
        <time>2021-09-30T08:12:12Z</time>
      </trkpt>
      <trkpt lat="46.52513" lon="5.67863">
        <ele>517.1</ele>
        <time>2021-09-30T08:12:17Z</time>
      </trkpt>
      <trkpt lat="46.52517" lon="5.6786">
        <ele>517.8</ele>
        <time>2021-09-30T08:12:21Z</time>
      </trkpt>
      <trkpt lat="46.52521" lon="5.67856">
        <ele>518.8</ele>
        <time>2021-09-30T08:12:27Z</time>
      </trkpt>
      <trkpt lat="46.52527" lon="5.67855">
        <ele>520.2</ele>
        <time>2021-09-30T08:12:32Z</time>
      </trkpt>
      <trkpt lat="46.52532" lon="5.67852">
        <ele>521.1</ele>
        <time>2021-09-30T08:12:36Z</time>
      </trkpt>
      <trkpt lat="46.52536" lon="5.6785">
        <ele>522.3</ele>
        <time>2021-09-30T08:12:41Z</time>
      </trkpt>
      <trkpt lat="46.5254" lon="5.6785">
        <ele>523.4</ele>
        <time>2021-09-30T08:12:47Z</time>
      </trkpt>
      <trkpt lat="46.52545" lon="5.67848">
        <ele>523.4</ele>
        <time>2021-09-30T08:12:52Z</time>
      </trkpt>
      <trkpt lat="46.52548" lon="5.67844">
        <ele>523.5</ele>
        <time>2021-09-30T08:12:57Z</time>
      </trkpt>
      <trkpt lat="46.52551" lon="5.67838">
        <ele>524.6</ele>
        <time>2021-09-30T08:13:01Z</time>
      </trkpt>
      <trkpt lat="46.52554" lon="5.67832">
        <ele>526.5</ele>
        <time>2021-09-30T08:13:06Z</time>
      </trkpt>
      <trkpt lat="46.52558" lon="5.67828">
        <ele>528.5</ele>
        <time>2021-09-30T08:13:12Z</time>
      </trkpt>
      <trkpt lat="46.5256" lon="5.67822">
        <ele>530.3</ele>
        <time>2021-09-30T08:13:17Z</time>
      </trkpt>
      <trkpt lat="46.52563" lon="5.67816">
        <ele>531.6</ele>
        <time>2021-09-30T08:13:21Z</time>
      </trkpt>
      <trkpt lat="46.52566" lon="5.67809">
        <ele>533</ele>
        <time>2021-09-30T08:13:27Z</time>
      </trkpt>
      <trkpt lat="46.52568" lon="5.67802">
        <ele>533.2</ele>
        <time>2021-09-30T08:13:34Z</time>
      </trkpt>
      <trkpt lat="46.5257" lon="5.67795">
        <ele>533.2</ele>
        <time>2021-09-30T08:13:39Z</time>
      </trkpt>
      <trkpt lat="46.52574" lon="5.6779">
        <ele>533.2</ele>
        <time>2021-09-30T08:13:43Z</time>
      </trkpt>
      <trkpt lat="46.52578" lon="5.67786">
        <ele>533.2</ele>
        <time>2021-09-30T08:13:48Z</time>
      </trkpt>
      <trkpt lat="46.52582" lon="5.67783">
        <ele>532.9</ele>
        <time>2021-09-30T08:13:53Z</time>
      </trkpt>
      <trkpt lat="46.52586" lon="5.67781">
        <ele>532.8</ele>
        <time>2021-09-30T08:13:57Z</time>
      </trkpt>
      <trkpt lat="46.52591" lon="5.67779">
        <ele>532.6</ele>
        <time>2021-09-30T08:14:02Z</time>
      </trkpt>
      <trkpt lat="46.52595" lon="5.67775">
        <ele>532</ele>
        <time>2021-09-30T08:14:08Z</time>
      </trkpt>
      <trkpt lat="46.52599" lon="5.67771">
        <ele>531.5</ele>
        <time>2021-09-30T08:14:13Z</time>
      </trkpt>
      <trkpt lat="46.52603" lon="5.67767">
        <ele>531.2</ele>
        <time>2021-09-30T08:14:18Z</time>
      </trkpt>
      <trkpt lat="46.52606" lon="5.67761">
        <ele>530.9</ele>
        <time>2021-09-30T08:14:24Z</time>
      </trkpt>
      <trkpt lat="46.5261" lon="5.67756">
        <ele>530.6</ele>
        <time>2021-09-30T08:14:29Z</time>
      </trkpt>
      <trkpt lat="46.52615" lon="5.67752">
        <ele>529.5</ele>
        <time>2021-09-30T08:14:34Z</time>
      </trkpt>
      <trkpt lat="46.5262" lon="5.6775">
        <ele>528.2</ele>
        <time>2021-09-30T08:14:39Z</time>
      </trkpt>
      <trkpt lat="46.52625" lon="5.67749">
        <ele>526.7</ele>
        <time>2021-09-30T08:14:44Z</time>
      </trkpt>
      <trkpt lat="46.5263" lon="5.67746">
        <ele>524.9</ele>
        <time>2021-09-30T08:14:49Z</time>
      </trkpt>
      <trkpt lat="46.52634" lon="5.67741">
        <ele>523.2</ele>
        <time>2021-09-30T08:14:54Z</time>
      </trkpt>
      <trkpt lat="46.52637" lon="5.67735">
        <ele>521.4</ele>
        <time>2021-09-30T08:14:59Z</time>
      </trkpt>
      <trkpt lat="46.5264" lon="5.67729">
        <ele>519.7</ele>
        <time>2021-09-30T08:15:04Z</time>
      </trkpt>
      <trkpt lat="46.52643" lon="5.67722">
        <ele>519.1</ele>
        <time>2021-09-30T08:15:08Z</time>
      </trkpt>
      <trkpt lat="46.52648" lon="5.67718">
        <ele>519.1</ele>
        <time>2021-09-30T08:15:13Z</time>
      </trkpt>
      <trkpt lat="46.52652" lon="5.67716">
        <ele>519.7</ele>
        <time>2021-09-30T08:15:17Z</time>
      </trkpt>
      <trkpt lat="46.52657" lon="5.67711">
        <ele>520.5</ele>
        <time>2021-09-30T08:15:21Z</time>
      </trkpt>
      <trkpt lat="46.52662" lon="5.67709">
        <ele>521.2</ele>
        <time>2021-09-30T08:15:24Z</time>
      </trkpt>
      <trkpt lat="46.52667" lon="5.6771">
        <ele>522</ele>
        <time>2021-09-30T08:15:28Z</time>
      </trkpt>
      <trkpt lat="46.52672" lon="5.67712">
        <ele>522.4</ele>
        <time>2021-09-30T08:15:33Z</time>
      </trkpt>
      <trkpt lat="46.52677" lon="5.67715">
        <ele>522.7</ele>
        <time>2021-09-30T08:15:38Z</time>
      </trkpt>
      <trkpt lat="46.52682" lon="5.67716">
        <ele>522.6</ele>
        <time>2021-09-30T08:15:44Z</time>
      </trkpt>
      <trkpt lat="46.52687" lon="5.67717">
        <ele>522.5</ele>
        <time>2021-09-30T08:15:49Z</time>
      </trkpt>
      <trkpt lat="46.52691" lon="5.67721">
        <ele>522.6</ele>
        <time>2021-09-30T08:15:54Z</time>
      </trkpt>
      <trkpt lat="46.52696" lon="5.67724">
        <ele>522.8</ele>
        <time>2021-09-30T08:15:58Z</time>
      </trkpt>
      <trkpt lat="46.52699" lon="5.67728">
        <ele>523.4</ele>
        <time>2021-09-30T08:16:02Z</time>
      </trkpt>
      <trkpt lat="46.52702" lon="5.67734">
        <ele>524.1</ele>
        <time>2021-09-30T08:16:06Z</time>
      </trkpt>
      <trkpt lat="46.52702" lon="5.67741">
        <ele>524.4</ele>
        <time>2021-09-30T08:16:11Z</time>
      </trkpt>
      <trkpt lat="46.52702" lon="5.67747">
        <ele>524.9</ele>
        <time>2021-09-30T08:16:16Z</time>
      </trkpt>
      <trkpt lat="46.52705" lon="5.67754">
        <ele>525.4</ele>
        <time>2021-09-30T08:16:21Z</time>
      </trkpt>
      <trkpt lat="46.52707" lon="5.67761">
        <ele>525.3</ele>
        <time>2021-09-30T08:16:27Z</time>
      </trkpt>
      <trkpt lat="46.5271" lon="5.67766">
        <ele>525.2</ele>
        <time>2021-09-30T08:16:32Z</time>
      </trkpt>
      <trkpt lat="46.52713" lon="5.67772">
        <ele>525.3</ele>
        <time>2021-09-30T08:16:37Z</time>
      </trkpt>
      <trkpt lat="46.52716" lon="5.67777">
        <ele>525.2</ele>
        <time>2021-09-30T08:16:42Z</time>
      </trkpt>
      <trkpt lat="46.52719" lon="5.67783">
        <ele>525.1</ele>
        <time>2021-09-30T08:16:47Z</time>
      </trkpt>
      <trkpt lat="46.52722" lon="5.67788">
        <ele>525.4</ele>
        <time>2021-09-30T08:16:51Z</time>
      </trkpt>
      <trkpt lat="46.52726" lon="5.67793">
        <ele>526</ele>
        <time>2021-09-30T08:16:55Z</time>
      </trkpt>
      <trkpt lat="46.5273" lon="5.67799">
        <ele>526.4</ele>
        <time>2021-09-30T08:17:00Z</time>
      </trkpt>
      <trkpt lat="46.52734" lon="5.67803">
        <ele>526.6</ele>
        <time>2021-09-30T08:17:05Z</time>
      </trkpt>
      <trkpt lat="46.52739" lon="5.67808">
        <ele>526.8</ele>
        <time>2021-09-30T08:17:09Z</time>
      </trkpt>
      <trkpt lat="46.52744" lon="5.67811">
        <ele>526.9</ele>
        <time>2021-09-30T08:17:14Z</time>
      </trkpt>
      <trkpt lat="46.52748" lon="5.67814">
        <ele>526.7</ele>
        <time>2021-09-30T08:17:21Z</time>
      </trkpt>
      <trkpt lat="46.52747" lon="5.67821">
        <ele>525.8</ele>
        <time>2021-09-30T08:17:29Z</time>
      </trkpt>
      <trkpt lat="46.52744" lon="5.67826">
        <ele>525.1</ele>
        <time>2021-09-30T08:17:35Z</time>
      </trkpt>
      <trkpt lat="46.5274" lon="5.67832">
        <ele>524.5</ele>
        <time>2021-09-30T08:17:39Z</time>
      </trkpt>
      <trkpt lat="46.52736" lon="5.67837">
        <ele>523.1</ele>
        <time>2021-09-30T08:17:45Z</time>
      </trkpt>
      <trkpt lat="46.52733" lon="5.67842">
        <ele>522.3</ele>
        <time>2021-09-30T08:17:50Z</time>
      </trkpt>
      <trkpt lat="46.5273" lon="5.67847">
        <ele>522.2</ele>
        <time>2021-09-30T08:17:54Z</time>
      </trkpt>
      <trkpt lat="46.52727" lon="5.67853">
        <ele>522</ele>
        <time>2021-09-30T08:17:58Z</time>
      </trkpt>
      <trkpt lat="46.52724" lon="5.67859">
        <ele>522.3</ele>
        <time>2021-09-30T08:18:02Z</time>
      </trkpt>
      <trkpt lat="46.52721" lon="5.67864">
        <ele>522.5</ele>
        <time>2021-09-30T08:18:06Z</time>
      </trkpt>
      <trkpt lat="46.52717" lon="5.6787">
        <ele>522.7</ele>
        <time>2021-09-30T08:18:10Z</time>
      </trkpt>
      <trkpt lat="46.52714" lon="5.67875">
        <ele>523.4</ele>
        <time>2021-09-30T08:18:14Z</time>
      </trkpt>
      <trkpt lat="46.52711" lon="5.67881">
        <ele>524.8</ele>
        <time>2021-09-30T08:18:19Z</time>
      </trkpt>
      <trkpt lat="46.52707" lon="5.67888">
        <ele>525.5</ele>
        <time>2021-09-30T08:18:24Z</time>
      </trkpt>
      <trkpt lat="46.52704" lon="5.67893">
        <ele>525.8</ele>
        <time>2021-09-30T08:18:29Z</time>
      </trkpt>
      <trkpt lat="46.527" lon="5.67899">
        <ele>526.6</ele>
        <time>2021-09-30T08:18:34Z</time>
      </trkpt>
      <trkpt lat="46.52696" lon="5.67903">
        <ele>527.1</ele>
        <time>2021-09-30T08:18:39Z</time>
      </trkpt>
      <trkpt lat="46.52692" lon="5.67908">
        <ele>527.1</ele>
        <time>2021-09-30T08:18:43Z</time>
      </trkpt>
      <trkpt lat="46.52689" lon="5.67912">
        <ele>526.9</ele>
        <time>2021-09-30T08:18:48Z</time>
      </trkpt>
      <trkpt lat="46.52685" lon="5.67916">
        <ele>526.5</ele>
        <time>2021-09-30T08:18:54Z</time>
      </trkpt>
      <trkpt lat="46.52682" lon="5.67923">
        <ele>526.3</ele>
        <time>2021-09-30T08:19:00Z</time>
      </trkpt>
      <trkpt lat="46.5268" lon="5.6793">
        <ele>526.5</ele>
        <time>2021-09-30T08:19:05Z</time>
      </trkpt>
      <trkpt lat="46.5268" lon="5.67937">
        <ele>526.8</ele>
        <time>2021-09-30T08:19:09Z</time>
      </trkpt>
      <trkpt lat="46.52681" lon="5.67945">
        <ele>526.7</ele>
        <time>2021-09-30T08:19:14Z</time>
      </trkpt>
      <trkpt lat="46.5268" lon="5.67952">
        <ele>526.5</ele>
        <time>2021-09-30T08:19:19Z</time>
      </trkpt>
      <trkpt lat="46.5268" lon="5.6796">
        <ele>526.4</ele>
        <time>2021-09-30T08:19:24Z</time>
      </trkpt>
      <trkpt lat="46.5268" lon="5.67967">
        <ele>525.8</ele>
        <time>2021-09-30T08:19:30Z</time>
      </trkpt>
      <trkpt lat="46.52678" lon="5.67974">
        <ele>525.2</ele>
        <time>2021-09-30T08:19:36Z</time>
      </trkpt>
      <trkpt lat="46.52676" lon="5.6798">
        <ele>524.4</ele>
        <time>2021-09-30T08:19:41Z</time>
      </trkpt>
      <trkpt lat="46.52673" lon="5.67986">
        <ele>523.5</ele>
        <time>2021-09-30T08:19:45Z</time>
      </trkpt>
      <trkpt lat="46.52671" lon="5.67993">
        <ele>522.2</ele>
        <time>2021-09-30T08:19:49Z</time>
      </trkpt>
      <trkpt lat="46.52668" lon="5.67998">
        <ele>520.8</ele>
        <time>2021-09-30T08:19:54Z</time>
      </trkpt>
      <trkpt lat="46.52666" lon="5.68004">
        <ele>519.2</ele>
        <time>2021-09-30T08:19:59Z</time>
      </trkpt>
      <trkpt lat="46.52661" lon="5.68009">
        <ele>517.7</ele>
        <time>2021-09-30T08:20:05Z</time>
      </trkpt>
      <trkpt lat="46.52658" lon="5.68014">
        <ele>517.5</ele>
        <time>2021-09-30T08:20:10Z</time>
      </trkpt>
      <trkpt lat="46.52653" lon="5.68016">
        <ele>517.2</ele>
        <time>2021-09-30T08:20:16Z</time>
      </trkpt>
      <trkpt lat="46.52648" lon="5.68019">
        <ele>516.9</ele>
        <time>2021-09-30T08:20:22Z</time>
      </trkpt>
      <trkpt lat="46.52643" lon="5.68022">
        <ele>516.8</ele>
        <time>2021-09-30T08:20:27Z</time>
      </trkpt>
      <trkpt lat="46.52639" lon="5.68026">
        <ele>516.9</ele>
        <time>2021-09-30T08:20:32Z</time>
      </trkpt>
      <trkpt lat="46.52634" lon="5.6803">
        <ele>516.6</ele>
        <time>2021-09-30T08:20:38Z</time>
      </trkpt>
      <trkpt lat="46.52629" lon="5.68034">
        <ele>516.5</ele>
        <time>2021-09-30T08:20:42Z</time>
      </trkpt>
      <trkpt lat="46.52624" lon="5.68038">
        <ele>516.6</ele>
        <time>2021-09-30T08:20:46Z</time>
      </trkpt>
      <trkpt lat="46.52619" lon="5.6804">
        <ele>517</ele>
        <time>2021-09-30T08:20:51Z</time>
      </trkpt>
      <trkpt lat="46.52615" lon="5.68044">
        <ele>517.4</ele>
        <time>2021-09-30T08:20:56Z</time>
      </trkpt>
      <trkpt lat="46.52612" lon="5.6805">
        <ele>518.1</ele>
        <time>2021-09-30T08:21:00Z</time>
      </trkpt>
      <trkpt lat="46.52608" lon="5.68055">
        <ele>518.5</ele>
        <time>2021-09-30T08:21:04Z</time>
      </trkpt>
      <trkpt lat="46.52604" lon="5.6806">
        <ele>518.8</ele>
        <time>2021-09-30T08:21:09Z</time>
      </trkpt>
      <trkpt lat="46.52601" lon="5.68066">
        <ele>519.7</ele>
        <time>2021-09-30T08:21:14Z</time>
      </trkpt>
      <trkpt lat="46.52598" lon="5.68072">
        <ele>520.3</ele>
        <time>2021-09-30T08:21:18Z</time>
      </trkpt>
      <trkpt lat="46.52595" lon="5.68077">
        <ele>520.9</ele>
        <time>2021-09-30T08:21:22Z</time>
      </trkpt>
      <trkpt lat="46.52592" lon="5.68083">
        <ele>521.6</ele>
        <time>2021-09-30T08:21:26Z</time>
      </trkpt>
      <trkpt lat="46.52589" lon="5.6809">
        <ele>522.9</ele>
        <time>2021-09-30T08:21:31Z</time>
      </trkpt>
      <trkpt lat="46.52587" lon="5.68097">
        <ele>524.1</ele>
        <time>2021-09-30T08:21:37Z</time>
      </trkpt>
      <trkpt lat="46.52585" lon="5.68103">
        <ele>524.8</ele>
        <time>2021-09-30T08:21:43Z</time>
      </trkpt>
      <trkpt lat="46.52582" lon="5.6811">
        <ele>524.4</ele>
        <time>2021-09-30T08:21:49Z</time>
      </trkpt>
      <trkpt lat="46.52579" lon="5.68116">
        <ele>523.8</ele>
        <time>2021-09-30T08:21:54Z</time>
      </trkpt>
      <trkpt lat="46.52578" lon="5.68124">
        <ele>522.5</ele>
        <time>2021-09-30T08:22:00Z</time>
      </trkpt>
      <trkpt lat="46.52578" lon="5.68131">
        <ele>521.7</ele>
        <time>2021-09-30T08:22:05Z</time>
      </trkpt>
      <trkpt lat="46.52577" lon="5.68139">
        <ele>521.1</ele>
        <time>2021-09-30T08:22:11Z</time>
      </trkpt>
      <trkpt lat="46.52575" lon="5.68146">
        <ele>520.5</ele>
        <time>2021-09-30T08:22:17Z</time>
      </trkpt>
      <trkpt lat="46.52573" lon="5.68153">
        <ele>520.3</ele>
        <time>2021-09-30T08:22:22Z</time>
      </trkpt>
      <trkpt lat="46.52572" lon="5.68161">
        <ele>520.4</ele>
        <time>2021-09-30T08:22:27Z</time>
      </trkpt>
      <trkpt lat="46.52571" lon="5.68169">
        <ele>520.4</ele>
        <time>2021-09-30T08:22:31Z</time>
      </trkpt>
      <trkpt lat="46.52569" lon="5.68175">
        <ele>520.1</ele>
        <time>2021-09-30T08:22:35Z</time>
      </trkpt>
      <trkpt lat="46.52568" lon="5.68182">
        <ele>519.8</ele>
        <time>2021-09-30T08:22:40Z</time>
      </trkpt>
      <trkpt lat="46.52567" lon="5.6819">
        <ele>519.9</ele>
        <time>2021-09-30T08:22:45Z</time>
      </trkpt>
      <trkpt lat="46.52566" lon="5.68197">
        <ele>520.1</ele>
        <time>2021-09-30T08:22:49Z</time>
      </trkpt>
      <trkpt lat="46.52565" lon="5.68204">
        <ele>520.9</ele>
        <time>2021-09-30T08:22:53Z</time>
      </trkpt>
      <trkpt lat="46.52565" lon="5.68211">
        <ele>521.5</ele>
        <time>2021-09-30T08:22:58Z</time>
      </trkpt>
      <trkpt lat="46.52565" lon="5.68218">
        <ele>522.1</ele>
        <time>2021-09-30T08:23:03Z</time>
      </trkpt>
      <trkpt lat="46.52565" lon="5.68225">
        <ele>522.9</ele>
        <time>2021-09-30T08:23:08Z</time>
      </trkpt>
      <trkpt lat="46.52563" lon="5.68233">
        <ele>523.7</ele>
        <time>2021-09-30T08:23:13Z</time>
      </trkpt>
      <trkpt lat="46.52563" lon="5.6824">
        <ele>524.2</ele>
        <time>2021-09-30T08:23:17Z</time>
      </trkpt>
      <trkpt lat="46.52563" lon="5.68247">
        <ele>524.5</ele>
        <time>2021-09-30T08:23:22Z</time>
      </trkpt>
      <trkpt lat="46.52563" lon="5.68254">
        <ele>524.9</ele>
        <time>2021-09-30T08:23:27Z</time>
      </trkpt>
      <trkpt lat="46.52562" lon="5.68262">
        <ele>525.8</ele>
        <time>2021-09-30T08:23:32Z</time>
      </trkpt>
      <trkpt lat="46.52561" lon="5.68269">
        <ele>526.3</ele>
        <time>2021-09-30T08:23:36Z</time>
      </trkpt>
      <trkpt lat="46.52562" lon="5.68276">
        <ele>526.9</ele>
        <time>2021-09-30T08:23:40Z</time>
      </trkpt>
      <trkpt lat="46.52562" lon="5.68283">
        <ele>527.5</ele>
        <time>2021-09-30T08:23:44Z</time>
      </trkpt>
      <trkpt lat="46.52562" lon="5.6829">
        <ele>527.9</ele>
        <time>2021-09-30T08:23:48Z</time>
      </trkpt>
      <trkpt lat="46.52561" lon="5.68296">
        <ele>528.2</ele>
        <time>2021-09-30T08:23:53Z</time>
      </trkpt>
      <trkpt lat="46.5256" lon="5.68304">
        <ele>528.3</ele>
        <time>2021-09-30T08:23:59Z</time>
      </trkpt>
      <trkpt lat="46.52558" lon="5.68311">
        <ele>528.3</ele>
        <time>2021-09-30T08:24:04Z</time>
      </trkpt>
      <trkpt lat="46.52558" lon="5.68318">
        <ele>528.4</ele>
        <time>2021-09-30T08:24:09Z</time>
      </trkpt>
      <trkpt lat="46.52558" lon="5.68325">
        <ele>528.6</ele>
        <time>2021-09-30T08:24:14Z</time>
      </trkpt>
      <trkpt lat="46.52557" lon="5.68332">
        <ele>529.1</ele>
        <time>2021-09-30T08:24:18Z</time>
      </trkpt>
      <trkpt lat="46.52555" lon="5.68338">
        <ele>529.4</ele>
        <time>2021-09-30T08:24:22Z</time>
      </trkpt>
      <trkpt lat="46.52554" lon="5.68346">
        <ele>529.6</ele>
        <time>2021-09-30T08:24:27Z</time>
      </trkpt>
      <trkpt lat="46.52553" lon="5.68352">
        <ele>529.3</ele>
        <time>2021-09-30T08:24:31Z</time>
      </trkpt>
      <trkpt lat="46.52551" lon="5.68358">
        <ele>529</ele>
        <time>2021-09-30T08:24:35Z</time>
      </trkpt>
      <trkpt lat="46.5255" lon="5.68366">
        <ele>528.7</ele>
        <time>2021-09-30T08:24:40Z</time>
      </trkpt>
      <trkpt lat="46.52549" lon="5.68372">
        <ele>528.6</ele>
        <time>2021-09-30T08:24:44Z</time>
      </trkpt>
      <trkpt lat="46.52546" lon="5.68379">
        <ele>528.4</ele>
        <time>2021-09-30T08:24:48Z</time>
      </trkpt>
      <trkpt lat="46.52543" lon="5.68384">
        <ele>528.2</ele>
        <time>2021-09-30T08:24:52Z</time>
      </trkpt>
      <trkpt lat="46.5254" lon="5.6839">
        <ele>528.4</ele>
        <time>2021-09-30T08:24:56Z</time>
      </trkpt>
      <trkpt lat="46.52537" lon="5.68396">
        <ele>528.3</ele>
        <time>2021-09-30T08:25:01Z</time>
      </trkpt>
      <trkpt lat="46.52534" lon="5.68403">
        <ele>528.4</ele>
        <time>2021-09-30T08:25:05Z</time>
      </trkpt>
      <trkpt lat="46.52532" lon="5.68409">
        <ele>528.5</ele>
        <time>2021-09-30T08:25:09Z</time>
      </trkpt>
      <trkpt lat="46.5253" lon="5.68415">
        <ele>528.8</ele>
        <time>2021-09-30T08:25:14Z</time>
      </trkpt>
      <trkpt lat="46.52527" lon="5.68421">
        <ele>528.7</ele>
        <time>2021-09-30T08:25:19Z</time>
      </trkpt>
      <trkpt lat="46.52525" lon="5.68428">
        <ele>528.7</ele>
        <time>2021-09-30T08:25:24Z</time>
      </trkpt>
      <trkpt lat="46.52523" lon="5.68434">
        <ele>528.9</ele>
        <time>2021-09-30T08:25:28Z</time>
      </trkpt>
      <trkpt lat="46.5252" lon="5.68439">
        <ele>528.9</ele>
        <time>2021-09-30T08:25:32Z</time>
      </trkpt>
      <trkpt lat="46.52516" lon="5.68445">
        <ele>528.5</ele>
        <time>2021-09-30T08:25:37Z</time>
      </trkpt>
      <trkpt lat="46.52513" lon="5.68449">
        <ele>528.1</ele>
        <time>2021-09-30T08:25:41Z</time>
      </trkpt>
      <trkpt lat="46.52509" lon="5.68454">
        <ele>527.6</ele>
        <time>2021-09-30T08:25:45Z</time>
      </trkpt>
      <trkpt lat="46.52505" lon="5.68458">
        <ele>527.5</ele>
        <time>2021-09-30T08:25:50Z</time>
      </trkpt>
      <trkpt lat="46.52502" lon="5.68465">
        <ele>527.7</ele>
        <time>2021-09-30T08:25:55Z</time>
      </trkpt>
      <trkpt lat="46.525" lon="5.68471">
        <ele>527.7</ele>
        <time>2021-09-30T08:25:59Z</time>
      </trkpt>
      <trkpt lat="46.52497" lon="5.68478">
        <ele>527.6</ele>
        <time>2021-09-30T08:26:03Z</time>
      </trkpt>
      <trkpt lat="46.52496" lon="5.68486">
        <ele>527.6</ele>
        <time>2021-09-30T08:26:07Z</time>
      </trkpt>
      <trkpt lat="46.52492" lon="5.6849">
        <ele>527.2</ele>
        <time>2021-09-30T08:26:11Z</time>
      </trkpt>
      <trkpt lat="46.52487" lon="5.68493">
        <ele>526.6</ele>
        <time>2021-09-30T08:26:16Z</time>
      </trkpt>
      <trkpt lat="46.52483" lon="5.68497">
        <ele>526.4</ele>
        <time>2021-09-30T08:26:21Z</time>
      </trkpt>
      <trkpt lat="46.52479" lon="5.68501">
        <ele>526.6</ele>
        <time>2021-09-30T08:26:25Z</time>
      </trkpt>
      <trkpt lat="46.52476" lon="5.68506">
        <ele>526.6</ele>
        <time>2021-09-30T08:26:29Z</time>
      </trkpt>
      <trkpt lat="46.52473" lon="5.68511">
        <ele>527</ele>
        <time>2021-09-30T08:26:33Z</time>
      </trkpt>
      <trkpt lat="46.52468" lon="5.68515">
        <ele>527.6</ele>
        <time>2021-09-30T08:26:38Z</time>
      </trkpt>
      <trkpt lat="46.52464" lon="5.68519">
        <ele>528.3</ele>
        <time>2021-09-30T08:26:42Z</time>
      </trkpt>
      <trkpt lat="46.5246" lon="5.68523">
        <ele>529.2</ele>
        <time>2021-09-30T08:26:47Z</time>
      </trkpt>
      <trkpt lat="46.52456" lon="5.68526">
        <ele>529.7</ele>
        <time>2021-09-30T08:26:51Z</time>
      </trkpt>
      <trkpt lat="46.52452" lon="5.6853">
        <ele>530</ele>
        <time>2021-09-30T08:26:55Z</time>
      </trkpt>
      <trkpt lat="46.52447" lon="5.68532">
        <ele>530.1</ele>
        <time>2021-09-30T08:27:00Z</time>
      </trkpt>
      <trkpt lat="46.52443" lon="5.68536">
        <ele>530.1</ele>
        <time>2021-09-30T08:27:05Z</time>
      </trkpt>
      <trkpt lat="46.52439" lon="5.68542">
        <ele>530</ele>
        <time>2021-09-30T08:27:10Z</time>
      </trkpt>
      <trkpt lat="46.52437" lon="5.68548">
        <ele>530.3</ele>
        <time>2021-09-30T08:27:15Z</time>
      </trkpt>
      <trkpt lat="46.52436" lon="5.68555">
        <ele>530.9</ele>
        <time>2021-09-30T08:27:21Z</time>
      </trkpt>
      <trkpt lat="46.52436" lon="5.68562">
        <ele>532.1</ele>
        <time>2021-09-30T08:27:26Z</time>
      </trkpt>
      <trkpt lat="46.52438" lon="5.68569">
        <ele>532.9</ele>
        <time>2021-09-30T08:27:31Z</time>
      </trkpt>
      <trkpt lat="46.5244" lon="5.68576">
        <ele>532.8</ele>
        <time>2021-09-30T08:27:36Z</time>
      </trkpt>
      <trkpt lat="46.52442" lon="5.68582">
        <ele>532.8</ele>
        <time>2021-09-30T08:27:41Z</time>
      </trkpt>
      <trkpt lat="46.52443" lon="5.68589">
        <ele>532.9</ele>
        <time>2021-09-30T08:27:46Z</time>
      </trkpt>
      <trkpt lat="46.52444" lon="5.68596">
        <ele>533</ele>
        <time>2021-09-30T08:27:51Z</time>
      </trkpt>
      <trkpt lat="46.52445" lon="5.68603">
        <ele>533</ele>
        <time>2021-09-30T08:27:55Z</time>
      </trkpt>
      <trkpt lat="46.52446" lon="5.6861">
        <ele>533.1</ele>
        <time>2021-09-30T08:27:59Z</time>
      </trkpt>
      <trkpt lat="46.52447" lon="5.68617">
        <ele>533.5</ele>
        <time>2021-09-30T08:28:05Z</time>
      </trkpt>
      <trkpt lat="46.52447" lon="5.68624">
        <ele>533.4</ele>
        <time>2021-09-30T08:28:11Z</time>
      </trkpt>
      <trkpt lat="46.52447" lon="5.68631">
        <ele>533.9</ele>
        <time>2021-09-30T08:28:17Z</time>
      </trkpt>
      <trkpt lat="46.52446" lon="5.68637">
        <ele>533.9</ele>
        <time>2021-09-30T08:28:22Z</time>
      </trkpt>
      <trkpt lat="46.52445" lon="5.68644">
        <ele>533.5</ele>
        <time>2021-09-30T08:28:27Z</time>
      </trkpt>
      <trkpt lat="46.52444" lon="5.68652">
        <ele>532.1</ele>
        <time>2021-09-30T08:28:33Z</time>
      </trkpt>
      <trkpt lat="46.52446" lon="5.68659">
        <ele>531</ele>
        <time>2021-09-30T08:28:39Z</time>
      </trkpt>
      <trkpt lat="46.52449" lon="5.68665">
        <ele>529.7</ele>
        <time>2021-09-30T08:28:45Z</time>
      </trkpt>
      <trkpt lat="46.52451" lon="5.68672">
        <ele>528.5</ele>
        <time>2021-09-30T08:28:50Z</time>
      </trkpt>
      <trkpt lat="46.52452" lon="5.68679">
        <ele>527.3</ele>
        <time>2021-09-30T08:28:55Z</time>
      </trkpt>
      <trkpt lat="46.52454" lon="5.68686">
        <ele>526.4</ele>
        <time>2021-09-30T08:29:01Z</time>
      </trkpt>
      <trkpt lat="46.52456" lon="5.68693">
        <ele>525.8</ele>
        <time>2021-09-30T08:29:07Z</time>
      </trkpt>
      <trkpt lat="46.52458" lon="5.68699">
        <ele>525.7</ele>
        <time>2021-09-30T08:29:12Z</time>
      </trkpt>
      <trkpt lat="46.52459" lon="5.68706">
        <ele>525.3</ele>
        <time>2021-09-30T08:29:18Z</time>
      </trkpt>
      <trkpt lat="46.52461" lon="5.68713">
        <ele>525.3</ele>
        <time>2021-09-30T08:29:24Z</time>
      </trkpt>
      <trkpt lat="46.52463" lon="5.68719">
        <ele>525.8</ele>
        <time>2021-09-30T08:29:28Z</time>
      </trkpt>
      <trkpt lat="46.52463" lon="5.68726">
        <ele>526.6</ele>
        <time>2021-09-30T08:29:32Z</time>
      </trkpt>
      <trkpt lat="46.52463" lon="5.68734">
        <ele>527.9</ele>
        <time>2021-09-30T08:29:37Z</time>
      </trkpt>
      <trkpt lat="46.52464" lon="5.6874">
        <ele>528.7</ele>
        <time>2021-09-30T08:29:42Z</time>
      </trkpt>
      <trkpt lat="46.52466" lon="5.68747">
        <ele>529.4</ele>
        <time>2021-09-30T08:29:48Z</time>
      </trkpt>
      <trkpt lat="46.52466" lon="5.68754">
        <ele>533.5</ele>
        <time>2021-09-30T08:30:33Z</time>
      </trkpt>
      <trkpt lat="46.52464" lon="5.68761">
        <ele>532.6</ele>
        <time>2021-09-30T08:30:38Z</time>
      </trkpt>
      <trkpt lat="46.52463" lon="5.68768">
        <ele>531.9</ele>
        <time>2021-09-30T08:30:42Z</time>
      </trkpt>
      <trkpt lat="46.52462" lon="5.68775">
        <ele>530.5</ele>
        <time>2021-09-30T08:30:47Z</time>
      </trkpt>
      <trkpt lat="46.52462" lon="5.68782">
        <ele>529.9</ele>
        <time>2021-09-30T08:30:53Z</time>
      </trkpt>
      <trkpt lat="46.52461" lon="5.68789">
        <ele>529.4</ele>
        <time>2021-09-30T08:31:00Z</time>
      </trkpt>
      <trkpt lat="46.52459" lon="5.68796">
        <ele>528.7</ele>
        <time>2021-09-30T08:31:05Z</time>
      </trkpt>
      <trkpt lat="46.52459" lon="5.68803">
        <ele>527.9</ele>
        <time>2021-09-30T08:31:09Z</time>
      </trkpt>
      <trkpt lat="46.5246" lon="5.6881">
        <ele>527</ele>
        <time>2021-09-30T08:31:13Z</time>
      </trkpt>
      <trkpt lat="46.52465" lon="5.6881">
        <ele>526</ele>
        <time>2021-09-30T08:31:22Z</time>
      </trkpt>
      <trkpt lat="46.5247" lon="5.68811">
        <ele>525.7</ele>
        <time>2021-09-30T08:31:27Z</time>
      </trkpt>
      <trkpt lat="46.52475" lon="5.68811">
        <ele>525.1</ele>
        <time>2021-09-30T08:31:31Z</time>
      </trkpt>
      <trkpt lat="46.52479" lon="5.68807">
        <ele>523.8</ele>
        <time>2021-09-30T08:31:38Z</time>
      </trkpt>
      <trkpt lat="46.52483" lon="5.68809">
        <ele>523.3</ele>
        <time>2021-09-30T08:31:46Z</time>
      </trkpt>
      <trkpt lat="46.52487" lon="5.68813">
        <ele>523.2</ele>
        <time>2021-09-30T08:31:51Z</time>
      </trkpt>
      <trkpt lat="46.52492" lon="5.68816">
        <ele>523.4</ele>
        <time>2021-09-30T08:31:55Z</time>
      </trkpt>
      <trkpt lat="46.52497" lon="5.6882">
        <ele>523.3</ele>
        <time>2021-09-30T08:32:00Z</time>
      </trkpt>
      <trkpt lat="46.52499" lon="5.68826">
        <ele>523</ele>
        <time>2021-09-30T08:32:05Z</time>
      </trkpt>
      <trkpt lat="46.52501" lon="5.68834">
        <ele>522.7</ele>
        <time>2021-09-30T08:32:10Z</time>
      </trkpt>
      <trkpt lat="46.52501" lon="5.68841">
        <ele>522.8</ele>
        <time>2021-09-30T08:32:15Z</time>
      </trkpt>
      <trkpt lat="46.52502" lon="5.68848">
        <ele>523</ele>
        <time>2021-09-30T08:32:20Z</time>
      </trkpt>
      <trkpt lat="46.52502" lon="5.68855">
        <ele>523.6</ele>
        <time>2021-09-30T08:32:25Z</time>
      </trkpt>
      <trkpt lat="46.52501" lon="5.68862">
        <ele>524.2</ele>
        <time>2021-09-30T08:32:30Z</time>
      </trkpt>
      <trkpt lat="46.52505" lon="5.68867">
        <ele>524.8</ele>
        <time>2021-09-30T08:32:35Z</time>
      </trkpt>
      <trkpt lat="46.52507" lon="5.68875">
        <ele>525.6</ele>
        <time>2021-09-30T08:32:40Z</time>
      </trkpt>
      <trkpt lat="46.52509" lon="5.68882">
        <ele>526.5</ele>
        <time>2021-09-30T08:32:45Z</time>
      </trkpt>
      <trkpt lat="46.5251" lon="5.68888">
        <ele>527.4</ele>
        <time>2021-09-30T08:32:49Z</time>
      </trkpt>
      <trkpt lat="46.52512" lon="5.68895">
        <ele>527.6</ele>
        <time>2021-09-30T08:32:54Z</time>
      </trkpt>
      <trkpt lat="46.52513" lon="5.68901">
        <ele>527.1</ele>
        <time>2021-09-30T08:33:02Z</time>
      </trkpt>
      <trkpt lat="46.52516" lon="5.68907">
        <ele>526.7</ele>
        <time>2021-09-30T08:33:07Z</time>
      </trkpt>
      <trkpt lat="46.52517" lon="5.68914">
        <ele>526.2</ele>
        <time>2021-09-30T08:33:12Z</time>
      </trkpt>
      <trkpt lat="46.52519" lon="5.68921">
        <ele>525.8</ele>
        <time>2021-09-30T08:33:17Z</time>
      </trkpt>
      <trkpt lat="46.52521" lon="5.68927">
        <ele>525.5</ele>
        <time>2021-09-30T08:33:21Z</time>
      </trkpt>
      <trkpt lat="46.52523" lon="5.68933">
        <ele>524.7</ele>
        <time>2021-09-30T08:33:25Z</time>
      </trkpt>
      <trkpt lat="46.52525" lon="5.6894">
        <ele>523.7</ele>
        <time>2021-09-30T08:33:31Z</time>
      </trkpt>
      <trkpt lat="46.52526" lon="5.68947">
        <ele>522.3</ele>
        <time>2021-09-30T08:33:39Z</time>
      </trkpt>
      <trkpt lat="46.52528" lon="5.68954">
        <ele>521.7</ele>
        <time>2021-09-30T08:33:44Z</time>
      </trkpt>
      <trkpt lat="46.52529" lon="5.68961">
        <ele>521.2</ele>
        <time>2021-09-30T08:33:49Z</time>
      </trkpt>
      <trkpt lat="46.52529" lon="5.68968">
        <ele>520.5</ele>
        <time>2021-09-30T08:33:54Z</time>
      </trkpt>
      <trkpt lat="46.5253" lon="5.68976">
        <ele>519.7</ele>
        <time>2021-09-30T08:33:58Z</time>
      </trkpt>
      <trkpt lat="46.52531" lon="5.68983">
        <ele>518.6</ele>
        <time>2021-09-30T08:34:03Z</time>
      </trkpt>
      <trkpt lat="46.52533" lon="5.6899">
        <ele>518.1</ele>
        <time>2021-09-30T08:34:09Z</time>
      </trkpt>
      <trkpt lat="46.52535" lon="5.68996">
        <ele>517.6</ele>
        <time>2021-09-30T08:34:13Z</time>
      </trkpt>
      <trkpt lat="46.52537" lon="5.69001">
        <ele>517.2</ele>
        <time>2021-09-30T08:34:16Z</time>
      </trkpt>
      <trkpt lat="46.52541" lon="5.69007">
        <ele>516.9</ele>
        <time>2021-09-30T08:34:20Z</time>
      </trkpt>
      <trkpt lat="46.52542" lon="5.69014">
        <ele>517</ele>
        <time>2021-09-30T08:34:25Z</time>
      </trkpt>
      <trkpt lat="46.52543" lon="5.69022">
        <ele>517.6</ele>
        <time>2021-09-30T08:34:31Z</time>
      </trkpt>
      <trkpt lat="46.52542" lon="5.69029">
        <ele>518.2</ele>
        <time>2021-09-30T08:34:37Z</time>
      </trkpt>
      <trkpt lat="46.52542" lon="5.69036">
        <ele>518.3</ele>
        <time>2021-09-30T08:34:42Z</time>
      </trkpt>
      <trkpt lat="46.52544" lon="5.69042">
        <ele>517.8</ele>
        <time>2021-09-30T08:34:46Z</time>
      </trkpt>
      <trkpt lat="46.52546" lon="5.6905">
        <ele>516.9</ele>
        <time>2021-09-30T08:34:52Z</time>
      </trkpt>
      <trkpt lat="46.52546" lon="5.69056">
        <ele>516.4</ele>
        <time>2021-09-30T08:34:56Z</time>
      </trkpt>
      <trkpt lat="46.52547" lon="5.69063">
        <ele>515.8</ele>
        <time>2021-09-30T08:35:00Z</time>
      </trkpt>
      <trkpt lat="46.52548" lon="5.6907">
        <ele>515.2</ele>
        <time>2021-09-30T08:35:06Z</time>
      </trkpt>
      <trkpt lat="46.52548" lon="5.69078">
        <ele>515</ele>
        <time>2021-09-30T08:35:11Z</time>
      </trkpt>
      <trkpt lat="46.5255" lon="5.69086">
        <ele>515</ele>
        <time>2021-09-30T08:35:15Z</time>
      </trkpt>
      <trkpt lat="46.52552" lon="5.69092">
        <ele>514.9</ele>
        <time>2021-09-30T08:35:19Z</time>
      </trkpt>
      <trkpt lat="46.52551" lon="5.691">
        <ele>514.9</ele>
        <time>2021-09-30T08:35:26Z</time>
      </trkpt>
      <trkpt lat="46.52553" lon="5.69108">
        <ele>515.4</ele>
        <time>2021-09-30T08:35:32Z</time>
      </trkpt>
      <trkpt lat="46.52553" lon="5.69116">
        <ele>515.9</ele>
        <time>2021-09-30T08:35:37Z</time>
      </trkpt>
      <trkpt lat="46.52554" lon="5.69123">
        <ele>516.5</ele>
        <time>2021-09-30T08:35:41Z</time>
      </trkpt>
      <trkpt lat="46.52555" lon="5.6913">
        <ele>517.6</ele>
        <time>2021-09-30T08:35:45Z</time>
      </trkpt>
      <trkpt lat="46.52556" lon="5.69137">
        <ele>519</ele>
        <time>2021-09-30T08:35:50Z</time>
      </trkpt>
      <trkpt lat="46.52557" lon="5.69145">
        <ele>519.4</ele>
        <time>2021-09-30T08:35:55Z</time>
      </trkpt>
      <trkpt lat="46.52558" lon="5.69152">
        <ele>519.7</ele>
        <time>2021-09-30T08:36:00Z</time>
      </trkpt>
      <trkpt lat="46.52558" lon="5.6916">
        <ele>519.5</ele>
        <time>2021-09-30T08:36:05Z</time>
      </trkpt>
      <trkpt lat="46.52557" lon="5.69167">
        <ele>518.5</ele>
        <time>2021-09-30T08:36:11Z</time>
      </trkpt>
      <trkpt lat="46.52556" lon="5.69175">
        <ele>517.8</ele>
        <time>2021-09-30T08:36:17Z</time>
      </trkpt>
      <trkpt lat="46.52556" lon="5.69182">
        <ele>517.6</ele>
        <time>2021-09-30T08:36:22Z</time>
      </trkpt>
      <trkpt lat="46.52554" lon="5.69189">
        <ele>517.2</ele>
        <time>2021-09-30T08:36:28Z</time>
      </trkpt>
      <trkpt lat="46.52552" lon="5.69195">
        <ele>516.9</ele>
        <time>2021-09-30T08:36:33Z</time>
      </trkpt>
      <trkpt lat="46.52548" lon="5.69201">
        <ele>516.6</ele>
        <time>2021-09-30T08:36:38Z</time>
      </trkpt>
      <trkpt lat="46.52546" lon="5.69208">
        <ele>516.2</ele>
        <time>2021-09-30T08:36:44Z</time>
      </trkpt>
      <trkpt lat="46.52546" lon="5.69215">
        <ele>516</ele>
        <time>2021-09-30T08:36:49Z</time>
      </trkpt>
      <trkpt lat="46.52545" lon="5.69222">
        <ele>515.8</ele>
        <time>2021-09-30T08:36:54Z</time>
      </trkpt>
      <trkpt lat="46.52542" lon="5.69228">
        <ele>515.7</ele>
        <time>2021-09-30T08:36:58Z</time>
      </trkpt>
      <trkpt lat="46.5254" lon="5.69234">
        <ele>515.7</ele>
        <time>2021-09-30T08:37:02Z</time>
      </trkpt>
      <trkpt lat="46.5254" lon="5.69241">
        <ele>516.1</ele>
        <time>2021-09-30T08:37:07Z</time>
      </trkpt>
      <trkpt lat="46.52536" lon="5.69248">
        <ele>516.1</ele>
        <time>2021-09-30T08:37:13Z</time>
      </trkpt>
      <trkpt lat="46.52534" lon="5.69254">
        <ele>515.1</ele>
        <time>2021-09-30T08:37:17Z</time>
      </trkpt>
      <trkpt lat="46.52529" lon="5.69258">
        <ele>513.8</ele>
        <time>2021-09-30T08:37:22Z</time>
      </trkpt>
      <trkpt lat="46.52525" lon="5.69262">
        <ele>511.5</ele>
        <time>2021-09-30T08:37:30Z</time>
      </trkpt>
      <trkpt lat="46.52522" lon="5.69267">
        <ele>510.5</ele>
        <time>2021-09-30T08:37:36Z</time>
      </trkpt>
      <trkpt lat="46.5252" lon="5.69274">
        <ele>510.4</ele>
        <time>2021-09-30T08:37:41Z</time>
      </trkpt>
      <trkpt lat="46.52517" lon="5.6928">
        <ele>510.1</ele>
        <time>2021-09-30T08:37:45Z</time>
      </trkpt>
      <trkpt lat="46.52513" lon="5.69284">
        <ele>509.8</ele>
        <time>2021-09-30T08:37:49Z</time>
      </trkpt>
      <trkpt lat="46.52509" lon="5.69289">
        <ele>510.4</ele>
        <time>2021-09-30T08:37:54Z</time>
      </trkpt>
      <trkpt lat="46.52506" lon="5.69294">
        <ele>511.6</ele>
        <time>2021-09-30T08:37:59Z</time>
      </trkpt>
      <trkpt lat="46.52503" lon="5.693">
        <ele>511.9</ele>
        <time>2021-09-30T08:38:03Z</time>
      </trkpt>
      <trkpt lat="46.52501" lon="5.69306">
        <ele>511.7</ele>
        <time>2021-09-30T08:38:08Z</time>
      </trkpt>
      <trkpt lat="46.52497" lon="5.6931">
        <ele>511.3</ele>
        <time>2021-09-30T08:38:14Z</time>
      </trkpt>
      <trkpt lat="46.52492" lon="5.69311">
        <ele>510.9</ele>
        <time>2021-09-30T08:38:19Z</time>
      </trkpt>
      <trkpt lat="46.52487" lon="5.69312">
        <ele>510.2</ele>
        <time>2021-09-30T08:38:26Z</time>
      </trkpt>
      <trkpt lat="46.52482" lon="5.69312">
        <ele>509.6</ele>
        <time>2021-09-30T08:38:30Z</time>
      </trkpt>
      <trkpt lat="46.52478" lon="5.69311">
        <ele>509.1</ele>
        <time>2021-09-30T08:38:34Z</time>
      </trkpt>
      <trkpt lat="46.52473" lon="5.69311">
        <ele>509.1</ele>
        <time>2021-09-30T08:38:38Z</time>
      </trkpt>
      <trkpt lat="46.52468" lon="5.69309">
        <ele>509.4</ele>
        <time>2021-09-30T08:38:42Z</time>
      </trkpt>
      <trkpt lat="46.52464" lon="5.69308">
        <ele>509.7</ele>
        <time>2021-09-30T08:38:46Z</time>
      </trkpt>
      <trkpt lat="46.52459" lon="5.69307">
        <ele>509.9</ele>
        <time>2021-09-30T08:38:50Z</time>
      </trkpt>
      <trkpt lat="46.52454" lon="5.69303">
        <ele>510.6</ele>
        <time>2021-09-30T08:38:55Z</time>
      </trkpt>
      <trkpt lat="46.52449" lon="5.693">
        <ele>511.4</ele>
        <time>2021-09-30T08:39:00Z</time>
      </trkpt>
      <trkpt lat="46.52444" lon="5.69297">
        <ele>512.5</ele>
        <time>2021-09-30T08:39:05Z</time>
      </trkpt>
      <trkpt lat="46.5244" lon="5.69294">
        <ele>513.4</ele>
        <time>2021-09-30T08:39:11Z</time>
      </trkpt>
      <trkpt lat="46.52436" lon="5.6929">
        <ele>514.9</ele>
        <time>2021-09-30T08:39:17Z</time>
      </trkpt>
      <trkpt lat="46.52431" lon="5.6929">
        <ele>515.7</ele>
        <time>2021-09-30T08:39:22Z</time>
      </trkpt>
      <trkpt lat="46.52426" lon="5.69291">
        <ele>515.5</ele>
        <time>2021-09-30T08:39:26Z</time>
      </trkpt>
      <trkpt lat="46.52422" lon="5.6929">
        <ele>515.4</ele>
        <time>2021-09-30T08:39:30Z</time>
      </trkpt>
      <trkpt lat="46.52417" lon="5.69288">
        <ele>515.5</ele>
        <time>2021-09-30T08:39:35Z</time>
      </trkpt>
      <trkpt lat="46.52412" lon="5.69286">
        <ele>515.2</ele>
        <time>2021-09-30T08:39:40Z</time>
      </trkpt>
      <trkpt lat="46.52408" lon="5.69283">
        <ele>515</ele>
        <time>2021-09-30T08:39:44Z</time>
      </trkpt>
      <trkpt lat="46.52403" lon="5.69283">
        <ele>514.3</ele>
        <time>2021-09-30T08:39:49Z</time>
      </trkpt>
      <trkpt lat="46.52399" lon="5.69287">
        <ele>512.7</ele>
        <time>2021-09-30T08:39:56Z</time>
      </trkpt>
      <trkpt lat="46.52395" lon="5.69291">
        <ele>510.5</ele>
        <time>2021-09-30T08:40:13Z</time>
      </trkpt>
      <trkpt lat="46.52395" lon="5.69298">
        <ele>509.8</ele>
        <time>2021-09-30T08:40:21Z</time>
      </trkpt>
      <trkpt lat="46.52394" lon="5.69304">
        <ele>510.8</ele>
        <time>2021-09-30T08:40:40Z</time>
      </trkpt>
      <trkpt lat="46.5239" lon="5.6931">
        <ele>511.1</ele>
        <time>2021-09-30T08:40:47Z</time>
      </trkpt>
      <trkpt lat="46.52386" lon="5.69316">
        <ele>511.1</ele>
        <time>2021-09-30T08:40:52Z</time>
      </trkpt>
      <trkpt lat="46.52384" lon="5.69322">
        <ele>511.1</ele>
        <time>2021-09-30T08:40:58Z</time>
      </trkpt>
      <trkpt lat="46.52381" lon="5.69327">
        <ele>511.3</ele>
        <time>2021-09-30T08:41:03Z</time>
      </trkpt>
      <trkpt lat="46.52377" lon="5.69331">
        <ele>510.5</ele>
        <time>2021-09-30T08:41:08Z</time>
      </trkpt>
      <trkpt lat="46.52373" lon="5.69335">
        <ele>508.6</ele>
        <time>2021-09-30T08:41:17Z</time>
      </trkpt>
      <trkpt lat="46.5237" lon="5.69339">
        <ele>507.6</ele>
        <time>2021-09-30T08:41:23Z</time>
      </trkpt>
      <trkpt lat="46.52366" lon="5.69343">
        <ele>506.7</ele>
        <time>2021-09-30T08:41:29Z</time>
      </trkpt>
      <trkpt lat="46.52364" lon="5.69349">
        <ele>505.6</ele>
        <time>2021-09-30T08:41:34Z</time>
      </trkpt>
      <trkpt lat="46.52362" lon="5.69355">
        <ele>504.6</ele>
        <time>2021-09-30T08:41:38Z</time>
      </trkpt>
      <trkpt lat="46.52359" lon="5.69361">
        <ele>503.7</ele>
        <time>2021-09-30T08:41:42Z</time>
      </trkpt>
      <trkpt lat="46.52356" lon="5.69367">
        <ele>503.3</ele>
        <time>2021-09-30T08:41:47Z</time>
      </trkpt>
      <trkpt lat="46.52353" lon="5.69372">
        <ele>503</ele>
        <time>2021-09-30T08:41:52Z</time>
      </trkpt>
      <trkpt lat="46.52351" lon="5.69378">
        <ele>502.7</ele>
        <time>2021-09-30T08:41:58Z</time>
      </trkpt>
      <trkpt lat="46.52348" lon="5.69385">
        <ele>502</ele>
        <time>2021-09-30T08:42:04Z</time>
      </trkpt>
      <trkpt lat="46.52345" lon="5.6939">
        <ele>501.4</ele>
        <time>2021-09-30T08:42:08Z</time>
      </trkpt>
      <trkpt lat="46.52342" lon="5.69396">
        <ele>500.2</ele>
        <time>2021-09-30T08:42:13Z</time>
      </trkpt>
      <trkpt lat="46.52339" lon="5.694">
        <ele>500.1</ele>
        <time>2021-09-30T08:42:20Z</time>
      </trkpt>
      <trkpt lat="46.52335" lon="5.69398">
        <ele>500.9</ele>
        <time>2021-09-30T08:42:29Z</time>
      </trkpt>
      <trkpt lat="46.52332" lon="5.69393">
        <ele>500.6</ele>
        <time>2021-09-30T08:43:59Z</time>
      </trkpt>
      <trkpt lat="46.52337" lon="5.69395">
        <ele>501.3</ele>
        <time>2021-09-30T08:49:34Z</time>
      </trkpt>
      <trkpt lat="46.52339" lon="5.69402">
        <ele>503.1</ele>
        <time>2021-09-30T08:49:44Z</time>
      </trkpt>
      <trkpt lat="46.5234" lon="5.6941">
        <ele>503.3</ele>
        <time>2021-09-30T08:49:51Z</time>
      </trkpt>
      <trkpt lat="46.5234" lon="5.69417">
        <ele>503.7</ele>
        <time>2021-09-30T08:49:56Z</time>
      </trkpt>
      <trkpt lat="46.52341" lon="5.69424">
        <ele>504.2</ele>
        <time>2021-09-30T08:50:03Z</time>
      </trkpt>
      <trkpt lat="46.52342" lon="5.69432">
        <ele>504</ele>
        <time>2021-09-30T08:50:10Z</time>
      </trkpt>
      <trkpt lat="46.52344" lon="5.69439">
        <ele>503.7</ele>
        <time>2021-09-30T08:50:15Z</time>
      </trkpt>
      <trkpt lat="46.52347" lon="5.69445">
        <ele>503.3</ele>
        <time>2021-09-30T08:50:21Z</time>
      </trkpt>
      <trkpt lat="46.52349" lon="5.69451">
        <ele>503.4</ele>
        <time>2021-09-30T08:50:27Z</time>
      </trkpt>
      <trkpt lat="46.52351" lon="5.69458">
        <ele>503.5</ele>
        <time>2021-09-30T08:50:33Z</time>
      </trkpt>
      <trkpt lat="46.52351" lon="5.69466">
        <ele>503.7</ele>
        <time>2021-09-30T08:50:38Z</time>
      </trkpt>
      <trkpt lat="46.52349" lon="5.69473">
        <ele>503.5</ele>
        <time>2021-09-30T08:50:43Z</time>
      </trkpt>
      <trkpt lat="46.52346" lon="5.69478">
        <ele>502.8</ele>
        <time>2021-09-30T08:50:48Z</time>
      </trkpt>
      <trkpt lat="46.52343" lon="5.69483">
        <ele>502.2</ele>
        <time>2021-09-30T08:50:54Z</time>
      </trkpt>
      <trkpt lat="46.52341" lon="5.69489">
        <ele>502.1</ele>
        <time>2021-09-30T08:50:59Z</time>
      </trkpt>
      <trkpt lat="46.52339" lon="5.69495">
        <ele>501.9</ele>
        <time>2021-09-30T08:51:03Z</time>
      </trkpt>
      <trkpt lat="46.5234" lon="5.69503">
        <ele>504.4</ele>
        <time>2021-09-30T08:52:55Z</time>
      </trkpt>
      <trkpt lat="46.52341" lon="5.69509">
        <ele>502.1</ele>
        <time>2021-09-30T08:54:05Z</time>
      </trkpt>
      <trkpt lat="46.52344" lon="5.69515">
        <ele>502.4</ele>
        <time>2021-09-30T08:54:12Z</time>
      </trkpt>
      <trkpt lat="46.52347" lon="5.69521">
        <ele>502.9</ele>
        <time>2021-09-30T08:54:18Z</time>
      </trkpt>
      <trkpt lat="46.5235" lon="5.69528">
        <ele>503.6</ele>
        <time>2021-09-30T08:54:24Z</time>
      </trkpt>
      <trkpt lat="46.52354" lon="5.69531">
        <ele>504.4</ele>
        <time>2021-09-30T08:54:28Z</time>
      </trkpt>
      <trkpt lat="46.52358" lon="5.69535">
        <ele>505.2</ele>
        <time>2021-09-30T08:54:33Z</time>
      </trkpt>
      <trkpt lat="46.52362" lon="5.69539">
        <ele>506.3</ele>
        <time>2021-09-30T08:54:38Z</time>
      </trkpt>
      <trkpt lat="46.52367" lon="5.69543">
        <ele>507.3</ele>
        <time>2021-09-30T08:54:43Z</time>
      </trkpt>
      <trkpt lat="46.52371" lon="5.69548">
        <ele>508.1</ele>
        <time>2021-09-30T08:54:49Z</time>
      </trkpt>
      <trkpt lat="46.52375" lon="5.69553">
        <ele>507.9</ele>
        <time>2021-09-30T08:54:55Z</time>
      </trkpt>
      <trkpt lat="46.52377" lon="5.69559">
        <ele>506.6</ele>
        <time>2021-09-30T08:55:00Z</time>
      </trkpt>
      <trkpt lat="46.5238" lon="5.69565">
        <ele>504.6</ele>
        <time>2021-09-30T08:55:07Z</time>
      </trkpt>
      <trkpt lat="46.52384" lon="5.69568">
        <ele>502.7</ele>
        <time>2021-09-30T08:55:12Z</time>
      </trkpt>
      <trkpt lat="46.52388" lon="5.69573">
        <ele>500.6</ele>
        <time>2021-09-30T08:55:18Z</time>
      </trkpt>
      <trkpt lat="46.52392" lon="5.69576">
        <ele>499.1</ele>
        <time>2021-09-30T08:55:24Z</time>
      </trkpt>
      <trkpt lat="46.52397" lon="5.69579">
        <ele>498.7</ele>
        <time>2021-09-30T08:55:29Z</time>
      </trkpt>
      <trkpt lat="46.52402" lon="5.6958">
        <ele>498.5</ele>
        <time>2021-09-30T08:55:34Z</time>
      </trkpt>
      <trkpt lat="46.52407" lon="5.6958">
        <ele>498.5</ele>
        <time>2021-09-30T08:55:38Z</time>
      </trkpt>
      <trkpt lat="46.52412" lon="5.69578">
        <ele>498.6</ele>
        <time>2021-09-30T08:55:46Z</time>
      </trkpt>
      <trkpt lat="46.52417" lon="5.69578">
        <ele>498.7</ele>
        <time>2021-09-30T08:55:52Z</time>
      </trkpt>
      <trkpt lat="46.52421" lon="5.69577">
        <ele>499.2</ele>
        <time>2021-09-30T08:56:00Z</time>
      </trkpt>
      <trkpt lat="46.52426" lon="5.69577">
        <ele>499.6</ele>
        <time>2021-09-30T08:56:06Z</time>
      </trkpt>
      <trkpt lat="46.52431" lon="5.69578">
        <ele>499.7</ele>
        <time>2021-09-30T08:56:13Z</time>
      </trkpt>
      <trkpt lat="46.52436" lon="5.69579">
        <ele>499.6</ele>
        <time>2021-09-30T08:56:17Z</time>
      </trkpt>
      <trkpt lat="46.5244" lon="5.69579">
        <ele>499.6</ele>
        <time>2021-09-30T08:56:22Z</time>
      </trkpt>
      <trkpt lat="46.52445" lon="5.6958">
        <ele>500.1</ele>
        <time>2021-09-30T08:56:30Z</time>
      </trkpt>
      <trkpt lat="46.52449" lon="5.69582">
        <ele>501.1</ele>
        <time>2021-09-30T08:56:35Z</time>
      </trkpt>
      <trkpt lat="46.52454" lon="5.69584">
        <ele>502.4</ele>
        <time>2021-09-30T08:56:39Z</time>
      </trkpt>
      <trkpt lat="46.52459" lon="5.69587">
        <ele>503.5</ele>
        <time>2021-09-30T08:56:42Z</time>
      </trkpt>
      <trkpt lat="46.52463" lon="5.6959">
        <ele>504.5</ele>
        <time>2021-09-30T08:56:46Z</time>
      </trkpt>
      <trkpt lat="46.52467" lon="5.69594">
        <ele>504.5</ele>
        <time>2021-09-30T08:56:53Z</time>
      </trkpt>
      <trkpt lat="46.52471" lon="5.69597">
        <ele>504.2</ele>
        <time>2021-09-30T08:56:58Z</time>
      </trkpt>
      <trkpt lat="46.52475" lon="5.69602">
        <ele>505</ele>
        <time>2021-09-30T08:57:05Z</time>
      </trkpt>
      <trkpt lat="46.5248" lon="5.69605">
        <ele>506.4</ele>
        <time>2021-09-30T08:57:13Z</time>
      </trkpt>
      <trkpt lat="46.52485" lon="5.69608">
        <ele>507</ele>
        <time>2021-09-30T08:57:19Z</time>
      </trkpt>
      <trkpt lat="46.52489" lon="5.69611">
        <ele>507.6</ele>
        <time>2021-09-30T08:57:26Z</time>
      </trkpt>
      <trkpt lat="46.52494" lon="5.69611">
        <ele>508</ele>
        <time>2021-09-30T08:57:31Z</time>
      </trkpt>
      <trkpt lat="46.52498" lon="5.69618">
        <ele>509.5</ele>
        <time>2021-09-30T08:57:52Z</time>
      </trkpt>
      <trkpt lat="46.52502" lon="5.69622">
        <ele>510.9</ele>
        <time>2021-09-30T08:57:56Z</time>
      </trkpt>
      <trkpt lat="46.52508" lon="5.69621">
        <ele>512.4</ele>
        <time>2021-09-30T08:58:04Z</time>
      </trkpt>
      <trkpt lat="46.52512" lon="5.69619">
        <ele>513.6</ele>
        <time>2021-09-30T08:58:16Z</time>
      </trkpt>
      <trkpt lat="46.52517" lon="5.69618">
        <ele>514.5</ele>
        <time>2021-09-30T08:58:20Z</time>
      </trkpt>
      <trkpt lat="46.52522" lon="5.69619">
        <ele>513.7</ele>
        <time>2021-09-30T08:58:28Z</time>
      </trkpt>
      <trkpt lat="46.52527" lon="5.69621">
        <ele>511.1</ele>
        <time>2021-09-30T08:58:36Z</time>
      </trkpt>
      <trkpt lat="46.52532" lon="5.69623">
        <ele>508</ele>
        <time>2021-09-30T08:58:43Z</time>
      </trkpt>
      <trkpt lat="46.52536" lon="5.69627">
        <ele>505.5</ele>
        <time>2021-09-30T08:58:52Z</time>
      </trkpt>
      <trkpt lat="46.52539" lon="5.69632">
        <ele>504.1</ele>
        <time>2021-09-30T08:59:03Z</time>
      </trkpt>
      <trkpt lat="46.52539" lon="5.69639">
        <ele>502.4</ele>
        <time>2021-09-30T08:59:10Z</time>
      </trkpt>
      <trkpt lat="46.52539" lon="5.69646">
        <ele>500.3</ele>
        <time>2021-09-30T08:59:17Z</time>
      </trkpt>
      <trkpt lat="46.52541" lon="5.69653">
        <ele>498.7</ele>
        <time>2021-09-30T08:59:24Z</time>
      </trkpt>
      <trkpt lat="46.52543" lon="5.69659">
        <ele>497.4</ele>
        <time>2021-09-30T08:59:30Z</time>
      </trkpt>
      <trkpt lat="46.52548" lon="5.69663">
        <ele>496.5</ele>
        <time>2021-09-30T08:59:52Z</time>
      </trkpt>
      <trkpt lat="46.52553" lon="5.69661">
        <ele>495.9</ele>
        <time>2021-09-30T09:00:04Z</time>
      </trkpt>
      <trkpt lat="46.52557" lon="5.69663">
        <ele>496</ele>
        <time>2021-09-30T09:00:09Z</time>
      </trkpt>
      <trkpt lat="46.52552" lon="5.69662">
        <ele>492.7</ele>
        <time>2021-09-30T09:00:28Z</time>
      </trkpt>
      <trkpt lat="46.52557" lon="5.69659">
        <ele>490.6</ele>
        <time>2021-09-30T09:00:42Z</time>
      </trkpt>
      <trkpt lat="46.52561" lon="5.69655">
        <ele>490.1</ele>
        <time>2021-09-30T09:00:49Z</time>
      </trkpt>
      <trkpt lat="46.52564" lon="5.6965">
        <ele>489.5</ele>
        <time>2021-09-30T09:01:05Z</time>
      </trkpt>
      <trkpt lat="46.52568" lon="5.69646">
        <ele>488.3</ele>
        <time>2021-09-30T09:01:12Z</time>
      </trkpt>
      <trkpt lat="46.52572" lon="5.69641">
        <ele>485.3</ele>
        <time>2021-09-30T09:01:21Z</time>
      </trkpt>
      <trkpt lat="46.52577" lon="5.69641">
        <ele>482.5</ele>
        <time>2021-09-30T09:01:28Z</time>
      </trkpt>
      <trkpt lat="46.52581" lon="5.69644">
        <ele>481.6</ele>
        <time>2021-09-30T09:01:36Z</time>
      </trkpt>
      <trkpt lat="46.52586" lon="5.69646">
        <ele>480</ele>
        <time>2021-09-30T09:01:54Z</time>
      </trkpt>
      <trkpt lat="46.52589" lon="5.69641">
        <ele>476.3</ele>
        <time>2021-09-30T09:02:20Z</time>
      </trkpt>
      <trkpt lat="46.52591" lon="5.69634">
        <ele>474.3</ele>
        <time>2021-09-30T09:02:31Z</time>
      </trkpt>
      <trkpt lat="46.52592" lon="5.69624">
        <ele>470</ele>
        <time>2021-09-30T09:02:56Z</time>
      </trkpt>
      <trkpt lat="46.52593" lon="5.69617">
        <ele>469.7</ele>
        <time>2021-09-30T09:03:04Z</time>
      </trkpt>
      <trkpt lat="46.52594" lon="5.69611">
        <ele>470.8</ele>
        <time>2021-09-30T09:03:12Z</time>
      </trkpt>
      <trkpt lat="46.52593" lon="5.69604">
        <ele>472.4</ele>
        <time>2021-09-30T09:03:19Z</time>
      </trkpt>
      <trkpt lat="46.52595" lon="5.69597">
        <ele>474.4</ele>
        <time>2021-09-30T09:03:28Z</time>
      </trkpt>
      <trkpt lat="46.52596" lon="5.6959">
        <ele>475</ele>
        <time>2021-09-30T09:03:34Z</time>
      </trkpt>
      <trkpt lat="46.52599" lon="5.69584">
        <ele>474.5</ele>
        <time>2021-09-30T09:03:42Z</time>
      </trkpt>
      <trkpt lat="46.52602" lon="5.69579">
        <ele>474</ele>
        <time>2021-09-30T09:03:51Z</time>
      </trkpt>
      <trkpt lat="46.52606" lon="5.69575">
        <ele>474.2</ele>
        <time>2021-09-30T09:03:58Z</time>
      </trkpt>
      <trkpt lat="46.52609" lon="5.6957">
        <ele>473.5</ele>
        <time>2021-09-30T09:04:05Z</time>
      </trkpt>
      <trkpt lat="46.52611" lon="5.69564">
        <ele>472.3</ele>
        <time>2021-09-30T09:04:12Z</time>
      </trkpt>
      <trkpt lat="46.52614" lon="5.69558">
        <ele>471.7</ele>
        <time>2021-09-30T09:04:19Z</time>
      </trkpt>
      <trkpt lat="46.52616" lon="5.69552">
        <ele>471.1</ele>
        <time>2021-09-30T09:04:24Z</time>
      </trkpt>
      <trkpt lat="46.52619" lon="5.69547">
        <ele>469.9</ele>
        <time>2021-09-30T09:04:31Z</time>
      </trkpt>
      <trkpt lat="46.52623" lon="5.69541">
        <ele>469.8</ele>
        <time>2021-09-30T09:04:37Z</time>
      </trkpt>
      <trkpt lat="46.52625" lon="5.69536">
        <ele>469.2</ele>
        <time>2021-09-30T09:04:43Z</time>
      </trkpt>
      <trkpt lat="46.52628" lon="5.6953">
        <ele>468.3</ele>
        <time>2021-09-30T09:05:20Z</time>
      </trkpt>
      <trkpt lat="46.5263" lon="5.69524">
        <ele>468.2</ele>
        <time>2021-09-30T09:05:24Z</time>
      </trkpt>
      <trkpt lat="46.52632" lon="5.69518">
        <ele>467.3</ele>
        <time>2021-09-30T09:05:29Z</time>
      </trkpt>
      <trkpt lat="46.52634" lon="5.69511">
        <ele>466.3</ele>
        <time>2021-09-30T09:05:34Z</time>
      </trkpt>
      <trkpt lat="46.52634" lon="5.69504">
        <ele>465.6</ele>
        <time>2021-09-30T09:05:38Z</time>
      </trkpt>
      <trkpt lat="46.52635" lon="5.69498">
        <ele>465</ele>
        <time>2021-09-30T09:05:42Z</time>
      </trkpt>
      <trkpt lat="46.52639" lon="5.69494">
        <ele>464.3</ele>
        <time>2021-09-30T09:05:47Z</time>
      </trkpt>
      <trkpt lat="46.52641" lon="5.69487">
        <ele>463.4</ele>
        <time>2021-09-30T09:05:51Z</time>
      </trkpt>
      <trkpt lat="46.52641" lon="5.6948">
        <ele>462.8</ele>
        <time>2021-09-30T09:05:56Z</time>
      </trkpt>
      <trkpt lat="46.52644" lon="5.69473">
        <ele>462.2</ele>
        <time>2021-09-30T09:06:00Z</time>
      </trkpt>
      <trkpt lat="46.52645" lon="5.69467">
        <ele>461.4</ele>
        <time>2021-09-30T09:06:05Z</time>
      </trkpt>
      <trkpt lat="46.52647" lon="5.69461">
        <ele>460.5</ele>
        <time>2021-09-30T09:06:11Z</time>
      </trkpt>
      <trkpt lat="46.5265" lon="5.69456">
        <ele>459.5</ele>
        <time>2021-09-30T09:06:17Z</time>
      </trkpt>
      <trkpt lat="46.52655" lon="5.69453">
        <ele>458.5</ele>
        <time>2021-09-30T09:06:25Z</time>
      </trkpt>
      <trkpt lat="46.52655" lon="5.69446">
        <ele>459.2</ele>
        <time>2021-09-30T09:06:37Z</time>
      </trkpt>
      <trkpt lat="46.52658" lon="5.69439">
        <ele>458.3</ele>
        <time>2021-09-30T09:06:47Z</time>
      </trkpt>
      <trkpt lat="46.5266" lon="5.69432">
        <ele>457.4</ele>
        <time>2021-09-30T09:06:52Z</time>
      </trkpt>
      <trkpt lat="46.52662" lon="5.69426">
        <ele>456.7</ele>
        <time>2021-09-30T09:06:58Z</time>
      </trkpt>
      <trkpt lat="46.52665" lon="5.69421">
        <ele>456.1</ele>
        <time>2021-09-30T09:07:06Z</time>
      </trkpt>
      <trkpt lat="46.5267" lon="5.69418">
        <ele>455.4</ele>
        <time>2021-09-30T09:07:12Z</time>
      </trkpt>
      <trkpt lat="46.52675" lon="5.69418">
        <ele>454.3</ele>
        <time>2021-09-30T09:07:15Z</time>
      </trkpt>
      <trkpt lat="46.5268" lon="5.69422">
        <ele>452.2</ele>
        <time>2021-09-30T09:07:19Z</time>
      </trkpt>
      <trkpt lat="46.52684" lon="5.69425">
        <ele>447.7</ele>
        <time>2021-09-30T09:07:27Z</time>
      </trkpt>
      <trkpt lat="46.52688" lon="5.69429">
        <ele>444.7</ele>
        <time>2021-09-30T09:07:34Z</time>
      </trkpt>
      <trkpt lat="46.52691" lon="5.69435">
        <ele>442.3</ele>
        <time>2021-09-30T09:07:39Z</time>
      </trkpt>
      <trkpt lat="46.52695" lon="5.69439">
        <ele>438.8</ele>
        <time>2021-09-30T09:07:46Z</time>
      </trkpt>
      <trkpt lat="46.52698" lon="5.69445">
        <ele>436.4</ele>
        <time>2021-09-30T09:07:53Z</time>
      </trkpt>
      <trkpt lat="46.52699" lon="5.69451">
        <ele>433.6</ele>
        <time>2021-09-30T09:08:04Z</time>
      </trkpt>
      <trkpt lat="46.52704" lon="5.69454">
        <ele>431.5</ele>
        <time>2021-09-30T09:08:14Z</time>
      </trkpt>
      <trkpt lat="46.52708" lon="5.69458">
        <ele>430.3</ele>
        <time>2021-09-30T09:08:19Z</time>
      </trkpt>
      <trkpt lat="46.52713" lon="5.69456">
        <ele>428</ele>
        <time>2021-09-30T09:08:26Z</time>
      </trkpt>
      <trkpt lat="46.52712" lon="5.69462">
        <ele>429.5</ele>
        <time>2021-09-30T09:09:00Z</time>
      </trkpt>
      <trkpt lat="46.52703" lon="5.69466">
        <ele>430.2</ele>
        <time>2021-09-30T09:09:09Z</time>
      </trkpt>
      <trkpt lat="46.52699" lon="5.69468">
        <ele>430.4</ele>
        <time>2021-09-30T09:09:12Z</time>
      </trkpt>
      <trkpt lat="46.52704" lon="5.69466">
        <ele>430.8</ele>
        <time>2021-09-30T09:09:20Z</time>
      </trkpt>
      <trkpt lat="46.52709" lon="5.69464">
        <ele>431</ele>
        <time>2021-09-30T09:09:26Z</time>
      </trkpt>
      <trkpt lat="46.52714" lon="5.69466">
        <ele>430.2</ele>
        <time>2021-09-30T09:09:47Z</time>
      </trkpt>
      <trkpt lat="46.52708" lon="5.69466">
        <ele>428.9</ele>
        <time>2021-09-30T09:09:54Z</time>
      </trkpt>
      <trkpt lat="46.52705" lon="5.69471">
        <ele>427.7</ele>
        <time>2021-09-30T09:10:03Z</time>
      </trkpt>
      <trkpt lat="46.52705" lon="5.69464">
        <ele>424.5</ele>
        <time>2021-09-30T09:10:14Z</time>
      </trkpt>
      <trkpt lat="46.527" lon="5.69466">
        <ele>422.9</ele>
        <time>2021-09-30T09:10:22Z</time>
      </trkpt>
      <trkpt lat="46.52704" lon="5.6947">
        <ele>421.5</ele>
        <time>2021-09-30T09:10:36Z</time>
      </trkpt>
      <trkpt lat="46.527" lon="5.69475">
        <ele>421.6</ele>
        <time>2021-09-30T09:10:42Z</time>
      </trkpt>
      <trkpt lat="46.52696" lon="5.69478">
        <ele>422.6</ele>
        <time>2021-09-30T09:11:09Z</time>
      </trkpt>
      <trkpt lat="46.527" lon="5.69481">
        <ele>422.4</ele>
        <time>2021-09-30T09:11:19Z</time>
      </trkpt>
      <trkpt lat="46.52701" lon="5.69472">
        <ele>421.6</ele>
        <time>2021-09-30T09:11:25Z</time>
      </trkpt>
      <trkpt lat="46.52703" lon="5.69465">
        <ele>421</ele>
        <time>2021-09-30T09:11:28Z</time>
      </trkpt>
      <trkpt lat="46.52705" lon="5.69459">
        <ele>420.1</ele>
        <time>2021-09-30T09:11:36Z</time>
      </trkpt>
      <trkpt lat="46.52705" lon="5.69453">
        <ele>420.4</ele>
        <time>2021-09-30T09:11:51Z</time>
      </trkpt>
      <trkpt lat="46.52706" lon="5.69459">
        <ele>419.7</ele>
        <time>2021-09-30T09:12:17Z</time>
      </trkpt>
      <trkpt lat="46.52708" lon="5.69454">
        <ele>420.2</ele>
        <time>2021-09-30T09:12:38Z</time>
      </trkpt>
      <trkpt lat="46.52705" lon="5.69449">
        <ele>422</ele>
        <time>2021-09-30T09:13:04Z</time>
      </trkpt>
      <trkpt lat="46.52708" lon="5.69444">
        <ele>422.7</ele>
        <time>2021-09-30T09:13:08Z</time>
      </trkpt>
      <trkpt lat="46.5271" lon="5.69438">
        <ele>422.8</ele>
        <time>2021-09-30T09:13:17Z</time>
      </trkpt>
      <trkpt lat="46.52715" lon="5.69435">
        <ele>422.8</ele>
        <time>2021-09-30T09:13:22Z</time>
      </trkpt>
      <trkpt lat="46.52717" lon="5.69441">
        <ele>423.1</ele>
        <time>2021-09-30T09:13:36Z</time>
      </trkpt>
      <trkpt lat="46.52713" lon="5.69448">
        <ele>423.3</ele>
        <time>2021-09-30T09:13:42Z</time>
      </trkpt>
      <trkpt lat="46.52709" lon="5.69453">
        <ele>423.2</ele>
        <time>2021-09-30T09:13:46Z</time>
      </trkpt>
      <trkpt lat="46.5271" lon="5.69446">
        <ele>424.7</ele>
        <time>2021-09-30T09:14:11Z</time>
      </trkpt>
      <trkpt lat="46.52712" lon="5.69439">
        <ele>424.3</ele>
        <time>2021-09-30T09:14:21Z</time>
      </trkpt>
      <trkpt lat="46.52713" lon="5.69432">
        <ele>423.8</ele>
        <time>2021-09-30T09:14:27Z</time>
      </trkpt>
      <trkpt lat="46.52708" lon="5.69433">
        <ele>422</ele>
        <time>2021-09-30T09:14:35Z</time>
      </trkpt>
      <trkpt lat="46.52705" lon="5.69437">
        <ele>420.9</ele>
        <time>2021-09-30T09:14:40Z</time>
      </trkpt>
      <trkpt lat="46.52702" lon="5.69444">
        <ele>420.6</ele>
        <time>2021-09-30T09:15:09Z</time>
      </trkpt>
      <trkpt lat="46.52698" lon="5.69449">
        <ele>421.5</ele>
        <time>2021-09-30T09:15:15Z</time>
      </trkpt>
      <trkpt lat="46.52694" lon="5.69445">
        <ele>422</ele>
        <time>2021-09-30T09:15:31Z</time>
      </trkpt>
      <trkpt lat="46.52689" lon="5.69443">
        <ele>422.7</ele>
        <time>2021-09-30T09:15:38Z</time>
      </trkpt>
      <trkpt lat="46.52688" lon="5.69437">
        <ele>423.5</ele>
        <time>2021-09-30T09:15:47Z</time>
      </trkpt>
      <trkpt lat="46.52685" lon="5.6943">
        <ele>424.7</ele>
        <time>2021-09-30T09:15:56Z</time>
      </trkpt>
      <trkpt lat="46.52685" lon="5.69424">
        <ele>425.4</ele>
        <time>2021-09-30T09:16:01Z</time>
      </trkpt>
      <trkpt lat="46.52687" lon="5.69416">
        <ele>426.1</ele>
        <time>2021-09-30T09:16:04Z</time>
      </trkpt>
      <trkpt lat="46.52689" lon="5.6941">
        <ele>427.8</ele>
        <time>2021-09-30T09:16:10Z</time>
      </trkpt>
      <trkpt lat="46.5269" lon="5.69403">
        <ele>429.8</ele>
        <time>2021-09-30T09:16:17Z</time>
      </trkpt>
      <trkpt lat="46.52692" lon="5.69397">
        <ele>431.2</ele>
        <time>2021-09-30T09:16:22Z</time>
      </trkpt>
      <trkpt lat="46.52693" lon="5.69389">
        <ele>432.5</ele>
        <time>2021-09-30T09:16:28Z</time>
      </trkpt>
      <trkpt lat="46.52695" lon="5.69384">
        <ele>433.7</ele>
        <time>2021-09-30T09:16:33Z</time>
      </trkpt>
      <trkpt lat="46.52696" lon="5.69377">
        <ele>435</ele>
        <time>2021-09-30T09:16:40Z</time>
      </trkpt>
      <trkpt lat="46.52699" lon="5.6937">
        <ele>435.6</ele>
        <time>2021-09-30T09:16:44Z</time>
      </trkpt>
      <trkpt lat="46.52702" lon="5.69364">
        <ele>435.8</ele>
        <time>2021-09-30T09:16:48Z</time>
      </trkpt>
      <trkpt lat="46.52705" lon="5.6936">
        <ele>435.7</ele>
        <time>2021-09-30T09:16:51Z</time>
      </trkpt>
      <trkpt lat="46.52708" lon="5.69354">
        <ele>435.9</ele>
        <time>2021-09-30T09:16:57Z</time>
      </trkpt>
      <trkpt lat="46.52711" lon="5.69347">
        <ele>436.1</ele>
        <time>2021-09-30T09:17:03Z</time>
      </trkpt>
      <trkpt lat="46.52715" lon="5.69344">
        <ele>436.5</ele>
        <time>2021-09-30T09:17:10Z</time>
      </trkpt>
      <trkpt lat="46.52716" lon="5.69338">
        <ele>437.1</ele>
        <time>2021-09-30T09:17:18Z</time>
      </trkpt>
      <trkpt lat="46.52717" lon="5.69331">
        <ele>438.2</ele>
        <time>2021-09-30T09:17:25Z</time>
      </trkpt>
      <trkpt lat="46.52721" lon="5.69327">
        <ele>438.9</ele>
        <time>2021-09-30T09:17:30Z</time>
      </trkpt>
      <trkpt lat="46.52724" lon="5.69322">
        <ele>440.1</ele>
        <time>2021-09-30T09:17:37Z</time>
      </trkpt>
      <trkpt lat="46.52728" lon="5.69317">
        <ele>441.4</ele>
        <time>2021-09-30T09:17:44Z</time>
      </trkpt>
      <trkpt lat="46.52732" lon="5.69313">
        <ele>442.3</ele>
        <time>2021-09-30T09:17:48Z</time>
      </trkpt>
      <trkpt lat="46.52735" lon="5.69307">
        <ele>443.3</ele>
        <time>2021-09-30T09:17:53Z</time>
      </trkpt>
      <trkpt lat="46.52737" lon="5.69301">
        <ele>443.6</ele>
        <time>2021-09-30T09:17:58Z</time>
      </trkpt>
      <trkpt lat="46.52737" lon="5.69294">
        <ele>443.7</ele>
        <time>2021-09-30T09:18:04Z</time>
      </trkpt>
      <trkpt lat="46.52742" lon="5.69291">
        <ele>444</ele>
        <time>2021-09-30T09:18:10Z</time>
      </trkpt>
      <trkpt lat="46.52746" lon="5.69291">
        <ele>444.8</ele>
        <time>2021-09-30T09:18:17Z</time>
      </trkpt>
      <trkpt lat="46.5275" lon="5.69288">
        <ele>445.4</ele>
        <time>2021-09-30T09:18:21Z</time>
      </trkpt>
      <trkpt lat="46.52755" lon="5.69286">
        <ele>446.1</ele>
        <time>2021-09-30T09:18:25Z</time>
      </trkpt>
      <trkpt lat="46.52759" lon="5.69282">
        <ele>446.6</ele>
        <time>2021-09-30T09:18:29Z</time>
      </trkpt>
      <trkpt lat="46.52763" lon="5.69277">
        <ele>446.9</ele>
        <time>2021-09-30T09:18:33Z</time>
      </trkpt>
      <trkpt lat="46.52766" lon="5.69271">
        <ele>447.6</ele>
        <time>2021-09-30T09:18:39Z</time>
      </trkpt>
      <trkpt lat="46.5277" lon="5.69266">
        <ele>448.5</ele>
        <time>2021-09-30T09:18:45Z</time>
      </trkpt>
      <trkpt lat="46.52772" lon="5.69261">
        <ele>449.2</ele>
        <time>2021-09-30T09:18:50Z</time>
      </trkpt>
      <trkpt lat="46.52776" lon="5.69256">
        <ele>450</ele>
        <time>2021-09-30T09:18:53Z</time>
      </trkpt>
      <trkpt lat="46.5278" lon="5.69252">
        <ele>451.2</ele>
        <time>2021-09-30T09:18:58Z</time>
      </trkpt>
      <trkpt lat="46.52785" lon="5.69248">
        <ele>452.4</ele>
        <time>2021-09-30T09:19:02Z</time>
      </trkpt>
      <trkpt lat="46.52789" lon="5.69243">
        <ele>453.6</ele>
        <time>2021-09-30T09:19:06Z</time>
      </trkpt>
      <trkpt lat="46.52792" lon="5.69237">
        <ele>455.1</ele>
        <time>2021-09-30T09:19:12Z</time>
      </trkpt>
      <trkpt lat="46.52794" lon="5.69231">
        <ele>456.1</ele>
        <time>2021-09-30T09:19:19Z</time>
      </trkpt>
      <trkpt lat="46.52796" lon="5.69225">
        <ele>456.2</ele>
        <time>2021-09-30T09:19:25Z</time>
      </trkpt>
      <trkpt lat="46.52797" lon="5.69218">
        <ele>456.4</ele>
        <time>2021-09-30T09:19:31Z</time>
      </trkpt>
      <trkpt lat="46.52798" lon="5.69211">
        <ele>456.6</ele>
        <time>2021-09-30T09:19:36Z</time>
      </trkpt>
      <trkpt lat="46.52798" lon="5.69203">
        <ele>456.6</ele>
        <time>2021-09-30T09:19:39Z</time>
      </trkpt>
      <trkpt lat="46.52799" lon="5.69196">
        <ele>457.2</ele>
        <time>2021-09-30T09:19:43Z</time>
      </trkpt>
      <trkpt lat="46.528" lon="5.6919">
        <ele>458.2</ele>
        <time>2021-09-30T09:19:48Z</time>
      </trkpt>
      <trkpt lat="46.52801" lon="5.69183">
        <ele>458.5</ele>
        <time>2021-09-30T09:19:52Z</time>
      </trkpt>
      <trkpt lat="46.52802" lon="5.69177">
        <ele>458.6</ele>
        <time>2021-09-30T09:19:58Z</time>
      </trkpt>
      <trkpt lat="46.52803" lon="5.6917">
        <ele>458.8</ele>
        <time>2021-09-30T09:20:03Z</time>
      </trkpt>
      <trkpt lat="46.52805" lon="5.69163">
        <ele>458.9</ele>
        <time>2021-09-30T09:20:07Z</time>
      </trkpt>
      <trkpt lat="46.52807" lon="5.69157">
        <ele>458.8</ele>
        <time>2021-09-30T09:20:11Z</time>
      </trkpt>
      <trkpt lat="46.52809" lon="5.69151">
        <ele>458.6</ele>
        <time>2021-09-30T09:20:16Z</time>
      </trkpt>
      <trkpt lat="46.52813" lon="5.69146">
        <ele>458.5</ele>
        <time>2021-09-30T09:20:21Z</time>
      </trkpt>
      <trkpt lat="46.52815" lon="5.69139">
        <ele>457.6</ele>
        <time>2021-09-30T09:20:28Z</time>
      </trkpt>
      <trkpt lat="46.52819" lon="5.69133">
        <ele>457</ele>
        <time>2021-09-30T09:20:33Z</time>
      </trkpt>
      <trkpt lat="46.52823" lon="5.69127">
        <ele>456.6</ele>
        <time>2021-09-30T09:20:36Z</time>
      </trkpt>
      <trkpt lat="46.52828" lon="5.69122">
        <ele>456.6</ele>
        <time>2021-09-30T09:20:40Z</time>
      </trkpt>
      <trkpt lat="46.5283" lon="5.69116">
        <ele>457</ele>
        <time>2021-09-30T09:20:45Z</time>
      </trkpt>
      <trkpt lat="46.5283" lon="5.6911">
        <ele>457</ele>
        <time>2021-09-30T09:20:49Z</time>
      </trkpt>
      <trkpt lat="46.52828" lon="5.69102">
        <ele>456</ele>
        <time>2021-09-30T09:20:53Z</time>
      </trkpt>
      <trkpt lat="46.52827" lon="5.69095">
        <ele>455</ele>
        <time>2021-09-30T09:20:59Z</time>
      </trkpt>
      <trkpt lat="46.52829" lon="5.69089">
        <ele>454.9</ele>
        <time>2021-09-30T09:21:05Z</time>
      </trkpt>
      <trkpt lat="46.52831" lon="5.69083">
        <ele>455</ele>
        <time>2021-09-30T09:21:10Z</time>
      </trkpt>
      <trkpt lat="46.52834" lon="5.69078">
        <ele>455.1</ele>
        <time>2021-09-30T09:21:16Z</time>
      </trkpt>
      <trkpt lat="46.52836" lon="5.69071">
        <ele>454.8</ele>
        <time>2021-09-30T09:21:20Z</time>
      </trkpt>
      <trkpt lat="46.52835" lon="5.69064">
        <ele>454.4</ele>
        <time>2021-09-30T09:21:24Z</time>
      </trkpt>
      <trkpt lat="46.52836" lon="5.69058">
        <ele>454.2</ele>
        <time>2021-09-30T09:21:27Z</time>
      </trkpt>
      <trkpt lat="46.52836" lon="5.69051">
        <ele>453.7</ele>
        <time>2021-09-30T09:21:31Z</time>
      </trkpt>
      <trkpt lat="46.52833" lon="5.69045">
        <ele>453.3</ele>
        <time>2021-09-30T09:21:35Z</time>
      </trkpt>
      <trkpt lat="46.52831" lon="5.69038">
        <ele>453.4</ele>
        <time>2021-09-30T09:21:40Z</time>
      </trkpt>
      <trkpt lat="46.52829" lon="5.69031">
        <ele>453.3</ele>
        <time>2021-09-30T09:21:46Z</time>
      </trkpt>
      <trkpt lat="46.52827" lon="5.69025">
        <ele>453.2</ele>
        <time>2021-09-30T09:21:50Z</time>
      </trkpt>
      <trkpt lat="46.52822" lon="5.69021">
        <ele>452.7</ele>
        <time>2021-09-30T09:21:56Z</time>
      </trkpt>
      <trkpt lat="46.52819" lon="5.69017">
        <ele>452.7</ele>
        <time>2021-09-30T09:22:04Z</time>
      </trkpt>
      <trkpt lat="46.52817" lon="5.6901">
        <ele>453.1</ele>
        <time>2021-09-30T09:22:10Z</time>
      </trkpt>
      <trkpt lat="46.52816" lon="5.69003">
        <ele>453.8</ele>
        <time>2021-09-30T09:22:15Z</time>
      </trkpt>
      <trkpt lat="46.52816" lon="5.68996">
        <ele>454.7</ele>
        <time>2021-09-30T09:22:23Z</time>
      </trkpt>
      <trkpt lat="46.52815" lon="5.68989">
        <ele>455.2</ele>
        <time>2021-09-30T09:22:29Z</time>
      </trkpt>
      <trkpt lat="46.52813" lon="5.68983">
        <ele>455.9</ele>
        <time>2021-09-30T09:22:34Z</time>
      </trkpt>
      <trkpt lat="46.52811" lon="5.68977">
        <ele>456.9</ele>
        <time>2021-09-30T09:22:39Z</time>
      </trkpt>
      <trkpt lat="46.52811" lon="5.6897">
        <ele>457.5</ele>
        <time>2021-09-30T09:22:44Z</time>
      </trkpt>
      <trkpt lat="46.52809" lon="5.68964">
        <ele>458.1</ele>
        <time>2021-09-30T09:22:48Z</time>
      </trkpt>
      <trkpt lat="46.52808" lon="5.68957">
        <ele>460</ele>
        <time>2021-09-30T09:22:57Z</time>
      </trkpt>
      <trkpt lat="46.52806" lon="5.6895">
        <ele>460.9</ele>
        <time>2021-09-30T09:23:04Z</time>
      </trkpt>
      <trkpt lat="46.52803" lon="5.68943">
        <ele>460.8</ele>
        <time>2021-09-30T09:23:09Z</time>
      </trkpt>
      <trkpt lat="46.52801" lon="5.68937">
        <ele>460.2</ele>
        <time>2021-09-30T09:23:14Z</time>
      </trkpt>
      <trkpt lat="46.52799" lon="5.68929">
        <ele>459.3</ele>
        <time>2021-09-30T09:23:21Z</time>
      </trkpt>
      <trkpt lat="46.52797" lon="5.68923">
        <ele>459.2</ele>
        <time>2021-09-30T09:23:25Z</time>
      </trkpt>
      <trkpt lat="46.52794" lon="5.68917">
        <ele>459</ele>
        <time>2021-09-30T09:23:29Z</time>
      </trkpt>
      <trkpt lat="46.52791" lon="5.68911">
        <ele>458.9</ele>
        <time>2021-09-30T09:23:35Z</time>
      </trkpt>
      <trkpt lat="46.5279" lon="5.68905">
        <ele>458.3</ele>
        <time>2021-09-30T09:23:41Z</time>
      </trkpt>
      <trkpt lat="46.52788" lon="5.68898">
        <ele>458.4</ele>
        <time>2021-09-30T09:23:47Z</time>
      </trkpt>
      <trkpt lat="46.52787" lon="5.68891">
        <ele>459.1</ele>
        <time>2021-09-30T09:23:52Z</time>
      </trkpt>
      <trkpt lat="46.52785" lon="5.68885">
        <ele>459.8</ele>
        <time>2021-09-30T09:23:57Z</time>
      </trkpt>
      <trkpt lat="46.52783" lon="5.68879">
        <ele>460.2</ele>
        <time>2021-09-30T09:24:04Z</time>
      </trkpt>
      <trkpt lat="46.52783" lon="5.68872">
        <ele>460.9</ele>
        <time>2021-09-30T09:24:10Z</time>
      </trkpt>
      <trkpt lat="46.52783" lon="5.68865">
        <ele>462.2</ele>
        <time>2021-09-30T09:24:17Z</time>
      </trkpt>
      <trkpt lat="46.5278" lon="5.68858">
        <ele>463</ele>
        <time>2021-09-30T09:24:23Z</time>
      </trkpt>
      <trkpt lat="46.52778" lon="5.68851">
        <ele>463.6</ele>
        <time>2021-09-30T09:24:29Z</time>
      </trkpt>
      <trkpt lat="46.52777" lon="5.68844">
        <ele>463.1</ele>
        <time>2021-09-30T09:24:35Z</time>
      </trkpt>
      <trkpt lat="46.52775" lon="5.68837">
        <ele>462.2</ele>
        <time>2021-09-30T09:24:41Z</time>
      </trkpt>
      <trkpt lat="46.52775" lon="5.68831">
        <ele>461.4</ele>
        <time>2021-09-30T09:24:47Z</time>
      </trkpt>
      <trkpt lat="46.52773" lon="5.68825">
        <ele>459.9</ele>
        <time>2021-09-30T09:24:52Z</time>
      </trkpt>
      <trkpt lat="46.52771" lon="5.68819">
        <ele>458.3</ele>
        <time>2021-09-30T09:24:58Z</time>
      </trkpt>
      <trkpt lat="46.5277" lon="5.68812">
        <ele>457.5</ele>
        <time>2021-09-30T09:25:04Z</time>
      </trkpt>
      <trkpt lat="46.5277" lon="5.68805">
        <ele>457.2</ele>
        <time>2021-09-30T09:25:10Z</time>
      </trkpt>
      <trkpt lat="46.52769" lon="5.68798">
        <ele>456.6</ele>
        <time>2021-09-30T09:25:15Z</time>
      </trkpt>
      <trkpt lat="46.52767" lon="5.68792">
        <ele>456.2</ele>
        <time>2021-09-30T09:25:19Z</time>
      </trkpt>
      <trkpt lat="46.52765" lon="5.68786">
        <ele>456.1</ele>
        <time>2021-09-30T09:25:25Z</time>
      </trkpt>
      <trkpt lat="46.52765" lon="5.68778">
        <ele>456.1</ele>
        <time>2021-09-30T09:25:30Z</time>
      </trkpt>
      <trkpt lat="46.52764" lon="5.68771">
        <ele>455.9</ele>
        <time>2021-09-30T09:25:35Z</time>
      </trkpt>
      <trkpt lat="46.52764" lon="5.68763">
        <ele>456</ele>
        <time>2021-09-30T09:25:41Z</time>
      </trkpt>
      <trkpt lat="46.52763" lon="5.68756">
        <ele>455.4</ele>
        <time>2021-09-30T09:25:47Z</time>
      </trkpt>
      <trkpt lat="46.52762" lon="5.6875">
        <ele>454.7</ele>
        <time>2021-09-30T09:25:52Z</time>
      </trkpt>
      <trkpt lat="46.5276" lon="5.68742">
        <ele>454.1</ele>
        <time>2021-09-30T09:25:57Z</time>
      </trkpt>
      <trkpt lat="46.52758" lon="5.68735">
        <ele>453.4</ele>
        <time>2021-09-30T09:26:02Z</time>
      </trkpt>
      <trkpt lat="46.52758" lon="5.68727">
        <ele>453.1</ele>
        <time>2021-09-30T09:26:08Z</time>
      </trkpt>
      <trkpt lat="46.52758" lon="5.6872">
        <ele>453.5</ele>
        <time>2021-09-30T09:26:16Z</time>
      </trkpt>
      <trkpt lat="46.52757" lon="5.68713">
        <ele>453.9</ele>
        <time>2021-09-30T09:26:21Z</time>
      </trkpt>
      <trkpt lat="46.52755" lon="5.68706">
        <ele>455.2</ele>
        <time>2021-09-30T09:26:27Z</time>
      </trkpt>
      <trkpt lat="46.52754" lon="5.68699">
        <ele>457.4</ele>
        <time>2021-09-30T09:26:34Z</time>
      </trkpt>
      <trkpt lat="46.52753" lon="5.68692">
        <ele>458.4</ele>
        <time>2021-09-30T09:26:40Z</time>
      </trkpt>
      <trkpt lat="46.52753" lon="5.68684">
        <ele>458.7</ele>
        <time>2021-09-30T09:26:44Z</time>
      </trkpt>
      <trkpt lat="46.5275" lon="5.68676">
        <ele>458.3</ele>
        <time>2021-09-30T09:26:48Z</time>
      </trkpt>
      <trkpt lat="46.5275" lon="5.6867">
        <ele>458</ele>
        <time>2021-09-30T09:26:52Z</time>
      </trkpt>
      <trkpt lat="46.52749" lon="5.68663">
        <ele>457.6</ele>
        <time>2021-09-30T09:26:57Z</time>
      </trkpt>
      <trkpt lat="46.52748" lon="5.68656">
        <ele>457.5</ele>
        <time>2021-09-30T09:27:02Z</time>
      </trkpt>
      <trkpt lat="46.52748" lon="5.68648">
        <ele>457.4</ele>
        <time>2021-09-30T09:27:08Z</time>
      </trkpt>
      <trkpt lat="46.52747" lon="5.68642">
        <ele>457.7</ele>
        <time>2021-09-30T09:27:12Z</time>
      </trkpt>
      <trkpt lat="46.52748" lon="5.68634">
        <ele>458.7</ele>
        <time>2021-09-30T09:27:17Z</time>
      </trkpt>
      <trkpt lat="46.52749" lon="5.68628">
        <ele>459.4</ele>
        <time>2021-09-30T09:27:22Z</time>
      </trkpt>
      <trkpt lat="46.52749" lon="5.6862">
        <ele>459.2</ele>
        <time>2021-09-30T09:27:28Z</time>
      </trkpt>
      <trkpt lat="46.52748" lon="5.68613">
        <ele>459.4</ele>
        <time>2021-09-30T09:27:34Z</time>
      </trkpt>
      <trkpt lat="46.5275" lon="5.68606">
        <ele>459.3</ele>
        <time>2021-09-30T09:27:41Z</time>
      </trkpt>
      <trkpt lat="46.5275" lon="5.68598">
        <ele>458.9</ele>
        <time>2021-09-30T09:27:47Z</time>
      </trkpt>
      <trkpt lat="46.5275" lon="5.68592">
        <ele>458.6</ele>
        <time>2021-09-30T09:27:52Z</time>
      </trkpt>
      <trkpt lat="46.5275" lon="5.68584">
        <ele>458.4</ele>
        <time>2021-09-30T09:27:57Z</time>
      </trkpt>
      <trkpt lat="46.52751" lon="5.68577">
        <ele>458.6</ele>
        <time>2021-09-30T09:28:02Z</time>
      </trkpt>
      <trkpt lat="46.52753" lon="5.6857">
        <ele>458.8</ele>
        <time>2021-09-30T09:28:07Z</time>
      </trkpt>
      <trkpt lat="46.52754" lon="5.68562">
        <ele>459.1</ele>
        <time>2021-09-30T09:28:12Z</time>
      </trkpt>
      <trkpt lat="46.52755" lon="5.68555">
        <ele>459.2</ele>
        <time>2021-09-30T09:28:18Z</time>
      </trkpt>
      <trkpt lat="46.52755" lon="5.68547">
        <ele>459.6</ele>
        <time>2021-09-30T09:28:24Z</time>
      </trkpt>
      <trkpt lat="46.52754" lon="5.6854">
        <ele>460.1</ele>
        <time>2021-09-30T09:28:30Z</time>
      </trkpt>
      <trkpt lat="46.52755" lon="5.68533">
        <ele>460.2</ele>
        <time>2021-09-30T09:28:36Z</time>
      </trkpt>
      <trkpt lat="46.52753" lon="5.68525">
        <ele>460.1</ele>
        <time>2021-09-30T09:28:40Z</time>
      </trkpt>
      <trkpt lat="46.52753" lon="5.68518">
        <ele>459.5</ele>
        <time>2021-09-30T09:28:45Z</time>
      </trkpt>
      <trkpt lat="46.52754" lon="5.68511">
        <ele>458.9</ele>
        <time>2021-09-30T09:28:50Z</time>
      </trkpt>
      <trkpt lat="46.52754" lon="5.68503">
        <ele>458.4</ele>
        <time>2021-09-30T09:28:56Z</time>
      </trkpt>
      <trkpt lat="46.52753" lon="5.68495">
        <ele>458.2</ele>
        <time>2021-09-30T09:29:01Z</time>
      </trkpt>
      <trkpt lat="46.52753" lon="5.68488">
        <ele>458.4</ele>
        <time>2021-09-30T09:29:05Z</time>
      </trkpt>
      <trkpt lat="46.52752" lon="5.6848">
        <ele>458.5</ele>
        <time>2021-09-30T09:29:09Z</time>
      </trkpt>
      <trkpt lat="46.52752" lon="5.68473">
        <ele>458.5</ele>
        <time>2021-09-30T09:29:13Z</time>
      </trkpt>
      <trkpt lat="46.52752" lon="5.68466">
        <ele>458.3</ele>
        <time>2021-09-30T09:29:17Z</time>
      </trkpt>
      <trkpt lat="46.52754" lon="5.68459">
        <ele>457.9</ele>
        <time>2021-09-30T09:29:22Z</time>
      </trkpt>
      <trkpt lat="46.52756" lon="5.68453">
        <ele>457.4</ele>
        <time>2021-09-30T09:29:27Z</time>
      </trkpt>
      <trkpt lat="46.52757" lon="5.68447">
        <ele>457.2</ele>
        <time>2021-09-30T09:29:32Z</time>
      </trkpt>
      <trkpt lat="46.52758" lon="5.68439">
        <ele>457.5</ele>
        <time>2021-09-30T09:29:38Z</time>
      </trkpt>
      <trkpt lat="46.52759" lon="5.68433">
        <ele>458.1</ele>
        <time>2021-09-30T09:29:46Z</time>
      </trkpt>
      <trkpt lat="46.52762" lon="5.68426">
        <ele>458.7</ele>
        <time>2021-09-30T09:29:52Z</time>
      </trkpt>
      <trkpt lat="46.52763" lon="5.6842">
        <ele>459.1</ele>
        <time>2021-09-30T09:29:56Z</time>
      </trkpt>
      <trkpt lat="46.52765" lon="5.68413">
        <ele>459.3</ele>
        <time>2021-09-30T09:30:01Z</time>
      </trkpt>
      <trkpt lat="46.52766" lon="5.68406">
        <ele>459.2</ele>
        <time>2021-09-30T09:30:06Z</time>
      </trkpt>
      <trkpt lat="46.52768" lon="5.68399">
        <ele>459.3</ele>
        <time>2021-09-30T09:30:10Z</time>
      </trkpt>
      <trkpt lat="46.52769" lon="5.68392">
        <ele>459.5</ele>
        <time>2021-09-30T09:30:14Z</time>
      </trkpt>
      <trkpt lat="46.52772" lon="5.68385">
        <ele>459.8</ele>
        <time>2021-09-30T09:30:19Z</time>
      </trkpt>
      <trkpt lat="46.52774" lon="5.6838">
        <ele>460.3</ele>
        <time>2021-09-30T09:30:24Z</time>
      </trkpt>
      <trkpt lat="46.52777" lon="5.68374">
        <ele>460.7</ele>
        <time>2021-09-30T09:30:28Z</time>
      </trkpt>
      <trkpt lat="46.52778" lon="5.68366">
        <ele>460.9</ele>
        <time>2021-09-30T09:30:33Z</time>
      </trkpt>
      <trkpt lat="46.52779" lon="5.68359">
        <ele>460.5</ele>
        <time>2021-09-30T09:30:37Z</time>
      </trkpt>
      <trkpt lat="46.52781" lon="5.68353">
        <ele>460.1</ele>
        <time>2021-09-30T09:30:43Z</time>
      </trkpt>
      <trkpt lat="46.52784" lon="5.68346">
        <ele>459.9</ele>
        <time>2021-09-30T09:30:48Z</time>
      </trkpt>
      <trkpt lat="46.52786" lon="5.6834">
        <ele>460.1</ele>
        <time>2021-09-30T09:30:52Z</time>
      </trkpt>
      <trkpt lat="46.52787" lon="5.68333">
        <ele>460.6</ele>
        <time>2021-09-30T09:30:56Z</time>
      </trkpt>
      <trkpt lat="46.5279" lon="5.68326">
        <ele>461.4</ele>
        <time>2021-09-30T09:31:01Z</time>
      </trkpt>
      <trkpt lat="46.52794" lon="5.6832">
        <ele>462</ele>
        <time>2021-09-30T09:31:05Z</time>
      </trkpt>
      <trkpt lat="46.52796" lon="5.68313">
        <ele>462.4</ele>
        <time>2021-09-30T09:31:09Z</time>
      </trkpt>
      <trkpt lat="46.52798" lon="5.68307">
        <ele>462.7</ele>
        <time>2021-09-30T09:31:13Z</time>
      </trkpt>
      <trkpt lat="46.52798" lon="5.683">
        <ele>462.2</ele>
        <time>2021-09-30T09:31:17Z</time>
      </trkpt>
      <trkpt lat="46.52798" lon="5.68293">
        <ele>461.6</ele>
        <time>2021-09-30T09:31:23Z</time>
      </trkpt>
      <trkpt lat="46.52802" lon="5.68288">
        <ele>462.1</ele>
        <time>2021-09-30T09:31:27Z</time>
      </trkpt>
      <trkpt lat="46.52806" lon="5.68284">
        <ele>462.4</ele>
        <time>2021-09-30T09:31:31Z</time>
      </trkpt>
      <trkpt lat="46.52809" lon="5.68279">
        <ele>461.7</ele>
        <time>2021-09-30T09:31:36Z</time>
      </trkpt>
      <trkpt lat="46.52811" lon="5.68272">
        <ele>460.7</ele>
        <time>2021-09-30T09:31:42Z</time>
      </trkpt>
      <trkpt lat="46.52811" lon="5.68266">
        <ele>459.2</ele>
        <time>2021-09-30T09:31:47Z</time>
      </trkpt>
      <trkpt lat="46.52813" lon="5.68258">
        <ele>458</ele>
        <time>2021-09-30T09:31:52Z</time>
      </trkpt>
      <trkpt lat="46.52814" lon="5.68251">
        <ele>457.4</ele>
        <time>2021-09-30T09:31:56Z</time>
      </trkpt>
      <trkpt lat="46.52815" lon="5.68244">
        <ele>456.7</ele>
        <time>2021-09-30T09:32:01Z</time>
      </trkpt>
      <trkpt lat="46.52817" lon="5.68237">
        <ele>455.3</ele>
        <time>2021-09-30T09:32:08Z</time>
      </trkpt>
      <trkpt lat="46.52818" lon="5.68229">
        <ele>454.9</ele>
        <time>2021-09-30T09:32:13Z</time>
      </trkpt>
      <trkpt lat="46.52821" lon="5.68222">
        <ele>454.9</ele>
        <time>2021-09-30T09:32:17Z</time>
      </trkpt>
      <trkpt lat="46.52824" lon="5.68216">
        <ele>455.1</ele>
        <time>2021-09-30T09:32:21Z</time>
      </trkpt>
      <trkpt lat="46.52827" lon="5.68211">
        <ele>455.5</ele>
        <time>2021-09-30T09:32:26Z</time>
      </trkpt>
      <trkpt lat="46.5283" lon="5.68205">
        <ele>456.2</ele>
        <time>2021-09-30T09:32:32Z</time>
      </trkpt>
      <trkpt lat="46.52833" lon="5.68199">
        <ele>457</ele>
        <time>2021-09-30T09:32:37Z</time>
      </trkpt>
      <trkpt lat="46.52837" lon="5.68194">
        <ele>457.7</ele>
        <time>2021-09-30T09:32:42Z</time>
      </trkpt>
      <trkpt lat="46.52841" lon="5.6819">
        <ele>458</ele>
        <time>2021-09-30T09:32:46Z</time>
      </trkpt>
      <trkpt lat="46.52843" lon="5.68184">
        <ele>458</ele>
        <time>2021-09-30T09:32:50Z</time>
      </trkpt>
      <trkpt lat="46.52847" lon="5.68179">
        <ele>457.7</ele>
        <time>2021-09-30T09:32:54Z</time>
      </trkpt>
      <trkpt lat="46.5285" lon="5.68174">
        <ele>457.1</ele>
        <time>2021-09-30T09:32:58Z</time>
      </trkpt>
      <trkpt lat="46.52853" lon="5.68169">
        <ele>456.6</ele>
        <time>2021-09-30T09:33:02Z</time>
      </trkpt>
      <trkpt lat="46.52857" lon="5.68165">
        <ele>456.5</ele>
        <time>2021-09-30T09:33:06Z</time>
      </trkpt>
      <trkpt lat="46.52858" lon="5.68158">
        <ele>455.1</ele>
        <time>2021-09-30T09:33:14Z</time>
      </trkpt>
      <trkpt lat="46.52859" lon="5.68152">
        <ele>453.1</ele>
        <time>2021-09-30T09:33:21Z</time>
      </trkpt>
      <trkpt lat="46.52861" lon="5.68145">
        <ele>451.8</ele>
        <time>2021-09-30T09:33:28Z</time>
      </trkpt>
      <trkpt lat="46.52863" lon="5.68138">
        <ele>450.6</ele>
        <time>2021-09-30T09:33:34Z</time>
      </trkpt>
      <trkpt lat="46.52864" lon="5.68131">
        <ele>449.1</ele>
        <time>2021-09-30T09:33:41Z</time>
      </trkpt>
      <trkpt lat="46.52869" lon="5.68126">
        <ele>448.3</ele>
        <time>2021-09-30T09:33:45Z</time>
      </trkpt>
      <trkpt lat="46.52873" lon="5.68123">
        <ele>448</ele>
        <time>2021-09-30T09:33:49Z</time>
      </trkpt>
      <trkpt lat="46.52878" lon="5.68119">
        <ele>448.7</ele>
        <time>2021-09-30T09:33:54Z</time>
      </trkpt>
      <trkpt lat="46.52881" lon="5.68115">
        <ele>450</ele>
        <time>2021-09-30T09:34:00Z</time>
      </trkpt>
      <trkpt lat="46.52886" lon="5.68112">
        <ele>450.6</ele>
        <time>2021-09-30T09:34:04Z</time>
      </trkpt>
      <trkpt lat="46.5289" lon="5.68109">
        <ele>450.4</ele>
        <time>2021-09-30T09:34:09Z</time>
      </trkpt>
      <trkpt lat="46.52894" lon="5.68103">
        <ele>449</ele>
        <time>2021-09-30T09:34:14Z</time>
      </trkpt>
      <trkpt lat="46.52897" lon="5.68098">
        <ele>447.6</ele>
        <time>2021-09-30T09:34:18Z</time>
      </trkpt>
      <trkpt lat="46.52901" lon="5.68094">
        <ele>446.8</ele>
        <time>2021-09-30T09:34:21Z</time>
      </trkpt>
      <trkpt lat="46.52905" lon="5.6809">
        <ele>446.2</ele>
        <time>2021-09-30T09:34:25Z</time>
      </trkpt>
      <trkpt lat="46.5291" lon="5.68088">
        <ele>446.1</ele>
        <time>2021-09-30T09:34:30Z</time>
      </trkpt>
      <trkpt lat="46.52913" lon="5.68082">
        <ele>446.2</ele>
        <time>2021-09-30T09:34:36Z</time>
      </trkpt>
      <trkpt lat="46.52916" lon="5.68077">
        <ele>446.8</ele>
        <time>2021-09-30T09:34:40Z</time>
      </trkpt>
      <trkpt lat="46.52918" lon="5.6807">
        <ele>447.5</ele>
        <time>2021-09-30T09:34:45Z</time>
      </trkpt>
      <trkpt lat="46.52922" lon="5.68065">
        <ele>448.3</ele>
        <time>2021-09-30T09:34:51Z</time>
      </trkpt>
      <trkpt lat="46.52926" lon="5.68061">
        <ele>449.1</ele>
        <time>2021-09-30T09:34:57Z</time>
      </trkpt>
      <trkpt lat="46.5293" lon="5.68055">
        <ele>448.5</ele>
        <time>2021-09-30T09:35:03Z</time>
      </trkpt>
      <trkpt lat="46.52933" lon="5.6805">
        <ele>447.1</ele>
        <time>2021-09-30T09:35:07Z</time>
      </trkpt>
      <trkpt lat="46.52936" lon="5.68045">
        <ele>445.6</ele>
        <time>2021-09-30T09:35:11Z</time>
      </trkpt>
      <trkpt lat="46.52939" lon="5.68039">
        <ele>444.2</ele>
        <time>2021-09-30T09:35:15Z</time>
      </trkpt>
      <trkpt lat="46.52942" lon="5.68035">
        <ele>443</ele>
        <time>2021-09-30T09:35:18Z</time>
      </trkpt>
      <trkpt lat="46.52946" lon="5.6803">
        <ele>441.5</ele>
        <time>2021-09-30T09:35:22Z</time>
      </trkpt>
      <trkpt lat="46.52946" lon="5.68023">
        <ele>439.6</ele>
        <time>2021-09-30T09:35:28Z</time>
      </trkpt>
      <trkpt lat="46.52948" lon="5.68017">
        <ele>438.6</ele>
        <time>2021-09-30T09:35:37Z</time>
      </trkpt>
      <trkpt lat="46.5295" lon="5.6801">
        <ele>438.4</ele>
        <time>2021-09-30T09:35:45Z</time>
      </trkpt>
      <trkpt lat="46.52954" lon="5.68005">
        <ele>439</ele>
        <time>2021-09-30T09:35:51Z</time>
      </trkpt>
      <trkpt lat="46.52958" lon="5.68002">
        <ele>440.1</ele>
        <time>2021-09-30T09:35:55Z</time>
      </trkpt>
      <trkpt lat="46.52962" lon="5.67996">
        <ele>441.9</ele>
        <time>2021-09-30T09:36:01Z</time>
      </trkpt>
      <trkpt lat="46.52967" lon="5.6799">
        <ele>442.3</ele>
        <time>2021-09-30T09:36:05Z</time>
      </trkpt>
      <trkpt lat="46.52971" lon="5.67986">
        <ele>442.3</ele>
        <time>2021-09-30T09:36:08Z</time>
      </trkpt>
      <trkpt lat="46.52976" lon="5.67983">
        <ele>442.5</ele>
        <time>2021-09-30T09:36:12Z</time>
      </trkpt>
      <trkpt lat="46.5298" lon="5.67982">
        <ele>442.6</ele>
        <time>2021-09-30T09:36:16Z</time>
      </trkpt>
      <trkpt lat="46.52985" lon="5.67979">
        <ele>442.4</ele>
        <time>2021-09-30T09:36:21Z</time>
      </trkpt>
      <trkpt lat="46.5299" lon="5.67977">
        <ele>442.3</ele>
        <time>2021-09-30T09:36:26Z</time>
      </trkpt>
      <trkpt lat="46.52995" lon="5.67975">
        <ele>442.5</ele>
        <time>2021-09-30T09:36:32Z</time>
      </trkpt>
      <trkpt lat="46.52999" lon="5.67971">
        <ele>441.9</ele>
        <time>2021-09-30T09:36:36Z</time>
      </trkpt>
      <trkpt lat="46.53003" lon="5.67969">
        <ele>440.7</ele>
        <time>2021-09-30T09:36:42Z</time>
      </trkpt>
      <trkpt lat="46.53008" lon="5.67965">
        <ele>439.2</ele>
        <time>2021-09-30T09:36:50Z</time>
      </trkpt>
      <trkpt lat="46.53011" lon="5.6796">
        <ele>437.9</ele>
        <time>2021-09-30T09:36:57Z</time>
      </trkpt>
      <trkpt lat="46.53016" lon="5.67958">
        <ele>437.3</ele>
        <time>2021-09-30T09:37:02Z</time>
      </trkpt>
      <trkpt lat="46.53021" lon="5.67957">
        <ele>436.9</ele>
        <time>2021-09-30T09:37:07Z</time>
      </trkpt>
      <trkpt lat="46.53026" lon="5.67954">
        <ele>436.4</ele>
        <time>2021-09-30T09:37:12Z</time>
      </trkpt>
      <trkpt lat="46.53029" lon="5.6795">
        <ele>435.8</ele>
        <time>2021-09-30T09:37:18Z</time>
      </trkpt>
      <trkpt lat="46.53032" lon="5.67943">
        <ele>435.3</ele>
        <time>2021-09-30T09:37:23Z</time>
      </trkpt>
      <trkpt lat="46.53037" lon="5.67941">
        <ele>434.7</ele>
        <time>2021-09-30T09:37:27Z</time>
      </trkpt>
      <trkpt lat="46.53041" lon="5.67938">
        <ele>434.4</ele>
        <time>2021-09-30T09:37:32Z</time>
      </trkpt>
      <trkpt lat="46.53046" lon="5.67936">
        <ele>434.7</ele>
        <time>2021-09-30T09:37:38Z</time>
      </trkpt>
      <trkpt lat="46.53051" lon="5.67933">
        <ele>435.3</ele>
        <time>2021-09-30T09:37:43Z</time>
      </trkpt>
      <trkpt lat="46.53056" lon="5.67929">
        <ele>435.5</ele>
        <time>2021-09-30T09:37:48Z</time>
      </trkpt>
      <trkpt lat="46.5306" lon="5.67925">
        <ele>435.8</ele>
        <time>2021-09-30T09:37:52Z</time>
      </trkpt>
      <trkpt lat="46.53064" lon="5.67921">
        <ele>436.1</ele>
        <time>2021-09-30T09:37:56Z</time>
      </trkpt>
      <trkpt lat="46.53068" lon="5.67916">
        <ele>436.1</ele>
        <time>2021-09-30T09:38:00Z</time>
      </trkpt>
      <trkpt lat="46.53072" lon="5.6791">
        <ele>435.6</ele>
        <time>2021-09-30T09:38:05Z</time>
      </trkpt>
      <trkpt lat="46.53075" lon="5.67905">
        <ele>434.9</ele>
        <time>2021-09-30T09:38:12Z</time>
      </trkpt>
      <trkpt lat="46.5308" lon="5.67901">
        <ele>434.4</ele>
        <time>2021-09-30T09:38:18Z</time>
      </trkpt>
      <trkpt lat="46.53084" lon="5.67899">
        <ele>434</ele>
        <time>2021-09-30T09:38:22Z</time>
      </trkpt>
      <trkpt lat="46.53089" lon="5.67894">
        <ele>433.2</ele>
        <time>2021-09-30T09:38:29Z</time>
      </trkpt>
      <trkpt lat="46.53093" lon="5.6789">
        <ele>432.9</ele>
        <time>2021-09-30T09:38:34Z</time>
      </trkpt>
      <trkpt lat="46.53097" lon="5.67886">
        <ele>432.6</ele>
        <time>2021-09-30T09:38:39Z</time>
      </trkpt>
      <trkpt lat="46.531" lon="5.6788">
        <ele>432.2</ele>
        <time>2021-09-30T09:38:45Z</time>
      </trkpt>
      <trkpt lat="46.53103" lon="5.67875">
        <ele>432.1</ele>
        <time>2021-09-30T09:38:49Z</time>
      </trkpt>
      <trkpt lat="46.53106" lon="5.6787">
        <ele>432.2</ele>
        <time>2021-09-30T09:38:53Z</time>
      </trkpt>
      <trkpt lat="46.53109" lon="5.67865">
        <ele>432.1</ele>
        <time>2021-09-30T09:38:57Z</time>
      </trkpt>
      <trkpt lat="46.53113" lon="5.67859">
        <ele>432.1</ele>
        <time>2021-09-30T09:39:01Z</time>
      </trkpt>
      <trkpt lat="46.53116" lon="5.67854">
        <ele>431.7</ele>
        <time>2021-09-30T09:39:05Z</time>
      </trkpt>
      <trkpt lat="46.53121" lon="5.67849">
        <ele>430.9</ele>
        <time>2021-09-30T09:39:09Z</time>
      </trkpt>
      <trkpt lat="46.53123" lon="5.67843">
        <ele>429.8</ele>
        <time>2021-09-30T09:39:15Z</time>
      </trkpt>
      <trkpt lat="46.53126" lon="5.67837">
        <ele>428.7</ele>
        <time>2021-09-30T09:39:22Z</time>
      </trkpt>
      <trkpt lat="46.53128" lon="5.67831">
        <ele>428.9</ele>
        <time>2021-09-30T09:39:31Z</time>
      </trkpt>
      <trkpt lat="46.53131" lon="5.67825">
        <ele>429.2</ele>
        <time>2021-09-30T09:39:36Z</time>
      </trkpt>
      <trkpt lat="46.53135" lon="5.67821">
        <ele>429.6</ele>
        <time>2021-09-30T09:39:41Z</time>
      </trkpt>
      <trkpt lat="46.53139" lon="5.67817">
        <ele>429.8</ele>
        <time>2021-09-30T09:39:45Z</time>
      </trkpt>
      <trkpt lat="46.53144" lon="5.67814">
        <ele>430.1</ele>
        <time>2021-09-30T09:39:49Z</time>
      </trkpt>
      <trkpt lat="46.53148" lon="5.67811">
        <ele>430</ele>
        <time>2021-09-30T09:39:57Z</time>
      </trkpt>
      <trkpt lat="46.53153" lon="5.67809">
        <ele>430.1</ele>
        <time>2021-09-30T09:40:02Z</time>
      </trkpt>
      <trkpt lat="46.53157" lon="5.67811">
        <ele>436</ele>
        <time>2021-09-30T09:40:25Z</time>
      </trkpt>
      <trkpt lat="46.53161" lon="5.67808">
        <ele>437</ele>
        <time>2021-09-30T09:40:31Z</time>
      </trkpt>
      <trkpt lat="46.53166" lon="5.67805">
        <ele>436.9</ele>
        <time>2021-09-30T09:40:36Z</time>
      </trkpt>
      <trkpt lat="46.5317" lon="5.67802">
        <ele>436.6</ele>
        <time>2021-09-30T09:40:40Z</time>
      </trkpt>
      <trkpt lat="46.53175" lon="5.67801">
        <ele>436.1</ele>
        <time>2021-09-30T09:40:45Z</time>
      </trkpt>
      <trkpt lat="46.5318" lon="5.678">
        <ele>435.5</ele>
        <time>2021-09-30T09:40:50Z</time>
      </trkpt>
      <trkpt lat="46.53184" lon="5.67798">
        <ele>435.4</ele>
        <time>2021-09-30T09:40:53Z</time>
      </trkpt>
      <trkpt lat="46.5319" lon="5.67796">
        <ele>435.5</ele>
        <time>2021-09-30T09:40:57Z</time>
      </trkpt>
      <trkpt lat="46.53195" lon="5.67794">
        <ele>435.7</ele>
        <time>2021-09-30T09:41:02Z</time>
      </trkpt>
      <trkpt lat="46.53199" lon="5.6779">
        <ele>435.8</ele>
        <time>2021-09-30T09:41:08Z</time>
      </trkpt>
      <trkpt lat="46.53204" lon="5.67788">
        <ele>435.5</ele>
        <time>2021-09-30T09:41:14Z</time>
      </trkpt>
      <trkpt lat="46.53209" lon="5.67786">
        <ele>435.1</ele>
        <time>2021-09-30T09:41:19Z</time>
      </trkpt>
      <trkpt lat="46.53214" lon="5.67785">
        <ele>434.8</ele>
        <time>2021-09-30T09:41:23Z</time>
      </trkpt>
      <trkpt lat="46.53218" lon="5.67781">
        <ele>434.7</ele>
        <time>2021-09-30T09:41:29Z</time>
      </trkpt>
      <trkpt lat="46.53222" lon="5.67777">
        <ele>435</ele>
        <time>2021-09-30T09:41:33Z</time>
      </trkpt>
      <trkpt lat="46.53226" lon="5.67773">
        <ele>435.4</ele>
        <time>2021-09-30T09:41:37Z</time>
      </trkpt>
      <trkpt lat="46.53231" lon="5.67771">
        <ele>435.9</ele>
        <time>2021-09-30T09:41:41Z</time>
      </trkpt>
      <trkpt lat="46.53235" lon="5.67767">
        <ele>436</ele>
        <time>2021-09-30T09:41:45Z</time>
      </trkpt>
      <trkpt lat="46.5324" lon="5.67765">
        <ele>436</ele>
        <time>2021-09-30T09:41:49Z</time>
      </trkpt>
      <trkpt lat="46.53244" lon="5.67763">
        <ele>435.6</ele>
        <time>2021-09-30T09:41:55Z</time>
      </trkpt>
      <trkpt lat="46.53249" lon="5.67757">
        <ele>435.1</ele>
        <time>2021-09-30T09:42:00Z</time>
      </trkpt>
      <trkpt lat="46.53252" lon="5.67752">
        <ele>434.6</ele>
        <time>2021-09-30T09:42:04Z</time>
      </trkpt>
      <trkpt lat="46.53257" lon="5.67747">
        <ele>434</ele>
        <time>2021-09-30T09:42:09Z</time>
      </trkpt>
      <trkpt lat="46.53262" lon="5.67744">
        <ele>433.7</ele>
        <time>2021-09-30T09:42:14Z</time>
      </trkpt>
      <trkpt lat="46.53266" lon="5.6774">
        <ele>433.7</ele>
        <time>2021-09-30T09:42:18Z</time>
      </trkpt>
      <trkpt lat="46.53271" lon="5.67737">
        <ele>433.8</ele>
        <time>2021-09-30T09:42:22Z</time>
      </trkpt>
      <trkpt lat="46.53276" lon="5.67735">
        <ele>434</ele>
        <time>2021-09-30T09:42:26Z</time>
      </trkpt>
      <trkpt lat="46.5328" lon="5.67731">
        <ele>434.5</ele>
        <time>2021-09-30T09:42:32Z</time>
      </trkpt>
      <trkpt lat="46.53285" lon="5.67727">
        <ele>435.1</ele>
        <time>2021-09-30T09:42:37Z</time>
      </trkpt>
      <trkpt lat="46.5329" lon="5.67725">
        <ele>435.4</ele>
        <time>2021-09-30T09:42:42Z</time>
      </trkpt>
      <trkpt lat="46.53295" lon="5.67722">
        <ele>436.2</ele>
        <time>2021-09-30T09:42:47Z</time>
      </trkpt>
      <trkpt lat="46.533" lon="5.67719">
        <ele>437.8</ele>
        <time>2021-09-30T09:42:52Z</time>
      </trkpt>
      <trkpt lat="46.53304" lon="5.67716">
        <ele>439.5</ele>
        <time>2021-09-30T09:42:57Z</time>
      </trkpt>
      <trkpt lat="46.53309" lon="5.67716">
        <ele>440.3</ele>
        <time>2021-09-30T09:43:03Z</time>
      </trkpt>
      <trkpt lat="46.53313" lon="5.67712">
        <ele>439</ele>
        <time>2021-09-30T09:43:15Z</time>
      </trkpt>
      <trkpt lat="46.53318" lon="5.67708">
        <ele>439.1</ele>
        <time>2021-09-30T09:43:19Z</time>
      </trkpt>
      <trkpt lat="46.53322" lon="5.67705">
        <ele>439.9</ele>
        <time>2021-09-30T09:43:23Z</time>
      </trkpt>
      <trkpt lat="46.53326" lon="5.67701">
        <ele>441.1</ele>
        <time>2021-09-30T09:43:29Z</time>
      </trkpt>
      <trkpt lat="46.5333" lon="5.67698">
        <ele>440.2</ele>
        <time>2021-09-30T09:43:42Z</time>
      </trkpt>
      <trkpt lat="46.53335" lon="5.67696">
        <ele>440.3</ele>
        <time>2021-09-30T09:43:46Z</time>
      </trkpt>
      <trkpt lat="46.53341" lon="5.67694">
        <ele>440.6</ele>
        <time>2021-09-30T09:43:49Z</time>
      </trkpt>
      <trkpt lat="46.53349" lon="5.6769">
        <ele>440.9</ele>
        <time>2021-09-30T09:43:52Z</time>
      </trkpt>
      <trkpt lat="46.53355" lon="5.67687">
        <ele>441.6</ele>
        <time>2021-09-30T09:43:55Z</time>
      </trkpt>
      <trkpt lat="46.5336" lon="5.67683">
        <ele>443.6</ele>
        <time>2021-09-30T09:43:59Z</time>
      </trkpt>
      <trkpt lat="46.53364" lon="5.6768">
        <ele>445.5</ele>
        <time>2021-09-30T09:44:02Z</time>
      </trkpt>
      <trkpt lat="46.53369" lon="5.67677">
        <ele>447.9</ele>
        <time>2021-09-30T09:44:06Z</time>
      </trkpt>
      <trkpt lat="46.53375" lon="5.67676">
        <ele>449.7</ele>
        <time>2021-09-30T09:44:10Z</time>
      </trkpt>
      <trkpt lat="46.53379" lon="5.67674">
        <ele>451.7</ele>
        <time>2021-09-30T09:44:15Z</time>
      </trkpt>
      <trkpt lat="46.53384" lon="5.67675">
        <ele>453.9</ele>
        <time>2021-09-30T09:44:22Z</time>
      </trkpt>
      <trkpt lat="46.5339" lon="5.67675">
        <ele>456.5</ele>
        <time>2021-09-30T09:44:29Z</time>
      </trkpt>
      <trkpt lat="46.53395" lon="5.67674">
        <ele>458.2</ele>
        <time>2021-09-30T09:44:34Z</time>
      </trkpt>
      <trkpt lat="46.53399" lon="5.67669">
        <ele>460.4</ele>
        <time>2021-09-30T09:44:41Z</time>
      </trkpt>
      <trkpt lat="46.53403" lon="5.67667">
        <ele>462.4</ele>
        <time>2021-09-30T09:44:50Z</time>
      </trkpt>
      <trkpt lat="46.53408" lon="5.67664">
        <ele>463.7</ele>
        <time>2021-09-30T09:44:56Z</time>
      </trkpt>
      <trkpt lat="46.53412" lon="5.6766">
        <ele>464.5</ele>
        <time>2021-09-30T09:45:04Z</time>
      </trkpt>
      <trkpt lat="46.53415" lon="5.67656">
        <ele>464</ele>
        <time>2021-09-30T09:45:08Z</time>
      </trkpt>
      <trkpt lat="46.53419" lon="5.67653">
        <ele>463.3</ele>
        <time>2021-09-30T09:45:13Z</time>
      </trkpt>
      <trkpt lat="46.53424" lon="5.67649">
        <ele>462.6</ele>
        <time>2021-09-30T09:45:19Z</time>
      </trkpt>
      <trkpt lat="46.53428" lon="5.67644">
        <ele>461.7</ele>
        <time>2021-09-30T09:45:24Z</time>
      </trkpt>
      <trkpt lat="46.53432" lon="5.6764">
        <ele>460.7</ele>
        <time>2021-09-30T09:45:28Z</time>
      </trkpt>
      <trkpt lat="46.53435" lon="5.67635">
        <ele>459.3</ele>
        <time>2021-09-30T09:45:35Z</time>
      </trkpt>
      <trkpt lat="46.5344" lon="5.67632">
        <ele>458.6</ele>
        <time>2021-09-30T09:45:41Z</time>
      </trkpt>
      <trkpt lat="46.53445" lon="5.67628">
        <ele>458.8</ele>
        <time>2021-09-30T09:45:46Z</time>
      </trkpt>
      <trkpt lat="46.53449" lon="5.67625">
        <ele>459.4</ele>
        <time>2021-09-30T09:45:50Z</time>
      </trkpt>
      <trkpt lat="46.53455" lon="5.67624">
        <ele>460.3</ele>
        <time>2021-09-30T09:45:54Z</time>
      </trkpt>
      <trkpt lat="46.5346" lon="5.67623">
        <ele>461.2</ele>
        <time>2021-09-30T09:45:58Z</time>
      </trkpt>
      <trkpt lat="46.53464" lon="5.67619">
        <ele>461.2</ele>
        <time>2021-09-30T09:46:05Z</time>
      </trkpt>
      <trkpt lat="46.53467" lon="5.67614">
        <ele>460.3</ele>
        <time>2021-09-30T09:46:10Z</time>
      </trkpt>
      <trkpt lat="46.5347" lon="5.67608">
        <ele>459.3</ele>
        <time>2021-09-30T09:46:14Z</time>
      </trkpt>
      <trkpt lat="46.53474" lon="5.67604">
        <ele>458.9</ele>
        <time>2021-09-30T09:46:19Z</time>
      </trkpt>
      <trkpt lat="46.53478" lon="5.676">
        <ele>459.2</ele>
        <time>2021-09-30T09:46:27Z</time>
      </trkpt>
      <trkpt lat="46.53483" lon="5.67599">
        <ele>460</ele>
        <time>2021-09-30T09:46:31Z</time>
      </trkpt>
      <trkpt lat="46.53488" lon="5.67596">
        <ele>461</ele>
        <time>2021-09-30T09:46:38Z</time>
      </trkpt>
      <trkpt lat="46.53492" lon="5.67596">
        <ele>461.7</ele>
        <time>2021-09-30T09:46:46Z</time>
      </trkpt>
      <trkpt lat="46.53497" lon="5.67593">
        <ele>461.5</ele>
        <time>2021-09-30T09:46:51Z</time>
      </trkpt>
      <trkpt lat="46.53501" lon="5.67588">
        <ele>460.7</ele>
        <time>2021-09-30T09:46:55Z</time>
      </trkpt>
      <trkpt lat="46.53506" lon="5.67586">
        <ele>458.3</ele>
        <time>2021-09-30T09:47:05Z</time>
      </trkpt>
      <trkpt lat="46.5351" lon="5.67584">
        <ele>458.4</ele>
        <time>2021-09-30T09:47:09Z</time>
      </trkpt>
      <trkpt lat="46.53515" lon="5.67583">
        <ele>459</ele>
        <time>2021-09-30T09:47:15Z</time>
      </trkpt>
      <trkpt lat="46.5352" lon="5.67581">
        <ele>459.8</ele>
        <time>2021-09-30T09:47:19Z</time>
      </trkpt>
      <trkpt lat="46.53525" lon="5.6758">
        <ele>460.3</ele>
        <time>2021-09-30T09:47:22Z</time>
      </trkpt>
      <trkpt lat="46.53529" lon="5.67579">
        <ele>460.7</ele>
        <time>2021-09-30T09:47:25Z</time>
      </trkpt>
      <trkpt lat="46.53534" lon="5.67577">
        <ele>461.3</ele>
        <time>2021-09-30T09:47:30Z</time>
      </trkpt>
      <trkpt lat="46.53539" lon="5.67574">
        <ele>462.5</ele>
        <time>2021-09-30T09:47:36Z</time>
      </trkpt>
      <trkpt lat="46.53544" lon="5.67572">
        <ele>463.4</ele>
        <time>2021-09-30T09:47:41Z</time>
      </trkpt>
      <trkpt lat="46.53549" lon="5.6757">
        <ele>464.8</ele>
        <time>2021-09-30T09:47:46Z</time>
      </trkpt>
      <trkpt lat="46.53552" lon="5.67565">
        <ele>468.3</ele>
        <time>2021-09-30T09:47:56Z</time>
      </trkpt>
      <trkpt lat="46.53556" lon="5.6756">
        <ele>476</ele>
        <time>2021-09-30T09:48:29Z</time>
      </trkpt>
      <trkpt lat="46.53561" lon="5.6756">
        <ele>477.4</ele>
        <time>2021-09-30T09:48:35Z</time>
      </trkpt>
      <trkpt lat="46.53566" lon="5.67558">
        <ele>478.4</ele>
        <time>2021-09-30T09:48:40Z</time>
      </trkpt>
      <trkpt lat="46.5357" lon="5.67556">
        <ele>478.9</ele>
        <time>2021-09-30T09:48:47Z</time>
      </trkpt>
      <trkpt lat="46.53575" lon="5.67554">
        <ele>478.8</ele>
        <time>2021-09-30T09:48:53Z</time>
      </trkpt>
      <trkpt lat="46.53578" lon="5.67549">
        <ele>479.6</ele>
        <time>2021-09-30T09:49:00Z</time>
      </trkpt>
      <trkpt lat="46.53582" lon="5.67544">
        <ele>479.6</ele>
        <time>2021-09-30T09:49:07Z</time>
      </trkpt>
      <trkpt lat="46.53587" lon="5.67542">
        <ele>479.5</ele>
        <time>2021-09-30T09:49:11Z</time>
      </trkpt>
      <trkpt lat="46.53592" lon="5.67539">
        <ele>479.5</ele>
        <time>2021-09-30T09:49:15Z</time>
      </trkpt>
      <trkpt lat="46.53596" lon="5.67537">
        <ele>479.5</ele>
        <time>2021-09-30T09:49:20Z</time>
      </trkpt>
      <trkpt lat="46.536" lon="5.67534">
        <ele>479.7</ele>
        <time>2021-09-30T09:49:27Z</time>
      </trkpt>
      <trkpt lat="46.53604" lon="5.67529">
        <ele>479.2</ele>
        <time>2021-09-30T09:49:35Z</time>
      </trkpt>
      <trkpt lat="46.53608" lon="5.67526">
        <ele>477.5</ele>
        <time>2021-09-30T09:49:44Z</time>
      </trkpt>
      <trkpt lat="46.53613" lon="5.67523">
        <ele>476.4</ele>
        <time>2021-09-30T09:49:48Z</time>
      </trkpt>
      <trkpt lat="46.53619" lon="5.6752">
        <ele>475.2</ele>
        <time>2021-09-30T09:49:52Z</time>
      </trkpt>
      <trkpt lat="46.53623" lon="5.67515">
        <ele>474.5</ele>
        <time>2021-09-30T09:49:56Z</time>
      </trkpt>
      <trkpt lat="46.53626" lon="5.67511">
        <ele>474.4</ele>
        <time>2021-09-30T09:50:01Z</time>
      </trkpt>
      <trkpt lat="46.53629" lon="5.67505">
        <ele>474.9</ele>
        <time>2021-09-30T09:50:08Z</time>
      </trkpt>
      <trkpt lat="46.53634" lon="5.67501">
        <ele>474.5</ele>
        <time>2021-09-30T09:50:14Z</time>
      </trkpt>
      <trkpt lat="46.53637" lon="5.67497">
        <ele>473.3</ele>
        <time>2021-09-30T09:50:19Z</time>
      </trkpt>
      <trkpt lat="46.53641" lon="5.67492">
        <ele>472.3</ele>
        <time>2021-09-30T09:50:24Z</time>
      </trkpt>
      <trkpt lat="46.53642" lon="5.67485">
        <ele>471.9</ele>
        <time>2021-09-30T09:50:29Z</time>
      </trkpt>
      <trkpt lat="46.53644" lon="5.67479">
        <ele>472.3</ele>
        <time>2021-09-30T09:50:34Z</time>
      </trkpt>
      <trkpt lat="46.53645" lon="5.67472">
        <ele>474.6</ele>
        <time>2021-09-30T09:50:43Z</time>
      </trkpt>
      <trkpt lat="46.5365" lon="5.67469">
        <ele>476.1</ele>
        <time>2021-09-30T09:50:48Z</time>
      </trkpt>
      <trkpt lat="46.53654" lon="5.67466">
        <ele>477.6</ele>
        <time>2021-09-30T09:50:55Z</time>
      </trkpt>
      <trkpt lat="46.53658" lon="5.67463">
        <ele>478.3</ele>
        <time>2021-09-30T09:51:06Z</time>
      </trkpt>
      <trkpt lat="46.53661" lon="5.67469">
        <ele>477.8</ele>
        <time>2021-09-30T09:51:16Z</time>
      </trkpt>
      <trkpt lat="46.53661" lon="5.67462">
        <ele>478.4</ele>
        <time>2021-09-30T09:51:35Z</time>
      </trkpt>
      <trkpt lat="46.53659" lon="5.67456">
        <ele>478.8</ele>
        <time>2021-09-30T09:51:43Z</time>
      </trkpt>
      <trkpt lat="46.53663" lon="5.67458">
        <ele>479</ele>
        <time>2021-09-30T09:51:53Z</time>
      </trkpt>
      <trkpt lat="46.53667" lon="5.67464">
        <ele>478.8</ele>
        <time>2021-09-30T09:52:04Z</time>
      </trkpt>
      <trkpt lat="46.53664" lon="5.67469">
        <ele>480.1</ele>
        <time>2021-09-30T09:52:19Z</time>
      </trkpt>
      <trkpt lat="46.53669" lon="5.67471">
        <ele>484</ele>
        <time>2021-09-30T09:52:53Z</time>
      </trkpt>
      <trkpt lat="46.53665" lon="5.67468">
        <ele>483.2</ele>
        <time>2021-09-30T09:53:04Z</time>
      </trkpt>
      <trkpt lat="46.5366" lon="5.67465">
        <ele>481</ele>
        <time>2021-09-30T09:53:11Z</time>
      </trkpt>
      <trkpt lat="46.53664" lon="5.6747">
        <ele>479.8</ele>
        <time>2021-09-30T09:53:23Z</time>
      </trkpt>
      <trkpt lat="46.53668" lon="5.67471">
        <ele>480.4</ele>
        <time>2021-09-30T09:53:27Z</time>
      </trkpt>
      <trkpt lat="46.53673" lon="5.67476">
        <ele>481.4</ele>
        <time>2021-09-30T09:53:32Z</time>
      </trkpt>
      <trkpt lat="46.53678" lon="5.67478">
        <ele>482.9</ele>
        <time>2021-09-30T09:53:37Z</time>
      </trkpt>
      <trkpt lat="46.53683" lon="5.67482">
        <ele>484.5</ele>
        <time>2021-09-30T09:53:42Z</time>
      </trkpt>
      <trkpt lat="46.53687" lon="5.67486">
        <ele>485.9</ele>
        <time>2021-09-30T09:53:46Z</time>
      </trkpt>
      <trkpt lat="46.53692" lon="5.67488">
        <ele>487.2</ele>
        <time>2021-09-30T09:53:51Z</time>
      </trkpt>
      <trkpt lat="46.53696" lon="5.67488">
        <ele>487.4</ele>
        <time>2021-09-30T09:54:00Z</time>
      </trkpt>
      <trkpt lat="46.53701" lon="5.67486">
        <ele>486.9</ele>
        <time>2021-09-30T09:54:07Z</time>
      </trkpt>
      <trkpt lat="46.53706" lon="5.67484">
        <ele>487.5</ele>
        <time>2021-09-30T09:54:12Z</time>
      </trkpt>
      <trkpt lat="46.53712" lon="5.67484">
        <ele>489</ele>
        <time>2021-09-30T09:54:18Z</time>
      </trkpt>
      <trkpt lat="46.53716" lon="5.67482">
        <ele>489.7</ele>
        <time>2021-09-30T09:54:22Z</time>
      </trkpt>
      <trkpt lat="46.53721" lon="5.6748">
        <ele>489.9</ele>
        <time>2021-09-30T09:54:29Z</time>
      </trkpt>
      <trkpt lat="46.53724" lon="5.67475">
        <ele>489.9</ele>
        <time>2021-09-30T09:54:35Z</time>
      </trkpt>
      <trkpt lat="46.53729" lon="5.67473">
        <ele>489.4</ele>
        <time>2021-09-30T09:54:43Z</time>
      </trkpt>
      <trkpt lat="46.53734" lon="5.67472">
        <ele>489.3</ele>
        <time>2021-09-30T09:54:47Z</time>
      </trkpt>
      <trkpt lat="46.53738" lon="5.67468">
        <ele>488.7</ele>
        <time>2021-09-30T09:54:51Z</time>
      </trkpt>
      <trkpt lat="46.53743" lon="5.67466">
        <ele>488</ele>
        <time>2021-09-30T09:54:56Z</time>
      </trkpt>
      <trkpt lat="46.53748" lon="5.67468">
        <ele>488.8</ele>
        <time>2021-09-30T09:55:05Z</time>
      </trkpt>
      <trkpt lat="46.53753" lon="5.67466">
        <ele>489.5</ele>
        <time>2021-09-30T09:55:10Z</time>
      </trkpt>
      <trkpt lat="46.53758" lon="5.67466">
        <ele>490.4</ele>
        <time>2021-09-30T09:55:15Z</time>
      </trkpt>
      <trkpt lat="46.53763" lon="5.67466">
        <ele>491.6</ele>
        <time>2021-09-30T09:55:21Z</time>
      </trkpt>
      <trkpt lat="46.53768" lon="5.67465">
        <ele>492.6</ele>
        <time>2021-09-30T09:55:26Z</time>
      </trkpt>
      <trkpt lat="46.53772" lon="5.67463">
        <ele>494.3</ele>
        <time>2021-09-30T09:55:35Z</time>
      </trkpt>
      <trkpt lat="46.53776" lon="5.6746">
        <ele>494.8</ele>
        <time>2021-09-30T09:55:41Z</time>
      </trkpt>
      <trkpt lat="46.53781" lon="5.67458">
        <ele>495.2</ele>
        <time>2021-09-30T09:55:49Z</time>
      </trkpt>
      <trkpt lat="46.53786" lon="5.67458">
        <ele>495.7</ele>
        <time>2021-09-30T09:55:54Z</time>
      </trkpt>
      <trkpt lat="46.53791" lon="5.67459">
        <ele>495.5</ele>
        <time>2021-09-30T09:55:59Z</time>
      </trkpt>
      <trkpt lat="46.53796" lon="5.67457">
        <ele>495.3</ele>
        <time>2021-09-30T09:56:04Z</time>
      </trkpt>
      <trkpt lat="46.53801" lon="5.67456">
        <ele>494.5</ele>
        <time>2021-09-30T09:56:09Z</time>
      </trkpt>
      <trkpt lat="46.53806" lon="5.67455">
        <ele>493.7</ele>
        <time>2021-09-30T09:56:15Z</time>
      </trkpt>
      <trkpt lat="46.5381" lon="5.67453">
        <ele>493.6</ele>
        <time>2021-09-30T09:56:23Z</time>
      </trkpt>
      <trkpt lat="46.53815" lon="5.6745">
        <ele>494.5</ele>
        <time>2021-09-30T09:56:29Z</time>
      </trkpt>
      <trkpt lat="46.5382" lon="5.67448">
        <ele>495.5</ele>
        <time>2021-09-30T09:56:33Z</time>
      </trkpt>
      <trkpt lat="46.53826" lon="5.67447">
        <ele>496.6</ele>
        <time>2021-09-30T09:56:38Z</time>
      </trkpt>
      <trkpt lat="46.5383" lon="5.67446">
        <ele>498</ele>
        <time>2021-09-30T09:56:42Z</time>
      </trkpt>
      <trkpt lat="46.53836" lon="5.67445">
        <ele>500.3</ele>
        <time>2021-09-30T09:56:48Z</time>
      </trkpt>
      <trkpt lat="46.53841" lon="5.67445">
        <ele>502.1</ele>
        <time>2021-09-30T09:56:54Z</time>
      </trkpt>
      <trkpt lat="46.53846" lon="5.67445">
        <ele>504.1</ele>
        <time>2021-09-30T09:57:00Z</time>
      </trkpt>
      <trkpt lat="46.53852" lon="5.67443">
        <ele>504.7</ele>
        <time>2021-09-30T09:57:08Z</time>
      </trkpt>
      <trkpt lat="46.53856" lon="5.67441">
        <ele>503.1</ele>
        <time>2021-09-30T09:57:13Z</time>
      </trkpt>
      <trkpt lat="46.53861" lon="5.67438">
        <ele>502.1</ele>
        <time>2021-09-30T09:57:19Z</time>
      </trkpt>
      <trkpt lat="46.53865" lon="5.67438">
        <ele>502.2</ele>
        <time>2021-09-30T09:57:27Z</time>
      </trkpt>
      <trkpt lat="46.5387" lon="5.67437">
        <ele>502.5</ele>
        <time>2021-09-30T09:57:31Z</time>
      </trkpt>
      <trkpt lat="46.53874" lon="5.67432">
        <ele>502.7</ele>
        <time>2021-09-30T09:57:35Z</time>
      </trkpt>
      <trkpt lat="46.53878" lon="5.6743">
        <ele>503.4</ele>
        <time>2021-09-30T09:57:41Z</time>
      </trkpt>
      <trkpt lat="46.53884" lon="5.67429">
        <ele>504.2</ele>
        <time>2021-09-30T09:57:46Z</time>
      </trkpt>
      <trkpt lat="46.53888" lon="5.67427">
        <ele>504.9</ele>
        <time>2021-09-30T09:57:50Z</time>
      </trkpt>
      <trkpt lat="46.53893" lon="5.67425">
        <ele>505.4</ele>
        <time>2021-09-30T09:57:54Z</time>
      </trkpt>
      <trkpt lat="46.53898" lon="5.67421">
        <ele>506</ele>
        <time>2021-09-30T09:57:59Z</time>
      </trkpt>
      <trkpt lat="46.53902" lon="5.67417">
        <ele>506.7</ele>
        <time>2021-09-30T09:58:06Z</time>
      </trkpt>
      <trkpt lat="46.53907" lon="5.67415">
        <ele>506.3</ele>
        <time>2021-09-30T09:58:14Z</time>
      </trkpt>
      <trkpt lat="46.53913" lon="5.67413">
        <ele>506</ele>
        <time>2021-09-30T09:58:19Z</time>
      </trkpt>
      <trkpt lat="46.53917" lon="5.6741">
        <ele>505.8</ele>
        <time>2021-09-30T09:58:25Z</time>
      </trkpt>
      <trkpt lat="46.53922" lon="5.67407">
        <ele>505.7</ele>
        <time>2021-09-30T09:58:30Z</time>
      </trkpt>
      <trkpt lat="46.53927" lon="5.67404">
        <ele>505.9</ele>
        <time>2021-09-30T09:58:34Z</time>
      </trkpt>
      <trkpt lat="46.53932" lon="5.67402">
        <ele>506.3</ele>
        <time>2021-09-30T09:58:38Z</time>
      </trkpt>
      <trkpt lat="46.53936" lon="5.67399">
        <ele>507</ele>
        <time>2021-09-30T09:58:44Z</time>
      </trkpt>
      <trkpt lat="46.5394" lon="5.67397">
        <ele>507.9</ele>
        <time>2021-09-30T09:58:50Z</time>
      </trkpt>
      <trkpt lat="46.53944" lon="5.67393">
        <ele>506.8</ele>
        <time>2021-09-30T09:59:03Z</time>
      </trkpt>
      <trkpt lat="46.53949" lon="5.67391">
        <ele>507.7</ele>
        <time>2021-09-30T09:59:08Z</time>
      </trkpt>
      <trkpt lat="46.53954" lon="5.67389">
        <ele>509.7</ele>
        <time>2021-09-30T09:59:14Z</time>
      </trkpt>
      <trkpt lat="46.53959" lon="5.67389">
        <ele>511.6</ele>
        <time>2021-09-30T09:59:19Z</time>
      </trkpt>
      <trkpt lat="46.53964" lon="5.6739">
        <ele>512.7</ele>
        <time>2021-09-30T09:59:24Z</time>
      </trkpt>
      <trkpt lat="46.53969" lon="5.6739">
        <ele>513</ele>
        <time>2021-09-30T09:59:28Z</time>
      </trkpt>
      <trkpt lat="46.53975" lon="5.67389">
        <ele>513.2</ele>
        <time>2021-09-30T09:59:32Z</time>
      </trkpt>
      <trkpt lat="46.5398" lon="5.67389">
        <ele>514</ele>
        <time>2021-09-30T09:59:37Z</time>
      </trkpt>
      <trkpt lat="46.53985" lon="5.67391">
        <ele>515.7</ele>
        <time>2021-09-30T09:59:43Z</time>
      </trkpt>
      <trkpt lat="46.5399" lon="5.67392">
        <ele>517</ele>
        <time>2021-09-30T09:59:49Z</time>
      </trkpt>
      <trkpt lat="46.53995" lon="5.67395">
        <ele>517</ele>
        <time>2021-09-30T09:59:53Z</time>
      </trkpt>
      <trkpt lat="46.53999" lon="5.67397">
        <ele>516.7</ele>
        <time>2021-09-30T09:59:58Z</time>
      </trkpt>
      <trkpt lat="46.54004" lon="5.67395">
        <ele>516.4</ele>
        <time>2021-09-30T10:00:02Z</time>
      </trkpt>
      <trkpt lat="46.54009" lon="5.67392">
        <ele>516.4</ele>
        <time>2021-09-30T10:00:07Z</time>
      </trkpt>
      <trkpt lat="46.54013" lon="5.6739">
        <ele>516</ele>
        <time>2021-09-30T10:00:13Z</time>
      </trkpt>
      <trkpt lat="46.54017" lon="5.67387">
        <ele>515</ele>
        <time>2021-09-30T10:00:20Z</time>
      </trkpt>
      <trkpt lat="46.54022" lon="5.67384">
        <ele>514.8</ele>
        <time>2021-09-30T10:00:26Z</time>
      </trkpt>
      <trkpt lat="46.54026" lon="5.67386">
        <ele>514.5</ele>
        <time>2021-09-30T10:00:32Z</time>
      </trkpt>
      <trkpt lat="46.5403" lon="5.67381">
        <ele>513.7</ele>
        <time>2021-09-30T10:00:38Z</time>
      </trkpt>
      <trkpt lat="46.54034" lon="5.67378">
        <ele>513.5</ele>
        <time>2021-09-30T10:00:42Z</time>
      </trkpt>
      <trkpt lat="46.54038" lon="5.67374">
        <ele>513.3</ele>
        <time>2021-09-30T10:00:48Z</time>
      </trkpt>
      <trkpt lat="46.54044" lon="5.67374">
        <ele>513.3</ele>
        <time>2021-09-30T10:00:53Z</time>
      </trkpt>
      <trkpt lat="46.54048" lon="5.67376">
        <ele>513.4</ele>
        <time>2021-09-30T10:00:59Z</time>
      </trkpt>
      <trkpt lat="46.54052" lon="5.67378">
        <ele>514.2</ele>
        <time>2021-09-30T10:01:07Z</time>
      </trkpt>
      <trkpt lat="46.54057" lon="5.67375">
        <ele>516</ele>
        <time>2021-09-30T10:01:14Z</time>
      </trkpt>
      <trkpt lat="46.54061" lon="5.6737">
        <ele>517.4</ele>
        <time>2021-09-30T10:01:19Z</time>
      </trkpt>
      <trkpt lat="46.54065" lon="5.67364">
        <ele>518.1</ele>
        <time>2021-09-30T10:01:22Z</time>
      </trkpt>
      <trkpt lat="46.54068" lon="5.6736">
        <ele>518.9</ele>
        <time>2021-09-30T10:01:26Z</time>
      </trkpt>
      <trkpt lat="46.54071" lon="5.67354">
        <ele>519.2</ele>
        <time>2021-09-30T10:01:34Z</time>
      </trkpt>
      <trkpt lat="46.54074" lon="5.67349">
        <ele>519</ele>
        <time>2021-09-30T10:01:39Z</time>
      </trkpt>
      <trkpt lat="46.54076" lon="5.67342">
        <ele>518.6</ele>
        <time>2021-09-30T10:01:44Z</time>
      </trkpt>
      <trkpt lat="46.54077" lon="5.67335">
        <ele>517.8</ele>
        <time>2021-09-30T10:01:50Z</time>
      </trkpt>
      <trkpt lat="46.54077" lon="5.67328">
        <ele>516.9</ele>
        <time>2021-09-30T10:01:56Z</time>
      </trkpt>
      <trkpt lat="46.54079" lon="5.67321">
        <ele>516.1</ele>
        <time>2021-09-30T10:02:03Z</time>
      </trkpt>
      <trkpt lat="46.54081" lon="5.67314">
        <ele>515.1</ele>
        <time>2021-09-30T10:02:08Z</time>
      </trkpt>
      <trkpt lat="46.54082" lon="5.67308">
        <ele>514</ele>
        <time>2021-09-30T10:02:13Z</time>
      </trkpt>
      <trkpt lat="46.54082" lon="5.673">
        <ele>512.1</ele>
        <time>2021-09-30T10:02:22Z</time>
      </trkpt>
      <trkpt lat="46.54084" lon="5.67294">
        <ele>510.8</ele>
        <time>2021-09-30T10:02:28Z</time>
      </trkpt>
      <trkpt lat="46.54082" lon="5.67288">
        <ele>509.7</ele>
        <time>2021-09-30T10:02:35Z</time>
      </trkpt>
      <trkpt lat="46.54077" lon="5.67284">
        <ele>509.5</ele>
        <time>2021-09-30T10:02:39Z</time>
      </trkpt>
      <trkpt lat="46.54072" lon="5.6728">
        <ele>509.1</ele>
        <time>2021-09-30T10:02:43Z</time>
      </trkpt>
      <trkpt lat="46.54068" lon="5.67274">
        <ele>508.5</ele>
        <time>2021-09-30T10:02:49Z</time>
      </trkpt>
      <trkpt lat="46.54065" lon="5.67269">
        <ele>507.9</ele>
        <time>2021-09-30T10:02:55Z</time>
      </trkpt>
      <trkpt lat="46.54061" lon="5.67265">
        <ele>507.7</ele>
        <time>2021-09-30T10:03:00Z</time>
      </trkpt>
      <trkpt lat="46.54056" lon="5.6726">
        <ele>507.9</ele>
        <time>2021-09-30T10:03:06Z</time>
      </trkpt>
      <trkpt lat="46.54052" lon="5.67258">
        <ele>508.1</ele>
        <time>2021-09-30T10:03:12Z</time>
      </trkpt>
      <trkpt lat="46.54048" lon="5.67255">
        <ele>507.8</ele>
        <time>2021-09-30T10:03:19Z</time>
      </trkpt>
      <trkpt lat="46.54043" lon="5.67254">
        <ele>507.3</ele>
        <time>2021-09-30T10:03:25Z</time>
      </trkpt>
      <trkpt lat="46.54039" lon="5.67253">
        <ele>507</ele>
        <time>2021-09-30T10:03:30Z</time>
      </trkpt>
      <trkpt lat="46.54033" lon="5.67251">
        <ele>506.5</ele>
        <time>2021-09-30T10:03:35Z</time>
      </trkpt>
      <trkpt lat="46.54029" lon="5.6725">
        <ele>505.7</ele>
        <time>2021-09-30T10:03:41Z</time>
      </trkpt>
      <trkpt lat="46.54024" lon="5.67252">
        <ele>504.7</ele>
        <time>2021-09-30T10:03:46Z</time>
      </trkpt>
      <trkpt lat="46.54018" lon="5.67252">
        <ele>504.4</ele>
        <time>2021-09-30T10:03:51Z</time>
      </trkpt>
      <trkpt lat="46.54013" lon="5.67252">
        <ele>504.1</ele>
        <time>2021-09-30T10:03:55Z</time>
      </trkpt>
      <trkpt lat="46.54008" lon="5.67252">
        <ele>504.6</ele>
        <time>2021-09-30T10:04:00Z</time>
      </trkpt>
      <trkpt lat="46.54003" lon="5.6725">
        <ele>505.3</ele>
        <time>2021-09-30T10:04:05Z</time>
      </trkpt>
      <trkpt lat="46.53997" lon="5.67248">
        <ele>506.4</ele>
        <time>2021-09-30T10:04:08Z</time>
      </trkpt>
      <trkpt lat="46.53992" lon="5.67247">
        <ele>507.4</ele>
        <time>2021-09-30T10:04:12Z</time>
      </trkpt>
      <trkpt lat="46.53988" lon="5.67244">
        <ele>508.4</ele>
        <time>2021-09-30T10:04:17Z</time>
      </trkpt>
      <trkpt lat="46.53983" lon="5.67242">
        <ele>509.5</ele>
        <time>2021-09-30T10:04:24Z</time>
      </trkpt>
      <trkpt lat="46.53978" lon="5.67243">
        <ele>509.9</ele>
        <time>2021-09-30T10:04:28Z</time>
      </trkpt>
      <trkpt lat="46.53974" lon="5.67244">
        <ele>510</ele>
        <time>2021-09-30T10:04:32Z</time>
      </trkpt>
      <trkpt lat="46.53968" lon="5.67245">
        <ele>510.5</ele>
        <time>2021-09-30T10:04:36Z</time>
      </trkpt>
      <trkpt lat="46.53963" lon="5.67245">
        <ele>510.7</ele>
        <time>2021-09-30T10:04:40Z</time>
      </trkpt>
      <trkpt lat="46.53959" lon="5.67246">
        <ele>511.1</ele>
        <time>2021-09-30T10:04:45Z</time>
      </trkpt>
      <trkpt lat="46.53954" lon="5.67248">
        <ele>511.4</ele>
        <time>2021-09-30T10:04:50Z</time>
      </trkpt>
      <trkpt lat="46.5395" lon="5.67245">
        <ele>511.3</ele>
        <time>2021-09-30T10:04:57Z</time>
      </trkpt>
      <trkpt lat="46.53946" lon="5.6724">
        <ele>512.8</ele>
        <time>2021-09-30T10:05:04Z</time>
      </trkpt>
      <trkpt lat="46.53947" lon="5.67233">
        <ele>520.9</ele>
        <time>2021-09-30T10:05:16Z</time>
      </trkpt>
      <trkpt lat="46.53947" lon="5.67227">
        <ele>528</ele>
        <time>2021-09-30T10:05:33Z</time>
      </trkpt>
      <trkpt lat="46.53945" lon="5.67221">
        <ele>528.6</ele>
        <time>2021-09-30T10:05:40Z</time>
      </trkpt>
      <trkpt lat="46.53946" lon="5.67215">
        <ele>530.9</ele>
        <time>2021-09-30T10:06:01Z</time>
      </trkpt>
      <trkpt lat="46.53945" lon="5.67208">
        <ele>531.6</ele>
        <time>2021-09-30T10:06:09Z</time>
      </trkpt>
      <trkpt lat="46.53944" lon="5.67201">
        <ele>531.1</ele>
        <time>2021-09-30T10:06:17Z</time>
      </trkpt>
      <trkpt lat="46.53945" lon="5.67194">
        <ele>530.5</ele>
        <time>2021-09-30T10:06:23Z</time>
      </trkpt>
      <trkpt lat="46.53944" lon="5.67186">
        <ele>529.4</ele>
        <time>2021-09-30T10:06:32Z</time>
      </trkpt>
      <trkpt lat="46.53945" lon="5.67179">
        <ele>528.9</ele>
        <time>2021-09-30T10:06:36Z</time>
      </trkpt>
      <trkpt lat="46.53947" lon="5.67172">
        <ele>528.4</ele>
        <time>2021-09-30T10:06:40Z</time>
      </trkpt>
      <trkpt lat="46.53949" lon="5.67166">
        <ele>527.5</ele>
        <time>2021-09-30T10:06:45Z</time>
      </trkpt>
      <trkpt lat="46.53952" lon="5.67159">
        <ele>526.4</ele>
        <time>2021-09-30T10:06:52Z</time>
      </trkpt>
      <trkpt lat="46.53951" lon="5.67153">
        <ele>526.2</ele>
        <time>2021-09-30T10:06:56Z</time>
      </trkpt>
      <trkpt lat="46.53949" lon="5.67146">
        <ele>526</ele>
        <time>2021-09-30T10:07:02Z</time>
      </trkpt>
      <trkpt lat="46.53948" lon="5.6714">
        <ele>526.5</ele>
        <time>2021-09-30T10:07:05Z</time>
      </trkpt>
      <trkpt lat="46.53948" lon="5.67132">
        <ele>527.1</ele>
        <time>2021-09-30T10:07:09Z</time>
      </trkpt>
      <trkpt lat="46.53947" lon="5.67125">
        <ele>527.6</ele>
        <time>2021-09-30T10:07:15Z</time>
      </trkpt>
      <trkpt lat="46.53945" lon="5.67118">
        <ele>527.9</ele>
        <time>2021-09-30T10:07:21Z</time>
      </trkpt>
      <trkpt lat="46.53942" lon="5.67112">
        <ele>528.4</ele>
        <time>2021-09-30T10:07:25Z</time>
      </trkpt>
      <trkpt lat="46.53939" lon="5.67108">
        <ele>528.4</ele>
        <time>2021-09-30T10:07:29Z</time>
      </trkpt>
      <trkpt lat="46.53936" lon="5.67102">
        <ele>528.3</ele>
        <time>2021-09-30T10:07:33Z</time>
      </trkpt>
      <trkpt lat="46.53933" lon="5.67095">
        <ele>528.6</ele>
        <time>2021-09-30T10:07:38Z</time>
      </trkpt>
      <trkpt lat="46.53933" lon="5.67089">
        <ele>528.6</ele>
        <time>2021-09-30T10:07:44Z</time>
      </trkpt>
      <trkpt lat="46.5393" lon="5.67081">
        <ele>528.6</ele>
        <time>2021-09-30T10:07:50Z</time>
      </trkpt>
      <trkpt lat="46.53929" lon="5.67075">
        <ele>528.5</ele>
        <time>2021-09-30T10:07:54Z</time>
      </trkpt>
      <trkpt lat="46.53926" lon="5.67068">
        <ele>528.3</ele>
        <time>2021-09-30T10:07:58Z</time>
      </trkpt>
      <trkpt lat="46.53922" lon="5.67063">
        <ele>528.3</ele>
        <time>2021-09-30T10:08:01Z</time>
      </trkpt>
      <trkpt lat="46.53918" lon="5.67059">
        <ele>528.5</ele>
        <time>2021-09-30T10:08:04Z</time>
      </trkpt>
      <trkpt lat="46.53914" lon="5.67055">
        <ele>528.9</ele>
        <time>2021-09-30T10:08:08Z</time>
      </trkpt>
      <trkpt lat="46.5391" lon="5.6705">
        <ele>529.3</ele>
        <time>2021-09-30T10:08:13Z</time>
      </trkpt>
      <trkpt lat="46.53907" lon="5.67046">
        <ele>529.2</ele>
        <time>2021-09-30T10:08:17Z</time>
      </trkpt>
      <trkpt lat="46.53903" lon="5.67041">
        <ele>529</ele>
        <time>2021-09-30T10:08:24Z</time>
      </trkpt>
      <trkpt lat="46.539" lon="5.67034">
        <ele>528.8</ele>
        <time>2021-09-30T10:08:29Z</time>
      </trkpt>
      <trkpt lat="46.53898" lon="5.67029">
        <ele>528.7</ele>
        <time>2021-09-30T10:08:34Z</time>
      </trkpt>
      <trkpt lat="46.53894" lon="5.67024">
        <ele>529</ele>
        <time>2021-09-30T10:08:37Z</time>
      </trkpt>
      <trkpt lat="46.5389" lon="5.6702">
        <ele>529.4</ele>
        <time>2021-09-30T10:08:42Z</time>
      </trkpt>
      <trkpt lat="46.53885" lon="5.67019">
        <ele>529.9</ele>
        <time>2021-09-30T10:08:49Z</time>
      </trkpt>
      <trkpt lat="46.53881" lon="5.67016">
        <ele>530.1</ele>
        <time>2021-09-30T10:08:53Z</time>
      </trkpt>
      <trkpt lat="46.53877" lon="5.67012">
        <ele>530.4</ele>
        <time>2021-09-30T10:08:57Z</time>
      </trkpt>
      <trkpt lat="46.53872" lon="5.67008">
        <ele>530.6</ele>
        <time>2021-09-30T10:09:02Z</time>
      </trkpt>
      <trkpt lat="46.53868" lon="5.67005">
        <ele>530.8</ele>
        <time>2021-09-30T10:09:05Z</time>
      </trkpt>
      <trkpt lat="46.53863" lon="5.67002">
        <ele>530.9</ele>
        <time>2021-09-30T10:09:09Z</time>
      </trkpt>
      <trkpt lat="46.53859" lon="5.66998">
        <ele>530.8</ele>
        <time>2021-09-30T10:09:14Z</time>
      </trkpt>
      <trkpt lat="46.53855" lon="5.66993">
        <ele>530.7</ele>
        <time>2021-09-30T10:09:17Z</time>
      </trkpt>
      <trkpt lat="46.53851" lon="5.66988">
        <ele>530.2</ele>
        <time>2021-09-30T10:09:21Z</time>
      </trkpt>
      <trkpt lat="46.53846" lon="5.66984">
        <ele>530.1</ele>
        <time>2021-09-30T10:09:26Z</time>
      </trkpt>
      <trkpt lat="46.53842" lon="5.6698">
        <ele>529.7</ele>
        <time>2021-09-30T10:09:32Z</time>
      </trkpt>
      <trkpt lat="46.53839" lon="5.66976">
        <ele>529</ele>
        <time>2021-09-30T10:09:38Z</time>
      </trkpt>
      <trkpt lat="46.53834" lon="5.66973">
        <ele>527.8</ele>
        <time>2021-09-30T10:09:45Z</time>
      </trkpt>
      <trkpt lat="46.53829" lon="5.66971">
        <ele>526.9</ele>
        <time>2021-09-30T10:09:50Z</time>
      </trkpt>
      <trkpt lat="46.53824" lon="5.66967">
        <ele>525.6</ele>
        <time>2021-09-30T10:09:56Z</time>
      </trkpt>
      <trkpt lat="46.5382" lon="5.66965">
        <ele>524.8</ele>
        <time>2021-09-30T10:10:01Z</time>
      </trkpt>
      <trkpt lat="46.53814" lon="5.66962">
        <ele>524.6</ele>
        <time>2021-09-30T10:10:05Z</time>
      </trkpt>
      <trkpt lat="46.53809" lon="5.6696">
        <ele>524.4</ele>
        <time>2021-09-30T10:10:09Z</time>
      </trkpt>
      <trkpt lat="46.53804" lon="5.66956">
        <ele>523.8</ele>
        <time>2021-09-30T10:10:14Z</time>
      </trkpt>
      <trkpt lat="46.538" lon="5.66952">
        <ele>523.5</ele>
        <time>2021-09-30T10:10:18Z</time>
      </trkpt>
      <trkpt lat="46.53796" lon="5.66948">
        <ele>523.6</ele>
        <time>2021-09-30T10:10:23Z</time>
      </trkpt>
      <trkpt lat="46.53791" lon="5.66944">
        <ele>524</ele>
        <time>2021-09-30T10:10:28Z</time>
      </trkpt>
      <trkpt lat="46.53787" lon="5.66941">
        <ele>523.8</ele>
        <time>2021-09-30T10:10:33Z</time>
      </trkpt>
      <trkpt lat="46.53782" lon="5.66937">
        <ele>523.2</ele>
        <time>2021-09-30T10:10:38Z</time>
      </trkpt>
      <trkpt lat="46.53778" lon="5.66934">
        <ele>522.7</ele>
        <time>2021-09-30T10:10:42Z</time>
      </trkpt>
      <trkpt lat="46.53774" lon="5.6693">
        <ele>522.4</ele>
        <time>2021-09-30T10:10:46Z</time>
      </trkpt>
      <trkpt lat="46.53771" lon="5.66925">
        <ele>522.3</ele>
        <time>2021-09-30T10:10:49Z</time>
      </trkpt>
      <trkpt lat="46.53767" lon="5.66919">
        <ele>522.9</ele>
        <time>2021-09-30T10:10:53Z</time>
      </trkpt>
      <trkpt lat="46.53764" lon="5.66914">
        <ele>523.6</ele>
        <time>2021-09-30T10:10:58Z</time>
      </trkpt>
      <trkpt lat="46.5376" lon="5.66909">
        <ele>524</ele>
        <time>2021-09-30T10:11:03Z</time>
      </trkpt>
      <trkpt lat="46.53756" lon="5.66904">
        <ele>524.4</ele>
        <time>2021-09-30T10:11:07Z</time>
      </trkpt>
      <trkpt lat="46.53752" lon="5.669">
        <ele>524.6</ele>
        <time>2021-09-30T10:11:11Z</time>
      </trkpt>
      <trkpt lat="46.53747" lon="5.66898">
        <ele>524.5</ele>
        <time>2021-09-30T10:11:16Z</time>
      </trkpt>
      <trkpt lat="46.53743" lon="5.66894">
        <ele>524.2</ele>
        <time>2021-09-30T10:11:21Z</time>
      </trkpt>
      <trkpt lat="46.53739" lon="5.6689">
        <ele>524</ele>
        <time>2021-09-30T10:11:26Z</time>
      </trkpt>
      <trkpt lat="46.53734" lon="5.66887">
        <ele>524.3</ele>
        <time>2021-09-30T10:11:29Z</time>
      </trkpt>
      <trkpt lat="46.5373" lon="5.66884">
        <ele>524.9</ele>
        <time>2021-09-30T10:11:32Z</time>
      </trkpt>
      <trkpt lat="46.53725" lon="5.66881">
        <ele>525.6</ele>
        <time>2021-09-30T10:11:36Z</time>
      </trkpt>
      <trkpt lat="46.5372" lon="5.66877">
        <ele>526.2</ele>
        <time>2021-09-30T10:11:41Z</time>
      </trkpt>
      <trkpt lat="46.53715" lon="5.66877">
        <ele>526.7</ele>
        <time>2021-09-30T10:11:45Z</time>
      </trkpt>
      <trkpt lat="46.53711" lon="5.66874">
        <ele>527</ele>
        <time>2021-09-30T10:11:49Z</time>
      </trkpt>
      <trkpt lat="46.53706" lon="5.6687">
        <ele>527.2</ele>
        <time>2021-09-30T10:11:53Z</time>
      </trkpt>
      <trkpt lat="46.53703" lon="5.66866">
        <ele>527.2</ele>
        <time>2021-09-30T10:11:57Z</time>
      </trkpt>
      <trkpt lat="46.537" lon="5.66861">
        <ele>527</ele>
        <time>2021-09-30T10:12:02Z</time>
      </trkpt>
      <trkpt lat="46.53699" lon="5.66854">
        <ele>527</ele>
        <time>2021-09-30T10:12:07Z</time>
      </trkpt>
      <trkpt lat="46.53697" lon="5.66848">
        <ele>527</ele>
        <time>2021-09-30T10:12:12Z</time>
      </trkpt>
      <trkpt lat="46.53694" lon="5.66841">
        <ele>527.3</ele>
        <time>2021-09-30T10:12:16Z</time>
      </trkpt>
      <trkpt lat="46.5369" lon="5.66836">
        <ele>527.7</ele>
        <time>2021-09-30T10:12:20Z</time>
      </trkpt>
      <trkpt lat="46.53686" lon="5.66833">
        <ele>528</ele>
        <time>2021-09-30T10:12:23Z</time>
      </trkpt>
      <trkpt lat="46.53681" lon="5.66828">
        <ele>528.4</ele>
        <time>2021-09-30T10:12:27Z</time>
      </trkpt>
      <trkpt lat="46.53676" lon="5.66826">
        <ele>528.5</ele>
        <time>2021-09-30T10:12:30Z</time>
      </trkpt>
      <trkpt lat="46.53672" lon="5.66821">
        <ele>528.5</ele>
        <time>2021-09-30T10:12:33Z</time>
      </trkpt>
      <trkpt lat="46.5367" lon="5.66815">
        <ele>528.4</ele>
        <time>2021-09-30T10:12:38Z</time>
      </trkpt>
      <trkpt lat="46.53668" lon="5.66808">
        <ele>528.7</ele>
        <time>2021-09-30T10:12:44Z</time>
      </trkpt>
      <trkpt lat="46.53664" lon="5.66806">
        <ele>528.9</ele>
        <time>2021-09-30T10:12:48Z</time>
      </trkpt>
      <trkpt lat="46.53659" lon="5.66808">
        <ele>529.6</ele>
        <time>2021-09-30T10:12:52Z</time>
      </trkpt>
      <trkpt lat="46.53654" lon="5.66805">
        <ele>530.9</ele>
        <time>2021-09-30T10:12:57Z</time>
      </trkpt>
      <trkpt lat="46.53649" lon="5.66804">
        <ele>532.7</ele>
        <time>2021-09-30T10:13:03Z</time>
      </trkpt>
      <trkpt lat="46.53644" lon="5.66802">
        <ele>533.7</ele>
        <time>2021-09-30T10:13:07Z</time>
      </trkpt>
      <trkpt lat="46.53639" lon="5.668">
        <ele>534.9</ele>
        <time>2021-09-30T10:13:12Z</time>
      </trkpt>
      <trkpt lat="46.53635" lon="5.66799">
        <ele>536.1</ele>
        <time>2021-09-30T10:13:18Z</time>
      </trkpt>
      <trkpt lat="46.5363" lon="5.66797">
        <ele>537</ele>
        <time>2021-09-30T10:13:23Z</time>
      </trkpt>
      <trkpt lat="46.53625" lon="5.66796">
        <ele>537.5</ele>
        <time>2021-09-30T10:13:27Z</time>
      </trkpt>
      <trkpt lat="46.5362" lon="5.66795">
        <ele>538</ele>
        <time>2021-09-30T10:13:31Z</time>
      </trkpt>
      <trkpt lat="46.53615" lon="5.66794">
        <ele>539.7</ele>
        <time>2021-09-30T10:13:38Z</time>
      </trkpt>
      <trkpt lat="46.53611" lon="5.66795">
        <ele>540.5</ele>
        <time>2021-09-30T10:13:41Z</time>
      </trkpt>
      <trkpt lat="46.53606" lon="5.66795">
        <ele>541</ele>
        <time>2021-09-30T10:13:44Z</time>
      </trkpt>
      <trkpt lat="46.53601" lon="5.66793">
        <ele>541.2</ele>
        <time>2021-09-30T10:13:47Z</time>
      </trkpt>
      <trkpt lat="46.53597" lon="5.6679">
        <ele>541.5</ele>
        <time>2021-09-30T10:13:51Z</time>
      </trkpt>
      <trkpt lat="46.53592" lon="5.66788">
        <ele>541.6</ele>
        <time>2021-09-30T10:13:55Z</time>
      </trkpt>
      <trkpt lat="46.53588" lon="5.66784">
        <ele>541.6</ele>
        <time>2021-09-30T10:14:00Z</time>
      </trkpt>
      <trkpt lat="46.53583" lon="5.66782">
        <ele>541.5</ele>
        <time>2021-09-30T10:14:04Z</time>
      </trkpt>
      <trkpt lat="46.53578" lon="5.66779">
        <ele>541.7</ele>
        <time>2021-09-30T10:14:09Z</time>
      </trkpt>
      <trkpt lat="46.53573" lon="5.66776">
        <ele>541.8</ele>
        <time>2021-09-30T10:14:13Z</time>
      </trkpt>
      <trkpt lat="46.53569" lon="5.66774">
        <ele>542</ele>
        <time>2021-09-30T10:14:20Z</time>
      </trkpt>
      <trkpt lat="46.53564" lon="5.66771">
        <ele>542</ele>
        <time>2021-09-30T10:14:26Z</time>
      </trkpt>
      <trkpt lat="46.53559" lon="5.66769">
        <ele>542.2</ele>
        <time>2021-09-30T10:14:32Z</time>
      </trkpt>
      <trkpt lat="46.53555" lon="5.66766">
        <ele>542.5</ele>
        <time>2021-09-30T10:14:36Z</time>
      </trkpt>
      <trkpt lat="46.5355" lon="5.66764">
        <ele>542.6</ele>
        <time>2021-09-30T10:14:40Z</time>
      </trkpt>
      <trkpt lat="46.53546" lon="5.66762">
        <ele>542.9</ele>
        <time>2021-09-30T10:14:45Z</time>
      </trkpt>
      <trkpt lat="46.53541" lon="5.6676">
        <ele>542.8</ele>
        <time>2021-09-30T10:14:50Z</time>
      </trkpt>
      <trkpt lat="46.53536" lon="5.66758">
        <ele>542.6</ele>
        <time>2021-09-30T10:14:55Z</time>
      </trkpt>
      <trkpt lat="46.53531" lon="5.66758">
        <ele>542.6</ele>
        <time>2021-09-30T10:15:00Z</time>
      </trkpt>
      <trkpt lat="46.53527" lon="5.66763">
        <ele>543.6</ele>
        <time>2021-09-30T10:15:08Z</time>
      </trkpt>
      <trkpt lat="46.53529" lon="5.66757">
        <ele>544.2</ele>
        <time>2021-09-30T10:17:07Z</time>
      </trkpt>
      <trkpt lat="46.53526" lon="5.66753">
        <ele>543.2</ele>
        <time>2021-09-30T10:18:27Z</time>
      </trkpt>
      <trkpt lat="46.53521" lon="5.66752">
        <ele>543.1</ele>
        <time>2021-09-30T10:18:36Z</time>
      </trkpt>
      <trkpt lat="46.53527" lon="5.66754">
        <ele>546.1</ele>
        <time>2021-09-30T10:20:21Z</time>
      </trkpt>
      <trkpt lat="46.53527" lon="5.66761">
        <ele>548.8</ele>
        <time>2021-09-30T10:51:04Z</time>
      </trkpt>
      <trkpt lat="46.53532" lon="5.66761">
        <ele>548.6</ele>
        <time>2021-09-30T10:51:16Z</time>
      </trkpt>
      <trkpt lat="46.53532" lon="5.66755">
        <ele>545.6</ele>
        <time>2021-09-30T10:51:51Z</time>
      </trkpt>
      <trkpt lat="46.53527" lon="5.66757">
        <ele>545.8</ele>
        <time>2021-09-30T10:52:29Z</time>
      </trkpt>
      <trkpt lat="46.53532" lon="5.66754">
        <ele>547.6</ele>
        <time>2021-09-30T10:52:48Z</time>
      </trkpt>
      <trkpt lat="46.53527" lon="5.66753">
        <ele>549.2</ele>
        <time>2021-09-30T10:53:00Z</time>
      </trkpt>
      <trkpt lat="46.53523" lon="5.66751">
        <ele>549</ele>
        <time>2021-09-30T10:53:12Z</time>
      </trkpt>
      <trkpt lat="46.53518" lon="5.66748">
        <ele>548.8</ele>
        <time>2021-09-30T10:53:18Z</time>
      </trkpt>
      <trkpt lat="46.53514" lon="5.66743">
        <ele>548.1</ele>
        <time>2021-09-30T10:53:26Z</time>
      </trkpt>
      <trkpt lat="46.5351" lon="5.66741">
        <ele>547.4</ele>
        <time>2021-09-30T10:53:35Z</time>
      </trkpt>
      <trkpt lat="46.53506" lon="5.66736">
        <ele>547</ele>
        <time>2021-09-30T10:53:45Z</time>
      </trkpt>
      <trkpt lat="46.53502" lon="5.66733">
        <ele>546.3</ele>
        <time>2021-09-30T10:53:50Z</time>
      </trkpt>
      <trkpt lat="46.53498" lon="5.6673">
        <ele>546.1</ele>
        <time>2021-09-30T10:53:55Z</time>
      </trkpt>
      <trkpt lat="46.53494" lon="5.66725">
        <ele>546.1</ele>
        <time>2021-09-30T10:54:03Z</time>
      </trkpt>
      <trkpt lat="46.53491" lon="5.6672">
        <ele>546.1</ele>
        <time>2021-09-30T10:54:09Z</time>
      </trkpt>
      <trkpt lat="46.53487" lon="5.66715">
        <ele>546.4</ele>
        <time>2021-09-30T10:54:15Z</time>
      </trkpt>
      <trkpt lat="46.53483" lon="5.66712">
        <ele>547.4</ele>
        <time>2021-09-30T10:54:21Z</time>
      </trkpt>
      <trkpt lat="46.5348" lon="5.66707">
        <ele>548.8</ele>
        <time>2021-09-30T10:54:28Z</time>
      </trkpt>
      <trkpt lat="46.53477" lon="5.66702">
        <ele>549.6</ele>
        <time>2021-09-30T10:54:34Z</time>
      </trkpt>
      <trkpt lat="46.53474" lon="5.66696">
        <ele>550.1</ele>
        <time>2021-09-30T10:54:40Z</time>
      </trkpt>
      <trkpt lat="46.53471" lon="5.66691">
        <ele>550.8</ele>
        <time>2021-09-30T10:54:49Z</time>
      </trkpt>
      <trkpt lat="46.53468" lon="5.66686">
        <ele>551.1</ele>
        <time>2021-09-30T10:54:57Z</time>
      </trkpt>
      <trkpt lat="46.53464" lon="5.6668">
        <ele>551.5</ele>
        <time>2021-09-30T10:55:03Z</time>
      </trkpt>
      <trkpt lat="46.53461" lon="5.66675">
        <ele>552.2</ele>
        <time>2021-09-30T10:55:08Z</time>
      </trkpt>
      <trkpt lat="46.53458" lon="5.66669">
        <ele>553.2</ele>
        <time>2021-09-30T10:55:16Z</time>
      </trkpt>
      <trkpt lat="46.53456" lon="5.66661">
        <ele>553.6</ele>
        <time>2021-09-30T10:55:21Z</time>
      </trkpt>
      <trkpt lat="46.53455" lon="5.66655">
        <ele>553.7</ele>
        <time>2021-09-30T10:55:24Z</time>
      </trkpt>
      <trkpt lat="46.53453" lon="5.66647">
        <ele>554.1</ele>
        <time>2021-09-30T10:55:28Z</time>
      </trkpt>
      <trkpt lat="46.53453" lon="5.6664">
        <ele>554.5</ele>
        <time>2021-09-30T10:55:35Z</time>
      </trkpt>
      <trkpt lat="46.53449" lon="5.66636">
        <ele>553.6</ele>
        <time>2021-09-30T10:55:45Z</time>
      </trkpt>
      <trkpt lat="46.53445" lon="5.66633">
        <ele>552.2</ele>
        <time>2021-09-30T10:55:49Z</time>
      </trkpt>
      <trkpt lat="46.53441" lon="5.6663">
        <ele>551.2</ele>
        <time>2021-09-30T10:55:53Z</time>
      </trkpt>
      <trkpt lat="46.53437" lon="5.66628">
        <ele>549.9</ele>
        <time>2021-09-30T10:55:59Z</time>
      </trkpt>
      <trkpt lat="46.53432" lon="5.66625">
        <ele>550</ele>
        <time>2021-09-30T10:56:03Z</time>
      </trkpt>
      <trkpt lat="46.53427" lon="5.66624">
        <ele>550.8</ele>
        <time>2021-09-30T10:56:08Z</time>
      </trkpt>
      <trkpt lat="46.53422" lon="5.66622">
        <ele>551.8</ele>
        <time>2021-09-30T10:56:14Z</time>
      </trkpt>
      <trkpt lat="46.53417" lon="5.66621">
        <ele>552.6</ele>
        <time>2021-09-30T10:56:19Z</time>
      </trkpt>
      <trkpt lat="46.53413" lon="5.6662">
        <ele>552.6</ele>
        <time>2021-09-30T10:56:23Z</time>
      </trkpt>
      <trkpt lat="46.53408" lon="5.6662">
        <ele>552.7</ele>
        <time>2021-09-30T10:56:27Z</time>
      </trkpt>
      <trkpt lat="46.53403" lon="5.66621">
        <ele>553</ele>
        <time>2021-09-30T10:56:31Z</time>
      </trkpt>
      <trkpt lat="46.53398" lon="5.6662">
        <ele>553.8</ele>
        <time>2021-09-30T10:56:38Z</time>
      </trkpt>
      <trkpt lat="46.53393" lon="5.66619">
        <ele>554.7</ele>
        <time>2021-09-30T10:56:43Z</time>
      </trkpt>
      <trkpt lat="46.53388" lon="5.66618">
        <ele>555.5</ele>
        <time>2021-09-30T10:56:48Z</time>
      </trkpt>
      <trkpt lat="46.53384" lon="5.66617">
        <ele>556.6</ele>
        <time>2021-09-30T10:56:53Z</time>
      </trkpt>
      <trkpt lat="46.53379" lon="5.66616">
        <ele>557.3</ele>
        <time>2021-09-30T10:56:58Z</time>
      </trkpt>
      <trkpt lat="46.53374" lon="5.66615">
        <ele>558.2</ele>
        <time>2021-09-30T10:57:03Z</time>
      </trkpt>
      <trkpt lat="46.5337" lon="5.66613">
        <ele>559.4</ele>
        <time>2021-09-30T10:57:07Z</time>
      </trkpt>
      <trkpt lat="46.53366" lon="5.6661">
        <ele>559.6</ele>
        <time>2021-09-30T10:57:12Z</time>
      </trkpt>
      <trkpt lat="46.53361" lon="5.66606">
        <ele>559.4</ele>
        <time>2021-09-30T10:57:17Z</time>
      </trkpt>
      <trkpt lat="46.53357" lon="5.66601">
        <ele>558.9</ele>
        <time>2021-09-30T10:57:21Z</time>
      </trkpt>
      <trkpt lat="46.53353" lon="5.66596">
        <ele>557.9</ele>
        <time>2021-09-30T10:57:26Z</time>
      </trkpt>
      <trkpt lat="46.5335" lon="5.66591">
        <ele>556.7</ele>
        <time>2021-09-30T10:57:32Z</time>
      </trkpt>
      <trkpt lat="46.53345" lon="5.66592">
        <ele>557.4</ele>
        <time>2021-09-30T10:58:11Z</time>
      </trkpt>
      <trkpt lat="46.53341" lon="5.66586">
        <ele>556.4</ele>
        <time>2021-09-30T10:58:18Z</time>
      </trkpt>
      <trkpt lat="46.5334" lon="5.6658">
        <ele>555.8</ele>
        <time>2021-09-30T10:58:23Z</time>
      </trkpt>
      <trkpt lat="46.53337" lon="5.66574">
        <ele>554.8</ele>
        <time>2021-09-30T10:58:29Z</time>
      </trkpt>
      <trkpt lat="46.53335" lon="5.66567">
        <ele>554.1</ele>
        <time>2021-09-30T10:58:34Z</time>
      </trkpt>
      <trkpt lat="46.53333" lon="5.66561">
        <ele>554.1</ele>
        <time>2021-09-30T10:58:41Z</time>
      </trkpt>
      <trkpt lat="46.53331" lon="5.66554">
        <ele>555.8</ele>
        <time>2021-09-30T10:58:52Z</time>
      </trkpt>
      <trkpt lat="46.5333" lon="5.66547">
        <ele>556.9</ele>
        <time>2021-09-30T10:59:05Z</time>
      </trkpt>
      <trkpt lat="46.53326" lon="5.66542">
        <ele>557</ele>
        <time>2021-09-30T10:59:15Z</time>
      </trkpt>
      <trkpt lat="46.53324" lon="5.66536">
        <ele>556.5</ele>
        <time>2021-09-30T10:59:20Z</time>
      </trkpt>
      <trkpt lat="46.53322" lon="5.66528">
        <ele>555.8</ele>
        <time>2021-09-30T10:59:25Z</time>
      </trkpt>
      <trkpt lat="46.53319" lon="5.66522">
        <ele>555.4</ele>
        <time>2021-09-30T10:59:29Z</time>
      </trkpt>
      <trkpt lat="46.53316" lon="5.66517">
        <ele>555.3</ele>
        <time>2021-09-30T10:59:33Z</time>
      </trkpt>
      <trkpt lat="46.53313" lon="5.66512">
        <ele>554.8</ele>
        <time>2021-09-30T10:59:38Z</time>
      </trkpt>
      <trkpt lat="46.53311" lon="5.66506">
        <ele>555.1</ele>
        <time>2021-09-30T10:59:44Z</time>
      </trkpt>
      <trkpt lat="46.53308" lon="5.665">
        <ele>555</ele>
        <time>2021-09-30T10:59:53Z</time>
      </trkpt>
      <trkpt lat="46.53307" lon="5.66494">
        <ele>555.9</ele>
        <time>2021-09-30T11:00:02Z</time>
      </trkpt>
      <trkpt lat="46.53309" lon="5.66499">
        <ele>555.6</ele>
        <time>2021-09-30T11:00:19Z</time>
      </trkpt>
      <trkpt lat="46.53313" lon="5.66505">
        <ele>555</ele>
        <time>2021-09-30T11:00:26Z</time>
      </trkpt>
      <trkpt lat="46.53314" lon="5.66512">
        <ele>554</ele>
        <time>2021-09-30T11:00:31Z</time>
      </trkpt>
      <trkpt lat="46.53315" lon="5.66519">
        <ele>552.9</ele>
        <time>2021-09-30T11:00:36Z</time>
      </trkpt>
      <trkpt lat="46.53316" lon="5.66526">
        <ele>552.6</ele>
        <time>2021-09-30T11:00:41Z</time>
      </trkpt>
      <trkpt lat="46.53319" lon="5.66532">
        <ele>552.8</ele>
        <time>2021-09-30T11:00:45Z</time>
      </trkpt>
      <trkpt lat="46.53321" lon="5.66539">
        <ele>553.4</ele>
        <time>2021-09-30T11:00:50Z</time>
      </trkpt>
      <trkpt lat="46.53323" lon="5.66545">
        <ele>555.1</ele>
        <time>2021-09-30T11:01:00Z</time>
      </trkpt>
      <trkpt lat="46.53326" lon="5.6655">
        <ele>555.5</ele>
        <time>2021-09-30T11:01:12Z</time>
      </trkpt>
      <trkpt lat="46.53329" lon="5.66557">
        <ele>555.2</ele>
        <time>2021-09-30T11:01:18Z</time>
      </trkpt>
      <trkpt lat="46.53331" lon="5.66563">
        <ele>554.1</ele>
        <time>2021-09-30T11:01:23Z</time>
      </trkpt>
      <trkpt lat="46.53335" lon="5.66568">
        <ele>552.9</ele>
        <time>2021-09-30T11:01:27Z</time>
      </trkpt>
      <trkpt lat="46.53338" lon="5.66574">
        <ele>551.8</ele>
        <time>2021-09-30T11:01:32Z</time>
      </trkpt>
      <trkpt lat="46.53338" lon="5.66581">
        <ele>551.6</ele>
        <time>2021-09-30T11:01:37Z</time>
      </trkpt>
      <trkpt lat="46.53337" lon="5.66588">
        <ele>551.2</ele>
        <time>2021-09-30T11:01:42Z</time>
      </trkpt>
      <trkpt lat="46.53337" lon="5.66595">
        <ele>551.4</ele>
        <time>2021-09-30T11:01:46Z</time>
      </trkpt>
      <trkpt lat="46.53337" lon="5.66602">
        <ele>552.7</ele>
        <time>2021-09-30T11:01:52Z</time>
      </trkpt>
      <trkpt lat="46.53334" lon="5.66609">
        <ele>553</ele>
        <time>2021-09-30T11:01:57Z</time>
      </trkpt>
      <trkpt lat="46.5333" lon="5.66613">
        <ele>552.7</ele>
        <time>2021-09-30T11:02:02Z</time>
      </trkpt>
      <trkpt lat="46.53325" lon="5.66615">
        <ele>552.1</ele>
        <time>2021-09-30T11:02:08Z</time>
      </trkpt>
      <trkpt lat="46.5332" lon="5.66619">
        <ele>551.7</ele>
        <time>2021-09-30T11:02:14Z</time>
      </trkpt>
      <trkpt lat="46.53317" lon="5.66623">
        <ele>551.3</ele>
        <time>2021-09-30T11:02:18Z</time>
      </trkpt>
      <trkpt lat="46.53312" lon="5.66626">
        <ele>550.5</ele>
        <time>2021-09-30T11:02:23Z</time>
      </trkpt>
      <trkpt lat="46.53307" lon="5.66627">
        <ele>550.2</ele>
        <time>2021-09-30T11:02:28Z</time>
      </trkpt>
      <trkpt lat="46.53303" lon="5.66629">
        <ele>550.1</ele>
        <time>2021-09-30T11:02:32Z</time>
      </trkpt>
      <trkpt lat="46.53298" lon="5.66629">
        <ele>550.2</ele>
        <time>2021-09-30T11:02:36Z</time>
      </trkpt>
      <trkpt lat="46.53293" lon="5.66632">
        <ele>550.3</ele>
        <time>2021-09-30T11:02:40Z</time>
      </trkpt>
      <trkpt lat="46.53288" lon="5.66635">
        <ele>550.6</ele>
        <time>2021-09-30T11:02:44Z</time>
      </trkpt>
      <trkpt lat="46.53284" lon="5.6664">
        <ele>550.8</ele>
        <time>2021-09-30T11:02:48Z</time>
      </trkpt>
      <trkpt lat="46.5328" lon="5.66644">
        <ele>551.1</ele>
        <time>2021-09-30T11:02:52Z</time>
      </trkpt>
      <trkpt lat="46.53276" lon="5.66649">
        <ele>551.4</ele>
        <time>2021-09-30T11:02:56Z</time>
      </trkpt>
      <trkpt lat="46.53272" lon="5.66654">
        <ele>551.7</ele>
        <time>2021-09-30T11:03:00Z</time>
      </trkpt>
      <trkpt lat="46.53268" lon="5.66659">
        <ele>551.6</ele>
        <time>2021-09-30T11:03:05Z</time>
      </trkpt>
      <trkpt lat="46.53264" lon="5.66664">
        <ele>551.6</ele>
        <time>2021-09-30T11:03:11Z</time>
      </trkpt>
      <trkpt lat="46.53261" lon="5.66669">
        <ele>551.7</ele>
        <time>2021-09-30T11:03:16Z</time>
      </trkpt>
      <trkpt lat="46.53257" lon="5.66674">
        <ele>551.5</ele>
        <time>2021-09-30T11:03:21Z</time>
      </trkpt>
      <trkpt lat="46.53254" lon="5.66679">
        <ele>551.6</ele>
        <time>2021-09-30T11:03:26Z</time>
      </trkpt>
      <trkpt lat="46.5325" lon="5.66684">
        <ele>551.9</ele>
        <time>2021-09-30T11:03:31Z</time>
      </trkpt>
      <trkpt lat="46.53246" lon="5.66688">
        <ele>552.6</ele>
        <time>2021-09-30T11:03:36Z</time>
      </trkpt>
      <trkpt lat="46.53242" lon="5.66692">
        <ele>553.3</ele>
        <time>2021-09-30T11:03:42Z</time>
      </trkpt>
      <trkpt lat="46.53237" lon="5.66696">
        <ele>553.2</ele>
        <time>2021-09-30T11:03:47Z</time>
      </trkpt>
      <trkpt lat="46.53233" lon="5.667">
        <ele>553.1</ele>
        <time>2021-09-30T11:03:51Z</time>
      </trkpt>
      <trkpt lat="46.53229" lon="5.66704">
        <ele>552.4</ele>
        <time>2021-09-30T11:03:55Z</time>
      </trkpt>
      <trkpt lat="46.53224" lon="5.66707">
        <ele>551.4</ele>
        <time>2021-09-30T11:03:59Z</time>
      </trkpt>
      <trkpt lat="46.5322" lon="5.6671">
        <ele>550.2</ele>
        <time>2021-09-30T11:04:03Z</time>
      </trkpt>
      <trkpt lat="46.53215" lon="5.66712">
        <ele>548.6</ele>
        <time>2021-09-30T11:04:08Z</time>
      </trkpt>
      <trkpt lat="46.5321" lon="5.66714">
        <ele>547.9</ele>
        <time>2021-09-30T11:04:12Z</time>
      </trkpt>
      <trkpt lat="46.53206" lon="5.66717">
        <ele>547.2</ele>
        <time>2021-09-30T11:04:16Z</time>
      </trkpt>
      <trkpt lat="46.53201" lon="5.6672">
        <ele>547.1</ele>
        <time>2021-09-30T11:04:20Z</time>
      </trkpt>
      <trkpt lat="46.53196" lon="5.66723">
        <ele>547.6</ele>
        <time>2021-09-30T11:04:25Z</time>
      </trkpt>
      <trkpt lat="46.53192" lon="5.66726">
        <ele>547.7</ele>
        <time>2021-09-30T11:04:30Z</time>
      </trkpt>
      <trkpt lat="46.53187" lon="5.66729">
        <ele>547.1</ele>
        <time>2021-09-30T11:04:35Z</time>
      </trkpt>
      <trkpt lat="46.53183" lon="5.6673">
        <ele>546.3</ele>
        <time>2021-09-30T11:04:40Z</time>
      </trkpt>
      <trkpt lat="46.53178" lon="5.66732">
        <ele>546</ele>
        <time>2021-09-30T11:04:44Z</time>
      </trkpt>
      <trkpt lat="46.53173" lon="5.66735">
        <ele>545.8</ele>
        <time>2021-09-30T11:04:49Z</time>
      </trkpt>
      <trkpt lat="46.53169" lon="5.66737">
        <ele>546</ele>
        <time>2021-09-30T11:04:54Z</time>
      </trkpt>
      <trkpt lat="46.53164" lon="5.66738">
        <ele>545.9</ele>
        <time>2021-09-30T11:04:59Z</time>
      </trkpt>
      <trkpt lat="46.53159" lon="5.66738">
        <ele>545</ele>
        <time>2021-09-30T11:05:06Z</time>
      </trkpt>
      <trkpt lat="46.53155" lon="5.66742">
        <ele>544.6</ele>
        <time>2021-09-30T11:05:11Z</time>
      </trkpt>
      <trkpt lat="46.5315" lon="5.66744">
        <ele>544.2</ele>
        <time>2021-09-30T11:05:15Z</time>
      </trkpt>
      <trkpt lat="46.53146" lon="5.66747">
        <ele>543.7</ele>
        <time>2021-09-30T11:05:20Z</time>
      </trkpt>
      <trkpt lat="46.53142" lon="5.6675">
        <ele>542.9</ele>
        <time>2021-09-30T11:05:25Z</time>
      </trkpt>
      <trkpt lat="46.53137" lon="5.66754">
        <ele>542.1</ele>
        <time>2021-09-30T11:05:30Z</time>
      </trkpt>
      <trkpt lat="46.53132" lon="5.66757">
        <ele>541.4</ele>
        <time>2021-09-30T11:05:34Z</time>
      </trkpt>
      <trkpt lat="46.53128" lon="5.66759">
        <ele>540.6</ele>
        <time>2021-09-30T11:05:38Z</time>
      </trkpt>
      <trkpt lat="46.53123" lon="5.66762">
        <ele>539.6</ele>
        <time>2021-09-30T11:05:42Z</time>
      </trkpt>
      <trkpt lat="46.53119" lon="5.66764">
        <ele>538.5</ele>
        <time>2021-09-30T11:05:47Z</time>
      </trkpt>
      <trkpt lat="46.53114" lon="5.66766">
        <ele>537.9</ele>
        <time>2021-09-30T11:05:52Z</time>
      </trkpt>
      <trkpt lat="46.53109" lon="5.66765">
        <ele>537.4</ele>
        <time>2021-09-30T11:05:58Z</time>
      </trkpt>
      <trkpt lat="46.53103" lon="5.66769">
        <ele>537</ele>
        <time>2021-09-30T11:06:03Z</time>
      </trkpt>
      <trkpt lat="46.53099" lon="5.66772">
        <ele>536.8</ele>
        <time>2021-09-30T11:06:08Z</time>
      </trkpt>
      <trkpt lat="46.53094" lon="5.66774">
        <ele>536.7</ele>
        <time>2021-09-30T11:06:13Z</time>
      </trkpt>
      <trkpt lat="46.5309" lon="5.66778">
        <ele>536.5</ele>
        <time>2021-09-30T11:06:18Z</time>
      </trkpt>
      <trkpt lat="46.53085" lon="5.66782">
        <ele>536.1</ele>
        <time>2021-09-30T11:06:23Z</time>
      </trkpt>
      <trkpt lat="46.5308" lon="5.66785">
        <ele>536</ele>
        <time>2021-09-30T11:06:28Z</time>
      </trkpt>
      <trkpt lat="46.53075" lon="5.66788">
        <ele>536</ele>
        <time>2021-09-30T11:06:33Z</time>
      </trkpt>
      <trkpt lat="46.53071" lon="5.66791">
        <ele>536.1</ele>
        <time>2021-09-30T11:06:39Z</time>
      </trkpt>
      <trkpt lat="46.53066" lon="5.66794">
        <ele>536.2</ele>
        <time>2021-09-30T11:06:44Z</time>
      </trkpt>
      <trkpt lat="46.53061" lon="5.66796">
        <ele>536.2</ele>
        <time>2021-09-30T11:06:49Z</time>
      </trkpt>
      <trkpt lat="46.53056" lon="5.66798">
        <ele>535.8</ele>
        <time>2021-09-30T11:06:53Z</time>
      </trkpt>
      <trkpt lat="46.53052" lon="5.66799">
        <ele>535.3</ele>
        <time>2021-09-30T11:06:58Z</time>
      </trkpt>
      <trkpt lat="46.53047" lon="5.66801">
        <ele>534.7</ele>
        <time>2021-09-30T11:07:02Z</time>
      </trkpt>
      <trkpt lat="46.53043" lon="5.66805">
        <ele>534.9</ele>
        <time>2021-09-30T11:07:05Z</time>
      </trkpt>
      <trkpt lat="46.53038" lon="5.66807">
        <ele>535.3</ele>
        <time>2021-09-30T11:07:10Z</time>
      </trkpt>
      <trkpt lat="46.53033" lon="5.66809">
        <ele>536</ele>
        <time>2021-09-30T11:07:16Z</time>
      </trkpt>
      <trkpt lat="46.5303" lon="5.66813">
        <ele>536.2</ele>
        <time>2021-09-30T11:07:21Z</time>
      </trkpt>
      <trkpt lat="46.53025" lon="5.66815">
        <ele>535.9</ele>
        <time>2021-09-30T11:07:26Z</time>
      </trkpt>
      <trkpt lat="46.5302" lon="5.66818">
        <ele>535.7</ele>
        <time>2021-09-30T11:07:31Z</time>
      </trkpt>
      <trkpt lat="46.53016" lon="5.66821">
        <ele>535.7</ele>
        <time>2021-09-30T11:07:36Z</time>
      </trkpt>
      <trkpt lat="46.53011" lon="5.66826">
        <ele>536</ele>
        <time>2021-09-30T11:07:41Z</time>
      </trkpt>
      <trkpt lat="46.53007" lon="5.66831">
        <ele>535.5</ele>
        <time>2021-09-30T11:07:46Z</time>
      </trkpt>
      <trkpt lat="46.53002" lon="5.66834">
        <ele>534.5</ele>
        <time>2021-09-30T11:07:51Z</time>
      </trkpt>
      <trkpt lat="46.52997" lon="5.66835">
        <ele>533.5</ele>
        <time>2021-09-30T11:07:55Z</time>
      </trkpt>
      <trkpt lat="46.52993" lon="5.66839">
        <ele>532.5</ele>
        <time>2021-09-30T11:08:00Z</time>
      </trkpt>
      <trkpt lat="46.52988" lon="5.66842">
        <ele>532.3</ele>
        <time>2021-09-30T11:08:05Z</time>
      </trkpt>
      <trkpt lat="46.52983" lon="5.66845">
        <ele>532.3</ele>
        <time>2021-09-30T11:08:08Z</time>
      </trkpt>
      <trkpt lat="46.52978" lon="5.66847">
        <ele>532.6</ele>
        <time>2021-09-30T11:08:12Z</time>
      </trkpt>
      <trkpt lat="46.52974" lon="5.6685">
        <ele>533.6</ele>
        <time>2021-09-30T11:08:17Z</time>
      </trkpt>
      <trkpt lat="46.52969" lon="5.66853">
        <ele>534.1</ele>
        <time>2021-09-30T11:08:22Z</time>
      </trkpt>
      <trkpt lat="46.52966" lon="5.66857">
        <ele>534.4</ele>
        <time>2021-09-30T11:08:26Z</time>
      </trkpt>
      <trkpt lat="46.52962" lon="5.66862">
        <ele>535</ele>
        <time>2021-09-30T11:08:31Z</time>
      </trkpt>
      <trkpt lat="46.52957" lon="5.66863">
        <ele>535.5</ele>
        <time>2021-09-30T11:08:47Z</time>
      </trkpt>
      <trkpt lat="46.52953" lon="5.66863">
        <ele>536.4</ele>
        <time>2021-09-30T11:08:53Z</time>
      </trkpt>
      <trkpt lat="46.52948" lon="5.66864">
        <ele>536.9</ele>
        <time>2021-09-30T11:08:59Z</time>
      </trkpt>
      <trkpt lat="46.52943" lon="5.66863">
        <ele>536.9</ele>
        <time>2021-09-30T11:09:05Z</time>
      </trkpt>
      <trkpt lat="46.52937" lon="5.66862">
        <ele>536.7</ele>
        <time>2021-09-30T11:09:10Z</time>
      </trkpt>
      <trkpt lat="46.52936" lon="5.66869">
        <ele>535.6</ele>
        <time>2021-09-30T11:09:22Z</time>
      </trkpt>
      <trkpt lat="46.5294" lon="5.66874">
        <ele>535.6</ele>
        <time>2021-09-30T11:09:31Z</time>
      </trkpt>
      <trkpt lat="46.52941" lon="5.6688">
        <ele>538.6</ele>
        <time>2021-09-30T11:09:49Z</time>
      </trkpt>
      <trkpt lat="46.52939" lon="5.66873">
        <ele>540.1</ele>
        <time>2021-09-30T11:10:12Z</time>
      </trkpt>
      <trkpt lat="46.52934" lon="5.66868">
        <ele>540.3</ele>
        <time>2021-09-30T11:10:17Z</time>
      </trkpt>
      <trkpt lat="46.5293" lon="5.66868">
        <ele>539.9</ele>
        <time>2021-09-30T11:10:20Z</time>
      </trkpt>
      <trkpt lat="46.52924" lon="5.66869">
        <ele>539</ele>
        <time>2021-09-30T11:10:24Z</time>
      </trkpt>
      <trkpt lat="46.5292" lon="5.66872">
        <ele>539</ele>
        <time>2021-09-30T11:10:28Z</time>
      </trkpt>
      <trkpt lat="46.52915" lon="5.66874">
        <ele>539.1</ele>
        <time>2021-09-30T11:10:33Z</time>
      </trkpt>
      <trkpt lat="46.5291" lon="5.66878">
        <ele>539.2</ele>
        <time>2021-09-30T11:10:38Z</time>
      </trkpt>
      <trkpt lat="46.52905" lon="5.66881">
        <ele>539.2</ele>
        <time>2021-09-30T11:10:42Z</time>
      </trkpt>
      <trkpt lat="46.529" lon="5.66884">
        <ele>539.1</ele>
        <time>2021-09-30T11:10:46Z</time>
      </trkpt>
      <trkpt lat="46.52895" lon="5.66883">
        <ele>539</ele>
        <time>2021-09-30T11:10:50Z</time>
      </trkpt>
      <trkpt lat="46.5289" lon="5.6688">
        <ele>538.8</ele>
        <time>2021-09-30T11:10:54Z</time>
      </trkpt>
      <trkpt lat="46.52886" lon="5.66877">
        <ele>538.4</ele>
        <time>2021-09-30T11:10:57Z</time>
      </trkpt>
      <trkpt lat="46.52881" lon="5.66875">
        <ele>538.2</ele>
        <time>2021-09-30T11:11:01Z</time>
      </trkpt>
      <trkpt lat="46.52877" lon="5.66873">
        <ele>538.2</ele>
        <time>2021-09-30T11:11:05Z</time>
      </trkpt>
      <trkpt lat="46.52872" lon="5.66871">
        <ele>538.5</ele>
        <time>2021-09-30T11:11:09Z</time>
      </trkpt>
      <trkpt lat="46.52867" lon="5.66868">
        <ele>539.1</ele>
        <time>2021-09-30T11:11:14Z</time>
      </trkpt>
      <trkpt lat="46.52861" lon="5.66866">
        <ele>539.6</ele>
        <time>2021-09-30T11:11:18Z</time>
      </trkpt>
      <trkpt lat="46.52856" lon="5.66865">
        <ele>539.7</ele>
        <time>2021-09-30T11:11:22Z</time>
      </trkpt>
      <trkpt lat="46.52851" lon="5.66865">
        <ele>539.8</ele>
        <time>2021-09-30T11:11:27Z</time>
      </trkpt>
      <trkpt lat="46.52846" lon="5.66866">
        <ele>538.9</ele>
        <time>2021-09-30T11:11:32Z</time>
      </trkpt>
      <trkpt lat="46.5284" lon="5.66868">
        <ele>538.1</ele>
        <time>2021-09-30T11:11:36Z</time>
      </trkpt>
      <trkpt lat="46.52836" lon="5.6687">
        <ele>537.6</ele>
        <time>2021-09-30T11:11:40Z</time>
      </trkpt>
      <trkpt lat="46.52831" lon="5.66871">
        <ele>537.2</ele>
        <time>2021-09-30T11:11:44Z</time>
      </trkpt>
      <trkpt lat="46.52826" lon="5.66872">
        <ele>537</ele>
        <time>2021-09-30T11:11:48Z</time>
      </trkpt>
      <trkpt lat="46.52821" lon="5.66873">
        <ele>536.8</ele>
        <time>2021-09-30T11:11:52Z</time>
      </trkpt>
      <trkpt lat="46.52816" lon="5.66872">
        <ele>537</ele>
        <time>2021-09-30T11:11:57Z</time>
      </trkpt>
      <trkpt lat="46.52811" lon="5.66871">
        <ele>537</ele>
        <time>2021-09-30T11:12:01Z</time>
      </trkpt>
      <trkpt lat="46.52806" lon="5.66868">
        <ele>536.5</ele>
        <time>2021-09-30T11:12:07Z</time>
      </trkpt>
      <trkpt lat="46.52802" lon="5.66865">
        <ele>536.4</ele>
        <time>2021-09-30T11:12:11Z</time>
      </trkpt>
      <trkpt lat="46.52797" lon="5.66862">
        <ele>536.4</ele>
        <time>2021-09-30T11:12:15Z</time>
      </trkpt>
      <trkpt lat="46.52792" lon="5.66859">
        <ele>536.2</ele>
        <time>2021-09-30T11:12:19Z</time>
      </trkpt>
      <trkpt lat="46.52788" lon="5.66856">
        <ele>536</ele>
        <time>2021-09-30T11:12:23Z</time>
      </trkpt>
      <trkpt lat="46.52785" lon="5.66851">
        <ele>535.7</ele>
        <time>2021-09-30T11:12:27Z</time>
      </trkpt>
      <trkpt lat="46.5278" lon="5.66847">
        <ele>535.1</ele>
        <time>2021-09-30T11:12:32Z</time>
      </trkpt>
      <trkpt lat="46.52777" lon="5.66843">
        <ele>534.1</ele>
        <time>2021-09-30T11:12:38Z</time>
      </trkpt>
      <trkpt lat="46.52773" lon="5.66839">
        <ele>534.1</ele>
        <time>2021-09-30T11:12:42Z</time>
      </trkpt>
      <trkpt lat="46.52768" lon="5.66835">
        <ele>534.5</ele>
        <time>2021-09-30T11:12:46Z</time>
      </trkpt>
      <trkpt lat="46.52764" lon="5.66832">
        <ele>535</ele>
        <time>2021-09-30T11:12:50Z</time>
      </trkpt>
      <trkpt lat="46.52759" lon="5.66828">
        <ele>535.8</ele>
        <time>2021-09-30T11:12:55Z</time>
      </trkpt>
      <trkpt lat="46.52755" lon="5.66824">
        <ele>536.1</ele>
        <time>2021-09-30T11:12:59Z</time>
      </trkpt>
      <trkpt lat="46.52751" lon="5.66821">
        <ele>536.1</ele>
        <time>2021-09-30T11:13:03Z</time>
      </trkpt>
      <trkpt lat="46.52747" lon="5.66819">
        <ele>536.2</ele>
        <time>2021-09-30T11:13:07Z</time>
      </trkpt>
      <trkpt lat="46.52742" lon="5.66817">
        <ele>536.1</ele>
        <time>2021-09-30T11:13:11Z</time>
      </trkpt>
      <trkpt lat="46.52737" lon="5.66814">
        <ele>535.7</ele>
        <time>2021-09-30T11:13:16Z</time>
      </trkpt>
      <trkpt lat="46.52733" lon="5.66812">
        <ele>535.6</ele>
        <time>2021-09-30T11:13:20Z</time>
      </trkpt>
      <trkpt lat="46.52728" lon="5.66811">
        <ele>535</ele>
        <time>2021-09-30T11:13:24Z</time>
      </trkpt>
      <trkpt lat="46.52724" lon="5.66808">
        <ele>534.3</ele>
        <time>2021-09-30T11:13:28Z</time>
      </trkpt>
      <trkpt lat="46.52719" lon="5.66806">
        <ele>533.1</ele>
        <time>2021-09-30T11:13:33Z</time>
      </trkpt>
      <trkpt lat="46.52714" lon="5.66804">
        <ele>532</ele>
        <time>2021-09-30T11:13:38Z</time>
      </trkpt>
      <trkpt lat="46.52709" lon="5.66802">
        <ele>531.6</ele>
        <time>2021-09-30T11:13:43Z</time>
      </trkpt>
      <trkpt lat="46.52705" lon="5.668">
        <ele>531.8</ele>
        <time>2021-09-30T11:13:48Z</time>
      </trkpt>
      <trkpt lat="46.527" lon="5.66799">
        <ele>531.8</ele>
        <time>2021-09-30T11:13:52Z</time>
      </trkpt>
      <trkpt lat="46.52696" lon="5.66798">
        <ele>531.9</ele>
        <time>2021-09-30T11:13:57Z</time>
      </trkpt>
      <trkpt lat="46.5269" lon="5.66795">
        <ele>532.1</ele>
        <time>2021-09-30T11:14:03Z</time>
      </trkpt>
      <trkpt lat="46.52685" lon="5.66794">
        <ele>532.1</ele>
        <time>2021-09-30T11:14:07Z</time>
      </trkpt>
      <trkpt lat="46.5268" lon="5.66793">
        <ele>531.9</ele>
        <time>2021-09-30T11:14:12Z</time>
      </trkpt>
      <trkpt lat="46.52675" lon="5.66788">
        <ele>531.9</ele>
        <time>2021-09-30T11:14:17Z</time>
      </trkpt>
      <trkpt lat="46.5267" lon="5.66785">
        <ele>532.6</ele>
        <time>2021-09-30T11:14:22Z</time>
      </trkpt>
      <trkpt lat="46.52665" lon="5.66782">
        <ele>533.8</ele>
        <time>2021-09-30T11:14:27Z</time>
      </trkpt>
      <trkpt lat="46.52664" lon="5.66776">
        <ele>535.9</ele>
        <time>2021-09-30T11:14:34Z</time>
      </trkpt>
      <trkpt lat="46.52666" lon="5.66769">
        <ele>537.1</ele>
        <time>2021-09-30T11:14:41Z</time>
      </trkpt>
      <trkpt lat="46.52669" lon="5.66764">
        <ele>537.2</ele>
        <time>2021-09-30T11:14:50Z</time>
      </trkpt>
      <trkpt lat="46.52669" lon="5.66757">
        <ele>536.5</ele>
        <time>2021-09-30T11:14:57Z</time>
      </trkpt>
      <trkpt lat="46.52668" lon="5.6675">
        <ele>534.9</ele>
        <time>2021-09-30T11:15:05Z</time>
      </trkpt>
      <trkpt lat="46.5267" lon="5.66744">
        <ele>533.2</ele>
        <time>2021-09-30T11:15:11Z</time>
      </trkpt>
      <trkpt lat="46.52669" lon="5.66737">
        <ele>530.8</ele>
        <time>2021-09-30T11:15:17Z</time>
      </trkpt>
      <trkpt lat="46.52671" lon="5.6673">
        <ele>529.4</ele>
        <time>2021-09-30T11:15:22Z</time>
      </trkpt>
      <trkpt lat="46.52675" lon="5.66726">
        <ele>528.2</ele>
        <time>2021-09-30T11:15:26Z</time>
      </trkpt>
      <trkpt lat="46.52678" lon="5.66722">
        <ele>527.3</ele>
        <time>2021-09-30T11:15:31Z</time>
      </trkpt>
      <trkpt lat="46.52681" lon="5.66716">
        <ele>526.6</ele>
        <time>2021-09-30T11:15:36Z</time>
      </trkpt>
      <trkpt lat="46.52684" lon="5.6671">
        <ele>525.7</ele>
        <time>2021-09-30T11:15:43Z</time>
      </trkpt>
      <trkpt lat="46.52687" lon="5.66704">
        <ele>525</ele>
        <time>2021-09-30T11:15:52Z</time>
      </trkpt>
      <trkpt lat="46.5269" lon="5.66698">
        <ele>524.5</ele>
        <time>2021-09-30T11:15:59Z</time>
      </trkpt>
      <trkpt lat="46.52692" lon="5.66692">
        <ele>523.6</ele>
        <time>2021-09-30T11:16:07Z</time>
      </trkpt>
      <trkpt lat="46.5269" lon="5.66686">
        <ele>522.7</ele>
        <time>2021-09-30T11:16:14Z</time>
      </trkpt>
      <trkpt lat="46.52689" lon="5.66678">
        <ele>522.4</ele>
        <time>2021-09-30T11:16:19Z</time>
      </trkpt>
      <trkpt lat="46.52687" lon="5.66671">
        <ele>521.1</ele>
        <time>2021-09-30T11:16:25Z</time>
      </trkpt>
      <trkpt lat="46.52686" lon="5.66664">
        <ele>519.5</ele>
        <time>2021-09-30T11:16:31Z</time>
      </trkpt>
      <trkpt lat="46.52685" lon="5.66657">
        <ele>518.7</ele>
        <time>2021-09-30T11:16:39Z</time>
      </trkpt>
      <trkpt lat="46.52684" lon="5.66649">
        <ele>518.4</ele>
        <time>2021-09-30T11:16:44Z</time>
      </trkpt>
      <trkpt lat="46.52683" lon="5.66642">
        <ele>518.1</ele>
        <time>2021-09-30T11:16:49Z</time>
      </trkpt>
      <trkpt lat="46.52685" lon="5.66636">
        <ele>518</ele>
        <time>2021-09-30T11:16:56Z</time>
      </trkpt>
      <trkpt lat="46.52687" lon="5.66628">
        <ele>518.3</ele>
        <time>2021-09-30T11:17:02Z</time>
      </trkpt>
      <trkpt lat="46.52688" lon="5.66621">
        <ele>519.2</ele>
        <time>2021-09-30T11:17:08Z</time>
      </trkpt>
      <trkpt lat="46.52687" lon="5.66614">
        <ele>520.5</ele>
        <time>2021-09-30T11:17:12Z</time>
      </trkpt>
      <trkpt lat="46.52683" lon="5.66609">
        <ele>522.5</ele>
        <time>2021-09-30T11:17:18Z</time>
      </trkpt>
      <trkpt lat="46.52687" lon="5.66604">
        <ele>521.5</ele>
        <time>2021-09-30T11:17:39Z</time>
      </trkpt>
      <trkpt lat="46.5269" lon="5.66599">
        <ele>519.8</ele>
        <time>2021-09-30T11:17:46Z</time>
      </trkpt>
      <trkpt lat="46.52694" lon="5.66595">
        <ele>518.8</ele>
        <time>2021-09-30T11:17:55Z</time>
      </trkpt>
      <trkpt lat="46.52698" lon="5.66591">
        <ele>519.2</ele>
        <time>2021-09-30T11:18:00Z</time>
      </trkpt>
      <trkpt lat="46.52703" lon="5.66589">
        <ele>522.1</ele>
        <time>2021-09-30T11:18:12Z</time>
      </trkpt>
      <trkpt lat="46.52708" lon="5.66591">
        <ele>523.5</ele>
        <time>2021-09-30T11:18:20Z</time>
      </trkpt>
      <trkpt lat="46.52713" lon="5.66592">
        <ele>523.3</ele>
        <time>2021-09-30T11:18:26Z</time>
      </trkpt>
      <trkpt lat="46.52717" lon="5.66592">
        <ele>522.7</ele>
        <time>2021-09-30T11:18:30Z</time>
      </trkpt>
      <trkpt lat="46.52722" lon="5.66591">
        <ele>522.1</ele>
        <time>2021-09-30T11:18:35Z</time>
      </trkpt>
      <trkpt lat="46.52727" lon="5.66592">
        <ele>521.6</ele>
        <time>2021-09-30T11:18:41Z</time>
      </trkpt>
      <trkpt lat="46.52729" lon="5.66586">
        <ele>521.3</ele>
        <time>2021-09-30T11:18:47Z</time>
      </trkpt>
      <trkpt lat="46.52725" lon="5.66581">
        <ele>523</ele>
        <time>2021-09-30T11:19:03Z</time>
      </trkpt>
      <trkpt lat="46.52722" lon="5.66576">
        <ele>529.6</ele>
        <time>2021-09-30T11:19:18Z</time>
      </trkpt>
      <trkpt lat="46.52725" lon="5.6657">
        <ele>532.5</ele>
        <time>2021-09-30T11:19:32Z</time>
      </trkpt>
      <trkpt lat="46.52728" lon="5.66565">
        <ele>533.6</ele>
        <time>2021-09-30T11:19:40Z</time>
      </trkpt>
      <trkpt lat="46.5273" lon="5.66559">
        <ele>534.2</ele>
        <time>2021-09-30T11:19:47Z</time>
      </trkpt>
      <trkpt lat="46.52731" lon="5.66553">
        <ele>537.9</ele>
        <time>2021-09-30T11:20:09Z</time>
      </trkpt>
      <trkpt lat="46.52729" lon="5.66547">
        <ele>540</ele>
        <time>2021-09-30T11:20:18Z</time>
      </trkpt>
      <trkpt lat="46.52732" lon="5.66553">
        <ele>540.6</ele>
        <time>2021-09-30T11:22:26Z</time>
      </trkpt>
      <trkpt lat="46.52736" lon="5.6655">
        <ele>540.4</ele>
        <time>2021-09-30T11:22:35Z</time>
      </trkpt>
      <trkpt lat="46.52741" lon="5.6655">
        <ele>539.8</ele>
        <time>2021-09-30T11:22:42Z</time>
      </trkpt>
      <trkpt lat="46.52746" lon="5.66548">
        <ele>539.1</ele>
        <time>2021-09-30T11:22:48Z</time>
      </trkpt>
      <trkpt lat="46.5275" lon="5.66547">
        <ele>538.6</ele>
        <time>2021-09-30T11:22:57Z</time>
      </trkpt>
      <trkpt lat="46.52754" lon="5.66551">
        <ele>538.2</ele>
        <time>2021-09-30T11:23:07Z</time>
      </trkpt>
      <trkpt lat="46.52759" lon="5.66553">
        <ele>537.8</ele>
        <time>2021-09-30T11:23:13Z</time>
      </trkpt>
      <trkpt lat="46.52764" lon="5.66555">
        <ele>538.1</ele>
        <time>2021-09-30T11:23:19Z</time>
      </trkpt>
      <trkpt lat="46.52767" lon="5.66561">
        <ele>539</ele>
        <time>2021-09-30T11:23:28Z</time>
      </trkpt>
      <trkpt lat="46.52767" lon="5.66552">
        <ele>542.1</ele>
        <time>2021-09-30T11:24:34Z</time>
      </trkpt>
      <trkpt lat="46.52771" lon="5.66558">
        <ele>543</ele>
        <time>2021-09-30T11:24:49Z</time>
      </trkpt>
      <trkpt lat="46.52766" lon="5.66554">
        <ele>545</ele>
        <time>2021-09-30T11:27:55Z</time>
      </trkpt>
      <trkpt lat="46.52759" lon="5.6655">
        <ele>547.3</ele>
        <time>2021-09-30T11:28:44Z</time>
      </trkpt>
      <trkpt lat="46.52754" lon="5.66549">
        <ele>547.1</ele>
        <time>2021-09-30T11:28:47Z</time>
      </trkpt>
      <trkpt lat="46.52749" lon="5.6655">
        <ele>546.6</ele>
        <time>2021-09-30T11:28:52Z</time>
      </trkpt>
      <trkpt lat="46.52745" lon="5.66553">
        <ele>545.8</ele>
        <time>2021-09-30T11:28:58Z</time>
      </trkpt>
      <trkpt lat="46.52741" lon="5.66556">
        <ele>544.9</ele>
        <time>2021-09-30T11:29:09Z</time>
      </trkpt>
      <trkpt lat="46.52737" lon="5.6656">
        <ele>544.8</ele>
        <time>2021-09-30T11:29:14Z</time>
      </trkpt>
      <trkpt lat="46.52732" lon="5.66563">
        <ele>544</ele>
        <time>2021-09-30T11:29:21Z</time>
      </trkpt>
      <trkpt lat="46.52729" lon="5.66568">
        <ele>542.8</ele>
        <time>2021-09-30T11:29:30Z</time>
      </trkpt>
      <trkpt lat="46.52727" lon="5.66573">
        <ele>542.1</ele>
        <time>2021-09-30T11:29:42Z</time>
      </trkpt>
      <trkpt lat="46.52723" lon="5.66577">
        <ele>540.8</ele>
        <time>2021-09-30T11:29:55Z</time>
      </trkpt>
      <trkpt lat="46.52729" lon="5.66582">
        <ele>538.3</ele>
        <time>2021-09-30T11:30:21Z</time>
      </trkpt>
      <trkpt lat="46.52733" lon="5.66585">
        <ele>537.5</ele>
        <time>2021-09-30T11:30:24Z</time>
      </trkpt>
      <trkpt lat="46.52732" lon="5.66592">
        <ele>535.1</ele>
        <time>2021-09-30T11:30:34Z</time>
      </trkpt>
      <trkpt lat="46.52728" lon="5.66595">
        <ele>533.7</ele>
        <time>2021-09-30T11:30:42Z</time>
      </trkpt>
      <trkpt lat="46.52723" lon="5.66595">
        <ele>532.4</ele>
        <time>2021-09-30T11:30:52Z</time>
      </trkpt>
      <trkpt lat="46.52718" lon="5.66595">
        <ele>531.3</ele>
        <time>2021-09-30T11:30:58Z</time>
      </trkpt>
      <trkpt lat="46.52713" lon="5.66594">
        <ele>530.6</ele>
        <time>2021-09-30T11:31:04Z</time>
      </trkpt>
      <trkpt lat="46.52708" lon="5.66593">
        <ele>530.3</ele>
        <time>2021-09-30T11:31:11Z</time>
      </trkpt>
      <trkpt lat="46.52703" lon="5.66592">
        <ele>529.2</ele>
        <time>2021-09-30T11:31:19Z</time>
      </trkpt>
      <trkpt lat="46.527" lon="5.66587">
        <ele>528.2</ele>
        <time>2021-09-30T11:31:43Z</time>
      </trkpt>
      <trkpt lat="46.52695" lon="5.66585">
        <ele>526.9</ele>
        <time>2021-09-30T11:31:55Z</time>
      </trkpt>
      <trkpt lat="46.52691" lon="5.66583">
        <ele>526</ele>
        <time>2021-09-30T11:32:02Z</time>
      </trkpt>
      <trkpt lat="46.52686" lon="5.66581">
        <ele>525</ele>
        <time>2021-09-30T11:32:09Z</time>
      </trkpt>
      <trkpt lat="46.52682" lon="5.66578">
        <ele>524.4</ele>
        <time>2021-09-30T11:32:19Z</time>
      </trkpt>
      <trkpt lat="46.52679" lon="5.66573">
        <ele>516</ele>
        <time>2021-09-30T11:33:13Z</time>
      </trkpt>
      <trkpt lat="46.5268" lon="5.66566">
        <ele>515.7</ele>
        <time>2021-09-30T11:33:19Z</time>
      </trkpt>
      <trkpt lat="46.5268" lon="5.66559">
        <ele>515.8</ele>
        <time>2021-09-30T11:33:24Z</time>
      </trkpt>
      <trkpt lat="46.52682" lon="5.66566">
        <ele>515.4</ele>
        <time>2021-09-30T11:33:55Z</time>
      </trkpt>
      <trkpt lat="46.52681" lon="5.66574">
        <ele>513.9</ele>
        <time>2021-09-30T11:34:01Z</time>
      </trkpt>
      <trkpt lat="46.52682" lon="5.66581">
        <ele>512.8</ele>
        <time>2021-09-30T11:34:07Z</time>
      </trkpt>
      <trkpt lat="46.52683" lon="5.66587">
        <ele>512.5</ele>
        <time>2021-09-30T11:34:17Z</time>
      </trkpt>
      <trkpt lat="46.52682" lon="5.66594">
        <ele>512.8</ele>
        <time>2021-09-30T11:34:24Z</time>
      </trkpt>
      <trkpt lat="46.52679" lon="5.66599">
        <ele>513.8</ele>
        <time>2021-09-30T11:34:29Z</time>
      </trkpt>
      <trkpt lat="46.52676" lon="5.66604">
        <ele>516</ele>
        <time>2021-09-30T11:34:40Z</time>
      </trkpt>
      <trkpt lat="46.52671" lon="5.66603">
        <ele>517.3</ele>
        <time>2021-09-30T11:34:48Z</time>
      </trkpt>
      <trkpt lat="46.52667" lon="5.66601">
        <ele>515.5</ele>
        <time>2021-09-30T11:34:55Z</time>
      </trkpt>
      <trkpt lat="46.52662" lon="5.666">
        <ele>514.9</ele>
        <time>2021-09-30T11:35:00Z</time>
      </trkpt>
      <trkpt lat="46.52657" lon="5.66597">
        <ele>514.3</ele>
        <time>2021-09-30T11:35:06Z</time>
      </trkpt>
      <trkpt lat="46.52653" lon="5.66596">
        <ele>511.9</ele>
        <time>2021-09-30T11:35:14Z</time>
      </trkpt>
      <trkpt lat="46.52648" lon="5.66594">
        <ele>511.1</ele>
        <time>2021-09-30T11:35:18Z</time>
      </trkpt>
      <trkpt lat="46.52644" lon="5.66593">
        <ele>510.3</ele>
        <time>2021-09-30T11:35:23Z</time>
      </trkpt>
      <trkpt lat="46.52638" lon="5.66594">
        <ele>509.3</ele>
        <time>2021-09-30T11:35:29Z</time>
      </trkpt>
      <trkpt lat="46.52633" lon="5.66593">
        <ele>508.8</ele>
        <time>2021-09-30T11:35:34Z</time>
      </trkpt>
      <trkpt lat="46.52628" lon="5.66593">
        <ele>508.5</ele>
        <time>2021-09-30T11:35:38Z</time>
      </trkpt>
      <trkpt lat="46.52623" lon="5.66592">
        <ele>508.4</ele>
        <time>2021-09-30T11:35:42Z</time>
      </trkpt>
      <trkpt lat="46.52618" lon="5.66593">
        <ele>507.7</ele>
        <time>2021-09-30T11:35:47Z</time>
      </trkpt>
      <trkpt lat="46.52614" lon="5.66593">
        <ele>506.9</ele>
        <time>2021-09-30T11:35:51Z</time>
      </trkpt>
      <trkpt lat="46.52609" lon="5.66591">
        <ele>505.9</ele>
        <time>2021-09-30T11:35:56Z</time>
      </trkpt>
      <trkpt lat="46.52606" lon="5.66586">
        <ele>503.3</ele>
        <time>2021-09-30T11:36:04Z</time>
      </trkpt>
      <trkpt lat="46.52603" lon="5.6658">
        <ele>502.3</ele>
        <time>2021-09-30T11:36:11Z</time>
      </trkpt>
      <trkpt lat="46.52602" lon="5.66573">
        <ele>502.4</ele>
        <time>2021-09-30T11:36:17Z</time>
      </trkpt>
      <trkpt lat="46.52602" lon="5.66566">
        <ele>502.1</ele>
        <time>2021-09-30T11:36:22Z</time>
      </trkpt>
      <trkpt lat="46.52602" lon="5.66559">
        <ele>502.2</ele>
        <time>2021-09-30T11:36:27Z</time>
      </trkpt>
      <trkpt lat="46.52602" lon="5.66551">
        <ele>501.6</ele>
        <time>2021-09-30T11:36:34Z</time>
      </trkpt>
      <trkpt lat="46.52602" lon="5.66545">
        <ele>500.5</ele>
        <time>2021-09-30T11:36:39Z</time>
      </trkpt>
      <trkpt lat="46.52605" lon="5.66539">
        <ele>498</ele>
        <time>2021-09-30T11:36:47Z</time>
      </trkpt>
      <trkpt lat="46.52608" lon="5.66533">
        <ele>496.2</ele>
        <time>2021-09-30T11:36:53Z</time>
      </trkpt>
      <trkpt lat="46.52604" lon="5.66528">
        <ele>495.3</ele>
        <time>2021-09-30T11:37:15Z</time>
      </trkpt>
      <trkpt lat="46.526" lon="5.66524">
        <ele>495.9</ele>
        <time>2021-09-30T11:37:23Z</time>
      </trkpt>
      <trkpt lat="46.52595" lon="5.6652">
        <ele>496.2</ele>
        <time>2021-09-30T11:37:28Z</time>
      </trkpt>
      <trkpt lat="46.52591" lon="5.66514">
        <ele>495.9</ele>
        <time>2021-09-30T11:37:33Z</time>
      </trkpt>
      <trkpt lat="46.52588" lon="5.66509">
        <ele>494.7</ele>
        <time>2021-09-30T11:37:48Z</time>
      </trkpt>
      <trkpt lat="46.52585" lon="5.66504">
        <ele>494.1</ele>
        <time>2021-09-30T11:37:53Z</time>
      </trkpt>
      <trkpt lat="46.52583" lon="5.66496">
        <ele>493.9</ele>
        <time>2021-09-30T11:37:58Z</time>
      </trkpt>
      <trkpt lat="46.52582" lon="5.66489">
        <ele>493.5</ele>
        <time>2021-09-30T11:38:04Z</time>
      </trkpt>
      <trkpt lat="46.52582" lon="5.66483">
        <ele>492.9</ele>
        <time>2021-09-30T11:38:09Z</time>
      </trkpt>
      <trkpt lat="46.52582" lon="5.66476">
        <ele>492.3</ele>
        <time>2021-09-30T11:38:15Z</time>
      </trkpt>
      <trkpt lat="46.52583" lon="5.66469">
        <ele>492.1</ele>
        <time>2021-09-30T11:38:21Z</time>
      </trkpt>
      <trkpt lat="46.52585" lon="5.66463">
        <ele>491.7</ele>
        <time>2021-09-30T11:38:26Z</time>
      </trkpt>
      <trkpt lat="46.52586" lon="5.66456">
        <ele>490.7</ele>
        <time>2021-09-30T11:38:30Z</time>
      </trkpt>
      <trkpt lat="46.52587" lon="5.66448">
        <ele>488.4</ele>
        <time>2021-09-30T11:38:35Z</time>
      </trkpt>
      <trkpt lat="46.52589" lon="5.66441">
        <ele>485.2</ele>
        <time>2021-09-30T11:38:40Z</time>
      </trkpt>
      <trkpt lat="46.52591" lon="5.66435">
        <ele>481.5</ele>
        <time>2021-09-30T11:38:45Z</time>
      </trkpt>
      <trkpt lat="46.52593" lon="5.66428">
        <ele>472.2</ele>
        <time>2021-09-30T11:38:55Z</time>
      </trkpt>
      <trkpt lat="46.52594" lon="5.66421">
        <ele>468.3</ele>
        <time>2021-09-30T11:39:05Z</time>
      </trkpt>
      <trkpt lat="46.52594" lon="5.66413">
        <ele>467.1</ele>
        <time>2021-09-30T11:39:10Z</time>
      </trkpt>
      <trkpt lat="46.52592" lon="5.66407">
        <ele>465.4</ele>
        <time>2021-09-30T11:39:19Z</time>
      </trkpt>
      <trkpt lat="46.52588" lon="5.66403">
        <ele>465.2</ele>
        <time>2021-09-30T11:39:24Z</time>
      </trkpt>
      <trkpt lat="46.52583" lon="5.664">
        <ele>465.3</ele>
        <time>2021-09-30T11:39:28Z</time>
      </trkpt>
      <trkpt lat="46.5258" lon="5.66395">
        <ele>464.2</ele>
        <time>2021-09-30T11:39:36Z</time>
      </trkpt>
      <trkpt lat="46.52575" lon="5.66393">
        <ele>464.4</ele>
        <time>2021-09-30T11:39:43Z</time>
      </trkpt>
      <trkpt lat="46.52571" lon="5.66396">
        <ele>465.1</ele>
        <time>2021-09-30T11:39:48Z</time>
      </trkpt>
      <trkpt lat="46.52566" lon="5.66396">
        <ele>466.8</ele>
        <time>2021-09-30T11:39:54Z</time>
      </trkpt>
      <trkpt lat="46.52561" lon="5.66394">
        <ele>467.9</ele>
        <time>2021-09-30T11:39:58Z</time>
      </trkpt>
      <trkpt lat="46.52556" lon="5.66393">
        <ele>468.9</ele>
        <time>2021-09-30T11:40:02Z</time>
      </trkpt>
      <trkpt lat="46.52552" lon="5.66392">
        <ele>469</ele>
        <time>2021-09-30T11:40:06Z</time>
      </trkpt>
      <trkpt lat="46.52546" lon="5.66392">
        <ele>469</ele>
        <time>2021-09-30T11:40:11Z</time>
      </trkpt>
      <trkpt lat="46.52542" lon="5.66391">
        <ele>469.1</ele>
        <time>2021-09-30T11:40:17Z</time>
      </trkpt>
      <trkpt lat="46.52536" lon="5.6639">
        <ele>468.9</ele>
        <time>2021-09-30T11:40:21Z</time>
      </trkpt>
      <trkpt lat="46.52531" lon="5.6639">
        <ele>468.6</ele>
        <time>2021-09-30T11:40:25Z</time>
      </trkpt>
      <trkpt lat="46.52526" lon="5.66391">
        <ele>468.5</ele>
        <time>2021-09-30T11:40:29Z</time>
      </trkpt>
      <trkpt lat="46.52522" lon="5.66393">
        <ele>468.8</ele>
        <time>2021-09-30T11:40:34Z</time>
      </trkpt>
      <trkpt lat="46.52517" lon="5.66393">
        <ele>469</ele>
        <time>2021-09-30T11:40:38Z</time>
      </trkpt>
      <trkpt lat="46.52512" lon="5.66393">
        <ele>469.5</ele>
        <time>2021-09-30T11:40:42Z</time>
      </trkpt>
      <trkpt lat="46.52507" lon="5.66391">
        <ele>469.7</ele>
        <time>2021-09-30T11:40:47Z</time>
      </trkpt>
      <trkpt lat="46.52502" lon="5.6639">
        <ele>469.9</ele>
        <time>2021-09-30T11:40:51Z</time>
      </trkpt>
      <trkpt lat="46.52497" lon="5.6639">
        <ele>470.5</ele>
        <time>2021-09-30T11:40:56Z</time>
      </trkpt>
      <trkpt lat="46.52492" lon="5.66389">
        <ele>471.4</ele>
        <time>2021-09-30T11:41:00Z</time>
      </trkpt>
      <trkpt lat="46.52487" lon="5.66387">
        <ele>472.5</ele>
        <time>2021-09-30T11:41:04Z</time>
      </trkpt>
      <trkpt lat="46.52482" lon="5.66385">
        <ele>473.8</ele>
        <time>2021-09-30T11:41:10Z</time>
      </trkpt>
      <trkpt lat="46.52476" lon="5.66384">
        <ele>474.5</ele>
        <time>2021-09-30T11:41:15Z</time>
      </trkpt>
      <trkpt lat="46.52471" lon="5.66383">
        <ele>474.8</ele>
        <time>2021-09-30T11:41:20Z</time>
      </trkpt>
      <trkpt lat="46.52466" lon="5.66383">
        <ele>474.5</ele>
        <time>2021-09-30T11:41:26Z</time>
      </trkpt>
      <trkpt lat="46.52461" lon="5.66383">
        <ele>474.3</ele>
        <time>2021-09-30T11:41:32Z</time>
      </trkpt>
      <trkpt lat="46.52456" lon="5.6638">
        <ele>474.9</ele>
        <time>2021-09-30T11:41:37Z</time>
      </trkpt>
      <trkpt lat="46.52451" lon="5.6638">
        <ele>475.5</ele>
        <time>2021-09-30T11:41:41Z</time>
      </trkpt>
      <trkpt lat="46.52446" lon="5.66379">
        <ele>475.9</ele>
        <time>2021-09-30T11:41:44Z</time>
      </trkpt>
      <trkpt lat="46.52441" lon="5.66378">
        <ele>476.7</ele>
        <time>2021-09-30T11:41:48Z</time>
      </trkpt>
      <trkpt lat="46.52436" lon="5.66379">
        <ele>477.2</ele>
        <time>2021-09-30T11:41:52Z</time>
      </trkpt>
      <trkpt lat="46.52431" lon="5.66379">
        <ele>477.1</ele>
        <time>2021-09-30T11:41:57Z</time>
      </trkpt>
      <trkpt lat="46.52427" lon="5.66377">
        <ele>476.6</ele>
        <time>2021-09-30T11:42:01Z</time>
      </trkpt>
      <trkpt lat="46.52422" lon="5.66375">
        <ele>476.5</ele>
        <time>2021-09-30T11:42:06Z</time>
      </trkpt>
      <trkpt lat="46.52417" lon="5.66374">
        <ele>475.9</ele>
        <time>2021-09-30T11:42:12Z</time>
      </trkpt>
      <trkpt lat="46.52413" lon="5.66374">
        <ele>474.3</ele>
        <time>2021-09-30T11:42:17Z</time>
      </trkpt>
      <trkpt lat="46.52408" lon="5.66373">
        <ele>470.5</ele>
        <time>2021-09-30T11:42:24Z</time>
      </trkpt>
      <trkpt lat="46.52403" lon="5.66372">
        <ele>468.3</ele>
        <time>2021-09-30T11:42:29Z</time>
      </trkpt>
      <trkpt lat="46.52398" lon="5.66374">
        <ele>466.7</ele>
        <time>2021-09-30T11:42:34Z</time>
      </trkpt>
      <trkpt lat="46.52393" lon="5.66373">
        <ele>465.9</ele>
        <time>2021-09-30T11:42:39Z</time>
      </trkpt>
      <trkpt lat="46.52389" lon="5.66373">
        <ele>466</ele>
        <time>2021-09-30T11:42:43Z</time>
      </trkpt>
      <trkpt lat="46.52384" lon="5.66372">
        <ele>466.3</ele>
        <time>2021-09-30T11:42:46Z</time>
      </trkpt>
      <trkpt lat="46.52379" lon="5.66372">
        <ele>467</ele>
        <time>2021-09-30T11:42:53Z</time>
      </trkpt>
      <trkpt lat="46.52374" lon="5.66372">
        <ele>466</ele>
        <time>2021-09-30T11:43:01Z</time>
      </trkpt>
      <trkpt lat="46.52369" lon="5.6637">
        <ele>464.8</ele>
        <time>2021-09-30T11:43:06Z</time>
      </trkpt>
      <trkpt lat="46.52364" lon="5.66372">
        <ele>463.7</ele>
        <time>2021-09-30T11:43:12Z</time>
      </trkpt>
      <trkpt lat="46.5236" lon="5.66377">
        <ele>463</ele>
        <time>2021-09-30T11:43:17Z</time>
      </trkpt>
      <trkpt lat="46.52358" lon="5.66384">
        <ele>463.2</ele>
        <time>2021-09-30T11:43:24Z</time>
      </trkpt>
      <trkpt lat="46.52355" lon="5.6639">
        <ele>463.9</ele>
        <time>2021-09-30T11:43:30Z</time>
      </trkpt>
      <trkpt lat="46.52352" lon="5.66396">
        <ele>464.4</ele>
        <time>2021-09-30T11:43:35Z</time>
      </trkpt>
      <trkpt lat="46.52348" lon="5.664">
        <ele>465</ele>
        <time>2021-09-30T11:43:39Z</time>
      </trkpt>
      <trkpt lat="46.52345" lon="5.66405">
        <ele>465.5</ele>
        <time>2021-09-30T11:43:43Z</time>
      </trkpt>
      <trkpt lat="46.52342" lon="5.66412">
        <ele>465.8</ele>
        <time>2021-09-30T11:43:48Z</time>
      </trkpt>
      <trkpt lat="46.52338" lon="5.66417">
        <ele>466</ele>
        <time>2021-09-30T11:43:53Z</time>
      </trkpt>
      <trkpt lat="46.52334" lon="5.66421">
        <ele>466.1</ele>
        <time>2021-09-30T11:43:58Z</time>
      </trkpt>
      <trkpt lat="46.52331" lon="5.66427">
        <ele>465.8</ele>
        <time>2021-09-30T11:44:03Z</time>
      </trkpt>
      <trkpt lat="46.52327" lon="5.66432">
        <ele>465</ele>
        <time>2021-09-30T11:44:08Z</time>
      </trkpt>
      <trkpt lat="46.52323" lon="5.66437">
        <ele>464.2</ele>
        <time>2021-09-30T11:44:14Z</time>
      </trkpt>
      <trkpt lat="46.5232" lon="5.66442">
        <ele>463.3</ele>
        <time>2021-09-30T11:44:19Z</time>
      </trkpt>
      <trkpt lat="46.52317" lon="5.66448">
        <ele>462.4</ele>
        <time>2021-09-30T11:44:24Z</time>
      </trkpt>
      <trkpt lat="46.52314" lon="5.66454">
        <ele>461.8</ele>
        <time>2021-09-30T11:44:30Z</time>
      </trkpt>
      <trkpt lat="46.5231" lon="5.66459">
        <ele>461.4</ele>
        <time>2021-09-30T11:44:36Z</time>
      </trkpt>
      <trkpt lat="46.52306" lon="5.66464">
        <ele>461.3</ele>
        <time>2021-09-30T11:44:41Z</time>
      </trkpt>
      <trkpt lat="46.52302" lon="5.66469">
        <ele>461.2</ele>
        <time>2021-09-30T11:44:46Z</time>
      </trkpt>
      <trkpt lat="46.52298" lon="5.66474">
        <ele>461.4</ele>
        <time>2021-09-30T11:44:51Z</time>
      </trkpt>
      <trkpt lat="46.52294" lon="5.66478">
        <ele>461.3</ele>
        <time>2021-09-30T11:44:56Z</time>
      </trkpt>
      <trkpt lat="46.5229" lon="5.66483">
        <ele>460.6</ele>
        <time>2021-09-30T11:45:03Z</time>
      </trkpt>
      <trkpt lat="46.52286" lon="5.66487">
        <ele>459.8</ele>
        <time>2021-09-30T11:45:09Z</time>
      </trkpt>
      <trkpt lat="46.52282" lon="5.66493">
        <ele>459.8</ele>
        <time>2021-09-30T11:45:15Z</time>
      </trkpt>
      <trkpt lat="46.52279" lon="5.66497">
        <ele>460</ele>
        <time>2021-09-30T11:45:20Z</time>
      </trkpt>
      <trkpt lat="46.52274" lon="5.66499">
        <ele>459.4</ele>
        <time>2021-09-30T11:45:27Z</time>
      </trkpt>
      <trkpt lat="46.52269" lon="5.66501">
        <ele>458.9</ele>
        <time>2021-09-30T11:45:34Z</time>
      </trkpt>
      <trkpt lat="46.52264" lon="5.66501">
        <ele>458.2</ele>
        <time>2021-09-30T11:45:40Z</time>
      </trkpt>
      <trkpt lat="46.5226" lon="5.66498">
        <ele>457.8</ele>
        <time>2021-09-30T11:45:46Z</time>
      </trkpt>
      <trkpt lat="46.52255" lon="5.66494">
        <ele>457.6</ele>
        <time>2021-09-30T11:45:51Z</time>
      </trkpt>
      <trkpt lat="46.52251" lon="5.6649">
        <ele>457.3</ele>
        <time>2021-09-30T11:45:55Z</time>
      </trkpt>
      <trkpt lat="46.52247" lon="5.66486">
        <ele>456.7</ele>
        <time>2021-09-30T11:46:00Z</time>
      </trkpt>
      <trkpt lat="46.52243" lon="5.66483">
        <ele>456.3</ele>
        <time>2021-09-30T11:46:04Z</time>
      </trkpt>
      <trkpt lat="46.52239" lon="5.6648">
        <ele>455.5</ele>
        <time>2021-09-30T11:46:09Z</time>
      </trkpt>
      <trkpt lat="46.52234" lon="5.6648">
        <ele>455.1</ele>
        <time>2021-09-30T11:46:14Z</time>
      </trkpt>
      <trkpt lat="46.52229" lon="5.66481">
        <ele>454.8</ele>
        <time>2021-09-30T11:46:18Z</time>
      </trkpt>
      <trkpt lat="46.52224" lon="5.66481">
        <ele>454.7</ele>
        <time>2021-09-30T11:46:22Z</time>
      </trkpt>
      <trkpt lat="46.5222" lon="5.66481">
        <ele>454.3</ele>
        <time>2021-09-30T11:46:26Z</time>
      </trkpt>
      <trkpt lat="46.52215" lon="5.6648">
        <ele>453.9</ele>
        <time>2021-09-30T11:46:32Z</time>
      </trkpt>
      <trkpt lat="46.5221" lon="5.6648">
        <ele>453</ele>
        <time>2021-09-30T11:46:38Z</time>
      </trkpt>
      <trkpt lat="46.52205" lon="5.6648">
        <ele>451.8</ele>
        <time>2021-09-30T11:46:42Z</time>
      </trkpt>
      <trkpt lat="46.522" lon="5.66481">
        <ele>450.8</ele>
        <time>2021-09-30T11:46:46Z</time>
      </trkpt>
      <trkpt lat="46.52195" lon="5.66481">
        <ele>450.3</ele>
        <time>2021-09-30T11:46:50Z</time>
      </trkpt>
      <trkpt lat="46.5219" lon="5.66481">
        <ele>449.4</ele>
        <time>2021-09-30T11:46:55Z</time>
      </trkpt>
      <trkpt lat="46.52185" lon="5.66482">
        <ele>448.4</ele>
        <time>2021-09-30T11:47:01Z</time>
      </trkpt>
      <trkpt lat="46.52181" lon="5.66482">
        <ele>447.8</ele>
        <time>2021-09-30T11:47:06Z</time>
      </trkpt>
      <trkpt lat="46.52175" lon="5.66483">
        <ele>447.5</ele>
        <time>2021-09-30T11:47:10Z</time>
      </trkpt>
      <trkpt lat="46.5217" lon="5.66484">
        <ele>447.4</ele>
        <time>2021-09-30T11:47:14Z</time>
      </trkpt>
      <trkpt lat="46.52165" lon="5.66483">
        <ele>447.2</ele>
        <time>2021-09-30T11:47:19Z</time>
      </trkpt>
      <trkpt lat="46.5216" lon="5.66483">
        <ele>446.7</ele>
        <time>2021-09-30T11:47:25Z</time>
      </trkpt>
      <trkpt lat="46.52155" lon="5.66483">
        <ele>446.5</ele>
        <time>2021-09-30T11:47:31Z</time>
      </trkpt>
      <trkpt lat="46.5215" lon="5.66485">
        <ele>446.2</ele>
        <time>2021-09-30T11:47:36Z</time>
      </trkpt>
      <trkpt lat="46.52145" lon="5.66485">
        <ele>446.2</ele>
        <time>2021-09-30T11:47:41Z</time>
      </trkpt>
      <trkpt lat="46.52141" lon="5.66485">
        <ele>446.1</ele>
        <time>2021-09-30T11:47:46Z</time>
      </trkpt>
      <trkpt lat="46.52135" lon="5.66486">
        <ele>446</ele>
        <time>2021-09-30T11:47:51Z</time>
      </trkpt>
      <trkpt lat="46.5213" lon="5.66485">
        <ele>446.1</ele>
        <time>2021-09-30T11:47:56Z</time>
      </trkpt>
      <trkpt lat="46.52125" lon="5.66484">
        <ele>446.1</ele>
        <time>2021-09-30T11:48:00Z</time>
      </trkpt>
      <trkpt lat="46.5212" lon="5.66483">
        <ele>446.3</ele>
        <time>2021-09-30T11:48:04Z</time>
      </trkpt>
      <trkpt lat="46.52116" lon="5.66484">
        <ele>446.9</ele>
        <time>2021-09-30T11:48:08Z</time>
      </trkpt>
      <trkpt lat="46.5211" lon="5.66484">
        <ele>447.6</ele>
        <time>2021-09-30T11:48:13Z</time>
      </trkpt>
      <trkpt lat="46.52105" lon="5.66483">
        <ele>448.4</ele>
        <time>2021-09-30T11:48:18Z</time>
      </trkpt>
      <trkpt lat="46.521" lon="5.66481">
        <ele>448.7</ele>
        <time>2021-09-30T11:48:23Z</time>
      </trkpt>
      <trkpt lat="46.52096" lon="5.66481">
        <ele>448.9</ele>
        <time>2021-09-30T11:48:28Z</time>
      </trkpt>
      <trkpt lat="46.52091" lon="5.66478">
        <ele>449.1</ele>
        <time>2021-09-30T11:48:33Z</time>
      </trkpt>
      <trkpt lat="46.52086" lon="5.66477">
        <ele>449.3</ele>
        <time>2021-09-30T11:48:37Z</time>
      </trkpt>
      <trkpt lat="46.52081" lon="5.66474">
        <ele>449.2</ele>
        <time>2021-09-30T11:48:42Z</time>
      </trkpt>
      <trkpt lat="46.52077" lon="5.66472">
        <ele>448.7</ele>
        <time>2021-09-30T11:48:46Z</time>
      </trkpt>
      <trkpt lat="46.52072" lon="5.66469">
        <ele>448.4</ele>
        <time>2021-09-30T11:48:50Z</time>
      </trkpt>
      <trkpt lat="46.52067" lon="5.66466">
        <ele>447.7</ele>
        <time>2021-09-30T11:48:55Z</time>
      </trkpt>
      <trkpt lat="46.52063" lon="5.66463">
        <ele>446.8</ele>
        <time>2021-09-30T11:49:00Z</time>
      </trkpt>
      <trkpt lat="46.52058" lon="5.6646">
        <ele>446.2</ele>
        <time>2021-09-30T11:49:05Z</time>
      </trkpt>
      <trkpt lat="46.52053" lon="5.66458">
        <ele>445.5</ele>
        <time>2021-09-30T11:49:10Z</time>
      </trkpt>
      <trkpt lat="46.52048" lon="5.66455">
        <ele>445.1</ele>
        <time>2021-09-30T11:49:15Z</time>
      </trkpt>
      <trkpt lat="46.52043" lon="5.66452">
        <ele>444.5</ele>
        <time>2021-09-30T11:49:20Z</time>
      </trkpt>
      <trkpt lat="46.52038" lon="5.6645">
        <ele>443.9</ele>
        <time>2021-09-30T11:49:25Z</time>
      </trkpt>
      <trkpt lat="46.52034" lon="5.66448">
        <ele>443.6</ele>
        <time>2021-09-30T11:49:29Z</time>
      </trkpt>
      <trkpt lat="46.52028" lon="5.66445">
        <ele>444</ele>
        <time>2021-09-30T11:49:35Z</time>
      </trkpt>
      <trkpt lat="46.52024" lon="5.66442">
        <ele>444.7</ele>
        <time>2021-09-30T11:49:40Z</time>
      </trkpt>
      <trkpt lat="46.52019" lon="5.66439">
        <ele>445.2</ele>
        <time>2021-09-30T11:49:44Z</time>
      </trkpt>
      <trkpt lat="46.52015" lon="5.66437">
        <ele>445.5</ele>
        <time>2021-09-30T11:49:48Z</time>
      </trkpt>
      <trkpt lat="46.5201" lon="5.66434">
        <ele>445.8</ele>
        <time>2021-09-30T11:49:52Z</time>
      </trkpt>
      <trkpt lat="46.52004" lon="5.66435">
        <ele>446.5</ele>
        <time>2021-09-30T11:49:56Z</time>
      </trkpt>
      <trkpt lat="46.52" lon="5.66434">
        <ele>447.6</ele>
        <time>2021-09-30T11:50:00Z</time>
      </trkpt>
      <trkpt lat="46.51995" lon="5.66433">
        <ele>448.2</ele>
        <time>2021-09-30T11:50:04Z</time>
      </trkpt>
      <trkpt lat="46.5199" lon="5.66431">
        <ele>448</ele>
        <time>2021-09-30T11:50:08Z</time>
      </trkpt>
      <trkpt lat="46.51985" lon="5.66429">
        <ele>447.7</ele>
        <time>2021-09-30T11:50:13Z</time>
      </trkpt>
      <trkpt lat="46.5198" lon="5.66428">
        <ele>447.6</ele>
        <time>2021-09-30T11:50:18Z</time>
      </trkpt>
      <trkpt lat="46.51974" lon="5.66427">
        <ele>448.1</ele>
        <time>2021-09-30T11:50:22Z</time>
      </trkpt>
      <trkpt lat="46.5197" lon="5.66426">
        <ele>450.9</ele>
        <time>2021-09-30T11:50:27Z</time>
      </trkpt>
      <trkpt lat="46.51965" lon="5.66424">
        <ele>454.5</ele>
        <time>2021-09-30T11:50:32Z</time>
      </trkpt>
      <trkpt lat="46.5196" lon="5.66425">
        <ele>455</ele>
        <time>2021-09-30T11:50:37Z</time>
      </trkpt>
      <trkpt lat="46.51955" lon="5.66426">
        <ele>455.7</ele>
        <time>2021-09-30T11:50:43Z</time>
      </trkpt>
      <trkpt lat="46.5195" lon="5.66425">
        <ele>455.6</ele>
        <time>2021-09-30T11:50:49Z</time>
      </trkpt>
      <trkpt lat="46.51945" lon="5.66424">
        <ele>455</ele>
        <time>2021-09-30T11:50:55Z</time>
      </trkpt>
      <trkpt lat="46.5194" lon="5.66422">
        <ele>454.3</ele>
        <time>2021-09-30T11:50:59Z</time>
      </trkpt>
      <trkpt lat="46.51935" lon="5.66419">
        <ele>454.1</ele>
        <time>2021-09-30T11:51:04Z</time>
      </trkpt>
      <trkpt lat="46.51931" lon="5.66416">
        <ele>454.3</ele>
        <time>2021-09-30T11:51:09Z</time>
      </trkpt>
      <trkpt lat="46.51926" lon="5.66414">
        <ele>454.6</ele>
        <time>2021-09-30T11:51:14Z</time>
      </trkpt>
      <trkpt lat="46.51921" lon="5.66414">
        <ele>454.8</ele>
        <time>2021-09-30T11:51:19Z</time>
      </trkpt>
      <trkpt lat="46.51916" lon="5.6641">
        <ele>454.6</ele>
        <time>2021-09-30T11:51:25Z</time>
      </trkpt>
      <trkpt lat="46.51911" lon="5.66409">
        <ele>454.6</ele>
        <time>2021-09-30T11:51:30Z</time>
      </trkpt>
      <trkpt lat="46.51905" lon="5.66409">
        <ele>455.3</ele>
        <time>2021-09-30T11:51:35Z</time>
      </trkpt>
      <trkpt lat="46.519" lon="5.66407">
        <ele>456</ele>
        <time>2021-09-30T11:51:40Z</time>
      </trkpt>
      <trkpt lat="46.51895" lon="5.66404">
        <ele>456.8</ele>
        <time>2021-09-30T11:51:46Z</time>
      </trkpt>
      <trkpt lat="46.5189" lon="5.66401">
        <ele>457.5</ele>
        <time>2021-09-30T11:51:51Z</time>
      </trkpt>
      <trkpt lat="46.51886" lon="5.66397">
        <ele>458.7</ele>
        <time>2021-09-30T11:51:56Z</time>
      </trkpt>
      <trkpt lat="46.51881" lon="5.66395">
        <ele>459.8</ele>
        <time>2021-09-30T11:52:03Z</time>
      </trkpt>
      <trkpt lat="46.51877" lon="5.66395">
        <ele>461.1</ele>
        <time>2021-09-30T11:52:08Z</time>
      </trkpt>
      <trkpt lat="46.51872" lon="5.66393">
        <ele>462.2</ele>
        <time>2021-09-30T11:52:14Z</time>
      </trkpt>
      <trkpt lat="46.51867" lon="5.66396">
        <ele>462.7</ele>
        <time>2021-09-30T11:52:18Z</time>
      </trkpt>
      <trkpt lat="46.51863" lon="5.664">
        <ele>463.5</ele>
        <time>2021-09-30T11:52:22Z</time>
      </trkpt>
      <trkpt lat="46.51858" lon="5.66402">
        <ele>464.8</ele>
        <time>2021-09-30T11:52:27Z</time>
      </trkpt>
      <trkpt lat="46.51853" lon="5.66403">
        <ele>466.1</ele>
        <time>2021-09-30T11:52:32Z</time>
      </trkpt>
      <trkpt lat="46.51849" lon="5.66404">
        <ele>467.6</ele>
        <time>2021-09-30T11:52:38Z</time>
      </trkpt>
      <trkpt lat="46.51844" lon="5.66406">
        <ele>468.9</ele>
        <time>2021-09-30T11:52:43Z</time>
      </trkpt>
      <trkpt lat="46.51838" lon="5.66407">
        <ele>470.3</ele>
        <time>2021-09-30T11:52:48Z</time>
      </trkpt>
      <trkpt lat="46.51834" lon="5.6641">
        <ele>471.4</ele>
        <time>2021-09-30T11:52:53Z</time>
      </trkpt>
      <trkpt lat="46.51829" lon="5.66411">
        <ele>472.5</ele>
        <time>2021-09-30T11:52:58Z</time>
      </trkpt>
      <trkpt lat="46.51824" lon="5.66409">
        <ele>473.6</ele>
        <time>2021-09-30T11:53:03Z</time>
      </trkpt>
      <trkpt lat="46.51819" lon="5.66406">
        <ele>474.1</ele>
        <time>2021-09-30T11:53:08Z</time>
      </trkpt>
      <trkpt lat="46.51814" lon="5.66405">
        <ele>474.4</ele>
        <time>2021-09-30T11:53:13Z</time>
      </trkpt>
      <trkpt lat="46.51809" lon="5.66404">
        <ele>474.5</ele>
        <time>2021-09-30T11:53:18Z</time>
      </trkpt>
      <trkpt lat="46.51804" lon="5.66406">
        <ele>474.1</ele>
        <time>2021-09-30T11:53:24Z</time>
      </trkpt>
      <trkpt lat="46.51799" lon="5.66408">
        <ele>473.8</ele>
        <time>2021-09-30T11:53:30Z</time>
      </trkpt>
      <trkpt lat="46.51795" lon="5.6641">
        <ele>474.1</ele>
        <time>2021-09-30T11:53:35Z</time>
      </trkpt>
      <trkpt lat="46.51789" lon="5.66411">
        <ele>474.2</ele>
        <time>2021-09-30T11:53:42Z</time>
      </trkpt>
      <trkpt lat="46.51785" lon="5.66414">
        <ele>474</ele>
        <time>2021-09-30T11:53:47Z</time>
      </trkpt>
      <trkpt lat="46.5178" lon="5.66415">
        <ele>473.4</ele>
        <time>2021-09-30T11:53:52Z</time>
      </trkpt>
      <trkpt lat="46.51775" lon="5.66413">
        <ele>473.1</ele>
        <time>2021-09-30T11:53:58Z</time>
      </trkpt>
      <trkpt lat="46.51771" lon="5.6641">
        <ele>472.9</ele>
        <time>2021-09-30T11:54:02Z</time>
      </trkpt>
      <trkpt lat="46.51766" lon="5.6641">
        <ele>473</ele>
        <time>2021-09-30T11:54:06Z</time>
      </trkpt>
      <trkpt lat="46.51761" lon="5.6641">
        <ele>473.5</ele>
        <time>2021-09-30T11:54:10Z</time>
      </trkpt>
      <trkpt lat="46.51756" lon="5.6641">
        <ele>473.7</ele>
        <time>2021-09-30T11:54:14Z</time>
      </trkpt>
      <trkpt lat="46.5175" lon="5.66407">
        <ele>473.7</ele>
        <time>2021-09-30T11:54:18Z</time>
      </trkpt>
      <trkpt lat="46.51746" lon="5.66405">
        <ele>473.7</ele>
        <time>2021-09-30T11:54:22Z</time>
      </trkpt>
      <trkpt lat="46.51741" lon="5.66404">
        <ele>474.1</ele>
        <time>2021-09-30T11:54:28Z</time>
      </trkpt>
      <trkpt lat="46.51736" lon="5.66406">
        <ele>474.1</ele>
        <time>2021-09-30T11:54:33Z</time>
      </trkpt>
      <trkpt lat="46.51731" lon="5.66405">
        <ele>474.3</ele>
        <time>2021-09-30T11:54:37Z</time>
      </trkpt>
      <trkpt lat="46.51726" lon="5.66403">
        <ele>475</ele>
        <time>2021-09-30T11:54:42Z</time>
      </trkpt>
      <trkpt lat="46.51721" lon="5.664">
        <ele>475.5</ele>
        <time>2021-09-30T11:54:47Z</time>
      </trkpt>
      <trkpt lat="46.51717" lon="5.66401">
        <ele>476.1</ele>
        <time>2021-09-30T11:54:53Z</time>
      </trkpt>
      <trkpt lat="46.51713" lon="5.66405">
        <ele>475.7</ele>
        <time>2021-09-30T11:54:59Z</time>
      </trkpt>
      <trkpt lat="46.51708" lon="5.66407">
        <ele>474.8</ele>
        <time>2021-09-30T11:55:05Z</time>
      </trkpt>
      <trkpt lat="46.51704" lon="5.66408">
        <ele>473.9</ele>
        <time>2021-09-30T11:55:10Z</time>
      </trkpt>
      <trkpt lat="46.51699" lon="5.66409">
        <ele>473.7</ele>
        <time>2021-09-30T11:55:13Z</time>
      </trkpt>
      <trkpt lat="46.51694" lon="5.6641">
        <ele>473.7</ele>
        <time>2021-09-30T11:55:16Z</time>
      </trkpt>
      <trkpt lat="46.51689" lon="5.6641">
        <ele>474</ele>
        <time>2021-09-30T11:55:20Z</time>
      </trkpt>
      <trkpt lat="46.51684" lon="5.6641">
        <ele>474.5</ele>
        <time>2021-09-30T11:55:24Z</time>
      </trkpt>
      <trkpt lat="46.51679" lon="5.6641">
        <ele>475</ele>
        <time>2021-09-30T11:55:28Z</time>
      </trkpt>
      <trkpt lat="46.51675" lon="5.66409">
        <ele>475.6</ele>
        <time>2021-09-30T11:55:32Z</time>
      </trkpt>
      <trkpt lat="46.5167" lon="5.66408">
        <ele>475.6</ele>
        <time>2021-09-30T11:55:38Z</time>
      </trkpt>
      <trkpt lat="46.51664" lon="5.6641">
        <ele>475.4</ele>
        <time>2021-09-30T11:55:45Z</time>
      </trkpt>
      <trkpt lat="46.5166" lon="5.66412">
        <ele>475.7</ele>
        <time>2021-09-30T11:55:49Z</time>
      </trkpt>
      <trkpt lat="46.51655" lon="5.66414">
        <ele>476.3</ele>
        <time>2021-09-30T11:55:53Z</time>
      </trkpt>
      <trkpt lat="46.5165" lon="5.66416">
        <ele>476.9</ele>
        <time>2021-09-30T11:55:59Z</time>
      </trkpt>
      <trkpt lat="46.51646" lon="5.6642">
        <ele>477.1</ele>
        <time>2021-09-30T11:56:05Z</time>
      </trkpt>
      <trkpt lat="46.51642" lon="5.66425">
        <ele>477.1</ele>
        <time>2021-09-30T11:56:10Z</time>
      </trkpt>
      <trkpt lat="46.51636" lon="5.66425">
        <ele>477</ele>
        <time>2021-09-30T11:56:16Z</time>
      </trkpt>
      <trkpt lat="46.51632" lon="5.66425">
        <ele>476.9</ele>
        <time>2021-09-30T11:56:21Z</time>
      </trkpt>
      <trkpt lat="46.51626" lon="5.66425">
        <ele>476.6</ele>
        <time>2021-09-30T11:56:25Z</time>
      </trkpt>
      <trkpt lat="46.51621" lon="5.66425">
        <ele>476.2</ele>
        <time>2021-09-30T11:56:28Z</time>
      </trkpt>
      <trkpt lat="46.51616" lon="5.66426">
        <ele>475.5</ele>
        <time>2021-09-30T11:56:32Z</time>
      </trkpt>
      <trkpt lat="46.5161" lon="5.66425">
        <ele>475.5</ele>
        <time>2021-09-30T11:56:36Z</time>
      </trkpt>
      <trkpt lat="46.51605" lon="5.66423">
        <ele>475.5</ele>
        <time>2021-09-30T11:56:40Z</time>
      </trkpt>
      <trkpt lat="46.516" lon="5.66422">
        <ele>475.7</ele>
        <time>2021-09-30T11:56:45Z</time>
      </trkpt>
      <trkpt lat="46.51595" lon="5.6642">
        <ele>476</ele>
        <time>2021-09-30T11:56:50Z</time>
      </trkpt>
      <trkpt lat="46.51589" lon="5.66419">
        <ele>476.1</ele>
        <time>2021-09-30T11:56:55Z</time>
      </trkpt>
      <trkpt lat="46.51584" lon="5.66418">
        <ele>476.8</ele>
        <time>2021-09-30T11:57:00Z</time>
      </trkpt>
      <trkpt lat="46.5158" lon="5.66417">
        <ele>478.1</ele>
        <time>2021-09-30T11:57:06Z</time>
      </trkpt>
      <trkpt lat="46.51575" lon="5.66415">
        <ele>479.6</ele>
        <time>2021-09-30T11:57:14Z</time>
      </trkpt>
      <trkpt lat="46.5157" lon="5.66413">
        <ele>480.3</ele>
        <time>2021-09-30T11:57:19Z</time>
      </trkpt>
      <trkpt lat="46.51566" lon="5.6641">
        <ele>480.6</ele>
        <time>2021-09-30T11:57:23Z</time>
      </trkpt>
      <trkpt lat="46.51562" lon="5.66406">
        <ele>481.6</ele>
        <time>2021-09-30T11:57:28Z</time>
      </trkpt>
      <trkpt lat="46.51557" lon="5.66403">
        <ele>482.5</ele>
        <time>2021-09-30T11:57:33Z</time>
      </trkpt>
      <trkpt lat="46.51552" lon="5.66401">
        <ele>483.8</ele>
        <time>2021-09-30T11:57:38Z</time>
      </trkpt>
      <trkpt lat="46.51547" lon="5.664">
        <ele>484.7</ele>
        <time>2021-09-30T11:57:43Z</time>
      </trkpt>
      <trkpt lat="46.51542" lon="5.66398">
        <ele>485.5</ele>
        <time>2021-09-30T11:57:48Z</time>
      </trkpt>
      <trkpt lat="46.51537" lon="5.66396">
        <ele>485.9</ele>
        <time>2021-09-30T11:57:54Z</time>
      </trkpt>
      <trkpt lat="46.51533" lon="5.66392">
        <ele>486.3</ele>
        <time>2021-09-30T11:57:59Z</time>
      </trkpt>
      <trkpt lat="46.51529" lon="5.66387">
        <ele>487</ele>
        <time>2021-09-30T11:58:04Z</time>
      </trkpt>
      <trkpt lat="46.51525" lon="5.66384">
        <ele>487.7</ele>
        <time>2021-09-30T11:58:09Z</time>
      </trkpt>
      <trkpt lat="46.51521" lon="5.6638">
        <ele>487.9</ele>
        <time>2021-09-30T11:58:15Z</time>
      </trkpt>
      <trkpt lat="46.51518" lon="5.66376">
        <ele>487.4</ele>
        <time>2021-09-30T11:58:20Z</time>
      </trkpt>
      <trkpt lat="46.51514" lon="5.6637">
        <ele>486.7</ele>
        <time>2021-09-30T11:58:25Z</time>
      </trkpt>
      <trkpt lat="46.51509" lon="5.66368">
        <ele>486</ele>
        <time>2021-09-30T11:58:30Z</time>
      </trkpt>
      <trkpt lat="46.51504" lon="5.66368">
        <ele>485.5</ele>
        <time>2021-09-30T11:58:34Z</time>
      </trkpt>
      <trkpt lat="46.51499" lon="5.66367">
        <ele>485.4</ele>
        <time>2021-09-30T11:58:39Z</time>
      </trkpt>
      <trkpt lat="46.51494" lon="5.66366">
        <ele>486.3</ele>
        <time>2021-09-30T11:58:45Z</time>
      </trkpt>
      <trkpt lat="46.51489" lon="5.66366">
        <ele>486.8</ele>
        <time>2021-09-30T11:58:51Z</time>
      </trkpt>
      <trkpt lat="46.51484" lon="5.66367">
        <ele>487.1</ele>
        <time>2021-09-30T11:58:57Z</time>
      </trkpt>
      <trkpt lat="46.51479" lon="5.66368">
        <ele>487.3</ele>
        <time>2021-09-30T11:59:02Z</time>
      </trkpt>
      <trkpt lat="46.51475" lon="5.66372">
        <ele>486.7</ele>
        <time>2021-09-30T11:59:07Z</time>
      </trkpt>
      <trkpt lat="46.5147" lon="5.66375">
        <ele>486.4</ele>
        <time>2021-09-30T11:59:11Z</time>
      </trkpt>
      <trkpt lat="46.51466" lon="5.66377">
        <ele>486</ele>
        <time>2021-09-30T11:59:15Z</time>
      </trkpt>
      <trkpt lat="46.5146" lon="5.66379">
        <ele>485.3</ele>
        <time>2021-09-30T11:59:22Z</time>
      </trkpt>
      <trkpt lat="46.51456" lon="5.66378">
        <ele>485.3</ele>
        <time>2021-09-30T11:59:26Z</time>
      </trkpt>
      <trkpt lat="46.51451" lon="5.66379">
        <ele>485.1</ele>
        <time>2021-09-30T11:59:32Z</time>
      </trkpt>
      <trkpt lat="46.51446" lon="5.6638">
        <ele>485.5</ele>
        <time>2021-09-30T11:59:37Z</time>
      </trkpt>
      <trkpt lat="46.5144" lon="5.6638">
        <ele>486.2</ele>
        <time>2021-09-30T11:59:41Z</time>
      </trkpt>
      <trkpt lat="46.51436" lon="5.6638">
        <ele>486.8</ele>
        <time>2021-09-30T11:59:45Z</time>
      </trkpt>
      <trkpt lat="46.5143" lon="5.6638">
        <ele>487</ele>
        <time>2021-09-30T11:59:49Z</time>
      </trkpt>
      <trkpt lat="46.51425" lon="5.66381">
        <ele>487.1</ele>
        <time>2021-09-30T11:59:53Z</time>
      </trkpt>
      <trkpt lat="46.5142" lon="5.66382">
        <ele>487.2</ele>
        <time>2021-09-30T11:59:58Z</time>
      </trkpt>
      <trkpt lat="46.51415" lon="5.66382">
        <ele>486.7</ele>
        <time>2021-09-30T12:00:03Z</time>
      </trkpt>
      <trkpt lat="46.5141" lon="5.66381">
        <ele>486.8</ele>
        <time>2021-09-30T12:00:08Z</time>
      </trkpt>
      <trkpt lat="46.51405" lon="5.66377">
        <ele>486.7</ele>
        <time>2021-09-30T12:00:13Z</time>
      </trkpt>
      <trkpt lat="46.51402" lon="5.66372">
        <ele>484.7</ele>
        <time>2021-09-30T12:00:21Z</time>
      </trkpt>
      <trkpt lat="46.51398" lon="5.66367">
        <ele>483</ele>
        <time>2021-09-30T12:00:27Z</time>
      </trkpt>
      <trkpt lat="46.51395" lon="5.66361">
        <ele>482.5</ele>
        <time>2021-09-30T12:00:32Z</time>
      </trkpt>
      <trkpt lat="46.51392" lon="5.66355">
        <ele>482</ele>
        <time>2021-09-30T12:00:37Z</time>
      </trkpt>
      <trkpt lat="46.5139" lon="5.6635">
        <ele>482</ele>
        <time>2021-09-30T12:00:41Z</time>
      </trkpt>
      <trkpt lat="46.51388" lon="5.66343">
        <ele>482.4</ele>
        <time>2021-09-30T12:00:46Z</time>
      </trkpt>
      <trkpt lat="46.51386" lon="5.66337">
        <ele>482.9</ele>
        <time>2021-09-30T12:00:52Z</time>
      </trkpt>
      <trkpt lat="46.51384" lon="5.66329">
        <ele>482.4</ele>
        <time>2021-09-30T12:00:59Z</time>
      </trkpt>
      <trkpt lat="46.51381" lon="5.66324">
        <ele>481.5</ele>
        <time>2021-09-30T12:01:03Z</time>
      </trkpt>
      <trkpt lat="46.51379" lon="5.66317">
        <ele>481.2</ele>
        <time>2021-09-30T12:01:07Z</time>
      </trkpt>
      <trkpt lat="46.51376" lon="5.66311">
        <ele>481.4</ele>
        <time>2021-09-30T12:01:11Z</time>
      </trkpt>
      <trkpt lat="46.51373" lon="5.66305">
        <ele>481.3</ele>
        <time>2021-09-30T12:01:17Z</time>
      </trkpt>
      <trkpt lat="46.51369" lon="5.66301">
        <ele>480.4</ele>
        <time>2021-09-30T12:01:23Z</time>
      </trkpt>
      <trkpt lat="46.51365" lon="5.66297">
        <ele>479.1</ele>
        <time>2021-09-30T12:01:29Z</time>
      </trkpt>
      <trkpt lat="46.51361" lon="5.663">
        <ele>477.7</ele>
        <time>2021-09-30T12:01:35Z</time>
      </trkpt>
      <trkpt lat="46.51357" lon="5.66305">
        <ele>476.6</ele>
        <time>2021-09-30T12:01:40Z</time>
      </trkpt>
      <trkpt lat="46.51352" lon="5.66303">
        <ele>474.9</ele>
        <time>2021-09-30T12:01:46Z</time>
      </trkpt>
      <trkpt lat="46.51348" lon="5.663">
        <ele>474.2</ele>
        <time>2021-09-30T12:01:51Z</time>
      </trkpt>
      <trkpt lat="46.51344" lon="5.66297">
        <ele>474.2</ele>
        <time>2021-09-30T12:01:55Z</time>
      </trkpt>
      <trkpt lat="46.51339" lon="5.66295">
        <ele>474.5</ele>
        <time>2021-09-30T12:01:59Z</time>
      </trkpt>
      <trkpt lat="46.51333" lon="5.66293">
        <ele>474.9</ele>
        <time>2021-09-30T12:02:03Z</time>
      </trkpt>
      <trkpt lat="46.51328" lon="5.66292">
        <ele>475.3</ele>
        <time>2021-09-30T12:02:07Z</time>
      </trkpt>
      <trkpt lat="46.51323" lon="5.66293">
        <ele>475.7</ele>
        <time>2021-09-30T12:02:11Z</time>
      </trkpt>
      <trkpt lat="46.51318" lon="5.66295">
        <ele>476.5</ele>
        <time>2021-09-30T12:02:17Z</time>
      </trkpt>
      <trkpt lat="46.51314" lon="5.663">
        <ele>479</ele>
        <time>2021-09-30T12:02:25Z</time>
      </trkpt>
      <trkpt lat="46.51311" lon="5.66306">
        <ele>481.3</ele>
        <time>2021-09-30T12:02:32Z</time>
      </trkpt>
      <trkpt lat="46.51307" lon="5.6631">
        <ele>482.8</ele>
        <time>2021-09-30T12:02:36Z</time>
      </trkpt>
      <trkpt lat="46.51303" lon="5.66314">
        <ele>485.4</ele>
        <time>2021-09-30T12:02:43Z</time>
      </trkpt>
      <trkpt lat="46.51298" lon="5.66319">
        <ele>486.6</ele>
        <time>2021-09-30T12:02:48Z</time>
      </trkpt>
      <trkpt lat="46.51294" lon="5.66321">
        <ele>487.5</ele>
        <time>2021-09-30T12:02:52Z</time>
      </trkpt>
      <trkpt lat="46.51289" lon="5.66325">
        <ele>488.4</ele>
        <time>2021-09-30T12:02:57Z</time>
      </trkpt>
      <trkpt lat="46.51286" lon="5.6633">
        <ele>489.5</ele>
        <time>2021-09-30T12:03:04Z</time>
      </trkpt>
      <trkpt lat="46.51282" lon="5.66333">
        <ele>490.1</ele>
        <time>2021-09-30T12:03:10Z</time>
      </trkpt>
      <trkpt lat="46.51277" lon="5.66337">
        <ele>491.1</ele>
        <time>2021-09-30T12:03:16Z</time>
      </trkpt>
      <trkpt lat="46.51273" lon="5.66339">
        <ele>491.6</ele>
        <time>2021-09-30T12:03:21Z</time>
      </trkpt>
      <trkpt lat="46.51268" lon="5.66341">
        <ele>491.2</ele>
        <time>2021-09-30T12:03:25Z</time>
      </trkpt>
      <trkpt lat="46.51263" lon="5.66342">
        <ele>490.6</ele>
        <time>2021-09-30T12:03:30Z</time>
      </trkpt>
      <trkpt lat="46.51258" lon="5.66346">
        <ele>490.6</ele>
        <time>2021-09-30T12:03:35Z</time>
      </trkpt>
      <trkpt lat="46.51254" lon="5.66348">
        <ele>490.8</ele>
        <time>2021-09-30T12:03:39Z</time>
      </trkpt>
      <trkpt lat="46.51249" lon="5.66351">
        <ele>491.4</ele>
        <time>2021-09-30T12:03:43Z</time>
      </trkpt>
      <trkpt lat="46.51244" lon="5.66354">
        <ele>492</ele>
        <time>2021-09-30T12:03:47Z</time>
      </trkpt>
      <trkpt lat="46.51239" lon="5.66354">
        <ele>492.7</ele>
        <time>2021-09-30T12:03:52Z</time>
      </trkpt>
      <trkpt lat="46.51235" lon="5.66355">
        <ele>493.7</ele>
        <time>2021-09-30T12:03:57Z</time>
      </trkpt>
      <trkpt lat="46.5123" lon="5.66359">
        <ele>494</ele>
        <time>2021-09-30T12:04:04Z</time>
      </trkpt>
      <trkpt lat="46.51227" lon="5.66364">
        <ele>492.8</ele>
        <time>2021-09-30T12:04:09Z</time>
      </trkpt>
      <trkpt lat="46.51223" lon="5.66369">
        <ele>491.3</ele>
        <time>2021-09-30T12:04:14Z</time>
      </trkpt>
      <trkpt lat="46.5122" lon="5.66374">
        <ele>490.3</ele>
        <time>2021-09-30T12:04:20Z</time>
      </trkpt>
      <trkpt lat="46.5122" lon="5.66381">
        <ele>490.3</ele>
        <time>2021-09-30T12:04:28Z</time>
      </trkpt>
      <trkpt lat="46.51219" lon="5.66388">
        <ele>491.6</ele>
        <time>2021-09-30T12:04:37Z</time>
      </trkpt>
      <trkpt lat="46.51215" lon="5.66392">
        <ele>492.9</ele>
        <time>2021-09-30T12:04:46Z</time>
      </trkpt>
      <trkpt lat="46.51212" lon="5.66398">
        <ele>494.7</ele>
        <time>2021-09-30T12:04:55Z</time>
      </trkpt>
      <trkpt lat="46.51209" lon="5.66404">
        <ele>495</ele>
        <time>2021-09-30T12:05:01Z</time>
      </trkpt>
      <trkpt lat="46.51205" lon="5.66407">
        <ele>495.4</ele>
        <time>2021-09-30T12:05:07Z</time>
      </trkpt>
      <trkpt lat="46.51201" lon="5.66409">
        <ele>497</ele>
        <time>2021-09-30T12:05:12Z</time>
      </trkpt>
      <trkpt lat="46.51196" lon="5.66409">
        <ele>498.5</ele>
        <time>2021-09-30T12:05:16Z</time>
      </trkpt>
      <trkpt lat="46.51192" lon="5.66411">
        <ele>500.9</ele>
        <time>2021-09-30T12:05:27Z</time>
      </trkpt>
      <trkpt lat="46.51187" lon="5.66412">
        <ele>502.6</ele>
        <time>2021-09-30T12:05:41Z</time>
      </trkpt>
      <trkpt lat="46.51182" lon="5.66415">
        <ele>503.2</ele>
        <time>2021-09-30T12:05:46Z</time>
      </trkpt>
      <trkpt lat="46.51178" lon="5.66419">
        <ele>503.8</ele>
        <time>2021-09-30T12:05:51Z</time>
      </trkpt>
      <trkpt lat="46.51173" lon="5.66422">
        <ele>504.5</ele>
        <time>2021-09-30T12:05:56Z</time>
      </trkpt>
      <trkpt lat="46.51169" lon="5.66427">
        <ele>506.2</ele>
        <time>2021-09-30T12:06:04Z</time>
      </trkpt>
      <trkpt lat="46.51165" lon="5.6643">
        <ele>507.1</ele>
        <time>2021-09-30T12:06:08Z</time>
      </trkpt>
      <trkpt lat="46.51161" lon="5.66432">
        <ele>508.5</ele>
        <time>2021-09-30T12:06:13Z</time>
      </trkpt>
      <trkpt lat="46.51157" lon="5.66436">
        <ele>510.5</ele>
        <time>2021-09-30T12:06:21Z</time>
      </trkpt>
      <trkpt lat="46.51153" lon="5.66438">
        <ele>512.2</ele>
        <time>2021-09-30T12:06:29Z</time>
      </trkpt>
      <trkpt lat="46.51149" lon="5.66444">
        <ele>514.2</ele>
        <time>2021-09-30T12:06:37Z</time>
      </trkpt>
      <trkpt lat="46.51144" lon="5.66447">
        <ele>515.4</ele>
        <time>2021-09-30T12:06:42Z</time>
      </trkpt>
      <trkpt lat="46.5114" lon="5.6645">
        <ele>516.3</ele>
        <time>2021-09-30T12:06:47Z</time>
      </trkpt>
      <trkpt lat="46.51135" lon="5.66451">
        <ele>516.7</ele>
        <time>2021-09-30T12:06:53Z</time>
      </trkpt>
      <trkpt lat="46.51131" lon="5.66453">
        <ele>516.2</ele>
        <time>2021-09-30T12:06:59Z</time>
      </trkpt>
      <trkpt lat="46.51125" lon="5.66454">
        <ele>516.2</ele>
        <time>2021-09-30T12:07:07Z</time>
      </trkpt>
      <trkpt lat="46.51121" lon="5.66456">
        <ele>516.5</ele>
        <time>2021-09-30T12:07:11Z</time>
      </trkpt>
      <trkpt lat="46.51117" lon="5.66461">
        <ele>516.8</ele>
        <time>2021-09-30T12:07:16Z</time>
      </trkpt>
      <trkpt lat="46.51112" lon="5.66464">
        <ele>517.2</ele>
        <time>2021-09-30T12:07:22Z</time>
      </trkpt>
      <trkpt lat="46.51108" lon="5.66468">
        <ele>516.9</ele>
        <time>2021-09-30T12:07:29Z</time>
      </trkpt>
      <trkpt lat="46.51104" lon="5.66471">
        <ele>516.9</ele>
        <time>2021-09-30T12:07:35Z</time>
      </trkpt>
      <trkpt lat="46.51099" lon="5.66473">
        <ele>516.9</ele>
        <time>2021-09-30T12:07:40Z</time>
      </trkpt>
      <trkpt lat="46.51094" lon="5.66474">
        <ele>516.4</ele>
        <time>2021-09-30T12:07:46Z</time>
      </trkpt>
      <trkpt lat="46.51089" lon="5.66473">
        <ele>516.3</ele>
        <time>2021-09-30T12:07:51Z</time>
      </trkpt>
      <trkpt lat="46.51085" lon="5.66477">
        <ele>517</ele>
        <time>2021-09-30T12:07:56Z</time>
      </trkpt>
      <trkpt lat="46.51083" lon="5.66483">
        <ele>517.7</ele>
        <time>2021-09-30T12:08:02Z</time>
      </trkpt>
      <trkpt lat="46.51081" lon="5.66489">
        <ele>517.8</ele>
        <time>2021-09-30T12:08:08Z</time>
      </trkpt>
      <trkpt lat="46.51077" lon="5.6649">
        <ele>514.4</ele>
        <time>2021-09-30T12:09:10Z</time>
      </trkpt>
      <trkpt lat="46.51073" lon="5.66485">
        <ele>514.2</ele>
        <time>2021-09-30T12:09:18Z</time>
      </trkpt>
      <trkpt lat="46.51079" lon="5.66485">
        <ele>513.9</ele>
        <time>2021-09-30T12:09:39Z</time>
      </trkpt>
      <trkpt lat="46.51074" lon="5.66482">
        <ele>511.2</ele>
        <time>2021-09-30T12:10:13Z</time>
      </trkpt>
      <trkpt lat="46.51078" lon="5.66485">
        <ele>510.5</ele>
        <time>2021-09-30T12:10:42Z</time>
      </trkpt>
      <trkpt lat="46.51083" lon="5.66488">
        <ele>511.6</ele>
        <time>2021-09-30T12:10:46Z</time>
      </trkpt>
      <trkpt lat="46.51079" lon="5.66492">
        <ele>515.5</ele>
        <time>2021-09-30T12:11:27Z</time>
      </trkpt>
      <trkpt lat="46.51078" lon="5.66498">
        <ele>514.3</ele>
        <time>2021-09-30T12:11:32Z</time>
      </trkpt>
      <trkpt lat="46.51075" lon="5.66505">
        <ele>513.2</ele>
        <time>2021-09-30T12:11:37Z</time>
      </trkpt>
      <trkpt lat="46.51073" lon="5.66513">
        <ele>512.9</ele>
        <time>2021-09-30T12:11:41Z</time>
      </trkpt>
      <trkpt lat="46.51071" lon="5.66519">
        <ele>512.5</ele>
        <time>2021-09-30T12:11:45Z</time>
      </trkpt>
      <trkpt lat="46.51069" lon="5.66525">
        <ele>512.2</ele>
        <time>2021-09-30T12:11:49Z</time>
      </trkpt>
      <trkpt lat="46.51065" lon="5.66531">
        <ele>512</ele>
        <time>2021-09-30T12:11:54Z</time>
      </trkpt>
      <trkpt lat="46.51061" lon="5.66534">
        <ele>512.1</ele>
        <time>2021-09-30T12:12:00Z</time>
      </trkpt>
      <trkpt lat="46.51061" lon="5.66541">
        <ele>511.5</ele>
        <time>2021-09-30T12:12:11Z</time>
      </trkpt>
      <trkpt lat="46.51062" lon="5.66547">
        <ele>510.6</ele>
        <time>2021-09-30T12:12:16Z</time>
      </trkpt>
      <trkpt lat="46.51063" lon="5.66554">
        <ele>509.8</ele>
        <time>2021-09-30T12:12:20Z</time>
      </trkpt>
      <trkpt lat="46.51065" lon="5.6656">
        <ele>508.3</ele>
        <time>2021-09-30T12:12:26Z</time>
      </trkpt>
      <trkpt lat="46.51065" lon="5.66568">
        <ele>506.7</ele>
        <time>2021-09-30T12:12:32Z</time>
      </trkpt>
      <trkpt lat="46.51065" lon="5.66575">
        <ele>505.5</ele>
        <time>2021-09-30T12:12:37Z</time>
      </trkpt>
      <trkpt lat="46.51065" lon="5.66581">
        <ele>504.2</ele>
        <time>2021-09-30T12:12:43Z</time>
      </trkpt>
      <trkpt lat="46.51065" lon="5.66589">
        <ele>503</ele>
        <time>2021-09-30T12:12:49Z</time>
      </trkpt>
      <trkpt lat="46.51065" lon="5.66596">
        <ele>502.5</ele>
        <time>2021-09-30T12:12:54Z</time>
      </trkpt>
      <trkpt lat="46.51062" lon="5.66603">
        <ele>502.7</ele>
        <time>2021-09-30T12:13:02Z</time>
      </trkpt>
      <trkpt lat="46.51059" lon="5.66609">
        <ele>502.8</ele>
        <time>2021-09-30T12:13:08Z</time>
      </trkpt>
      <trkpt lat="46.51055" lon="5.66614">
        <ele>502.5</ele>
        <time>2021-09-30T12:13:12Z</time>
      </trkpt>
      <trkpt lat="46.51052" lon="5.66619">
        <ele>502.3</ele>
        <time>2021-09-30T12:13:17Z</time>
      </trkpt>
      <trkpt lat="46.51048" lon="5.66624">
        <ele>502.4</ele>
        <time>2021-09-30T12:13:23Z</time>
      </trkpt>
      <trkpt lat="46.51043" lon="5.66625">
        <ele>503</ele>
        <time>2021-09-30T12:13:29Z</time>
      </trkpt>
      <trkpt lat="46.51038" lon="5.66623">
        <ele>503.2</ele>
        <time>2021-09-30T12:13:34Z</time>
      </trkpt>
      <trkpt lat="46.51033" lon="5.66621">
        <ele>503.3</ele>
        <time>2021-09-30T12:13:41Z</time>
      </trkpt>
      <trkpt lat="46.51027" lon="5.66619">
        <ele>503.6</ele>
        <time>2021-09-30T12:13:46Z</time>
      </trkpt>
      <trkpt lat="46.51022" lon="5.66619">
        <ele>504.2</ele>
        <time>2021-09-30T12:13:50Z</time>
      </trkpt>
      <trkpt lat="46.51018" lon="5.66617">
        <ele>504.9</ele>
        <time>2021-09-30T12:13:54Z</time>
      </trkpt>
      <trkpt lat="46.51013" lon="5.66615">
        <ele>506.1</ele>
        <time>2021-09-30T12:14:00Z</time>
      </trkpt>
      <trkpt lat="46.51009" lon="5.66612">
        <ele>506.5</ele>
        <time>2021-09-30T12:14:05Z</time>
      </trkpt>
      <trkpt lat="46.51004" lon="5.66608">
        <ele>506.4</ele>
        <time>2021-09-30T12:14:11Z</time>
      </trkpt>
      <trkpt lat="46.50999" lon="5.66606">
        <ele>506.3</ele>
        <time>2021-09-30T12:14:16Z</time>
      </trkpt>
      <trkpt lat="46.50994" lon="5.66606">
        <ele>506.5</ele>
        <time>2021-09-30T12:14:21Z</time>
      </trkpt>
      <trkpt lat="46.50989" lon="5.66607">
        <ele>506.9</ele>
        <time>2021-09-30T12:14:27Z</time>
      </trkpt>
      <trkpt lat="46.50984" lon="5.66608">
        <ele>506.6</ele>
        <time>2021-09-30T12:14:32Z</time>
      </trkpt>
      <trkpt lat="46.50979" lon="5.66607">
        <ele>506.5</ele>
        <time>2021-09-30T12:14:36Z</time>
      </trkpt>
      <trkpt lat="46.50974" lon="5.66606">
        <ele>506.8</ele>
        <time>2021-09-30T12:14:40Z</time>
      </trkpt>
      <trkpt lat="46.50969" lon="5.66606">
        <ele>506.5</ele>
        <time>2021-09-30T12:14:46Z</time>
      </trkpt>
      <trkpt lat="46.50964" lon="5.66607">
        <ele>506</ele>
        <time>2021-09-30T12:14:53Z</time>
      </trkpt>
      <trkpt lat="46.50959" lon="5.66611">
        <ele>505.6</ele>
        <time>2021-09-30T12:15:00Z</time>
      </trkpt>
      <trkpt lat="46.50955" lon="5.66614">
        <ele>505.7</ele>
        <time>2021-09-30T12:15:04Z</time>
      </trkpt>
      <trkpt lat="46.5095" lon="5.66616">
        <ele>505.7</ele>
        <time>2021-09-30T12:15:08Z</time>
      </trkpt>
      <trkpt lat="46.50945" lon="5.66618">
        <ele>505.8</ele>
        <time>2021-09-30T12:15:14Z</time>
      </trkpt>
      <trkpt lat="46.50941" lon="5.66622">
        <ele>506.5</ele>
        <time>2021-09-30T12:15:20Z</time>
      </trkpt>
      <trkpt lat="46.50936" lon="5.66624">
        <ele>505.4</ele>
        <time>2021-09-30T12:15:26Z</time>
      </trkpt>
      <trkpt lat="46.50932" lon="5.66623">
        <ele>504.4</ele>
        <time>2021-09-30T12:15:32Z</time>
      </trkpt>
      <trkpt lat="46.50927" lon="5.66625">
        <ele>503.7</ele>
        <time>2021-09-30T12:15:37Z</time>
      </trkpt>
      <trkpt lat="46.50922" lon="5.66628">
        <ele>503</ele>
        <time>2021-09-30T12:15:41Z</time>
      </trkpt>
      <trkpt lat="46.50917" lon="5.66629">
        <ele>502.5</ele>
        <time>2021-09-30T12:15:44Z</time>
      </trkpt>
      <trkpt lat="46.50912" lon="5.66629">
        <ele>502.5</ele>
        <time>2021-09-30T12:15:47Z</time>
      </trkpt>
      <trkpt lat="46.50908" lon="5.6663">
        <ele>502.8</ele>
        <time>2021-09-30T12:15:50Z</time>
      </trkpt>
      <trkpt lat="46.50903" lon="5.66631">
        <ele>503.4</ele>
        <time>2021-09-30T12:15:53Z</time>
      </trkpt>
      <trkpt lat="46.50898" lon="5.66633">
        <ele>504.3</ele>
        <time>2021-09-30T12:15:56Z</time>
      </trkpt>
      <trkpt lat="46.50894" lon="5.66635">
        <ele>505.3</ele>
        <time>2021-09-30T12:16:00Z</time>
      </trkpt>
      <trkpt lat="46.50889" lon="5.66637">
        <ele>506.2</ele>
        <time>2021-09-30T12:16:05Z</time>
      </trkpt>
      <trkpt lat="46.50884" lon="5.66639">
        <ele>506.5</ele>
        <time>2021-09-30T12:16:10Z</time>
      </trkpt>
      <trkpt lat="46.50878" lon="5.66639">
        <ele>506.8</ele>
        <time>2021-09-30T12:16:15Z</time>
      </trkpt>
      <trkpt lat="46.50873" lon="5.66642">
        <ele>506.6</ele>
        <time>2021-09-30T12:16:20Z</time>
      </trkpt>
      <trkpt lat="46.50869" lon="5.66645">
        <ele>506.7</ele>
        <time>2021-09-30T12:16:23Z</time>
      </trkpt>
      <trkpt lat="46.50865" lon="5.66647">
        <ele>506.8</ele>
        <time>2021-09-30T12:16:27Z</time>
      </trkpt>
      <trkpt lat="46.50861" lon="5.66651">
        <ele>507.3</ele>
        <time>2021-09-30T12:16:31Z</time>
      </trkpt>
      <trkpt lat="46.50858" lon="5.66656">
        <ele>507.7</ele>
        <time>2021-09-30T12:16:35Z</time>
      </trkpt>
      <trkpt lat="46.50854" lon="5.6666">
        <ele>508</ele>
        <time>2021-09-30T12:16:40Z</time>
      </trkpt>
      <trkpt lat="46.5085" lon="5.66665">
        <ele>507.2</ele>
        <time>2021-09-30T12:16:47Z</time>
      </trkpt>
      <trkpt lat="46.50846" lon="5.66669">
        <ele>506.9</ele>
        <time>2021-09-30T12:16:52Z</time>
      </trkpt>
      <trkpt lat="46.50843" lon="5.66675">
        <ele>507.3</ele>
        <time>2021-09-30T12:16:57Z</time>
      </trkpt>
      <trkpt lat="46.5084" lon="5.66681">
        <ele>508.2</ele>
        <time>2021-09-30T12:17:02Z</time>
      </trkpt>
      <trkpt lat="46.50837" lon="5.66686">
        <ele>508.8</ele>
        <time>2021-09-30T12:17:06Z</time>
      </trkpt>
      <trkpt lat="46.50833" lon="5.66691">
        <ele>509</ele>
        <time>2021-09-30T12:17:11Z</time>
      </trkpt>
      <trkpt lat="46.50831" lon="5.66697">
        <ele>508.8</ele>
        <time>2021-09-30T12:17:17Z</time>
      </trkpt>
      <trkpt lat="46.50829" lon="5.66704">
        <ele>508.5</ele>
        <time>2021-09-30T12:17:22Z</time>
      </trkpt>
      <trkpt lat="46.50828" lon="5.66711">
        <ele>508.3</ele>
        <time>2021-09-30T12:17:27Z</time>
      </trkpt>
      <trkpt lat="46.50827" lon="5.66718">
        <ele>508.1</ele>
        <time>2021-09-30T12:17:33Z</time>
      </trkpt>
      <trkpt lat="46.50824" lon="5.66725">
        <ele>507</ele>
        <time>2021-09-30T12:17:38Z</time>
      </trkpt>
      <trkpt lat="46.50822" lon="5.6673">
        <ele>505.7</ele>
        <time>2021-09-30T12:17:42Z</time>
      </trkpt>
      <trkpt lat="46.50818" lon="5.66736">
        <ele>504.6</ele>
        <time>2021-09-30T12:18:05Z</time>
      </trkpt>
      <trkpt lat="46.50816" lon="5.66744">
        <ele>505.1</ele>
        <time>2021-09-30T12:18:10Z</time>
      </trkpt>
      <trkpt lat="46.50817" lon="5.66752">
        <ele>505.8</ele>
        <time>2021-09-30T12:18:15Z</time>
      </trkpt>
      <trkpt lat="46.5082" lon="5.66758">
        <ele>506.4</ele>
        <time>2021-09-30T12:18:19Z</time>
      </trkpt>
      <trkpt lat="46.50819" lon="5.66765">
        <ele>506.7</ele>
        <time>2021-09-30T12:18:25Z</time>
      </trkpt>
      <trkpt lat="46.50817" lon="5.66771">
        <ele>507.1</ele>
        <time>2021-09-30T12:18:30Z</time>
      </trkpt>
      <trkpt lat="46.50814" lon="5.66778">
        <ele>507.1</ele>
        <time>2021-09-30T12:18:35Z</time>
      </trkpt>
      <trkpt lat="46.50811" lon="5.66784">
        <ele>506.8</ele>
        <time>2021-09-30T12:18:39Z</time>
      </trkpt>
      <trkpt lat="46.50807" lon="5.66791">
        <ele>506.7</ele>
        <time>2021-09-30T12:18:43Z</time>
      </trkpt>
      <trkpt lat="46.50805" lon="5.66796">
        <ele>506.9</ele>
        <time>2021-09-30T12:18:46Z</time>
      </trkpt>
      <trkpt lat="46.50802" lon="5.66803">
        <ele>507.5</ele>
        <time>2021-09-30T12:18:50Z</time>
      </trkpt>
      <trkpt lat="46.508" lon="5.66809">
        <ele>507.7</ele>
        <time>2021-09-30T12:18:54Z</time>
      </trkpt>
      <trkpt lat="46.50797" lon="5.66814">
        <ele>507.1</ele>
        <time>2021-09-30T12:19:00Z</time>
      </trkpt>
      <trkpt lat="46.50793" lon="5.66819">
        <ele>506.1</ele>
        <time>2021-09-30T12:19:05Z</time>
      </trkpt>
      <trkpt lat="46.5079" lon="5.66825">
        <ele>505</ele>
        <time>2021-09-30T12:19:10Z</time>
      </trkpt>
      <trkpt lat="46.50787" lon="5.66832">
        <ele>503.8</ele>
        <time>2021-09-30T12:19:15Z</time>
      </trkpt>
      <trkpt lat="46.50785" lon="5.66837">
        <ele>502.9</ele>
        <time>2021-09-30T12:19:19Z</time>
      </trkpt>
      <trkpt lat="46.50782" lon="5.66844">
        <ele>502</ele>
        <time>2021-09-30T12:19:23Z</time>
      </trkpt>
      <trkpt lat="46.50779" lon="5.6685">
        <ele>500.9</ele>
        <time>2021-09-30T12:19:28Z</time>
      </trkpt>
      <trkpt lat="46.50776" lon="5.66854">
        <ele>500.1</ele>
        <time>2021-09-30T12:19:32Z</time>
      </trkpt>
      <trkpt lat="46.50774" lon="5.66861">
        <ele>499.2</ele>
        <time>2021-09-30T12:19:38Z</time>
      </trkpt>
      <trkpt lat="46.50772" lon="5.66867">
        <ele>499.3</ele>
        <time>2021-09-30T12:19:43Z</time>
      </trkpt>
      <trkpt lat="46.50768" lon="5.66871">
        <ele>500</ele>
        <time>2021-09-30T12:19:47Z</time>
      </trkpt>
      <trkpt lat="46.50765" lon="5.66876">
        <ele>500.5</ele>
        <time>2021-09-30T12:19:52Z</time>
      </trkpt>
      <trkpt lat="46.50761" lon="5.66881">
        <ele>500.7</ele>
        <time>2021-09-30T12:19:58Z</time>
      </trkpt>
      <trkpt lat="46.50758" lon="5.66887">
        <ele>501</ele>
        <time>2021-09-30T12:20:03Z</time>
      </trkpt>
      <trkpt lat="46.50754" lon="5.66893">
        <ele>501.1</ele>
        <time>2021-09-30T12:20:08Z</time>
      </trkpt>
      <trkpt lat="46.50752" lon="5.66899">
        <ele>501.4</ele>
        <time>2021-09-30T12:20:12Z</time>
      </trkpt>
      <trkpt lat="46.5075" lon="5.66906">
        <ele>501.5</ele>
        <time>2021-09-30T12:20:16Z</time>
      </trkpt>
      <trkpt lat="46.50748" lon="5.66912">
        <ele>501.2</ele>
        <time>2021-09-30T12:20:20Z</time>
      </trkpt>
      <trkpt lat="46.50746" lon="5.66919">
        <ele>501.6</ele>
        <time>2021-09-30T12:20:25Z</time>
      </trkpt>
      <trkpt lat="46.50743" lon="5.66925">
        <ele>502.3</ele>
        <time>2021-09-30T12:20:29Z</time>
      </trkpt>
      <trkpt lat="46.5074" lon="5.66931">
        <ele>503.2</ele>
        <time>2021-09-30T12:20:33Z</time>
      </trkpt>
      <trkpt lat="46.50737" lon="5.66938">
        <ele>504.2</ele>
        <time>2021-09-30T12:20:39Z</time>
      </trkpt>
      <trkpt lat="46.50734" lon="5.66945">
        <ele>505.5</ele>
        <time>2021-09-30T12:20:45Z</time>
      </trkpt>
      <trkpt lat="46.50731" lon="5.66952">
        <ele>506</ele>
        <time>2021-09-30T12:20:49Z</time>
      </trkpt>
      <trkpt lat="46.50728" lon="5.66957">
        <ele>506.1</ele>
        <time>2021-09-30T12:20:52Z</time>
      </trkpt>
      <trkpt lat="46.50725" lon="5.66964">
        <ele>505.7</ele>
        <time>2021-09-30T12:20:56Z</time>
      </trkpt>
      <trkpt lat="46.50722" lon="5.66969">
        <ele>504.8</ele>
        <time>2021-09-30T12:21:00Z</time>
      </trkpt>
      <trkpt lat="46.50718" lon="5.66974">
        <ele>503.4</ele>
        <time>2021-09-30T12:21:04Z</time>
      </trkpt>
      <trkpt lat="46.50714" lon="5.66979">
        <ele>501.8</ele>
        <time>2021-09-30T12:21:08Z</time>
      </trkpt>
      <trkpt lat="46.50711" lon="5.66984">
        <ele>500.8</ele>
        <time>2021-09-30T12:21:12Z</time>
      </trkpt>
      <trkpt lat="46.50709" lon="5.6699">
        <ele>500.2</ele>
        <time>2021-09-30T12:21:16Z</time>
      </trkpt>
      <trkpt lat="46.50707" lon="5.66997">
        <ele>499.4</ele>
        <time>2021-09-30T12:21:21Z</time>
      </trkpt>
      <trkpt lat="46.50705" lon="5.67004">
        <ele>498.5</ele>
        <time>2021-09-30T12:21:26Z</time>
      </trkpt>
      <trkpt lat="46.50704" lon="5.6701">
        <ele>497.8</ele>
        <time>2021-09-30T12:21:30Z</time>
      </trkpt>
      <trkpt lat="46.50705" lon="5.67018">
        <ele>497.7</ele>
        <time>2021-09-30T12:21:35Z</time>
      </trkpt>
      <trkpt lat="46.50707" lon="5.67025">
        <ele>497.6</ele>
        <time>2021-09-30T12:21:40Z</time>
      </trkpt>
      <trkpt lat="46.50705" lon="5.67032">
        <ele>496.9</ele>
        <time>2021-09-30T12:21:45Z</time>
      </trkpt>
      <trkpt lat="46.50702" lon="5.67039">
        <ele>496.5</ele>
        <time>2021-09-30T12:21:49Z</time>
      </trkpt>
      <trkpt lat="46.507" lon="5.67046">
        <ele>496.2</ele>
        <time>2021-09-30T12:21:54Z</time>
      </trkpt>
      <trkpt lat="46.50698" lon="5.67052">
        <ele>496.1</ele>
        <time>2021-09-30T12:21:58Z</time>
      </trkpt>
      <trkpt lat="46.50695" lon="5.67057">
        <ele>496.6</ele>
        <time>2021-09-30T12:22:03Z</time>
      </trkpt>
      <trkpt lat="46.50692" lon="5.67063">
        <ele>497.3</ele>
        <time>2021-09-30T12:22:08Z</time>
      </trkpt>
      <trkpt lat="46.50691" lon="5.67069">
        <ele>498.6</ele>
        <time>2021-09-30T12:22:13Z</time>
      </trkpt>
      <trkpt lat="46.50688" lon="5.67075">
        <ele>500.1</ele>
        <time>2021-09-30T12:22:18Z</time>
      </trkpt>
      <trkpt lat="46.50683" lon="5.6708">
        <ele>501.5</ele>
        <time>2021-09-30T12:22:23Z</time>
      </trkpt>
      <trkpt lat="46.50681" lon="5.67086">
        <ele>501.9</ele>
        <time>2021-09-30T12:22:26Z</time>
      </trkpt>
      <trkpt lat="46.5068" lon="5.67092">
        <ele>502.3</ele>
        <time>2021-09-30T12:22:30Z</time>
      </trkpt>
      <trkpt lat="46.50679" lon="5.671">
        <ele>502.5</ele>
        <time>2021-09-30T12:22:36Z</time>
      </trkpt>
      <trkpt lat="46.50675" lon="5.67104">
        <ele>502.3</ele>
        <time>2021-09-30T12:22:41Z</time>
      </trkpt>
      <trkpt lat="46.50673" lon="5.6711">
        <ele>501.7</ele>
        <time>2021-09-30T12:22:47Z</time>
      </trkpt>
      <trkpt lat="46.50673" lon="5.67118">
        <ele>501.3</ele>
        <time>2021-09-30T12:22:52Z</time>
      </trkpt>
      <trkpt lat="46.50675" lon="5.67126">
        <ele>501.5</ele>
        <time>2021-09-30T12:22:58Z</time>
      </trkpt>
      <trkpt lat="46.50674" lon="5.67133">
        <ele>502.9</ele>
        <time>2021-09-30T12:23:05Z</time>
      </trkpt>
      <trkpt lat="46.50677" lon="5.67128">
        <ele>505.6</ele>
        <time>2021-09-30T12:23:19Z</time>
      </trkpt>
      <trkpt lat="46.50677" lon="5.67134">
        <ele>504.6</ele>
        <time>2021-09-30T12:25:26Z</time>
      </trkpt>
      <trkpt lat="46.50672" lon="5.67138">
        <ele>504.7</ele>
        <time>2021-09-30T12:25:31Z</time>
      </trkpt>
      <trkpt lat="46.50668" lon="5.67142">
        <ele>505.2</ele>
        <time>2021-09-30T12:25:36Z</time>
      </trkpt>
      <trkpt lat="46.50664" lon="5.67148">
        <ele>505.8</ele>
        <time>2021-09-30T12:25:41Z</time>
      </trkpt>
      <trkpt lat="46.50663" lon="5.67155">
        <ele>506.1</ele>
        <time>2021-09-30T12:25:46Z</time>
      </trkpt>
      <trkpt lat="46.5066" lon="5.6716">
        <ele>506.6</ele>
        <time>2021-09-30T12:25:51Z</time>
      </trkpt>
      <trkpt lat="46.50656" lon="5.67166">
        <ele>507.2</ele>
        <time>2021-09-30T12:25:56Z</time>
      </trkpt>
      <trkpt lat="46.50653" lon="5.67171">
        <ele>507.8</ele>
        <time>2021-09-30T12:26:01Z</time>
      </trkpt>
      <trkpt lat="46.5065" lon="5.67176">
        <ele>508.8</ele>
        <time>2021-09-30T12:26:07Z</time>
      </trkpt>
      <trkpt lat="46.50645" lon="5.67181">
        <ele>509.4</ele>
        <time>2021-09-30T12:26:13Z</time>
      </trkpt>
      <trkpt lat="46.50641" lon="5.67183">
        <ele>510</ele>
        <time>2021-09-30T12:26:18Z</time>
      </trkpt>
      <trkpt lat="46.50636" lon="5.67185">
        <ele>510.9</ele>
        <time>2021-09-30T12:26:23Z</time>
      </trkpt>
      <trkpt lat="46.50631" lon="5.67184">
        <ele>511.3</ele>
        <time>2021-09-30T12:26:27Z</time>
      </trkpt>
      <trkpt lat="46.50626" lon="5.67184">
        <ele>512</ele>
        <time>2021-09-30T12:26:31Z</time>
      </trkpt>
      <trkpt lat="46.50622" lon="5.67184">
        <ele>512.5</ele>
        <time>2021-09-30T12:26:35Z</time>
      </trkpt>
      <trkpt lat="46.50617" lon="5.67183">
        <ele>512.7</ele>
        <time>2021-09-30T12:26:39Z</time>
      </trkpt>
      <trkpt lat="46.50612" lon="5.67185">
        <ele>513.6</ele>
        <time>2021-09-30T12:26:44Z</time>
      </trkpt>
      <trkpt lat="46.50608" lon="5.6719">
        <ele>514.9</ele>
        <time>2021-09-30T12:26:50Z</time>
      </trkpt>
      <trkpt lat="46.50604" lon="5.67194">
        <ele>515.8</ele>
        <time>2021-09-30T12:26:56Z</time>
      </trkpt>
      <trkpt lat="46.50599" lon="5.67195">
        <ele>515.8</ele>
        <time>2021-09-30T12:27:03Z</time>
      </trkpt>
      <trkpt lat="46.50595" lon="5.67199">
        <ele>515.4</ele>
        <time>2021-09-30T12:27:12Z</time>
      </trkpt>
      <trkpt lat="46.50591" lon="5.67204">
        <ele>514.9</ele>
        <time>2021-09-30T12:27:18Z</time>
      </trkpt>
      <trkpt lat="46.50587" lon="5.67209">
        <ele>514.4</ele>
        <time>2021-09-30T12:27:23Z</time>
      </trkpt>
      <trkpt lat="46.50583" lon="5.67213">
        <ele>513.7</ele>
        <time>2021-09-30T12:27:27Z</time>
      </trkpt>
      <trkpt lat="46.5058" lon="5.67219">
        <ele>512.2</ele>
        <time>2021-09-30T12:27:32Z</time>
      </trkpt>
      <trkpt lat="46.50577" lon="5.67225">
        <ele>510.8</ele>
        <time>2021-09-30T12:27:37Z</time>
      </trkpt>
      <trkpt lat="46.50574" lon="5.67232">
        <ele>509.5</ele>
        <time>2021-09-30T12:27:42Z</time>
      </trkpt>
      <trkpt lat="46.50571" lon="5.67237">
        <ele>508.9</ele>
        <time>2021-09-30T12:27:46Z</time>
      </trkpt>
      <trkpt lat="46.50567" lon="5.67241">
        <ele>508.6</ele>
        <time>2021-09-30T12:27:50Z</time>
      </trkpt>
      <trkpt lat="46.50565" lon="5.67248">
        <ele>508.2</ele>
        <time>2021-09-30T12:27:56Z</time>
      </trkpt>
      <trkpt lat="46.50564" lon="5.67255">
        <ele>507.5</ele>
        <time>2021-09-30T12:28:01Z</time>
      </trkpt>
      <trkpt lat="46.50563" lon="5.67262">
        <ele>507.2</ele>
        <time>2021-09-30T12:28:06Z</time>
      </trkpt>
      <trkpt lat="46.50562" lon="5.6727">
        <ele>506.8</ele>
        <time>2021-09-30T12:28:11Z</time>
      </trkpt>
      <trkpt lat="46.50562" lon="5.67277">
        <ele>506.9</ele>
        <time>2021-09-30T12:28:15Z</time>
      </trkpt>
      <trkpt lat="46.50561" lon="5.67284">
        <ele>506.9</ele>
        <time>2021-09-30T12:28:21Z</time>
      </trkpt>
      <trkpt lat="46.50561" lon="5.67291">
        <ele>506.3</ele>
        <time>2021-09-30T12:28:26Z</time>
      </trkpt>
      <trkpt lat="46.50563" lon="5.67299">
        <ele>506.3</ele>
        <time>2021-09-30T12:28:30Z</time>
      </trkpt>
      <trkpt lat="46.50564" lon="5.67306">
        <ele>506.4</ele>
        <time>2021-09-30T12:28:33Z</time>
      </trkpt>
      <trkpt lat="46.50564" lon="5.67313">
        <ele>506.6</ele>
        <time>2021-09-30T12:28:37Z</time>
      </trkpt>
      <trkpt lat="46.50565" lon="5.6732">
        <ele>507.1</ele>
        <time>2021-09-30T12:28:41Z</time>
      </trkpt>
      <trkpt lat="46.50563" lon="5.67327">
        <ele>507.5</ele>
        <time>2021-09-30T12:28:46Z</time>
      </trkpt>
      <trkpt lat="46.50563" lon="5.67334">
        <ele>507.4</ele>
        <time>2021-09-30T12:28:51Z</time>
      </trkpt>
      <trkpt lat="46.50564" lon="5.67341">
        <ele>507</ele>
        <time>2021-09-30T12:28:56Z</time>
      </trkpt>
      <trkpt lat="46.50567" lon="5.67347">
        <ele>507.1</ele>
        <time>2021-09-30T12:29:00Z</time>
      </trkpt>
      <trkpt lat="46.50569" lon="5.67354">
        <ele>507.1</ele>
        <time>2021-09-30T12:29:05Z</time>
      </trkpt>
      <trkpt lat="46.50571" lon="5.67361">
        <ele>507.2</ele>
        <time>2021-09-30T12:29:10Z</time>
      </trkpt>
      <trkpt lat="46.50573" lon="5.67367">
        <ele>507.2</ele>
        <time>2021-09-30T12:29:14Z</time>
      </trkpt>
      <trkpt lat="46.50574" lon="5.67375">
        <ele>507.7</ele>
        <time>2021-09-30T12:29:19Z</time>
      </trkpt>
      <trkpt lat="46.50573" lon="5.67382">
        <ele>509.8</ele>
        <time>2021-09-30T12:29:24Z</time>
      </trkpt>
      <trkpt lat="46.50571" lon="5.67388">
        <ele>510.3</ele>
        <time>2021-09-30T12:29:28Z</time>
      </trkpt>
      <trkpt lat="46.5057" lon="5.67394">
        <ele>510.2</ele>
        <time>2021-09-30T12:29:33Z</time>
      </trkpt>
      <trkpt lat="46.5057" lon="5.67401">
        <ele>509.6</ele>
        <time>2021-09-30T12:29:38Z</time>
      </trkpt>
      <trkpt lat="46.5057" lon="5.67408">
        <ele>509.8</ele>
        <time>2021-09-30T12:29:43Z</time>
      </trkpt>
      <trkpt lat="46.5057" lon="5.67414">
        <ele>509.8</ele>
        <time>2021-09-30T12:29:47Z</time>
      </trkpt>
      <trkpt lat="46.5057" lon="5.67421">
        <ele>509.7</ele>
        <time>2021-09-30T12:29:51Z</time>
      </trkpt>
      <trkpt lat="46.50571" lon="5.67429">
        <ele>509.4</ele>
        <time>2021-09-30T12:29:55Z</time>
      </trkpt>
      <trkpt lat="46.50572" lon="5.67437">
        <ele>509.2</ele>
        <time>2021-09-30T12:29:59Z</time>
      </trkpt>
      <trkpt lat="46.50572" lon="5.67444">
        <ele>509.2</ele>
        <time>2021-09-30T12:30:03Z</time>
      </trkpt>
      <trkpt lat="46.50573" lon="5.67452">
        <ele>509</ele>
        <time>2021-09-30T12:30:08Z</time>
      </trkpt>
      <trkpt lat="46.50573" lon="5.67458">
        <ele>509.3</ele>
        <time>2021-09-30T12:30:12Z</time>
      </trkpt>
      <trkpt lat="46.50574" lon="5.67466">
        <ele>508.4</ele>
        <time>2021-09-30T12:30:18Z</time>
      </trkpt>
      <trkpt lat="46.50574" lon="5.67473">
        <ele>507.4</ele>
        <time>2021-09-30T12:30:23Z</time>
      </trkpt>
      <trkpt lat="46.50575" lon="5.6748">
        <ele>506.5</ele>
        <time>2021-09-30T12:30:28Z</time>
      </trkpt>
      <trkpt lat="46.50573" lon="5.67487">
        <ele>505.5</ele>
        <time>2021-09-30T12:30:35Z</time>
      </trkpt>
      <trkpt lat="46.50572" lon="5.67493">
        <ele>504.6</ele>
        <time>2021-09-30T12:30:40Z</time>
      </trkpt>
      <trkpt lat="46.50573" lon="5.675">
        <ele>503.7</ele>
        <time>2021-09-30T12:30:44Z</time>
      </trkpt>
      <trkpt lat="46.50576" lon="5.67506">
        <ele>503.4</ele>
        <time>2021-09-30T12:30:49Z</time>
      </trkpt>
      <trkpt lat="46.50579" lon="5.67512">
        <ele>503.6</ele>
        <time>2021-09-30T12:30:54Z</time>
      </trkpt>
      <trkpt lat="46.5058" lon="5.6752">
        <ele>504.4</ele>
        <time>2021-09-30T12:30:59Z</time>
      </trkpt>
      <trkpt lat="46.50583" lon="5.67527">
        <ele>505.4</ele>
        <time>2021-09-30T12:31:04Z</time>
      </trkpt>
      <trkpt lat="46.50585" lon="5.67533">
        <ele>506.2</ele>
        <time>2021-09-30T12:31:08Z</time>
      </trkpt>
      <trkpt lat="46.50588" lon="5.6754">
        <ele>506.4</ele>
        <time>2021-09-30T12:31:13Z</time>
      </trkpt>
      <trkpt lat="46.50588" lon="5.67547">
        <ele>505.9</ele>
        <time>2021-09-30T12:31:17Z</time>
      </trkpt>
      <trkpt lat="46.50589" lon="5.67555">
        <ele>505.2</ele>
        <time>2021-09-30T12:31:21Z</time>
      </trkpt>
      <trkpt lat="46.50589" lon="5.67563">
        <ele>504.7</ele>
        <time>2021-09-30T12:31:25Z</time>
      </trkpt>
      <trkpt lat="46.50588" lon="5.67571">
        <ele>505.1</ele>
        <time>2021-09-30T12:31:29Z</time>
      </trkpt>
      <trkpt lat="46.50586" lon="5.67578">
        <ele>505.6</ele>
        <time>2021-09-30T12:31:33Z</time>
      </trkpt>
      <trkpt lat="46.50585" lon="5.67584">
        <ele>506.4</ele>
        <time>2021-09-30T12:31:39Z</time>
      </trkpt>
      <trkpt lat="46.50585" lon="5.67591">
        <ele>506.8</ele>
        <time>2021-09-30T12:31:44Z</time>
      </trkpt>
      <trkpt lat="46.50584" lon="5.67598">
        <ele>506.4</ele>
        <time>2021-09-30T12:31:49Z</time>
      </trkpt>
      <trkpt lat="46.50583" lon="5.67605">
        <ele>505.2</ele>
        <time>2021-09-30T12:31:56Z</time>
      </trkpt>
      <trkpt lat="46.50585" lon="5.67611">
        <ele>504.4</ele>
        <time>2021-09-30T12:32:00Z</time>
      </trkpt>
      <trkpt lat="46.50586" lon="5.67619">
        <ele>503.6</ele>
        <time>2021-09-30T12:32:05Z</time>
      </trkpt>
      <trkpt lat="46.50588" lon="5.67625">
        <ele>502.1</ele>
        <time>2021-09-30T12:32:10Z</time>
      </trkpt>
      <trkpt lat="46.50592" lon="5.6763">
        <ele>500.3</ele>
        <time>2021-09-30T12:32:16Z</time>
      </trkpt>
      <trkpt lat="46.50595" lon="5.67635">
        <ele>498.8</ele>
        <time>2021-09-30T12:32:22Z</time>
      </trkpt>
      <trkpt lat="46.50599" lon="5.6764">
        <ele>498.2</ele>
        <time>2021-09-30T12:32:26Z</time>
      </trkpt>
      <trkpt lat="46.50603" lon="5.67643">
        <ele>498.1</ele>
        <time>2021-09-30T12:32:30Z</time>
      </trkpt>
      <trkpt lat="46.50607" lon="5.67644">
        <ele>497.9</ele>
        <time>2021-09-30T12:32:34Z</time>
      </trkpt>
      <trkpt lat="46.50612" lon="5.67646">
        <ele>497.7</ele>
        <time>2021-09-30T12:32:38Z</time>
      </trkpt>
      <trkpt lat="46.50615" lon="5.67651">
        <ele>498</ele>
        <time>2021-09-30T12:32:45Z</time>
      </trkpt>
      <trkpt lat="46.50618" lon="5.67657">
        <ele>498.7</ele>
        <time>2021-09-30T12:32:50Z</time>
      </trkpt>
      <trkpt lat="46.50622" lon="5.67661">
        <ele>499.4</ele>
        <time>2021-09-30T12:32:54Z</time>
      </trkpt>
      <trkpt lat="46.50627" lon="5.67664">
        <ele>499.5</ele>
        <time>2021-09-30T12:32:59Z</time>
      </trkpt>
      <trkpt lat="46.50631" lon="5.67668">
        <ele>499.2</ele>
        <time>2021-09-30T12:33:04Z</time>
      </trkpt>
      <trkpt lat="46.50635" lon="5.67672">
        <ele>499.1</ele>
        <time>2021-09-30T12:33:09Z</time>
      </trkpt>
      <trkpt lat="46.50639" lon="5.67675">
        <ele>498.6</ele>
        <time>2021-09-30T12:33:14Z</time>
      </trkpt>
      <trkpt lat="46.50643" lon="5.67679">
        <ele>497.7</ele>
        <time>2021-09-30T12:33:19Z</time>
      </trkpt>
      <trkpt lat="46.50647" lon="5.67684">
        <ele>496.7</ele>
        <time>2021-09-30T12:33:23Z</time>
      </trkpt>
      <trkpt lat="46.5065" lon="5.67689">
        <ele>495.8</ele>
        <time>2021-09-30T12:33:27Z</time>
      </trkpt>
      <trkpt lat="46.50653" lon="5.67694">
        <ele>495</ele>
        <time>2021-09-30T12:33:32Z</time>
      </trkpt>
      <trkpt lat="46.50656" lon="5.67701">
        <ele>494.5</ele>
        <time>2021-09-30T12:33:37Z</time>
      </trkpt>
      <trkpt lat="46.50659" lon="5.67706">
        <ele>494.4</ele>
        <time>2021-09-30T12:33:41Z</time>
      </trkpt>
      <trkpt lat="46.50663" lon="5.67711">
        <ele>494.2</ele>
        <time>2021-09-30T12:33:45Z</time>
      </trkpt>
      <trkpt lat="46.50666" lon="5.67716">
        <ele>493.8</ele>
        <time>2021-09-30T12:33:50Z</time>
      </trkpt>
      <trkpt lat="46.5067" lon="5.67721">
        <ele>493.8</ele>
        <time>2021-09-30T12:33:56Z</time>
      </trkpt>
      <trkpt lat="46.50675" lon="5.67725">
        <ele>494.5</ele>
        <time>2021-09-30T12:34:01Z</time>
      </trkpt>
      <trkpt lat="46.5068" lon="5.67728">
        <ele>495.2</ele>
        <time>2021-09-30T12:34:05Z</time>
      </trkpt>
      <trkpt lat="46.50684" lon="5.67731">
        <ele>495.6</ele>
        <time>2021-09-30T12:34:09Z</time>
      </trkpt>
      <trkpt lat="46.50688" lon="5.67734">
        <ele>495.2</ele>
        <time>2021-09-30T12:34:14Z</time>
      </trkpt>
      <trkpt lat="46.50693" lon="5.67734">
        <ele>494.8</ele>
        <time>2021-09-30T12:34:21Z</time>
      </trkpt>
      <trkpt lat="46.50699" lon="5.67731">
        <ele>494.8</ele>
        <time>2021-09-30T12:34:27Z</time>
      </trkpt>
      <trkpt lat="46.50704" lon="5.6773">
        <ele>495.3</ele>
        <time>2021-09-30T12:34:31Z</time>
      </trkpt>
      <trkpt lat="46.50709" lon="5.67729">
        <ele>496</ele>
        <time>2021-09-30T12:34:35Z</time>
      </trkpt>
      <trkpt lat="46.50712" lon="5.67723">
        <ele>496.5</ele>
        <time>2021-09-30T12:34:42Z</time>
      </trkpt>
      <trkpt lat="46.50712" lon="5.67716">
        <ele>496.4</ele>
        <time>2021-09-30T12:34:48Z</time>
      </trkpt>
      <trkpt lat="46.50711" lon="5.67709">
        <ele>495.8</ele>
        <time>2021-09-30T12:34:55Z</time>
      </trkpt>
      <trkpt lat="46.5071" lon="5.67702">
        <ele>495.3</ele>
        <time>2021-09-30T12:35:00Z</time>
      </trkpt>
      <trkpt lat="46.50711" lon="5.67695">
        <ele>494.8</ele>
        <time>2021-09-30T12:35:05Z</time>
      </trkpt>
      <trkpt lat="46.50711" lon="5.67688">
        <ele>494</ele>
        <time>2021-09-30T12:35:10Z</time>
      </trkpt>
      <trkpt lat="46.50709" lon="5.67682">
        <ele>492.6</ele>
        <time>2021-09-30T12:35:16Z</time>
      </trkpt>
      <trkpt lat="46.50708" lon="5.67674">
        <ele>491.4</ele>
        <time>2021-09-30T12:35:21Z</time>
      </trkpt>
      <trkpt lat="46.5071" lon="5.67666">
        <ele>490</ele>
        <time>2021-09-30T12:35:25Z</time>
      </trkpt>
      <trkpt lat="46.50711" lon="5.67658">
        <ele>488.5</ele>
        <time>2021-09-30T12:35:29Z</time>
      </trkpt>
      <trkpt lat="46.5071" lon="5.67651">
        <ele>486.7</ele>
        <time>2021-09-30T12:35:33Z</time>
      </trkpt>
      <trkpt lat="46.50707" lon="5.67646">
        <ele>484.7</ele>
        <time>2021-09-30T12:35:38Z</time>
      </trkpt>
      <trkpt lat="46.50705" lon="5.67639">
        <ele>482.8</ele>
        <time>2021-09-30T12:35:44Z</time>
      </trkpt>
      <trkpt lat="46.50702" lon="5.67633">
        <ele>481.4</ele>
        <time>2021-09-30T12:35:49Z</time>
      </trkpt>
      <trkpt lat="46.50701" lon="5.67626">
        <ele>479.1</ele>
        <time>2021-09-30T12:36:01Z</time>
      </trkpt>
      <trkpt lat="46.50705" lon="5.67622">
        <ele>479.3</ele>
        <time>2021-09-30T12:36:06Z</time>
      </trkpt>
      <trkpt lat="46.50705" lon="5.67615">
        <ele>477.9</ele>
        <time>2021-09-30T12:36:16Z</time>
      </trkpt>
      <trkpt lat="46.50703" lon="5.67608">
        <ele>478.3</ele>
        <time>2021-09-30T12:36:19Z</time>
      </trkpt>
      <trkpt lat="46.50701" lon="5.67602">
        <ele>478.5</ele>
        <time>2021-09-30T12:36:22Z</time>
      </trkpt>
      <trkpt lat="46.50698" lon="5.67595">
        <ele>478.6</ele>
        <time>2021-09-30T12:36:26Z</time>
      </trkpt>
      <trkpt lat="46.50696" lon="5.6759">
        <ele>479</ele>
        <time>2021-09-30T12:36:30Z</time>
      </trkpt>
      <trkpt lat="46.50694" lon="5.67583">
        <ele>479.3</ele>
        <time>2021-09-30T12:36:34Z</time>
      </trkpt>
      <trkpt lat="46.50693" lon="5.67576">
        <ele>479.7</ele>
        <time>2021-09-30T12:36:38Z</time>
      </trkpt>
      <trkpt lat="46.50692" lon="5.67567">
        <ele>480.4</ele>
        <time>2021-09-30T12:36:42Z</time>
      </trkpt>
      <trkpt lat="46.50692" lon="5.6756">
        <ele>481.3</ele>
        <time>2021-09-30T12:36:46Z</time>
      </trkpt>
      <trkpt lat="46.50693" lon="5.67554">
        <ele>482.2</ele>
        <time>2021-09-30T12:36:50Z</time>
      </trkpt>
      <trkpt lat="46.50693" lon="5.67546">
        <ele>482.7</ele>
        <time>2021-09-30T12:36:55Z</time>
      </trkpt>
      <trkpt lat="46.50692" lon="5.67539">
        <ele>483</ele>
        <time>2021-09-30T12:37:00Z</time>
      </trkpt>
      <trkpt lat="46.50688" lon="5.67535">
        <ele>483.2</ele>
        <time>2021-09-30T12:37:04Z</time>
      </trkpt>
      <trkpt lat="46.50685" lon="5.67529">
        <ele>483.8</ele>
        <time>2021-09-30T12:37:10Z</time>
      </trkpt>
      <trkpt lat="46.50684" lon="5.67523">
        <ele>484.5</ele>
        <time>2021-09-30T12:37:14Z</time>
      </trkpt>
      <trkpt lat="46.50679" lon="5.67521">
        <ele>484.6</ele>
        <time>2021-09-30T12:37:20Z</time>
      </trkpt>
      <trkpt lat="46.50676" lon="5.67517">
        <ele>484.2</ele>
        <time>2021-09-30T12:37:25Z</time>
      </trkpt>
      <trkpt lat="46.50672" lon="5.67514">
        <ele>483.8</ele>
        <time>2021-09-30T12:37:28Z</time>
      </trkpt>
      <trkpt lat="46.50669" lon="5.67506">
        <ele>482.8</ele>
        <time>2021-09-30T12:37:33Z</time>
      </trkpt>
      <trkpt lat="46.50668" lon="5.67498">
        <ele>482.4</ele>
        <time>2021-09-30T12:37:36Z</time>
      </trkpt>
      <trkpt lat="46.50668" lon="5.6749">
        <ele>482.2</ele>
        <time>2021-09-30T12:37:39Z</time>
      </trkpt>
      <trkpt lat="46.50669" lon="5.67481">
        <ele>482.4</ele>
        <time>2021-09-30T12:37:43Z</time>
      </trkpt>
      <trkpt lat="46.50668" lon="5.67475">
        <ele>482.4</ele>
        <time>2021-09-30T12:37:47Z</time>
      </trkpt>
      <trkpt lat="46.50666" lon="5.67469">
        <ele>482.1</ele>
        <time>2021-09-30T12:37:51Z</time>
      </trkpt>
      <trkpt lat="46.50663" lon="5.67462">
        <ele>481.3</ele>
        <time>2021-09-30T12:37:56Z</time>
      </trkpt>
      <trkpt lat="46.50665" lon="5.67457">
        <ele>480.1</ele>
        <time>2021-09-30T12:38:01Z</time>
      </trkpt>
      <trkpt lat="46.50667" lon="5.67449">
        <ele>478.8</ele>
        <time>2021-09-30T12:38:07Z</time>
      </trkpt>
      <trkpt lat="46.50665" lon="5.67442">
        <ele>478</ele>
        <time>2021-09-30T12:38:11Z</time>
      </trkpt>
      <trkpt lat="46.50665" lon="5.67434">
        <ele>477.2</ele>
        <time>2021-09-30T12:38:15Z</time>
      </trkpt>
      <trkpt lat="46.50666" lon="5.67427">
        <ele>476.4</ele>
        <time>2021-09-30T12:38:19Z</time>
      </trkpt>
      <trkpt lat="46.50667" lon="5.6742">
        <ele>475.9</ele>
        <time>2021-09-30T12:38:24Z</time>
      </trkpt>
      <trkpt lat="46.50667" lon="5.67413">
        <ele>475.3</ele>
        <time>2021-09-30T12:38:31Z</time>
      </trkpt>
      <trkpt lat="46.50669" lon="5.67406">
        <ele>474.5</ele>
        <time>2021-09-30T12:38:36Z</time>
      </trkpt>
      <trkpt lat="46.5067" lon="5.67399">
        <ele>473.5</ele>
        <time>2021-09-30T12:38:42Z</time>
      </trkpt>
      <trkpt lat="46.50669" lon="5.67392">
        <ele>472.4</ele>
        <time>2021-09-30T12:38:48Z</time>
      </trkpt>
      <trkpt lat="46.50667" lon="5.67385">
        <ele>472</ele>
        <time>2021-09-30T12:38:52Z</time>
      </trkpt>
      <trkpt lat="46.50667" lon="5.67378">
        <ele>472</ele>
        <time>2021-09-30T12:38:57Z</time>
      </trkpt>
      <trkpt lat="46.50668" lon="5.67371">
        <ele>471.7</ele>
        <time>2021-09-30T12:39:02Z</time>
      </trkpt>
      <trkpt lat="46.50668" lon="5.67364">
        <ele>471.5</ele>
        <time>2021-09-30T12:39:07Z</time>
      </trkpt>
      <trkpt lat="46.50667" lon="5.67356">
        <ele>471.6</ele>
        <time>2021-09-30T12:39:12Z</time>
      </trkpt>
      <trkpt lat="46.50664" lon="5.67349">
        <ele>471.4</ele>
        <time>2021-09-30T12:39:16Z</time>
      </trkpt>
      <trkpt lat="46.50662" lon="5.67343">
        <ele>471.1</ele>
        <time>2021-09-30T12:39:19Z</time>
      </trkpt>
      <trkpt lat="46.5066" lon="5.67335">
        <ele>470.2</ele>
        <time>2021-09-30T12:39:24Z</time>
      </trkpt>
      <trkpt lat="46.50661" lon="5.67328">
        <ele>469.6</ele>
        <time>2021-09-30T12:39:29Z</time>
      </trkpt>
      <trkpt lat="46.50662" lon="5.67321">
        <ele>469.2</ele>
        <time>2021-09-30T12:39:34Z</time>
      </trkpt>
      <trkpt lat="46.50664" lon="5.67314">
        <ele>469.2</ele>
        <time>2021-09-30T12:39:38Z</time>
      </trkpt>
      <trkpt lat="46.50667" lon="5.67309">
        <ele>469.4</ele>
        <time>2021-09-30T12:39:42Z</time>
      </trkpt>
      <trkpt lat="46.5067" lon="5.67304">
        <ele>469.6</ele>
        <time>2021-09-30T12:39:46Z</time>
      </trkpt>
      <trkpt lat="46.50672" lon="5.67297">
        <ele>470.2</ele>
        <time>2021-09-30T12:39:51Z</time>
      </trkpt>
      <trkpt lat="46.50674" lon="5.67291">
        <ele>470.7</ele>
        <time>2021-09-30T12:39:55Z</time>
      </trkpt>
      <trkpt lat="46.50674" lon="5.67284">
        <ele>471.3</ele>
        <time>2021-09-30T12:40:00Z</time>
      </trkpt>
      <trkpt lat="46.50674" lon="5.67277">
        <ele>472.1</ele>
        <time>2021-09-30T12:40:05Z</time>
      </trkpt>
      <trkpt lat="46.50676" lon="5.6727">
        <ele>473.2</ele>
        <time>2021-09-30T12:40:10Z</time>
      </trkpt>
      <trkpt lat="46.50678" lon="5.67264">
        <ele>474.4</ele>
        <time>2021-09-30T12:40:15Z</time>
      </trkpt>
      <trkpt lat="46.5068" lon="5.67257">
        <ele>475.2</ele>
        <time>2021-09-30T12:40:20Z</time>
      </trkpt>
      <trkpt lat="46.50683" lon="5.6725">
        <ele>475.7</ele>
        <time>2021-09-30T12:40:25Z</time>
      </trkpt>
      <trkpt lat="46.50683" lon="5.67244">
        <ele>475.9</ele>
        <time>2021-09-30T12:40:32Z</time>
      </trkpt>
      <trkpt lat="46.50681" lon="5.67237">
        <ele>476.4</ele>
        <time>2021-09-30T12:40:38Z</time>
      </trkpt>
      <trkpt lat="46.50683" lon="5.67229">
        <ele>477.1</ele>
        <time>2021-09-30T12:40:43Z</time>
      </trkpt>
      <trkpt lat="46.50687" lon="5.67222">
        <ele>478</ele>
        <time>2021-09-30T12:40:47Z</time>
      </trkpt>
      <trkpt lat="46.5069" lon="5.67216">
        <ele>478.4</ele>
        <time>2021-09-30T12:40:51Z</time>
      </trkpt>
      <trkpt lat="46.50693" lon="5.6721">
        <ele>478.6</ele>
        <time>2021-09-30T12:40:56Z</time>
      </trkpt>
      <trkpt lat="46.50697" lon="5.67205">
        <ele>478.9</ele>
        <time>2021-09-30T12:41:01Z</time>
      </trkpt>
      <trkpt lat="46.50699" lon="5.67199">
        <ele>479.1</ele>
        <time>2021-09-30T12:41:05Z</time>
      </trkpt>
      <trkpt lat="46.507" lon="5.67192">
        <ele>479.6</ele>
        <time>2021-09-30T12:41:10Z</time>
      </trkpt>
      <trkpt lat="46.50702" lon="5.67186">
        <ele>479.4</ele>
        <time>2021-09-30T12:41:16Z</time>
      </trkpt>
      <trkpt lat="46.50701" lon="5.67179">
        <ele>478.4</ele>
        <time>2021-09-30T12:41:21Z</time>
      </trkpt>
      <trkpt lat="46.50703" lon="5.67173">
        <ele>477.9</ele>
        <time>2021-09-30T12:41:25Z</time>
      </trkpt>
      <trkpt lat="46.50706" lon="5.67166">
        <ele>477.8</ele>
        <time>2021-09-30T12:41:30Z</time>
      </trkpt>
      <trkpt lat="46.5071" lon="5.67161">
        <ele>477.8</ele>
        <time>2021-09-30T12:41:35Z</time>
      </trkpt>
      <trkpt lat="46.50711" lon="5.67154">
        <ele>478.2</ele>
        <time>2021-09-30T12:41:40Z</time>
      </trkpt>
      <trkpt lat="46.50711" lon="5.67147">
        <ele>478.3</ele>
        <time>2021-09-30T12:41:45Z</time>
      </trkpt>
      <trkpt lat="46.50714" lon="5.6714">
        <ele>478.4</ele>
        <time>2021-09-30T12:41:50Z</time>
      </trkpt>
      <trkpt lat="46.50717" lon="5.67135">
        <ele>478.4</ele>
        <time>2021-09-30T12:41:55Z</time>
      </trkpt>
      <trkpt lat="46.50719" lon="5.67129">
        <ele>478.3</ele>
        <time>2021-09-30T12:42:00Z</time>
      </trkpt>
      <trkpt lat="46.50722" lon="5.67123">
        <ele>478.1</ele>
        <time>2021-09-30T12:42:05Z</time>
      </trkpt>
      <trkpt lat="46.50724" lon="5.67117">
        <ele>477.5</ele>
        <time>2021-09-30T12:42:11Z</time>
      </trkpt>
      <trkpt lat="46.50727" lon="5.6711">
        <ele>476.8</ele>
        <time>2021-09-30T12:42:17Z</time>
      </trkpt>
      <trkpt lat="46.5073" lon="5.67105">
        <ele>475.7</ele>
        <time>2021-09-30T12:42:22Z</time>
      </trkpt>
      <trkpt lat="46.50733" lon="5.671">
        <ele>474.5</ele>
        <time>2021-09-30T12:42:27Z</time>
      </trkpt>
      <trkpt lat="46.50736" lon="5.67094">
        <ele>474.1</ele>
        <time>2021-09-30T12:42:30Z</time>
      </trkpt>
      <trkpt lat="46.50738" lon="5.67088">
        <ele>473.7</ele>
        <time>2021-09-30T12:42:33Z</time>
      </trkpt>
      <trkpt lat="46.50739" lon="5.67081">
        <ele>473.3</ele>
        <time>2021-09-30T12:42:37Z</time>
      </trkpt>
      <trkpt lat="46.50742" lon="5.67075">
        <ele>473.4</ele>
        <time>2021-09-30T12:42:41Z</time>
      </trkpt>
      <trkpt lat="46.50746" lon="5.6707">
        <ele>473.3</ele>
        <time>2021-09-30T12:42:45Z</time>
      </trkpt>
      <trkpt lat="46.5075" lon="5.67066">
        <ele>472.8</ele>
        <time>2021-09-30T12:42:50Z</time>
      </trkpt>
      <trkpt lat="46.50754" lon="5.67061">
        <ele>471.8</ele>
        <time>2021-09-30T12:42:57Z</time>
      </trkpt>
      <trkpt lat="46.50756" lon="5.67055">
        <ele>470.6</ele>
        <time>2021-09-30T12:43:04Z</time>
      </trkpt>
      <trkpt lat="46.50758" lon="5.67049">
        <ele>470.7</ele>
        <time>2021-09-30T12:43:10Z</time>
      </trkpt>
      <trkpt lat="46.5076" lon="5.67043">
        <ele>471.1</ele>
        <time>2021-09-30T12:43:15Z</time>
      </trkpt>
      <trkpt lat="46.50764" lon="5.67037">
        <ele>471.4</ele>
        <time>2021-09-30T12:43:22Z</time>
      </trkpt>
      <trkpt lat="46.50766" lon="5.67031">
        <ele>471.9</ele>
        <time>2021-09-30T12:43:27Z</time>
      </trkpt>
      <trkpt lat="46.5077" lon="5.67028">
        <ele>472.5</ele>
        <time>2021-09-30T12:43:31Z</time>
      </trkpt>
      <trkpt lat="46.50774" lon="5.67026">
        <ele>473</ele>
        <time>2021-09-30T12:43:36Z</time>
      </trkpt>
      <trkpt lat="46.50778" lon="5.67022">
        <ele>473</ele>
        <time>2021-09-30T12:43:40Z</time>
      </trkpt>
      <trkpt lat="46.50783" lon="5.67018">
        <ele>473</ele>
        <time>2021-09-30T12:43:44Z</time>
      </trkpt>
      <trkpt lat="46.50788" lon="5.67014">
        <ele>473</ele>
        <time>2021-09-30T12:43:48Z</time>
      </trkpt>
      <trkpt lat="46.50793" lon="5.6701">
        <ele>472.8</ele>
        <time>2021-09-30T12:43:52Z</time>
      </trkpt>
      <trkpt lat="46.50797" lon="5.67007">
        <ele>472.6</ele>
        <time>2021-09-30T12:43:55Z</time>
      </trkpt>
      <trkpt lat="46.50801" lon="5.67003">
        <ele>472.2</ele>
        <time>2021-09-30T12:43:59Z</time>
      </trkpt>
      <trkpt lat="46.50805" lon="5.66997">
        <ele>471.9</ele>
        <time>2021-09-30T12:44:05Z</time>
      </trkpt>
      <trkpt lat="46.50807" lon="5.6699">
        <ele>472.2</ele>
        <time>2021-09-30T12:44:12Z</time>
      </trkpt>
      <trkpt lat="46.50808" lon="5.66983">
        <ele>472.7</ele>
        <time>2021-09-30T12:44:17Z</time>
      </trkpt>
      <trkpt lat="46.50813" lon="5.66979">
        <ele>473.4</ele>
        <time>2021-09-30T12:44:22Z</time>
      </trkpt>
      <trkpt lat="46.50817" lon="5.66974">
        <ele>474</ele>
        <time>2021-09-30T12:44:27Z</time>
      </trkpt>
      <trkpt lat="46.50821" lon="5.66972">
        <ele>474.4</ele>
        <time>2021-09-30T12:44:32Z</time>
      </trkpt>
      <trkpt lat="46.50825" lon="5.66969">
        <ele>475</ele>
        <time>2021-09-30T12:44:39Z</time>
      </trkpt>
      <trkpt lat="46.50832" lon="5.66966">
        <ele>475.5</ele>
        <time>2021-09-30T12:44:42Z</time>
      </trkpt>
      <trkpt lat="46.50837" lon="5.66963">
        <ele>475.6</ele>
        <time>2021-09-30T12:44:45Z</time>
      </trkpt>
      <trkpt lat="46.50842" lon="5.66959">
        <ele>475.4</ele>
        <time>2021-09-30T12:44:49Z</time>
      </trkpt>
      <trkpt lat="46.50846" lon="5.66956">
        <ele>474.7</ele>
        <time>2021-09-30T12:44:54Z</time>
      </trkpt>
      <trkpt lat="46.5085" lon="5.66952">
        <ele>473.1</ele>
        <time>2021-09-30T12:44:59Z</time>
      </trkpt>
      <trkpt lat="46.50852" lon="5.66946">
        <ele>471</ele>
        <time>2021-09-30T12:45:06Z</time>
      </trkpt>
      <trkpt lat="46.50856" lon="5.66942">
        <ele>468.6</ele>
        <time>2021-09-30T12:45:12Z</time>
      </trkpt>
      <trkpt lat="46.50861" lon="5.66939">
        <ele>466.4</ele>
        <time>2021-09-30T12:45:17Z</time>
      </trkpt>
      <trkpt lat="46.50864" lon="5.66935">
        <ele>464.8</ele>
        <time>2021-09-30T12:45:22Z</time>
      </trkpt>
      <trkpt lat="46.50869" lon="5.66932">
        <ele>463.3</ele>
        <time>2021-09-30T12:45:32Z</time>
      </trkpt>
      <trkpt lat="46.50874" lon="5.66929">
        <ele>463.1</ele>
        <time>2021-09-30T12:45:37Z</time>
      </trkpt>
      <trkpt lat="46.50879" lon="5.66929">
        <ele>462.9</ele>
        <time>2021-09-30T12:45:42Z</time>
      </trkpt>
      <trkpt lat="46.50884" lon="5.66927">
        <ele>463.1</ele>
        <time>2021-09-30T12:45:46Z</time>
      </trkpt>
      <trkpt lat="46.50889" lon="5.66927">
        <ele>463.3</ele>
        <time>2021-09-30T12:45:50Z</time>
      </trkpt>
      <trkpt lat="46.50894" lon="5.66925">
        <ele>463.5</ele>
        <time>2021-09-30T12:45:54Z</time>
      </trkpt>
      <trkpt lat="46.50898" lon="5.66923">
        <ele>464.1</ele>
        <time>2021-09-30T12:45:59Z</time>
      </trkpt>
      <trkpt lat="46.50903" lon="5.66922">
        <ele>465.2</ele>
        <time>2021-09-30T12:46:06Z</time>
      </trkpt>
      <trkpt lat="46.50908" lon="5.6692">
        <ele>465.5</ele>
        <time>2021-09-30T12:46:11Z</time>
      </trkpt>
      <trkpt lat="46.50912" lon="5.66917">
        <ele>465.8</ele>
        <time>2021-09-30T12:46:16Z</time>
      </trkpt>
      <trkpt lat="46.50915" lon="5.66911">
        <ele>465.7</ele>
        <time>2021-09-30T12:46:23Z</time>
      </trkpt>
      <trkpt lat="46.50918" lon="5.66906">
        <ele>465.5</ele>
        <time>2021-09-30T12:46:28Z</time>
      </trkpt>
      <trkpt lat="46.50922" lon="5.66904">
        <ele>465.5</ele>
        <time>2021-09-30T12:46:32Z</time>
      </trkpt>
      <trkpt lat="46.50926" lon="5.66899">
        <ele>465.4</ele>
        <time>2021-09-30T12:46:36Z</time>
      </trkpt>
      <trkpt lat="46.50929" lon="5.66894">
        <ele>465</ele>
        <time>2021-09-30T12:46:40Z</time>
      </trkpt>
      <trkpt lat="46.50934" lon="5.66891">
        <ele>464.8</ele>
        <time>2021-09-30T12:46:45Z</time>
      </trkpt>
      <trkpt lat="46.50939" lon="5.66887">
        <ele>465.1</ele>
        <time>2021-09-30T12:46:49Z</time>
      </trkpt>
      <trkpt lat="46.50944" lon="5.66886">
        <ele>465.6</ele>
        <time>2021-09-30T12:46:52Z</time>
      </trkpt>
      <trkpt lat="46.50948" lon="5.66885">
        <ele>466.3</ele>
        <time>2021-09-30T12:46:55Z</time>
      </trkpt>
      <trkpt lat="46.50954" lon="5.66884">
        <ele>466.9</ele>
        <time>2021-09-30T12:46:59Z</time>
      </trkpt>
      <trkpt lat="46.50959" lon="5.66883">
        <ele>467.3</ele>
        <time>2021-09-30T12:47:06Z</time>
      </trkpt>
      <trkpt lat="46.50963" lon="5.66882">
        <ele>467.5</ele>
        <time>2021-09-30T12:47:12Z</time>
      </trkpt>
      <trkpt lat="46.50968" lon="5.66876">
        <ele>467.9</ele>
        <time>2021-09-30T12:47:17Z</time>
      </trkpt>
      <trkpt lat="46.50972" lon="5.66874">
        <ele>468.4</ele>
        <time>2021-09-30T12:47:21Z</time>
      </trkpt>
      <trkpt lat="46.50977" lon="5.66874">
        <ele>469.1</ele>
        <time>2021-09-30T12:47:26Z</time>
      </trkpt>
      <trkpt lat="46.50982" lon="5.66876">
        <ele>470.5</ele>
        <time>2021-09-30T12:47:32Z</time>
      </trkpt>
      <trkpt lat="46.50987" lon="5.66872">
        <ele>472.2</ele>
        <time>2021-09-30T12:47:41Z</time>
      </trkpt>
      <trkpt lat="46.50992" lon="5.6687">
        <ele>473.2</ele>
        <time>2021-09-30T12:47:47Z</time>
      </trkpt>
      <trkpt lat="46.50996" lon="5.6687">
        <ele>473.4</ele>
        <time>2021-09-30T12:47:50Z</time>
      </trkpt>
      <trkpt lat="46.51001" lon="5.66871">
        <ele>473.8</ele>
        <time>2021-09-30T12:47:54Z</time>
      </trkpt>
      <trkpt lat="46.51006" lon="5.6687">
        <ele>473.7</ele>
        <time>2021-09-30T12:47:58Z</time>
      </trkpt>
      <trkpt lat="46.51011" lon="5.66871">
        <ele>473.5</ele>
        <time>2021-09-30T12:48:02Z</time>
      </trkpt>
      <trkpt lat="46.51016" lon="5.66873">
        <ele>472.9</ele>
        <time>2021-09-30T12:48:08Z</time>
      </trkpt>
      <trkpt lat="46.51022" lon="5.66873">
        <ele>472.1</ele>
        <time>2021-09-30T12:48:15Z</time>
      </trkpt>
      <trkpt lat="46.51027" lon="5.66872">
        <ele>471.7</ele>
        <time>2021-09-30T12:48:20Z</time>
      </trkpt>
      <trkpt lat="46.51032" lon="5.66869">
        <ele>471.6</ele>
        <time>2021-09-30T12:48:25Z</time>
      </trkpt>
      <trkpt lat="46.51037" lon="5.66865">
        <ele>471.4</ele>
        <time>2021-09-30T12:48:31Z</time>
      </trkpt>
      <trkpt lat="46.51041" lon="5.66865">
        <ele>471.2</ele>
        <time>2021-09-30T12:48:34Z</time>
      </trkpt>
      <trkpt lat="46.51046" lon="5.66867">
        <ele>471</ele>
        <time>2021-09-30T12:48:37Z</time>
      </trkpt>
      <trkpt lat="46.51051" lon="5.66869">
        <ele>470.5</ele>
        <time>2021-09-30T12:48:41Z</time>
      </trkpt>
      <trkpt lat="46.51055" lon="5.66866">
        <ele>469.8</ele>
        <time>2021-09-30T12:48:45Z</time>
      </trkpt>
      <trkpt lat="46.51059" lon="5.66863">
        <ele>469</ele>
        <time>2021-09-30T12:48:52Z</time>
      </trkpt>
      <trkpt lat="46.51064" lon="5.66861">
        <ele>468.7</ele>
        <time>2021-09-30T12:48:57Z</time>
      </trkpt>
      <trkpt lat="46.51068" lon="5.6686">
        <ele>468.1</ele>
        <time>2021-09-30T12:49:03Z</time>
      </trkpt>
      <trkpt lat="46.51074" lon="5.66862">
        <ele>467.7</ele>
        <time>2021-09-30T12:49:07Z</time>
      </trkpt>
      <trkpt lat="46.51078" lon="5.66863">
        <ele>467.4</ele>
        <time>2021-09-30T12:49:12Z</time>
      </trkpt>
      <trkpt lat="46.51083" lon="5.66863">
        <ele>467.1</ele>
        <time>2021-09-30T12:49:19Z</time>
      </trkpt>
      <trkpt lat="46.51088" lon="5.66862">
        <ele>466.9</ele>
        <time>2021-09-30T12:49:22Z</time>
      </trkpt>
      <trkpt lat="46.51094" lon="5.66862">
        <ele>466.7</ele>
        <time>2021-09-30T12:49:26Z</time>
      </trkpt>
      <trkpt lat="46.51099" lon="5.66861">
        <ele>466.8</ele>
        <time>2021-09-30T12:49:30Z</time>
      </trkpt>
      <trkpt lat="46.51104" lon="5.66862">
        <ele>466.7</ele>
        <time>2021-09-30T12:49:34Z</time>
      </trkpt>
      <trkpt lat="46.51109" lon="5.66865">
        <ele>466.7</ele>
        <time>2021-09-30T12:49:39Z</time>
      </trkpt>
      <trkpt lat="46.51113" lon="5.66869">
        <ele>466.7</ele>
        <time>2021-09-30T12:49:48Z</time>
      </trkpt>
      <trkpt lat="46.51118" lon="5.6687">
        <ele>466.6</ele>
        <time>2021-09-30T12:49:52Z</time>
      </trkpt>
      <trkpt lat="46.51123" lon="5.66871">
        <ele>466.3</ele>
        <time>2021-09-30T12:49:56Z</time>
      </trkpt>
      <trkpt lat="46.51128" lon="5.66872">
        <ele>466.1</ele>
        <time>2021-09-30T12:49:59Z</time>
      </trkpt>
      <trkpt lat="46.51133" lon="5.66873">
        <ele>465.4</ele>
        <time>2021-09-30T12:50:03Z</time>
      </trkpt>
      <trkpt lat="46.51138" lon="5.66873">
        <ele>463.9</ele>
        <time>2021-09-30T12:50:10Z</time>
      </trkpt>
      <trkpt lat="46.51144" lon="5.66873">
        <ele>462.9</ele>
        <time>2021-09-30T12:50:16Z</time>
      </trkpt>
      <trkpt lat="46.51149" lon="5.66873">
        <ele>462.2</ele>
        <time>2021-09-30T12:50:21Z</time>
      </trkpt>
      <trkpt lat="46.51154" lon="5.66872">
        <ele>461.3</ele>
        <time>2021-09-30T12:50:27Z</time>
      </trkpt>
      <trkpt lat="46.51159" lon="5.66872">
        <ele>460.3</ele>
        <time>2021-09-30T12:50:34Z</time>
      </trkpt>
      <trkpt lat="46.51164" lon="5.6687">
        <ele>459.7</ele>
        <time>2021-09-30T12:50:39Z</time>
      </trkpt>
      <trkpt lat="46.51169" lon="5.66869">
        <ele>459.4</ele>
        <time>2021-09-30T12:50:44Z</time>
      </trkpt>
      <trkpt lat="46.51174" lon="5.66868">
        <ele>458.9</ele>
        <time>2021-09-30T12:50:49Z</time>
      </trkpt>
      <trkpt lat="46.51179" lon="5.6687">
        <ele>458.1</ele>
        <time>2021-09-30T12:50:55Z</time>
      </trkpt>
      <trkpt lat="46.51184" lon="5.66872">
        <ele>457.5</ele>
        <time>2021-09-30T12:51:01Z</time>
      </trkpt>
      <trkpt lat="46.51189" lon="5.66873">
        <ele>456.5</ele>
        <time>2021-09-30T12:51:08Z</time>
      </trkpt>
      <trkpt lat="46.51194" lon="5.66876">
        <ele>455.4</ele>
        <time>2021-09-30T12:51:14Z</time>
      </trkpt>
      <trkpt lat="46.51198" lon="5.6688">
        <ele>454.7</ele>
        <time>2021-09-30T12:51:18Z</time>
      </trkpt>
      <trkpt lat="46.51201" lon="5.66887">
        <ele>454.1</ele>
        <time>2021-09-30T12:51:23Z</time>
      </trkpt>
      <trkpt lat="46.51204" lon="5.66892">
        <ele>453.5</ele>
        <time>2021-09-30T12:51:28Z</time>
      </trkpt>
      <trkpt lat="46.51209" lon="5.66896">
        <ele>452.5</ele>
        <time>2021-09-30T12:51:35Z</time>
      </trkpt>
      <trkpt lat="46.51213" lon="5.669">
        <ele>451.6</ele>
        <time>2021-09-30T12:51:41Z</time>
      </trkpt>
      <trkpt lat="46.5122" lon="5.66903">
        <ele>451.1</ele>
        <time>2021-09-30T12:51:45Z</time>
      </trkpt>
      <trkpt lat="46.51227" lon="5.66906">
        <ele>450.7</ele>
        <time>2021-09-30T12:51:48Z</time>
      </trkpt>
      <trkpt lat="46.51233" lon="5.6691">
        <ele>450.3</ele>
        <time>2021-09-30T12:51:51Z</time>
      </trkpt>
      <trkpt lat="46.51237" lon="5.66914">
        <ele>450.2</ele>
        <time>2021-09-30T12:51:54Z</time>
      </trkpt>
      <trkpt lat="46.51241" lon="5.66919">
        <ele>450.5</ele>
        <time>2021-09-30T12:51:59Z</time>
      </trkpt>
      <trkpt lat="46.51246" lon="5.66921">
        <ele>450.6</ele>
        <time>2021-09-30T12:52:04Z</time>
      </trkpt>
      <trkpt lat="46.5125" lon="5.66923">
        <ele>450.5</ele>
        <time>2021-09-30T12:52:09Z</time>
      </trkpt>
      <trkpt lat="46.51253" lon="5.66928">
        <ele>450.1</ele>
        <time>2021-09-30T12:52:16Z</time>
      </trkpt>
      <trkpt lat="46.51257" lon="5.66932">
        <ele>450</ele>
        <time>2021-09-30T12:52:21Z</time>
      </trkpt>
      <trkpt lat="46.51262" lon="5.66935">
        <ele>449.8</ele>
        <time>2021-09-30T12:52:25Z</time>
      </trkpt>
      <trkpt lat="46.51266" lon="5.6694">
        <ele>449.3</ele>
        <time>2021-09-30T12:52:30Z</time>
      </trkpt>
      <trkpt lat="46.51269" lon="5.66944">
        <ele>449.1</ele>
        <time>2021-09-30T12:52:34Z</time>
      </trkpt>
      <trkpt lat="46.51272" lon="5.6695">
        <ele>449.5</ele>
        <time>2021-09-30T12:52:41Z</time>
      </trkpt>
      <trkpt lat="46.51277" lon="5.66948">
        <ele>449.1</ele>
        <time>2021-09-30T12:52:46Z</time>
      </trkpt>
      <trkpt lat="46.51282" lon="5.66948">
        <ele>448.5</ele>
        <time>2021-09-30T12:52:55Z</time>
      </trkpt>
      <trkpt lat="46.51286" lon="5.6695">
        <ele>448</ele>
        <time>2021-09-30T12:53:00Z</time>
      </trkpt>
      <trkpt lat="46.51293" lon="5.66952">
        <ele>447.4</ele>
        <time>2021-09-30T12:53:08Z</time>
      </trkpt>
      <trkpt lat="46.51298" lon="5.66954">
        <ele>447</ele>
        <time>2021-09-30T12:53:13Z</time>
      </trkpt>
      <trkpt lat="46.51303" lon="5.66958">
        <ele>446.7</ele>
        <time>2021-09-30T12:53:19Z</time>
      </trkpt>
      <trkpt lat="46.51307" lon="5.66962">
        <ele>446.4</ele>
        <time>2021-09-30T12:53:25Z</time>
      </trkpt>
      <trkpt lat="46.51311" lon="5.66968">
        <ele>446.1</ele>
        <time>2021-09-30T12:53:30Z</time>
      </trkpt>
      <trkpt lat="46.51316" lon="5.66971">
        <ele>445.8</ele>
        <time>2021-09-30T12:53:34Z</time>
      </trkpt>
      <trkpt lat="46.51321" lon="5.66971">
        <ele>445.5</ele>
        <time>2021-09-30T12:53:39Z</time>
      </trkpt>
      <trkpt lat="46.51326" lon="5.66972">
        <ele>445.3</ele>
        <time>2021-09-30T12:53:43Z</time>
      </trkpt>
      <trkpt lat="46.51333" lon="5.66975">
        <ele>444.6</ele>
        <time>2021-09-30T12:53:46Z</time>
      </trkpt>
      <trkpt lat="46.51338" lon="5.66977">
        <ele>443.9</ele>
        <time>2021-09-30T12:53:49Z</time>
      </trkpt>
      <trkpt lat="46.51342" lon="5.6698">
        <ele>441.8</ele>
        <time>2021-09-30T12:54:02Z</time>
      </trkpt>
      <trkpt lat="46.51347" lon="5.66984">
        <ele>441.4</ele>
        <time>2021-09-30T12:54:07Z</time>
      </trkpt>
      <trkpt lat="46.51352" lon="5.66987">
        <ele>441.2</ele>
        <time>2021-09-30T12:54:11Z</time>
      </trkpt>
      <trkpt lat="46.51356" lon="5.66992">
        <ele>441.2</ele>
        <time>2021-09-30T12:54:15Z</time>
      </trkpt>
      <trkpt lat="46.5136" lon="5.66996">
        <ele>441</ele>
        <time>2021-09-30T12:54:20Z</time>
      </trkpt>
      <trkpt lat="46.51364" lon="5.67">
        <ele>440.7</ele>
        <time>2021-09-30T12:54:25Z</time>
      </trkpt>
      <trkpt lat="46.51369" lon="5.67003">
        <ele>440.1</ele>
        <time>2021-09-30T12:54:30Z</time>
      </trkpt>
      <trkpt lat="46.51373" lon="5.67009">
        <ele>439.3</ele>
        <time>2021-09-30T12:54:35Z</time>
      </trkpt>
      <trkpt lat="46.51376" lon="5.67014">
        <ele>438.5</ele>
        <time>2021-09-30T12:54:39Z</time>
      </trkpt>
      <trkpt lat="46.51379" lon="5.6702">
        <ele>437.6</ele>
        <time>2021-09-30T12:54:44Z</time>
      </trkpt>
      <trkpt lat="46.51381" lon="5.67026">
        <ele>436.6</ele>
        <time>2021-09-30T12:54:49Z</time>
      </trkpt>
      <trkpt lat="46.51384" lon="5.67031">
        <ele>435.8</ele>
        <time>2021-09-30T12:54:53Z</time>
      </trkpt>
      <trkpt lat="46.51388" lon="5.67036">
        <ele>435.4</ele>
        <time>2021-09-30T12:54:58Z</time>
      </trkpt>
      <trkpt lat="46.51392" lon="5.67039">
        <ele>435.1</ele>
        <time>2021-09-30T12:55:01Z</time>
      </trkpt>
      <trkpt lat="46.51396" lon="5.67044">
        <ele>434.9</ele>
        <time>2021-09-30T12:55:05Z</time>
      </trkpt>
      <trkpt lat="46.51402" lon="5.67047">
        <ele>434.7</ele>
        <time>2021-09-30T12:55:09Z</time>
      </trkpt>
      <trkpt lat="46.51405" lon="5.67052">
        <ele>435.1</ele>
        <time>2021-09-30T12:55:14Z</time>
      </trkpt>
      <trkpt lat="46.51408" lon="5.67058">
        <ele>435.9</ele>
        <time>2021-09-30T12:55:19Z</time>
      </trkpt>
      <trkpt lat="46.51413" lon="5.67062">
        <ele>436.2</ele>
        <time>2021-09-30T12:55:23Z</time>
      </trkpt>
      <trkpt lat="46.51417" lon="5.67064">
        <ele>435.9</ele>
        <time>2021-09-30T12:55:28Z</time>
      </trkpt>
      <trkpt lat="46.51421" lon="5.67068">
        <ele>435.8</ele>
        <time>2021-09-30T12:55:32Z</time>
      </trkpt>
      <trkpt lat="46.51425" lon="5.67072">
        <ele>435.5</ele>
        <time>2021-09-30T12:55:37Z</time>
      </trkpt>
      <trkpt lat="46.5143" lon="5.67074">
        <ele>435</ele>
        <time>2021-09-30T12:55:41Z</time>
      </trkpt>
      <trkpt lat="46.51435" lon="5.67078">
        <ele>434.1</ele>
        <time>2021-09-30T12:55:45Z</time>
      </trkpt>
      <trkpt lat="46.5144" lon="5.67081">
        <ele>433.3</ele>
        <time>2021-09-30T12:55:49Z</time>
      </trkpt>
      <trkpt lat="46.51444" lon="5.67085">
        <ele>432.9</ele>
        <time>2021-09-30T12:55:53Z</time>
      </trkpt>
      <trkpt lat="46.51448" lon="5.67092">
        <ele>432.8</ele>
        <time>2021-09-30T12:55:57Z</time>
      </trkpt>
      <trkpt lat="46.51451" lon="5.67097">
        <ele>432.8</ele>
        <time>2021-09-30T12:56:01Z</time>
      </trkpt>
      <trkpt lat="46.51454" lon="5.67102">
        <ele>433</ele>
        <time>2021-09-30T12:56:06Z</time>
      </trkpt>
      <trkpt lat="46.51457" lon="5.67108">
        <ele>433.3</ele>
        <time>2021-09-30T12:56:10Z</time>
      </trkpt>
      <trkpt lat="46.51461" lon="5.67112">
        <ele>433.5</ele>
        <time>2021-09-30T12:56:15Z</time>
      </trkpt>
      <trkpt lat="46.51465" lon="5.67116">
        <ele>433.4</ele>
        <time>2021-09-30T12:56:24Z</time>
      </trkpt>
      <trkpt lat="46.5147" lon="5.6712">
        <ele>432.9</ele>
        <time>2021-09-30T12:56:28Z</time>
      </trkpt>
      <trkpt lat="46.51474" lon="5.67124">
        <ele>432.3</ele>
        <time>2021-09-30T12:56:32Z</time>
      </trkpt>
      <trkpt lat="46.51476" lon="5.6713">
        <ele>432</ele>
        <time>2021-09-30T12:56:38Z</time>
      </trkpt>
      <trkpt lat="46.51479" lon="5.67136">
        <ele>431.6</ele>
        <time>2021-09-30T12:56:43Z</time>
      </trkpt>
      <trkpt lat="46.51483" lon="5.67141">
        <ele>431.4</ele>
        <time>2021-09-30T12:56:46Z</time>
      </trkpt>
      <trkpt lat="46.51486" lon="5.67146">
        <ele>431.4</ele>
        <time>2021-09-30T12:56:49Z</time>
      </trkpt>
      <trkpt lat="46.5149" lon="5.67152">
        <ele>431.3</ele>
        <time>2021-09-30T12:56:54Z</time>
      </trkpt>
      <trkpt lat="46.51493" lon="5.67157">
        <ele>431</ele>
        <time>2021-09-30T12:56:59Z</time>
      </trkpt>
      <trkpt lat="46.51496" lon="5.67163">
        <ele>430.3</ele>
        <time>2021-09-30T12:57:05Z</time>
      </trkpt>
      <trkpt lat="46.51499" lon="5.67167">
        <ele>429.9</ele>
        <time>2021-09-30T12:57:10Z</time>
      </trkpt>
      <trkpt lat="46.51503" lon="5.67174">
        <ele>429.9</ele>
        <time>2021-09-30T12:57:16Z</time>
      </trkpt>
      <trkpt lat="46.51505" lon="5.6718">
        <ele>430</ele>
        <time>2021-09-30T12:57:21Z</time>
      </trkpt>
      <trkpt lat="46.51508" lon="5.67185">
        <ele>430.3</ele>
        <time>2021-09-30T12:57:27Z</time>
      </trkpt>
      <trkpt lat="46.51511" lon="5.6719">
        <ele>430.8</ele>
        <time>2021-09-30T12:57:32Z</time>
      </trkpt>
      <trkpt lat="46.51516" lon="5.67194">
        <ele>431.4</ele>
        <time>2021-09-30T12:57:35Z</time>
      </trkpt>
      <trkpt lat="46.51521" lon="5.67199">
        <ele>431.8</ele>
        <time>2021-09-30T12:57:38Z</time>
      </trkpt>
      <trkpt lat="46.51524" lon="5.67205">
        <ele>432.2</ele>
        <time>2021-09-30T12:57:41Z</time>
      </trkpt>
      <trkpt lat="46.51528" lon="5.67212">
        <ele>432.7</ele>
        <time>2021-09-30T12:57:45Z</time>
      </trkpt>
      <trkpt lat="46.51531" lon="5.67217">
        <ele>433.4</ele>
        <time>2021-09-30T12:57:50Z</time>
      </trkpt>
      <trkpt lat="46.51533" lon="5.67223">
        <ele>433.7</ele>
        <time>2021-09-30T12:57:57Z</time>
      </trkpt>
      <trkpt lat="46.51534" lon="5.67231">
        <ele>433.1</ele>
        <time>2021-09-30T12:58:05Z</time>
      </trkpt>
      <trkpt lat="46.51538" lon="5.67235">
        <ele>432.1</ele>
        <time>2021-09-30T12:58:10Z</time>
      </trkpt>
      <trkpt lat="46.51541" lon="5.6724">
        <ele>431.4</ele>
        <time>2021-09-30T12:58:14Z</time>
      </trkpt>
      <trkpt lat="46.51545" lon="5.67246">
        <ele>430.6</ele>
        <time>2021-09-30T12:58:18Z</time>
      </trkpt>
      <trkpt lat="46.51549" lon="5.6725">
        <ele>430</ele>
        <time>2021-09-30T12:58:22Z</time>
      </trkpt>
      <trkpt lat="46.51552" lon="5.67256">
        <ele>429.2</ele>
        <time>2021-09-30T12:58:28Z</time>
      </trkpt>
      <trkpt lat="46.51556" lon="5.67263">
        <ele>429.3</ele>
        <time>2021-09-30T12:58:32Z</time>
      </trkpt>
      <trkpt lat="46.51559" lon="5.67269">
        <ele>429.7</ele>
        <time>2021-09-30T12:58:36Z</time>
      </trkpt>
      <trkpt lat="46.51561" lon="5.67275">
        <ele>430.5</ele>
        <time>2021-09-30T12:58:41Z</time>
      </trkpt>
      <trkpt lat="46.51565" lon="5.6728">
        <ele>431.4</ele>
        <time>2021-09-30T12:58:45Z</time>
      </trkpt>
      <trkpt lat="46.51568" lon="5.67286">
        <ele>432</ele>
        <time>2021-09-30T12:58:49Z</time>
      </trkpt>
      <trkpt lat="46.51572" lon="5.67292">
        <ele>432.7</ele>
        <time>2021-09-30T12:58:54Z</time>
      </trkpt>
      <trkpt lat="46.51575" lon="5.67297">
        <ele>432.8</ele>
        <time>2021-09-30T12:59:00Z</time>
      </trkpt>
      <trkpt lat="46.51578" lon="5.67303">
        <ele>432.4</ele>
        <time>2021-09-30T12:59:06Z</time>
      </trkpt>
      <trkpt lat="46.51582" lon="5.67307">
        <ele>432.5</ele>
        <time>2021-09-30T12:59:10Z</time>
      </trkpt>
      <trkpt lat="46.51585" lon="5.67312">
        <ele>432.4</ele>
        <time>2021-09-30T12:59:14Z</time>
      </trkpt>
      <trkpt lat="46.51589" lon="5.67318">
        <ele>432.3</ele>
        <time>2021-09-30T12:59:18Z</time>
      </trkpt>
      <trkpt lat="46.51594" lon="5.67323">
        <ele>432</ele>
        <time>2021-09-30T12:59:22Z</time>
      </trkpt>
      <trkpt lat="46.51597" lon="5.67327">
        <ele>431.4</ele>
        <time>2021-09-30T12:59:26Z</time>
      </trkpt>
      <trkpt lat="46.51601" lon="5.67331">
        <ele>430.8</ele>
        <time>2021-09-30T12:59:31Z</time>
      </trkpt>
      <trkpt lat="46.51605" lon="5.67334">
        <ele>430.4</ele>
        <time>2021-09-30T12:59:37Z</time>
      </trkpt>
      <trkpt lat="46.51608" lon="5.67339">
        <ele>430.6</ele>
        <time>2021-09-30T12:59:41Z</time>
      </trkpt>
      <trkpt lat="46.51612" lon="5.67345">
        <ele>430.9</ele>
        <time>2021-09-30T12:59:44Z</time>
      </trkpt>
      <trkpt lat="46.51617" lon="5.67349">
        <ele>431.4</ele>
        <time>2021-09-30T12:59:47Z</time>
      </trkpt>
      <trkpt lat="46.51621" lon="5.6735">
        <ele>431.7</ele>
        <time>2021-09-30T12:59:50Z</time>
      </trkpt>
      <trkpt lat="46.51625" lon="5.67353">
        <ele>432.1</ele>
        <time>2021-09-30T12:59:54Z</time>
      </trkpt>
      <trkpt lat="46.5163" lon="5.67353">
        <ele>433</ele>
        <time>2021-09-30T13:00:01Z</time>
      </trkpt>
      <trkpt lat="46.51635" lon="5.67354">
        <ele>432.8</ele>
        <time>2021-09-30T13:00:05Z</time>
      </trkpt>
      <trkpt lat="46.5164" lon="5.67352">
        <ele>432.3</ele>
        <time>2021-09-30T13:00:12Z</time>
      </trkpt>
      <trkpt lat="46.51645" lon="5.67356">
        <ele>432</ele>
        <time>2021-09-30T13:00:16Z</time>
      </trkpt>
      <trkpt lat="46.51651" lon="5.67355">
        <ele>432</ele>
        <time>2021-09-30T13:00:20Z</time>
      </trkpt>
      <trkpt lat="46.51655" lon="5.67352">
        <ele>433.5</ele>
        <time>2021-09-30T13:00:24Z</time>
      </trkpt>
      <trkpt lat="46.51658" lon="5.67358">
        <ele>434.5</ele>
        <time>2021-09-30T13:00:53Z</time>
      </trkpt>
      <trkpt lat="46.51663" lon="5.67359">
        <ele>434.7</ele>
        <time>2021-09-30T13:00:57Z</time>
      </trkpt>
      <trkpt lat="46.51668" lon="5.67358">
        <ele>435.4</ele>
        <time>2021-09-30T13:01:03Z</time>
      </trkpt>
      <trkpt lat="46.51673" lon="5.67355">
        <ele>434.9</ele>
        <time>2021-09-30T13:01:10Z</time>
      </trkpt>
      <trkpt lat="46.51677" lon="5.67358">
        <ele>438.1</ele>
        <time>2021-09-30T13:01:50Z</time>
      </trkpt>
      <trkpt lat="46.51681" lon="5.67361">
        <ele>440.5</ele>
        <time>2021-09-30T13:01:56Z</time>
      </trkpt>
      <trkpt lat="46.51685" lon="5.67364">
        <ele>443.7</ele>
        <time>2021-09-30T13:01:59Z</time>
      </trkpt>
      <trkpt lat="46.5169" lon="5.67364">
        <ele>448.5</ele>
        <time>2021-09-30T13:02:04Z</time>
      </trkpt>
      <trkpt lat="46.51695" lon="5.67363">
        <ele>450.2</ele>
        <time>2021-09-30T13:02:07Z</time>
      </trkpt>
      <trkpt lat="46.517" lon="5.67362">
        <ele>451.4</ele>
        <time>2021-09-30T13:02:10Z</time>
      </trkpt>
      <trkpt lat="46.51705" lon="5.67361">
        <ele>451.8</ele>
        <time>2021-09-30T13:02:16Z</time>
      </trkpt>
      <trkpt lat="46.51706" lon="5.67354">
        <ele>452.2</ele>
        <time>2021-09-30T13:02:24Z</time>
      </trkpt>
      <trkpt lat="46.51709" lon="5.67349">
        <ele>452.6</ele>
        <time>2021-09-30T13:02:30Z</time>
      </trkpt>
      <trkpt lat="46.51712" lon="5.67344">
        <ele>453</ele>
        <time>2021-09-30T13:02:34Z</time>
      </trkpt>
      <trkpt lat="46.51715" lon="5.67338">
        <ele>453.2</ele>
        <time>2021-09-30T13:02:38Z</time>
      </trkpt>
      <trkpt lat="46.51716" lon="5.67329">
        <ele>452.3</ele>
        <time>2021-09-30T13:02:43Z</time>
      </trkpt>
      <trkpt lat="46.51715" lon="5.6732">
        <ele>452</ele>
        <time>2021-09-30T13:02:46Z</time>
      </trkpt>
      <trkpt lat="46.51715" lon="5.67313">
        <ele>451.8</ele>
        <time>2021-09-30T13:02:49Z</time>
      </trkpt>
      <trkpt lat="46.5172" lon="5.67311">
        <ele>451.8</ele>
        <time>2021-09-30T13:02:54Z</time>
      </trkpt>
      <trkpt lat="46.51724" lon="5.67316">
        <ele>453.6</ele>
        <time>2021-09-30T13:02:59Z</time>
      </trkpt>
      <trkpt lat="46.51723" lon="5.67326">
        <ele>455.2</ele>
        <time>2021-09-30T13:03:03Z</time>
      </trkpt>
      <trkpt lat="46.51723" lon="5.67333">
        <ele>456.1</ele>
        <time>2021-09-30T13:03:06Z</time>
      </trkpt>
      <trkpt lat="46.51724" lon="5.6734">
        <ele>456.5</ele>
        <time>2021-09-30T13:03:11Z</time>
      </trkpt>
      <trkpt lat="46.51727" lon="5.67344">
        <ele>454.4</ele>
        <time>2021-09-30T13:03:19Z</time>
      </trkpt>
      <trkpt lat="46.51732" lon="5.67342">
        <ele>447.8</ele>
        <time>2021-09-30T13:03:40Z</time>
      </trkpt>
      <trkpt lat="46.51735" lon="5.67336">
        <ele>446.3</ele>
        <time>2021-09-30T13:03:45Z</time>
      </trkpt>
      <trkpt lat="46.51737" lon="5.6733">
        <ele>445.1</ele>
        <time>2021-09-30T13:03:51Z</time>
      </trkpt>
      <trkpt lat="46.51742" lon="5.6733">
        <ele>444.5</ele>
        <time>2021-09-30T13:03:56Z</time>
      </trkpt>
      <trkpt lat="46.51747" lon="5.67329">
        <ele>443.7</ele>
        <time>2021-09-30T13:04:00Z</time>
      </trkpt>
      <trkpt lat="46.51752" lon="5.67329">
        <ele>443.1</ele>
        <time>2021-09-30T13:04:08Z</time>
      </trkpt>
      <trkpt lat="46.51757" lon="5.67325">
        <ele>442.6</ele>
        <time>2021-09-30T13:04:14Z</time>
      </trkpt>
      <trkpt lat="46.51761" lon="5.67319">
        <ele>442</ele>
        <time>2021-09-30T13:04:19Z</time>
      </trkpt>
      <trkpt lat="46.51766" lon="5.67317">
        <ele>440.6</ele>
        <time>2021-09-30T13:04:26Z</time>
      </trkpt>
      <trkpt lat="46.51771" lon="5.67313">
        <ele>439.8</ele>
        <time>2021-09-30T13:04:29Z</time>
      </trkpt>
      <trkpt lat="46.51775" lon="5.6731">
        <ele>439.2</ele>
        <time>2021-09-30T13:04:32Z</time>
      </trkpt>
      <trkpt lat="46.51779" lon="5.67306">
        <ele>436.9</ele>
        <time>2021-09-30T13:04:43Z</time>
      </trkpt>
      <trkpt lat="46.51784" lon="5.67307">
        <ele>436.3</ele>
        <time>2021-09-30T13:04:47Z</time>
      </trkpt>
      <trkpt lat="46.5179" lon="5.67305">
        <ele>435.7</ele>
        <time>2021-09-30T13:04:51Z</time>
      </trkpt>
      <trkpt lat="46.51795" lon="5.67302">
        <ele>435.4</ele>
        <time>2021-09-30T13:04:54Z</time>
      </trkpt>
      <trkpt lat="46.51797" lon="5.67296">
        <ele>434.7</ele>
        <time>2021-09-30T13:04:59Z</time>
      </trkpt>
      <trkpt lat="46.518" lon="5.67291">
        <ele>434.1</ele>
        <time>2021-09-30T13:05:04Z</time>
      </trkpt>
      <trkpt lat="46.51804" lon="5.67288">
        <ele>433.7</ele>
        <time>2021-09-30T13:05:08Z</time>
      </trkpt>
      <trkpt lat="46.51809" lon="5.67286">
        <ele>433.6</ele>
        <time>2021-09-30T13:05:12Z</time>
      </trkpt>
      <trkpt lat="46.51814" lon="5.67283">
        <ele>433.6</ele>
        <time>2021-09-30T13:05:15Z</time>
      </trkpt>
      <trkpt lat="46.51819" lon="5.67279">
        <ele>433.7</ele>
        <time>2021-09-30T13:05:18Z</time>
      </trkpt>
      <trkpt lat="46.51823" lon="5.67274">
        <ele>433.6</ele>
        <time>2021-09-30T13:05:22Z</time>
      </trkpt>
      <trkpt lat="46.51828" lon="5.67269">
        <ele>433.3</ele>
        <time>2021-09-30T13:05:28Z</time>
      </trkpt>
      <trkpt lat="46.51832" lon="5.67265">
        <ele>433.1</ele>
        <time>2021-09-30T13:05:31Z</time>
      </trkpt>
      <trkpt lat="46.51837" lon="5.67261">
        <ele>432.9</ele>
        <time>2021-09-30T13:05:34Z</time>
      </trkpt>
      <trkpt lat="46.5184" lon="5.67254">
        <ele>433</ele>
        <time>2021-09-30T13:05:37Z</time>
      </trkpt>
      <trkpt lat="46.51844" lon="5.67256">
        <ele>434.1</ele>
        <time>2021-09-30T13:05:44Z</time>
      </trkpt>
      <trkpt lat="46.51852" lon="5.67256">
        <ele>434.5</ele>
        <time>2021-09-30T13:05:47Z</time>
      </trkpt>
      <trkpt lat="46.51853" lon="5.67266">
        <ele>433.6</ele>
        <time>2021-09-30T13:05:54Z</time>
      </trkpt>
      <trkpt lat="46.51864" lon="5.67279">
        <ele>433.8</ele>
        <time>2021-09-30T13:05:57Z</time>
      </trkpt>
      <trkpt lat="46.5187" lon="5.6729">
        <ele>434.4</ele>
        <time>2021-09-30T13:06:00Z</time>
      </trkpt>
      <trkpt lat="46.51866" lon="5.67284">
        <ele>438.8</ele>
        <time>2021-09-30T13:06:08Z</time>
      </trkpt>
      <trkpt lat="46.51864" lon="5.67277">
        <ele>440.2</ele>
        <time>2021-09-30T13:06:11Z</time>
      </trkpt>
      <trkpt lat="46.51864" lon="5.6727">
        <ele>443.8</ele>
        <time>2021-09-30T13:06:15Z</time>
      </trkpt>
      <trkpt lat="46.51866" lon="5.67261">
        <ele>447.6</ele>
        <time>2021-09-30T13:06:20Z</time>
      </trkpt>
      <trkpt lat="46.51868" lon="5.67254">
        <ele>449</ele>
        <time>2021-09-30T13:06:23Z</time>
      </trkpt>
      <trkpt lat="46.51871" lon="5.67248">
        <ele>449.7</ele>
        <time>2021-09-30T13:06:28Z</time>
      </trkpt>
      <trkpt lat="46.51874" lon="5.67242">
        <ele>449.2</ele>
        <time>2021-09-30T13:06:35Z</time>
      </trkpt>
      <trkpt lat="46.51878" lon="5.67238">
        <ele>449.2</ele>
        <time>2021-09-30T13:06:38Z</time>
      </trkpt>
      <trkpt lat="46.51883" lon="5.67233">
        <ele>448.5</ele>
        <time>2021-09-30T13:06:41Z</time>
      </trkpt>
      <trkpt lat="46.51886" lon="5.67229">
        <ele>447.9</ele>
        <time>2021-09-30T13:06:44Z</time>
      </trkpt>
      <trkpt lat="46.51891" lon="5.67226">
        <ele>445.9</ele>
        <time>2021-09-30T13:06:51Z</time>
      </trkpt>
      <trkpt lat="46.51895" lon="5.67223">
        <ele>444.6</ele>
        <time>2021-09-30T13:06:55Z</time>
      </trkpt>
      <trkpt lat="46.519" lon="5.67221">
        <ele>443.3</ele>
        <time>2021-09-30T13:06:58Z</time>
      </trkpt>
      <trkpt lat="46.51905" lon="5.6722">
        <ele>442</ele>
        <time>2021-09-30T13:07:01Z</time>
      </trkpt>
      <trkpt lat="46.51907" lon="5.67215">
        <ele>439.5</ele>
        <time>2021-09-30T13:07:09Z</time>
      </trkpt>
      <trkpt lat="46.51911" lon="5.67212">
        <ele>438.1</ele>
        <time>2021-09-30T13:07:18Z</time>
      </trkpt>
      <trkpt lat="46.51917" lon="5.67213">
        <ele>438.3</ele>
        <time>2021-09-30T13:07:25Z</time>
      </trkpt>
      <trkpt lat="46.51922" lon="5.67214">
        <ele>438.1</ele>
        <time>2021-09-30T13:07:30Z</time>
      </trkpt>
      <trkpt lat="46.51927" lon="5.67213">
        <ele>438.6</ele>
        <time>2021-09-30T13:07:34Z</time>
      </trkpt>
      <trkpt lat="46.51932" lon="5.6721">
        <ele>439</ele>
        <time>2021-09-30T13:07:39Z</time>
      </trkpt>
      <trkpt lat="46.51935" lon="5.67205">
        <ele>441</ele>
        <time>2021-09-30T13:07:50Z</time>
      </trkpt>
      <trkpt lat="46.51941" lon="5.67204">
        <ele>443.7</ele>
        <time>2021-09-30T13:08:01Z</time>
      </trkpt>
      <trkpt lat="46.51946" lon="5.67204">
        <ele>444.7</ele>
        <time>2021-09-30T13:08:05Z</time>
      </trkpt>
      <trkpt lat="46.5195" lon="5.67203">
        <ele>445.7</ele>
        <time>2021-09-30T13:08:10Z</time>
      </trkpt>
      <trkpt lat="46.51954" lon="5.67198">
        <ele>446.5</ele>
        <time>2021-09-30T13:08:16Z</time>
      </trkpt>
      <trkpt lat="46.51958" lon="5.67197">
        <ele>446.4</ele>
        <time>2021-09-30T13:08:22Z</time>
      </trkpt>
      <trkpt lat="46.51963" lon="5.67196">
        <ele>447.7</ele>
        <time>2021-09-30T13:08:33Z</time>
      </trkpt>
      <trkpt lat="46.51967" lon="5.67198">
        <ele>448.1</ele>
        <time>2021-09-30T13:08:36Z</time>
      </trkpt>
      <trkpt lat="46.51973" lon="5.67201">
        <ele>448</ele>
        <time>2021-09-30T13:08:39Z</time>
      </trkpt>
      <trkpt lat="46.51978" lon="5.67202">
        <ele>448.2</ele>
        <time>2021-09-30T13:08:42Z</time>
      </trkpt>
      <trkpt lat="46.51983" lon="5.67203">
        <ele>448.4</ele>
        <time>2021-09-30T13:08:46Z</time>
      </trkpt>
      <trkpt lat="46.51988" lon="5.67203">
        <ele>448.4</ele>
        <time>2021-09-30T13:08:50Z</time>
      </trkpt>
      <trkpt lat="46.51993" lon="5.67202">
        <ele>448.5</ele>
        <time>2021-09-30T13:08:54Z</time>
      </trkpt>
      <trkpt lat="46.51998" lon="5.67201">
        <ele>449.2</ele>
        <time>2021-09-30T13:08:59Z</time>
      </trkpt>
      <trkpt lat="46.52003" lon="5.67205">
        <ele>451</ele>
        <time>2021-09-30T13:09:04Z</time>
      </trkpt>
      <trkpt lat="46.52007" lon="5.67209">
        <ele>452.8</ele>
        <time>2021-09-30T13:09:08Z</time>
      </trkpt>
      <trkpt lat="46.52011" lon="5.67214">
        <ele>455.8</ele>
        <time>2021-09-30T13:09:14Z</time>
      </trkpt>
      <trkpt lat="46.52013" lon="5.6722">
        <ele>458.4</ele>
        <time>2021-09-30T13:09:20Z</time>
      </trkpt>
      <trkpt lat="46.52016" lon="5.67226">
        <ele>459.6</ele>
        <time>2021-09-30T13:09:24Z</time>
      </trkpt>
      <trkpt lat="46.52017" lon="5.67233">
        <ele>461.2</ele>
        <time>2021-09-30T13:09:32Z</time>
      </trkpt>
      <trkpt lat="46.52022" lon="5.67236">
        <ele>462.1</ele>
        <time>2021-09-30T13:09:39Z</time>
      </trkpt>
      <trkpt lat="46.52028" lon="5.67236">
        <ele>462.6</ele>
        <time>2021-09-30T13:09:43Z</time>
      </trkpt>
      <trkpt lat="46.52035" lon="5.67235">
        <ele>462.9</ele>
        <time>2021-09-30T13:09:46Z</time>
      </trkpt>
      <trkpt lat="46.5204" lon="5.67234">
        <ele>463.7</ele>
        <time>2021-09-30T13:09:50Z</time>
      </trkpt>
      <trkpt lat="46.52045" lon="5.67231">
        <ele>466</ele>
        <time>2021-09-30T13:09:57Z</time>
      </trkpt>
      <trkpt lat="46.52048" lon="5.67226">
        <ele>466.6</ele>
        <time>2021-09-30T13:10:04Z</time>
      </trkpt>
      <trkpt lat="46.52044" lon="5.67222">
        <ele>467.2</ele>
        <time>2021-09-30T13:10:07Z</time>
      </trkpt>
      <trkpt lat="46.5204" lon="5.67217">
        <ele>467.7</ele>
        <time>2021-09-30T13:10:10Z</time>
      </trkpt>
      <trkpt lat="46.52039" lon="5.67211">
        <ele>468.7</ele>
        <time>2021-09-30T13:10:14Z</time>
      </trkpt>
      <trkpt lat="46.52043" lon="5.67208">
        <ele>473.5</ele>
        <time>2021-09-30T13:10:21Z</time>
      </trkpt>
      <trkpt lat="46.52045" lon="5.67202">
        <ele>474.1</ele>
        <time>2021-09-30T13:10:24Z</time>
      </trkpt>
      <trkpt lat="46.52048" lon="5.67195">
        <ele>474.1</ele>
        <time>2021-09-30T13:10:27Z</time>
      </trkpt>
      <trkpt lat="46.52049" lon="5.67187">
        <ele>473.6</ele>
        <time>2021-09-30T13:10:30Z</time>
      </trkpt>
      <trkpt lat="46.52051" lon="5.67179">
        <ele>473.1</ele>
        <time>2021-09-30T13:10:34Z</time>
      </trkpt>
      <trkpt lat="46.52054" lon="5.67174">
        <ele>472.7</ele>
        <time>2021-09-30T13:10:38Z</time>
      </trkpt>
      <trkpt lat="46.52059" lon="5.67172">
        <ele>472.4</ele>
        <time>2021-09-30T13:10:41Z</time>
      </trkpt>
      <trkpt lat="46.52062" lon="5.67167">
        <ele>471.7</ele>
        <time>2021-09-30T13:10:45Z</time>
      </trkpt>
      <trkpt lat="46.52063" lon="5.6716">
        <ele>470.8</ele>
        <time>2021-09-30T13:10:49Z</time>
      </trkpt>
      <trkpt lat="46.52061" lon="5.67152">
        <ele>470.8</ele>
        <time>2021-09-30T13:10:53Z</time>
      </trkpt>
      <trkpt lat="46.5206" lon="5.67145">
        <ele>471.5</ele>
        <time>2021-09-30T13:10:58Z</time>
      </trkpt>
      <trkpt lat="46.52059" lon="5.67138">
        <ele>471.7</ele>
        <time>2021-09-30T13:11:03Z</time>
      </trkpt>
      <trkpt lat="46.52059" lon="5.67132">
        <ele>470.6</ele>
        <time>2021-09-30T13:11:08Z</time>
      </trkpt>
      <trkpt lat="46.52063" lon="5.67126">
        <ele>469.2</ele>
        <time>2021-09-30T13:11:12Z</time>
      </trkpt>
      <trkpt lat="46.52068" lon="5.6712">
        <ele>466.4</ele>
        <time>2021-09-30T13:11:15Z</time>
      </trkpt>
      <trkpt lat="46.52073" lon="5.67114">
        <ele>463.9</ele>
        <time>2021-09-30T13:11:18Z</time>
      </trkpt>
      <trkpt lat="46.52076" lon="5.6711">
        <ele>461</ele>
        <time>2021-09-30T13:11:22Z</time>
      </trkpt>
      <trkpt lat="46.52081" lon="5.67109">
        <ele>457.4</ele>
        <time>2021-09-30T13:11:29Z</time>
      </trkpt>
      <trkpt lat="46.52084" lon="5.67105">
        <ele>455.8</ele>
        <time>2021-09-30T13:11:34Z</time>
      </trkpt>
      <trkpt lat="46.52089" lon="5.67104">
        <ele>455</ele>
        <time>2021-09-30T13:11:40Z</time>
      </trkpt>
      <trkpt lat="46.52093" lon="5.67101">
        <ele>455.4</ele>
        <time>2021-09-30T13:12:08Z</time>
      </trkpt>
      <trkpt lat="46.52098" lon="5.67101">
        <ele>456.3</ele>
        <time>2021-09-30T13:12:13Z</time>
      </trkpt>
      <trkpt lat="46.52093" lon="5.67104">
        <ele>455.5</ele>
        <time>2021-09-30T13:12:25Z</time>
      </trkpt>
      <trkpt lat="46.52088" lon="5.67104">
        <ele>455.5</ele>
        <time>2021-09-30T13:12:39Z</time>
      </trkpt>
    </trkseg>
  </trk>
</gpx>